<?xml version="1.0" encoding="UTF-8" standalone="no" ?>
<gpx xmlns="http://www.topografix.com/GPX/1/1" xmlns:xsi="http://www.w3.org/2001/XMLSchema-instance" xsi:schemaLocation="http://www.topografix.com/GPX/1/1 http://www.topografix.com/GPX/1/1/gpx.xsd" version="1.1" creator="VisuGPX - https://www.visugpx.com">
  <metadata>
    <name>Pornichet 07/01/2021</name>
    <desc><![CDATA[Sortie VTT du jeudi 07 janvier 2021]]></desc>
  </metadata>
  <trk>
    <name><![CDATA[Pornichet Cyclisme]]></name>
    <trkseg>
      <trkpt lat="47.26127" lon="-2.32648">
        <ele>5.1</ele>
        <time>2021-01-07T08:23:35.000Z</time>
      </trkpt>
      <trkpt lat="47.26149" lon="-2.32656">
        <ele>4.9</ele>
        <time>2021-01-07T08:23:39.000Z</time>
      </trkpt>
      <trkpt lat="47.26153" lon="-2.32658">
        <ele>0.60000002384186</ele>
        <time>2021-01-07T08:23:40.000Z</time>
      </trkpt>
      <trkpt lat="47.26155" lon="-2.32648">
        <ele>0.60000002384186</ele>
        <time>2021-01-07T08:23:42.000Z</time>
      </trkpt>
      <trkpt lat="47.26192" lon="-2.32673">
        <ele>0.60000002384186</ele>
        <time>2021-01-07T08:23:50.000Z</time>
      </trkpt>
      <trkpt lat="47.26221" lon="-2.32705">
        <ele>0.60000002384186</ele>
        <time>2021-01-07T08:23:57.000Z</time>
      </trkpt>
      <trkpt lat="47.26247" lon="-2.32742">
        <ele>0.60000002384186</ele>
        <time>2021-01-07T08:24:03.000Z</time>
      </trkpt>
      <trkpt lat="47.26278" lon="-2.32798">
        <ele>0.60000002384186</ele>
        <time>2021-01-07T08:24:11.000Z</time>
      </trkpt>
      <trkpt lat="47.26285" lon="-2.32823">
        <ele>0.60000002384186</ele>
        <time>2021-01-07T08:24:14.000Z</time>
      </trkpt>
      <trkpt lat="47.26288" lon="-2.3284">
        <ele>0.20000000298023</ele>
        <time>2021-01-07T08:24:16.000Z</time>
      </trkpt>
      <trkpt lat="47.26289" lon="-2.32847">
        <ele>-0.20000000298023</ele>
        <time>2021-01-07T08:24:17.000Z</time>
      </trkpt>
      <trkpt lat="47.26292" lon="-2.32854">
        <ele>-0.60000002384186</ele>
        <time>2021-01-07T08:24:18.000Z</time>
      </trkpt>
      <trkpt lat="47.26296" lon="-2.3286">
        <ele>-1</ele>
        <time>2021-01-07T08:24:19.000Z</time>
      </trkpt>
      <trkpt lat="47.263" lon="-2.32864">
        <ele>-1.6000000238419</ele>
        <time>2021-01-07T08:24:20.000Z</time>
      </trkpt>
      <trkpt lat="47.26319" lon="-2.32877">
        <ele>-1.6000000238419</ele>
        <time>2021-01-07T08:24:24.000Z</time>
      </trkpt>
      <trkpt lat="47.26326" lon="-2.32897">
        <ele>-1.6000000238419</ele>
        <time>2021-01-07T08:24:27.000Z</time>
      </trkpt>
      <trkpt lat="47.26329" lon="-2.32905">
        <ele>-1.6000000238419</ele>
        <time>2021-01-07T08:24:28.000Z</time>
      </trkpt>
      <trkpt lat="47.26348" lon="-2.32964">
        <ele>-1.6000000238419</ele>
        <time>2021-01-07T08:24:36.000Z</time>
      </trkpt>
      <trkpt lat="47.26351" lon="-2.3297">
        <ele>-1.6000000238419</ele>
        <time>2021-01-07T08:24:37.000Z</time>
      </trkpt>
      <trkpt lat="47.26355" lon="-2.32976">
        <ele>-1.6000000238419</ele>
        <time>2021-01-07T08:24:38.000Z</time>
      </trkpt>
      <trkpt lat="47.26365" lon="-2.32993">
        <ele>-1.6000000238419</ele>
        <time>2021-01-07T08:24:41.000Z</time>
      </trkpt>
      <trkpt lat="47.26366" lon="-2.33015">
        <ele>-1.6000000238419</ele>
        <time>2021-01-07T08:24:44.000Z</time>
      </trkpt>
      <trkpt lat="47.26366" lon="-2.33022">
        <ele>-1.6000000238419</ele>
        <time>2021-01-07T08:24:45.000Z</time>
      </trkpt>
      <trkpt lat="47.26369" lon="-2.33088">
        <ele>-1.6000000238419</ele>
        <time>2021-01-07T08:24:53.000Z</time>
      </trkpt>
      <trkpt lat="47.2637" lon="-2.33096">
        <ele>-1.6000000238419</ele>
        <time>2021-01-07T08:24:54.000Z</time>
      </trkpt>
      <trkpt lat="47.26372" lon="-2.33112">
        <ele>-1.6000000238419</ele>
        <time>2021-01-07T08:24:56.000Z</time>
      </trkpt>
      <trkpt lat="47.26374" lon="-2.33135">
        <ele>-1.6000000238419</ele>
        <time>2021-01-07T08:24:59.000Z</time>
      </trkpt>
      <trkpt lat="47.26377" lon="-2.33198">
        <ele>-1.6000000238419</ele>
        <time>2021-01-07T08:25:07.000Z</time>
      </trkpt>
      <trkpt lat="47.26381" lon="-2.33245">
        <ele>-1.6000000238419</ele>
        <time>2021-01-07T08:25:13.000Z</time>
      </trkpt>
      <trkpt lat="47.26383" lon="-2.33253">
        <ele>-1.6000000238419</ele>
        <time>2021-01-07T08:25:14.000Z</time>
      </trkpt>
      <trkpt lat="47.26392" lon="-2.33268">
        <ele>-1.6000000238419</ele>
        <time>2021-01-07T08:25:17.000Z</time>
      </trkpt>
      <trkpt lat="47.26408" lon="-2.33268">
        <ele>-1.6000000238419</ele>
        <time>2021-01-07T08:25:20.000Z</time>
      </trkpt>
      <trkpt lat="47.26414" lon="-2.33268">
        <ele>-1.6000000238419</ele>
        <time>2021-01-07T08:25:21.000Z</time>
      </trkpt>
      <trkpt lat="47.26454" lon="-2.33273">
        <ele>-1.6000000238419</ele>
        <time>2021-01-07T08:25:29.000Z</time>
      </trkpt>
      <trkpt lat="47.26458" lon="-2.33275">
        <ele>-1.6000000238419</ele>
        <time>2021-01-07T08:25:30.000Z</time>
      </trkpt>
      <trkpt lat="47.26473" lon="-2.33278">
        <ele>-1.6000000238419</ele>
        <time>2021-01-07T08:25:33.000Z</time>
      </trkpt>
      <trkpt lat="47.26478" lon="-2.33278">
        <ele>-1.6000000238419</ele>
        <time>2021-01-07T08:25:34.000Z</time>
      </trkpt>
      <trkpt lat="47.2649" lon="-2.33279">
        <ele>-1.6000000238419</ele>
        <time>2021-01-07T08:25:38.000Z</time>
      </trkpt>
      <trkpt lat="47.26504" lon="-2.33282">
        <ele>-1.6000000238419</ele>
        <time>2021-01-07T08:25:44.000Z</time>
      </trkpt>
      <trkpt lat="47.26518" lon="-2.3329">
        <ele>-1.6000000238419</ele>
        <time>2021-01-07T08:25:48.000Z</time>
      </trkpt>
      <trkpt lat="47.26536" lon="-2.33296">
        <ele>-1.6000000238419</ele>
        <time>2021-01-07T08:25:53.000Z</time>
      </trkpt>
      <trkpt lat="47.26538" lon="-2.33299">
        <ele>-1.6000000238419</ele>
        <time>2021-01-07T08:25:54.000Z</time>
      </trkpt>
      <trkpt lat="47.2654" lon="-2.33301">
        <ele>-1.6000000238419</ele>
        <time>2021-01-07T08:25:55.000Z</time>
      </trkpt>
      <trkpt lat="47.26545" lon="-2.33295">
        <ele>-1.6000000238419</ele>
        <time>2021-01-07T08:25:57.000Z</time>
      </trkpt>
      <trkpt lat="47.26551" lon="-2.33287">
        <ele>-1.6000000238419</ele>
        <time>2021-01-07T08:25:59.000Z</time>
      </trkpt>
      <trkpt lat="47.26564" lon="-2.33273">
        <ele>-1.6000000238419</ele>
        <time>2021-01-07T08:26:03.000Z</time>
      </trkpt>
      <trkpt lat="47.26595" lon="-2.33241">
        <ele>-1.6000000238419</ele>
        <time>2021-01-07T08:26:11.000Z</time>
      </trkpt>
      <trkpt lat="47.26619" lon="-2.33216">
        <ele>-1.6000000238419</ele>
        <time>2021-01-07T08:26:17.000Z</time>
      </trkpt>
      <trkpt lat="47.26632" lon="-2.33202">
        <ele>-1.6000000238419</ele>
        <time>2021-01-07T08:26:20.000Z</time>
      </trkpt>
      <trkpt lat="47.2666" lon="-2.33175">
        <ele>-1.6000000238419</ele>
        <time>2021-01-07T08:26:27.000Z</time>
      </trkpt>
      <trkpt lat="47.26692" lon="-2.33142">
        <ele>-1.6000000238419</ele>
        <time>2021-01-07T08:26:35.000Z</time>
      </trkpt>
      <trkpt lat="47.26721" lon="-2.33114">
        <ele>-1.6000000238419</ele>
        <time>2021-01-07T08:26:42.000Z</time>
      </trkpt>
      <trkpt lat="47.26724" lon="-2.3311">
        <ele>-1.6000000238419</ele>
        <time>2021-01-07T08:26:43.000Z</time>
      </trkpt>
      <trkpt lat="47.26732" lon="-2.33102">
        <ele>-1</ele>
        <time>2021-01-07T08:26:45.000Z</time>
      </trkpt>
      <trkpt lat="47.26735" lon="-2.33098">
        <ele>-0.60000002384186</ele>
        <time>2021-01-07T08:26:46.000Z</time>
      </trkpt>
      <trkpt lat="47.26739" lon="-2.33094">
        <ele>-0.20000000298023</ele>
        <time>2021-01-07T08:26:47.000Z</time>
      </trkpt>
      <trkpt lat="47.26743" lon="-2.3309">
        <ele>0.20000000298023</ele>
        <time>2021-01-07T08:26:48.000Z</time>
      </trkpt>
      <trkpt lat="47.26746" lon="-2.33087">
        <ele>0.60000002384186</ele>
        <time>2021-01-07T08:26:49.000Z</time>
      </trkpt>
      <trkpt lat="47.26757" lon="-2.33086">
        <ele>0.60000002384186</ele>
        <time>2021-01-07T08:26:52.000Z</time>
      </trkpt>
      <trkpt lat="47.26762" lon="-2.33092">
        <ele>0.20000000298023</ele>
        <time>2021-01-07T08:26:54.000Z</time>
      </trkpt>
      <trkpt lat="47.26763" lon="-2.33098">
        <ele>-0.20000000298023</ele>
        <time>2021-01-07T08:26:55.000Z</time>
      </trkpt>
      <trkpt lat="47.26764" lon="-2.33105">
        <ele>-0.60000002384186</ele>
        <time>2021-01-07T08:26:56.000Z</time>
      </trkpt>
      <trkpt lat="47.26764" lon="-2.33112">
        <ele>-1</ele>
        <time>2021-01-07T08:26:57.000Z</time>
      </trkpt>
      <trkpt lat="47.26765" lon="-2.3312">
        <ele>-1.3999999761581</ele>
        <time>2021-01-07T08:26:58.000Z</time>
      </trkpt>
      <trkpt lat="47.26764" lon="-2.33127">
        <ele>-1.3999999761581</ele>
        <time>2021-01-07T08:26:59.000Z</time>
      </trkpt>
      <trkpt lat="47.26763" lon="-2.33133">
        <ele>-1.3999999761581</ele>
        <time>2021-01-07T08:27:00.000Z</time>
      </trkpt>
      <trkpt lat="47.26752" lon="-2.33175">
        <ele>-1.3999999761581</ele>
        <time>2021-01-07T08:27:06.000Z</time>
      </trkpt>
      <trkpt lat="47.26736" lon="-2.33227">
        <ele>-1.3999999761581</ele>
        <time>2021-01-07T08:27:14.000Z</time>
      </trkpt>
      <trkpt lat="47.26729" lon="-2.33262">
        <ele>-1.3999999761581</ele>
        <time>2021-01-07T08:27:19.000Z</time>
      </trkpt>
      <trkpt lat="47.2673" lon="-2.33277">
        <ele>-1.3999999761581</ele>
        <time>2021-01-07T08:27:21.000Z</time>
      </trkpt>
      <trkpt lat="47.26738" lon="-2.333">
        <ele>-1.3999999761581</ele>
        <time>2021-01-07T08:27:24.000Z</time>
      </trkpt>
      <trkpt lat="47.2674" lon="-2.33307">
        <ele>-1.3999999761581</ele>
        <time>2021-01-07T08:27:25.000Z</time>
      </trkpt>
      <trkpt lat="47.26747" lon="-2.33328">
        <ele>-1.3999999761581</ele>
        <time>2021-01-07T08:27:28.000Z</time>
      </trkpt>
      <trkpt lat="47.2675" lon="-2.33347">
        <ele>-1.3999999761581</ele>
        <time>2021-01-07T08:27:31.000Z</time>
      </trkpt>
      <trkpt lat="47.26753" lon="-2.33354">
        <ele>-1.3999999761581</ele>
        <time>2021-01-07T08:27:32.000Z</time>
      </trkpt>
      <trkpt lat="47.26757" lon="-2.3337">
        <ele>-1.3999999761581</ele>
        <time>2021-01-07T08:27:34.000Z</time>
      </trkpt>
      <trkpt lat="47.26758" lon="-2.33379">
        <ele>-1.3999999761581</ele>
        <time>2021-01-07T08:27:35.000Z</time>
      </trkpt>
      <trkpt lat="47.26764" lon="-2.33433">
        <ele>-1.3999999761581</ele>
        <time>2021-01-07T08:27:42.000Z</time>
      </trkpt>
      <trkpt lat="47.2677" lon="-2.33479">
        <ele>-1.3999999761581</ele>
        <time>2021-01-07T08:27:48.000Z</time>
      </trkpt>
      <trkpt lat="47.26777" lon="-2.3352">
        <ele>-1.3999999761581</ele>
        <time>2021-01-07T08:27:54.000Z</time>
      </trkpt>
      <trkpt lat="47.26781" lon="-2.33542">
        <ele>-1.3999999761581</ele>
        <time>2021-01-07T08:27:57.000Z</time>
      </trkpt>
      <trkpt lat="47.26785" lon="-2.33562">
        <ele>-1.3999999761581</ele>
        <time>2021-01-07T08:28:00.000Z</time>
      </trkpt>
      <trkpt lat="47.26793" lon="-2.33578">
        <ele>-1.3999999761581</ele>
        <time>2021-01-07T08:28:04.000Z</time>
      </trkpt>
      <trkpt lat="47.26804" lon="-2.33581">
        <ele>-1.3999999761581</ele>
        <time>2021-01-07T08:28:08.000Z</time>
      </trkpt>
      <trkpt lat="47.26809" lon="-2.33576">
        <ele>-1.3999999761581</ele>
        <time>2021-01-07T08:28:09.000Z</time>
      </trkpt>
      <trkpt lat="47.2685" lon="-2.33549">
        <ele>-1.3999999761581</ele>
        <time>2021-01-07T08:28:16.000Z</time>
      </trkpt>
      <trkpt lat="47.26862" lon="-2.33543">
        <ele>-1</ele>
        <time>2021-01-07T08:28:18.000Z</time>
      </trkpt>
      <trkpt lat="47.26867" lon="-2.33542">
        <ele>6.1</ele>
        <time>2021-01-07T08:28:19.000Z</time>
      </trkpt>
      <trkpt lat="47.26873" lon="-2.33541">
        <ele>0.40000000596046</ele>
        <time>2021-01-07T08:28:20.000Z</time>
      </trkpt>
      <trkpt lat="47.26878" lon="-2.33541">
        <ele>0.80000001192093</ele>
        <time>2021-01-07T08:28:21.000Z</time>
      </trkpt>
      <trkpt lat="47.26883" lon="-2.33543">
        <ele>0.80000001192093</ele>
        <time>2021-01-07T08:28:22.000Z</time>
      </trkpt>
      <trkpt lat="47.26898" lon="-2.33559">
        <ele>0.80000001192093</ele>
        <time>2021-01-07T08:28:26.000Z</time>
      </trkpt>
      <trkpt lat="47.26901" lon="-2.33564">
        <ele>0.80000001192093</ele>
        <time>2021-01-07T08:28:27.000Z</time>
      </trkpt>
      <trkpt lat="47.26908" lon="-2.33582">
        <ele>1.2000000476837</ele>
        <time>2021-01-07T08:28:30.000Z</time>
      </trkpt>
      <trkpt lat="47.2691" lon="-2.33588">
        <ele>1.6000000238419</ele>
        <time>2021-01-07T08:28:31.000Z</time>
      </trkpt>
      <trkpt lat="47.26913" lon="-2.33594">
        <ele>2</ele>
        <time>2021-01-07T08:28:32.000Z</time>
      </trkpt>
      <trkpt lat="47.26915" lon="-2.336">
        <ele>2.5999999046326</ele>
        <time>2021-01-07T08:28:33.000Z</time>
      </trkpt>
      <trkpt lat="47.26917" lon="-2.33606">
        <ele>3</ele>
        <time>2021-01-07T08:28:34.000Z</time>
      </trkpt>
      <trkpt lat="47.26921" lon="-2.33618">
        <ele>3</ele>
        <time>2021-01-07T08:28:36.000Z</time>
      </trkpt>
      <trkpt lat="47.26922" lon="-2.33624">
        <ele>3</ele>
        <time>2021-01-07T08:28:37.000Z</time>
      </trkpt>
      <trkpt lat="47.26931" lon="-2.33651">
        <ele>3.4000000953674</ele>
        <time>2021-01-07T08:28:42.000Z</time>
      </trkpt>
      <trkpt lat="47.26932" lon="-2.33658">
        <ele>3.7999999523163</ele>
        <time>2021-01-07T08:28:43.000Z</time>
      </trkpt>
      <trkpt lat="47.26933" lon="-2.33664">
        <ele>4.1999998092651</ele>
        <time>2021-01-07T08:28:44.000Z</time>
      </trkpt>
      <trkpt lat="47.26935" lon="-2.3367">
        <ele>4.5999999046326</ele>
        <time>2021-01-07T08:28:45.000Z</time>
      </trkpt>
      <trkpt lat="47.26936" lon="-2.33677">
        <ele>5</ele>
        <time>2021-01-07T08:28:46.000Z</time>
      </trkpt>
      <trkpt lat="47.26942" lon="-2.33701">
        <ele>5</ele>
        <time>2021-01-07T08:28:50.000Z</time>
      </trkpt>
      <trkpt lat="47.26943" lon="-2.33708">
        <ele>5</ele>
        <time>2021-01-07T08:28:51.000Z</time>
      </trkpt>
      <trkpt lat="47.26944" lon="-2.33721">
        <ele>5</ele>
        <time>2021-01-07T08:28:53.000Z</time>
      </trkpt>
      <trkpt lat="47.26942" lon="-2.33734">
        <ele>5</ele>
        <time>2021-01-07T08:28:55.000Z</time>
      </trkpt>
      <trkpt lat="47.26939" lon="-2.33747">
        <ele>5</ele>
        <time>2021-01-07T08:28:57.000Z</time>
      </trkpt>
      <trkpt lat="47.26936" lon="-2.33761">
        <ele>5</ele>
        <time>2021-01-07T08:28:59.000Z</time>
      </trkpt>
      <trkpt lat="47.26932" lon="-2.33783">
        <ele>5</ele>
        <time>2021-01-07T08:29:02.000Z</time>
      </trkpt>
      <trkpt lat="47.26939" lon="-2.33811">
        <ele>5</ele>
        <time>2021-01-07T08:29:06.000Z</time>
      </trkpt>
      <trkpt lat="47.26954" lon="-2.33827">
        <ele>5</ele>
        <time>2021-01-07T08:29:10.000Z</time>
      </trkpt>
      <trkpt lat="47.26959" lon="-2.3383">
        <ele>5</ele>
        <time>2021-01-07T08:29:11.000Z</time>
      </trkpt>
      <trkpt lat="47.26975" lon="-2.33838">
        <ele>5</ele>
        <time>2021-01-07T08:29:15.000Z</time>
      </trkpt>
      <trkpt lat="47.26979" lon="-2.3384">
        <ele>5.4000000953674</ele>
        <time>2021-01-07T08:29:16.000Z</time>
      </trkpt>
      <trkpt lat="47.26983" lon="-2.33842">
        <ele>6</ele>
        <time>2021-01-07T08:29:17.000Z</time>
      </trkpt>
      <trkpt lat="47.26987" lon="-2.33845">
        <ele>6.4000000953674</ele>
        <time>2021-01-07T08:29:18.000Z</time>
      </trkpt>
      <trkpt lat="47.2699" lon="-2.33847">
        <ele>6.8000001907349</ele>
        <time>2021-01-07T08:29:19.000Z</time>
      </trkpt>
      <trkpt lat="47.26994" lon="-2.33849">
        <ele>7.1999998092651</ele>
        <time>2021-01-07T08:29:20.000Z</time>
      </trkpt>
      <trkpt lat="47.27001" lon="-2.33854">
        <ele>7.1999998092651</ele>
        <time>2021-01-07T08:29:22.000Z</time>
      </trkpt>
      <trkpt lat="47.27004" lon="-2.33856">
        <ele>7.5999999046326</ele>
        <time>2021-01-07T08:29:23.000Z</time>
      </trkpt>
      <trkpt lat="47.27008" lon="-2.33858">
        <ele>8</ele>
        <time>2021-01-07T08:29:24.000Z</time>
      </trkpt>
      <trkpt lat="47.27013" lon="-2.33861">
        <ele>8.3999996185303</ele>
        <time>2021-01-07T08:29:25.000Z</time>
      </trkpt>
      <trkpt lat="47.27017" lon="-2.33864">
        <ele>8.8000001907349</ele>
        <time>2021-01-07T08:29:26.000Z</time>
      </trkpt>
      <trkpt lat="47.2702" lon="-2.33867">
        <ele>9.3999996185303</ele>
        <time>2021-01-07T08:29:27.000Z</time>
      </trkpt>
      <trkpt lat="47.27034" lon="-2.33878">
        <ele>10.199999809265</ele>
        <time>2021-01-07T08:29:31.000Z</time>
      </trkpt>
      <trkpt lat="47.27037" lon="-2.3388">
        <ele>10.60000038147</ele>
        <time>2021-01-07T08:29:32.000Z</time>
      </trkpt>
      <trkpt lat="47.27041" lon="-2.33883">
        <ele>11</ele>
        <time>2021-01-07T08:29:33.000Z</time>
      </trkpt>
      <trkpt lat="47.27044" lon="-2.33886">
        <ele>11.39999961853</ele>
        <time>2021-01-07T08:29:34.000Z</time>
      </trkpt>
      <trkpt lat="47.27048" lon="-2.33889">
        <ele>11.39999961853</ele>
        <time>2021-01-07T08:29:35.000Z</time>
      </trkpt>
      <trkpt lat="47.27067" lon="-2.33907">
        <ele>11.39999961853</ele>
        <time>2021-01-07T08:29:40.000Z</time>
      </trkpt>
      <trkpt lat="47.27076" lon="-2.33917">
        <ele>11.800000190735</ele>
        <time>2021-01-07T08:29:43.000Z</time>
      </trkpt>
      <trkpt lat="47.2708" lon="-2.3392">
        <ele>12.199999809265</ele>
        <time>2021-01-07T08:29:44.000Z</time>
      </trkpt>
      <trkpt lat="47.27082" lon="-2.33922">
        <ele>12.60000038147</ele>
        <time>2021-01-07T08:29:45.000Z</time>
      </trkpt>
      <trkpt lat="47.27085" lon="-2.33925">
        <ele>13</ele>
        <time>2021-01-07T08:29:46.000Z</time>
      </trkpt>
      <trkpt lat="47.27088" lon="-2.33927">
        <ele>13.39999961853</ele>
        <time>2021-01-07T08:29:47.000Z</time>
      </trkpt>
      <trkpt lat="47.27096" lon="-2.33935">
        <ele>13.800000190735</ele>
        <time>2021-01-07T08:29:50.000Z</time>
      </trkpt>
      <trkpt lat="47.27099" lon="-2.33938">
        <ele>14.199999809265</ele>
        <time>2021-01-07T08:29:51.000Z</time>
      </trkpt>
      <trkpt lat="47.27102" lon="-2.33941">
        <ele>14.800000190735</ele>
        <time>2021-01-07T08:29:52.000Z</time>
      </trkpt>
      <trkpt lat="47.27105" lon="-2.33943">
        <ele>15.199999809265</ele>
        <time>2021-01-07T08:29:53.000Z</time>
      </trkpt>
      <trkpt lat="47.27108" lon="-2.33946">
        <ele>15.60000038147</ele>
        <time>2021-01-07T08:29:54.000Z</time>
      </trkpt>
      <trkpt lat="47.27123" lon="-2.3396">
        <ele>16</ele>
        <time>2021-01-07T08:29:59.000Z</time>
      </trkpt>
      <trkpt lat="47.27126" lon="-2.33963">
        <ele>16.39999961853</ele>
        <time>2021-01-07T08:30:00.000Z</time>
      </trkpt>
      <trkpt lat="47.27129" lon="-2.33966">
        <ele>16.799999237061</ele>
        <time>2021-01-07T08:30:01.000Z</time>
      </trkpt>
      <trkpt lat="47.27132" lon="-2.33969">
        <ele>17.200000762939</ele>
        <time>2021-01-07T08:30:02.000Z</time>
      </trkpt>
      <trkpt lat="47.27136" lon="-2.33973">
        <ele>17.60000038147</ele>
        <time>2021-01-07T08:30:03.000Z</time>
      </trkpt>
      <trkpt lat="47.27153" lon="-2.33991">
        <ele>17.60000038147</ele>
        <time>2021-01-07T08:30:08.000Z</time>
      </trkpt>
      <trkpt lat="47.27157" lon="-2.33994">
        <ele>17.60000038147</ele>
        <time>2021-01-07T08:30:09.000Z</time>
      </trkpt>
      <trkpt lat="47.27179" lon="-2.34015">
        <ele>17.60000038147</ele>
        <time>2021-01-07T08:30:15.000Z</time>
      </trkpt>
      <trkpt lat="47.27186" lon="-2.34022">
        <ele>18</ele>
        <time>2021-01-07T08:30:17.000Z</time>
      </trkpt>
      <trkpt lat="47.27189" lon="-2.34026">
        <ele>18.39999961853</ele>
        <time>2021-01-07T08:30:18.000Z</time>
      </trkpt>
      <trkpt lat="47.27192" lon="-2.34029">
        <ele>18.799999237061</ele>
        <time>2021-01-07T08:30:19.000Z</time>
      </trkpt>
      <trkpt lat="47.27196" lon="-2.34032">
        <ele>19.799999237061</ele>
        <time>2021-01-07T08:30:20.000Z</time>
      </trkpt>
      <trkpt lat="47.27203" lon="-2.34039">
        <ele>19.799999237061</ele>
        <time>2021-01-07T08:30:22.000Z</time>
      </trkpt>
      <trkpt lat="47.27206" lon="-2.34042">
        <ele>19.799999237061</ele>
        <time>2021-01-07T08:30:23.000Z</time>
      </trkpt>
      <trkpt lat="47.27217" lon="-2.34052">
        <ele>19.799999237061</ele>
        <time>2021-01-07T08:30:26.000Z</time>
      </trkpt>
      <trkpt lat="47.27229" lon="-2.34054">
        <ele>19.799999237061</ele>
        <time>2021-01-07T08:30:29.000Z</time>
      </trkpt>
      <trkpt lat="47.27237" lon="-2.34053">
        <ele>19.799999237061</ele>
        <time>2021-01-07T08:30:31.000Z</time>
      </trkpt>
      <trkpt lat="47.27253" lon="-2.3405">
        <ele>19.799999237061</ele>
        <time>2021-01-07T08:30:35.000Z</time>
      </trkpt>
      <trkpt lat="47.27261" lon="-2.34054">
        <ele>19.799999237061</ele>
        <time>2021-01-07T08:30:37.000Z</time>
      </trkpt>
      <trkpt lat="47.27273" lon="-2.34063">
        <ele>19.799999237061</ele>
        <time>2021-01-07T08:30:40.000Z</time>
      </trkpt>
      <trkpt lat="47.27276" lon="-2.34067">
        <ele>19.799999237061</ele>
        <time>2021-01-07T08:30:41.000Z</time>
      </trkpt>
      <trkpt lat="47.27281" lon="-2.34084">
        <ele>19.799999237061</ele>
        <time>2021-01-07T08:30:44.000Z</time>
      </trkpt>
      <trkpt lat="47.27282" lon="-2.3409">
        <ele>19.799999237061</ele>
        <time>2021-01-07T08:30:45.000Z</time>
      </trkpt>
      <trkpt lat="47.27284" lon="-2.34097">
        <ele>19.799999237061</ele>
        <time>2021-01-07T08:30:46.000Z</time>
      </trkpt>
      <trkpt lat="47.27287" lon="-2.34114">
        <ele>19.799999237061</ele>
        <time>2021-01-07T08:30:48.000Z</time>
      </trkpt>
      <trkpt lat="47.27288" lon="-2.3412">
        <ele>19.799999237061</ele>
        <time>2021-01-07T08:30:49.000Z</time>
      </trkpt>
      <trkpt lat="47.27299" lon="-2.34136">
        <ele>19.799999237061</ele>
        <time>2021-01-07T08:30:53.000Z</time>
      </trkpt>
      <trkpt lat="47.27332" lon="-2.34154">
        <ele>19.799999237061</ele>
        <time>2021-01-07T08:31:00.000Z</time>
      </trkpt>
      <trkpt lat="47.27365" lon="-2.34173">
        <ele>19.799999237061</ele>
        <time>2021-01-07T08:31:07.000Z</time>
      </trkpt>
      <trkpt lat="47.27369" lon="-2.34176">
        <ele>19.799999237061</ele>
        <time>2021-01-07T08:31:08.000Z</time>
      </trkpt>
      <trkpt lat="47.27382" lon="-2.34186">
        <ele>19.799999237061</ele>
        <time>2021-01-07T08:31:11.000Z</time>
      </trkpt>
      <trkpt lat="47.27394" lon="-2.34198">
        <ele>19.799999237061</ele>
        <time>2021-01-07T08:31:14.000Z</time>
      </trkpt>
      <trkpt lat="47.27396" lon="-2.34203">
        <ele>19.799999237061</ele>
        <time>2021-01-07T08:31:15.000Z</time>
      </trkpt>
      <trkpt lat="47.27402" lon="-2.34219">
        <ele>19.799999237061</ele>
        <time>2021-01-07T08:31:18.000Z</time>
      </trkpt>
      <trkpt lat="47.27404" lon="-2.34231">
        <ele>19.799999237061</ele>
        <time>2021-01-07T08:31:20.000Z</time>
      </trkpt>
      <trkpt lat="47.27406" lon="-2.3424">
        <ele>19.799999237061</ele>
        <time>2021-01-07T08:31:23.000Z</time>
      </trkpt>
      <trkpt lat="47.27408" lon="-2.34242">
        <ele>19.799999237061</ele>
        <time>2021-01-07T08:31:24.000Z</time>
      </trkpt>
      <trkpt lat="47.27414" lon="-2.3425">
        <ele>19.799999237061</ele>
        <time>2021-01-07T08:31:27.000Z</time>
      </trkpt>
      <trkpt lat="47.27415" lon="-2.34255">
        <ele>19.799999237061</ele>
        <time>2021-01-07T08:31:28.000Z</time>
      </trkpt>
      <trkpt lat="47.27417" lon="-2.34267">
        <ele>19.799999237061</ele>
        <time>2021-01-07T08:31:30.000Z</time>
      </trkpt>
      <trkpt lat="47.27418" lon="-2.34273">
        <ele>19.799999237061</ele>
        <time>2021-01-07T08:31:31.000Z</time>
      </trkpt>
      <trkpt lat="47.27418" lon="-2.34305">
        <ele>19.799999237061</ele>
        <time>2021-01-07T08:31:36.000Z</time>
      </trkpt>
      <trkpt lat="47.27419" lon="-2.34354">
        <ele>20.200000762939</ele>
        <time>2021-01-07T08:31:43.000Z</time>
      </trkpt>
      <trkpt lat="47.27419" lon="-2.34361">
        <ele>20.60000038147</ele>
        <time>2021-01-07T08:31:44.000Z</time>
      </trkpt>
      <trkpt lat="47.2742" lon="-2.34368">
        <ele>21</ele>
        <time>2021-01-07T08:31:45.000Z</time>
      </trkpt>
      <trkpt lat="47.27421" lon="-2.34376">
        <ele>21.39999961853</ele>
        <time>2021-01-07T08:31:46.000Z</time>
      </trkpt>
      <trkpt lat="47.27422" lon="-2.34382">
        <ele>21.799999237061</ele>
        <time>2021-01-07T08:31:47.000Z</time>
      </trkpt>
      <trkpt lat="47.27425" lon="-2.34403">
        <ele>21.799999237061</ele>
        <time>2021-01-07T08:31:50.000Z</time>
      </trkpt>
      <trkpt lat="47.27427" lon="-2.34431">
        <ele>21.799999237061</ele>
        <time>2021-01-07T08:31:54.000Z</time>
      </trkpt>
      <trkpt lat="47.27428" lon="-2.34446">
        <ele>21.799999237061</ele>
        <time>2021-01-07T08:31:56.000Z</time>
      </trkpt>
      <trkpt lat="47.2743" lon="-2.34483">
        <ele>21.799999237061</ele>
        <time>2021-01-07T08:32:01.000Z</time>
      </trkpt>
      <trkpt lat="47.27431" lon="-2.3449">
        <ele>21.799999237061</ele>
        <time>2021-01-07T08:32:02.000Z</time>
      </trkpt>
      <trkpt lat="47.27434" lon="-2.34504">
        <ele>22.200000762939</ele>
        <time>2021-01-07T08:32:04.000Z</time>
      </trkpt>
      <trkpt lat="47.27436" lon="-2.34511">
        <ele>22.60000038147</ele>
        <time>2021-01-07T08:32:05.000Z</time>
      </trkpt>
      <trkpt lat="47.27438" lon="-2.34518">
        <ele>23</ele>
        <time>2021-01-07T08:32:06.000Z</time>
      </trkpt>
      <trkpt lat="47.27439" lon="-2.34525">
        <ele>23.39999961853</ele>
        <time>2021-01-07T08:32:07.000Z</time>
      </trkpt>
      <trkpt lat="47.2744" lon="-2.34531">
        <ele>23.799999237061</ele>
        <time>2021-01-07T08:32:08.000Z</time>
      </trkpt>
      <trkpt lat="47.27441" lon="-2.34538">
        <ele>23.799999237061</ele>
        <time>2021-01-07T08:32:09.000Z</time>
      </trkpt>
      <trkpt lat="47.2745" lon="-2.34573">
        <ele>23.799999237061</ele>
        <time>2021-01-07T08:32:14.000Z</time>
      </trkpt>
      <trkpt lat="47.27454" lon="-2.34596">
        <ele>23.799999237061</ele>
        <time>2021-01-07T08:32:17.000Z</time>
      </trkpt>
      <trkpt lat="47.27457" lon="-2.3462">
        <ele>23.799999237061</ele>
        <time>2021-01-07T08:32:20.000Z</time>
      </trkpt>
      <trkpt lat="47.27462" lon="-2.34685">
        <ele>23.799999237061</ele>
        <time>2021-01-07T08:32:28.000Z</time>
      </trkpt>
      <trkpt lat="47.27463" lon="-2.34691">
        <ele>23.799999237061</ele>
        <time>2021-01-07T08:32:29.000Z</time>
      </trkpt>
      <trkpt lat="47.27469" lon="-2.34697">
        <ele>23.799999237061</ele>
        <time>2021-01-07T08:32:31.000Z</time>
      </trkpt>
      <trkpt lat="47.27478" lon="-2.34697">
        <ele>23.799999237061</ele>
        <time>2021-01-07T08:32:34.000Z</time>
      </trkpt>
      <trkpt lat="47.27493" lon="-2.34691">
        <ele>23.799999237061</ele>
        <time>2021-01-07T08:32:37.000Z</time>
      </trkpt>
      <trkpt lat="47.27506" lon="-2.34683">
        <ele>23.799999237061</ele>
        <time>2021-01-07T08:32:39.000Z</time>
      </trkpt>
      <trkpt lat="47.27512" lon="-2.34681">
        <ele>23.799999237061</ele>
        <time>2021-01-07T08:32:40.000Z</time>
      </trkpt>
      <trkpt lat="47.2754" lon="-2.34676">
        <ele>23.799999237061</ele>
        <time>2021-01-07T08:32:45.000Z</time>
      </trkpt>
      <trkpt lat="47.27578" lon="-2.34656">
        <ele>23.799999237061</ele>
        <time>2021-01-07T08:32:52.000Z</time>
      </trkpt>
      <trkpt lat="47.27583" lon="-2.34651">
        <ele>23.799999237061</ele>
        <time>2021-01-07T08:32:53.000Z</time>
      </trkpt>
      <trkpt lat="47.27603" lon="-2.34629">
        <ele>23.799999237061</ele>
        <time>2021-01-07T08:32:57.000Z</time>
      </trkpt>
      <trkpt lat="47.27649" lon="-2.34583">
        <ele>23.799999237061</ele>
        <time>2021-01-07T08:33:06.000Z</time>
      </trkpt>
      <trkpt lat="47.27674" lon="-2.34563">
        <ele>23.799999237061</ele>
        <time>2021-01-07T08:33:12.000Z</time>
      </trkpt>
      <trkpt lat="47.2768" lon="-2.34567">
        <ele>23.39999961853</ele>
        <time>2021-01-07T08:33:15.000Z</time>
      </trkpt>
      <trkpt lat="47.2768" lon="-2.34569">
        <ele>23</ele>
        <time>2021-01-07T08:33:16.000Z</time>
      </trkpt>
      <trkpt lat="47.27681" lon="-2.34571">
        <ele>22.60000038147</ele>
        <time>2021-01-07T08:33:17.000Z</time>
      </trkpt>
      <trkpt lat="47.27682" lon="-2.34573">
        <ele>22.200000762939</ele>
        <time>2021-01-07T08:33:18.000Z</time>
      </trkpt>
      <trkpt lat="47.27683" lon="-2.34575">
        <ele>21.799999237061</ele>
        <time>2021-01-07T08:33:19.000Z</time>
      </trkpt>
      <trkpt lat="47.27686" lon="-2.34582">
        <ele>21.799999237061</ele>
        <time>2021-01-07T08:33:21.000Z</time>
      </trkpt>
      <trkpt lat="47.2769" lon="-2.34594">
        <ele>21.799999237061</ele>
        <time>2021-01-07T08:33:23.000Z</time>
      </trkpt>
      <trkpt lat="47.27692" lon="-2.34608">
        <ele>21.799999237061</ele>
        <time>2021-01-07T08:33:25.000Z</time>
      </trkpt>
      <trkpt lat="47.27694" lon="-2.34623">
        <ele>21.799999237061</ele>
        <time>2021-01-07T08:33:27.000Z</time>
      </trkpt>
      <trkpt lat="47.27695" lon="-2.34646">
        <ele>21.799999237061</ele>
        <time>2021-01-07T08:33:30.000Z</time>
      </trkpt>
      <trkpt lat="47.27698" lon="-2.34674">
        <ele>21.799999237061</ele>
        <time>2021-01-07T08:33:35.000Z</time>
      </trkpt>
      <trkpt lat="47.27704" lon="-2.34697">
        <ele>21.799999237061</ele>
        <time>2021-01-07T08:33:40.000Z</time>
      </trkpt>
      <trkpt lat="47.27707" lon="-2.34703">
        <ele>21.799999237061</ele>
        <time>2021-01-07T08:33:41.000Z</time>
      </trkpt>
      <trkpt lat="47.27723" lon="-2.34748">
        <ele>21.799999237061</ele>
        <time>2021-01-07T08:33:47.000Z</time>
      </trkpt>
      <trkpt lat="47.27747" lon="-2.34794">
        <ele>21.799999237061</ele>
        <time>2021-01-07T08:33:53.000Z</time>
      </trkpt>
      <trkpt lat="47.2777" lon="-2.3484">
        <ele>21.799999237061</ele>
        <time>2021-01-07T08:33:59.000Z</time>
      </trkpt>
      <trkpt lat="47.27787" lon="-2.34871">
        <ele>21.39999961853</ele>
        <time>2021-01-07T08:34:04.000Z</time>
      </trkpt>
      <trkpt lat="47.2779" lon="-2.34874">
        <ele>21</ele>
        <time>2021-01-07T08:34:05.000Z</time>
      </trkpt>
      <trkpt lat="47.27792" lon="-2.34879">
        <ele>20.60000038147</ele>
        <time>2021-01-07T08:34:06.000Z</time>
      </trkpt>
      <trkpt lat="47.27793" lon="-2.34885">
        <ele>20.200000762939</ele>
        <time>2021-01-07T08:34:07.000Z</time>
      </trkpt>
      <trkpt lat="47.27792" lon="-2.34892">
        <ele>19.799999237061</ele>
        <time>2021-01-07T08:34:08.000Z</time>
      </trkpt>
      <trkpt lat="47.27786" lon="-2.34923">
        <ele>19.799999237061</ele>
        <time>2021-01-07T08:34:12.000Z</time>
      </trkpt>
      <trkpt lat="47.27775" lon="-2.3498">
        <ele>19.799999237061</ele>
        <time>2021-01-07T08:34:18.000Z</time>
      </trkpt>
      <trkpt lat="47.27766" lon="-2.35043">
        <ele>19.799999237061</ele>
        <time>2021-01-07T08:34:24.000Z</time>
      </trkpt>
      <trkpt lat="47.27766" lon="-2.35055">
        <ele>19.200000762939</ele>
        <time>2021-01-07T08:34:25.000Z</time>
      </trkpt>
      <trkpt lat="47.27767" lon="-2.35067">
        <ele>18.799999237061</ele>
        <time>2021-01-07T08:34:26.000Z</time>
      </trkpt>
      <trkpt lat="47.27767" lon="-2.35078">
        <ele>18.39999961853</ele>
        <time>2021-01-07T08:34:27.000Z</time>
      </trkpt>
      <trkpt lat="47.27768" lon="-2.3509">
        <ele>17.60000038147</ele>
        <time>2021-01-07T08:34:28.000Z</time>
      </trkpt>
      <trkpt lat="47.27774" lon="-2.35171">
        <ele>17.60000038147</ele>
        <time>2021-01-07T08:34:35.000Z</time>
      </trkpt>
      <trkpt lat="47.27775" lon="-2.35182">
        <ele>17.200000762939</ele>
        <time>2021-01-07T08:34:36.000Z</time>
      </trkpt>
      <trkpt lat="47.27775" lon="-2.35194">
        <ele>16.60000038147</ele>
        <time>2021-01-07T08:34:37.000Z</time>
      </trkpt>
      <trkpt lat="47.27776" lon="-2.35205">
        <ele>16.200000762939</ele>
        <time>2021-01-07T08:34:38.000Z</time>
      </trkpt>
      <trkpt lat="47.27777" lon="-2.35216">
        <ele>15.800000190735</ele>
        <time>2021-01-07T08:34:39.000Z</time>
      </trkpt>
      <trkpt lat="47.27778" lon="-2.35227">
        <ele>15.39999961853</ele>
        <time>2021-01-07T08:34:40.000Z</time>
      </trkpt>
      <trkpt lat="47.2778" lon="-2.35249">
        <ele>15.39999961853</ele>
        <time>2021-01-07T08:34:42.000Z</time>
      </trkpt>
      <trkpt lat="47.27793" lon="-2.35311">
        <ele>15.39999961853</ele>
        <time>2021-01-07T08:34:48.000Z</time>
      </trkpt>
      <trkpt lat="47.27807" lon="-2.3536">
        <ele>15.39999961853</ele>
        <time>2021-01-07T08:34:53.000Z</time>
      </trkpt>
      <trkpt lat="47.27811" lon="-2.35367">
        <ele>15.39999961853</ele>
        <time>2021-01-07T08:34:54.000Z</time>
      </trkpt>
      <trkpt lat="47.27823" lon="-2.3537">
        <ele>15.39999961853</ele>
        <time>2021-01-07T08:34:56.000Z</time>
      </trkpt>
      <trkpt lat="47.27835" lon="-2.35367">
        <ele>15.39999961853</ele>
        <time>2021-01-07T08:34:58.000Z</time>
      </trkpt>
      <trkpt lat="47.27853" lon="-2.35364">
        <ele>15.39999961853</ele>
        <time>2021-01-07T08:35:01.000Z</time>
      </trkpt>
      <trkpt lat="47.27874" lon="-2.35366">
        <ele>15.39999961853</ele>
        <time>2021-01-07T08:35:05.000Z</time>
      </trkpt>
      <trkpt lat="47.27883" lon="-2.35373">
        <ele>15.39999961853</ele>
        <time>2021-01-07T08:35:07.000Z</time>
      </trkpt>
      <trkpt lat="47.27891" lon="-2.35383">
        <ele>15.39999961853</ele>
        <time>2021-01-07T08:35:09.000Z</time>
      </trkpt>
      <trkpt lat="47.27908" lon="-2.35405">
        <ele>15.39999961853</ele>
        <time>2021-01-07T08:35:13.000Z</time>
      </trkpt>
      <trkpt lat="47.27944" lon="-2.3545">
        <ele>15.39999961853</ele>
        <time>2021-01-07T08:35:21.000Z</time>
      </trkpt>
      <trkpt lat="47.2796" lon="-2.35461">
        <ele>15.39999961853</ele>
        <time>2021-01-07T08:35:24.000Z</time>
      </trkpt>
      <trkpt lat="47.27971" lon="-2.35468">
        <ele>15.39999961853</ele>
        <time>2021-01-07T08:35:26.000Z</time>
      </trkpt>
      <trkpt lat="47.27988" lon="-2.35493">
        <ele>15.39999961853</ele>
        <time>2021-01-07T08:35:30.000Z</time>
      </trkpt>
      <trkpt lat="47.28001" lon="-2.35527">
        <ele>15.39999961853</ele>
        <time>2021-01-07T08:35:35.000Z</time>
      </trkpt>
      <trkpt lat="47.28002" lon="-2.35533">
        <ele>15.39999961853</ele>
        <time>2021-01-07T08:35:36.000Z</time>
      </trkpt>
      <trkpt lat="47.2801" lon="-2.35559">
        <ele>15.39999961853</ele>
        <time>2021-01-07T08:35:41.000Z</time>
      </trkpt>
      <trkpt lat="47.28011" lon="-2.35564">
        <ele>15.800000190735</ele>
        <time>2021-01-07T08:35:42.000Z</time>
      </trkpt>
      <trkpt lat="47.28013" lon="-2.35568">
        <ele>16.200000762939</ele>
        <time>2021-01-07T08:35:43.000Z</time>
      </trkpt>
      <trkpt lat="47.28015" lon="-2.35572">
        <ele>16.60000038147</ele>
        <time>2021-01-07T08:35:44.000Z</time>
      </trkpt>
      <trkpt lat="47.28016" lon="-2.35579">
        <ele>17</ele>
        <time>2021-01-07T08:35:45.000Z</time>
      </trkpt>
      <trkpt lat="47.28018" lon="-2.35582">
        <ele>17.39999961853</ele>
        <time>2021-01-07T08:35:46.000Z</time>
      </trkpt>
      <trkpt lat="47.28029" lon="-2.35585">
        <ele>17.39999961853</ele>
        <time>2021-01-07T08:35:49.000Z</time>
      </trkpt>
      <trkpt lat="47.28052" lon="-2.35587">
        <ele>17.39999961853</ele>
        <time>2021-01-07T08:35:55.000Z</time>
      </trkpt>
      <trkpt lat="47.28063" lon="-2.3559">
        <ele>17.799999237061</ele>
        <time>2021-01-07T08:35:58.000Z</time>
      </trkpt>
      <trkpt lat="47.28065" lon="-2.35591">
        <ele>18.200000762939</ele>
        <time>2021-01-07T08:35:59.000Z</time>
      </trkpt>
      <trkpt lat="47.28068" lon="-2.35594">
        <ele>18.60000038147</ele>
        <time>2021-01-07T08:36:00.000Z</time>
      </trkpt>
      <trkpt lat="47.2807" lon="-2.35597">
        <ele>19</ele>
        <time>2021-01-07T08:36:01.000Z</time>
      </trkpt>
      <trkpt lat="47.28072" lon="-2.35601">
        <ele>19.39999961853</ele>
        <time>2021-01-07T08:36:02.000Z</time>
      </trkpt>
      <trkpt lat="47.28083" lon="-2.3562">
        <ele>19.39999961853</ele>
        <time>2021-01-07T08:36:08.000Z</time>
      </trkpt>
      <trkpt lat="47.28087" lon="-2.35627">
        <ele>19.39999961853</ele>
        <time>2021-01-07T08:36:14.000Z</time>
      </trkpt>
      <trkpt lat="47.28088" lon="-2.35627">
        <ele>19.39999961853</ele>
        <time>2021-01-07T08:36:15.000Z</time>
      </trkpt>
      <trkpt lat="47.28084" lon="-2.35621">
        <ele>21.39999961853</ele>
        <time>2021-01-07T08:42:15.000Z</time>
      </trkpt>
      <trkpt lat="47.2808" lon="-2.35617">
        <ele>21.39999961853</ele>
        <time>2021-01-07T08:42:17.000Z</time>
      </trkpt>
      <trkpt lat="47.28075" lon="-2.35622">
        <ele>21.39999961853</ele>
        <time>2021-01-07T08:42:20.000Z</time>
      </trkpt>
      <trkpt lat="47.28078" lon="-2.35637">
        <ele>21.799999237061</ele>
        <time>2021-01-07T08:42:24.000Z</time>
      </trkpt>
      <trkpt lat="47.28078" lon="-2.3564">
        <ele>22.200000762939</ele>
        <time>2021-01-07T08:42:25.000Z</time>
      </trkpt>
      <trkpt lat="47.28079" lon="-2.35643">
        <ele>22.799999237061</ele>
        <time>2021-01-07T08:42:26.000Z</time>
      </trkpt>
      <trkpt lat="47.2808" lon="-2.35646">
        <ele>23.200000762939</ele>
        <time>2021-01-07T08:42:27.000Z</time>
      </trkpt>
      <trkpt lat="47.28081" lon="-2.35649">
        <ele>23.60000038147</ele>
        <time>2021-01-07T08:42:28.000Z</time>
      </trkpt>
      <trkpt lat="47.28083" lon="-2.35655">
        <ele>24.200000762939</ele>
        <time>2021-01-07T08:42:30.000Z</time>
      </trkpt>
      <trkpt lat="47.28084" lon="-2.35659">
        <ele>24.60000038147</ele>
        <time>2021-01-07T08:42:31.000Z</time>
      </trkpt>
      <trkpt lat="47.28084" lon="-2.35662">
        <ele>25</ele>
        <time>2021-01-07T08:42:32.000Z</time>
      </trkpt>
      <trkpt lat="47.28086" lon="-2.35666">
        <ele>25.60000038147</ele>
        <time>2021-01-07T08:42:33.000Z</time>
      </trkpt>
      <trkpt lat="47.28087" lon="-2.3567">
        <ele>26</ele>
        <time>2021-01-07T08:42:34.000Z</time>
      </trkpt>
      <trkpt lat="47.28088" lon="-2.35677">
        <ele>26</ele>
        <time>2021-01-07T08:42:36.000Z</time>
      </trkpt>
      <trkpt lat="47.28089" lon="-2.3568">
        <ele>26.39999961853</ele>
        <time>2021-01-07T08:42:37.000Z</time>
      </trkpt>
      <trkpt lat="47.2809" lon="-2.35684">
        <ele>26.799999237061</ele>
        <time>2021-01-07T08:42:38.000Z</time>
      </trkpt>
      <trkpt lat="47.28092" lon="-2.35688">
        <ele>27.200000762939</ele>
        <time>2021-01-07T08:42:39.000Z</time>
      </trkpt>
      <trkpt lat="47.28092" lon="-2.35691">
        <ele>27.60000038147</ele>
        <time>2021-01-07T08:42:40.000Z</time>
      </trkpt>
      <trkpt lat="47.28093" lon="-2.35694">
        <ele>28</ele>
        <time>2021-01-07T08:42:41.000Z</time>
      </trkpt>
      <trkpt lat="47.28094" lon="-2.35697">
        <ele>28</ele>
        <time>2021-01-07T08:42:42.000Z</time>
      </trkpt>
      <trkpt lat="47.28093" lon="-2.35725">
        <ele>28</ele>
        <time>2021-01-07T08:42:49.000Z</time>
      </trkpt>
      <trkpt lat="47.28087" lon="-2.35745">
        <ele>28</ele>
        <time>2021-01-07T08:42:53.000Z</time>
      </trkpt>
      <trkpt lat="47.28087" lon="-2.35753">
        <ele>28</ele>
        <time>2021-01-07T08:42:54.000Z</time>
      </trkpt>
      <trkpt lat="47.28084" lon="-2.35776">
        <ele>28</ele>
        <time>2021-01-07T08:42:58.000Z</time>
      </trkpt>
      <trkpt lat="47.28079" lon="-2.35797">
        <ele>28</ele>
        <time>2021-01-07T08:43:03.000Z</time>
      </trkpt>
      <trkpt lat="47.2808" lon="-2.35802">
        <ele>27.60000038147</ele>
        <time>2021-01-07T08:43:04.000Z</time>
      </trkpt>
      <trkpt lat="47.28082" lon="-2.35806">
        <ele>27.200000762939</ele>
        <time>2021-01-07T08:43:05.000Z</time>
      </trkpt>
      <trkpt lat="47.28084" lon="-2.3581">
        <ele>26.60000038147</ele>
        <time>2021-01-07T08:43:06.000Z</time>
      </trkpt>
      <trkpt lat="47.28087" lon="-2.35815">
        <ele>25.799999237061</ele>
        <time>2021-01-07T08:43:07.000Z</time>
      </trkpt>
      <trkpt lat="47.2809" lon="-2.35819">
        <ele>25.799999237061</ele>
        <time>2021-01-07T08:43:08.000Z</time>
      </trkpt>
      <trkpt lat="47.28103" lon="-2.35836">
        <ele>25.799999237061</ele>
        <time>2021-01-07T08:43:13.000Z</time>
      </trkpt>
      <trkpt lat="47.28114" lon="-2.3585">
        <ele>25.799999237061</ele>
        <time>2021-01-07T08:43:18.000Z</time>
      </trkpt>
      <trkpt lat="47.28116" lon="-2.35855">
        <ele>25.799999237061</ele>
        <time>2021-01-07T08:43:19.000Z</time>
      </trkpt>
      <trkpt lat="47.28123" lon="-2.3587">
        <ele>25.799999237061</ele>
        <time>2021-01-07T08:43:23.000Z</time>
      </trkpt>
      <trkpt lat="47.28135" lon="-2.35886">
        <ele>25.799999237061</ele>
        <time>2021-01-07T08:43:29.000Z</time>
      </trkpt>
      <trkpt lat="47.28151" lon="-2.35908">
        <ele>25.799999237061</ele>
        <time>2021-01-07T08:43:36.000Z</time>
      </trkpt>
      <trkpt lat="47.28162" lon="-2.35929">
        <ele>25.799999237061</ele>
        <time>2021-01-07T08:43:42.000Z</time>
      </trkpt>
      <trkpt lat="47.2817" lon="-2.3594">
        <ele>25.39999961853</ele>
        <time>2021-01-07T08:43:45.000Z</time>
      </trkpt>
      <trkpt lat="47.28172" lon="-2.3594">
        <ele>25</ele>
        <time>2021-01-07T08:43:46.000Z</time>
      </trkpt>
      <trkpt lat="47.28174" lon="-2.35939">
        <ele>24.60000038147</ele>
        <time>2021-01-07T08:43:47.000Z</time>
      </trkpt>
      <trkpt lat="47.28175" lon="-2.35939">
        <ele>24</ele>
        <time>2021-01-07T08:43:48.000Z</time>
      </trkpt>
      <trkpt lat="47.28178" lon="-2.35938">
        <ele>23.60000038147</ele>
        <time>2021-01-07T08:43:49.000Z</time>
      </trkpt>
      <trkpt lat="47.28184" lon="-2.35931">
        <ele>23.60000038147</ele>
        <time>2021-01-07T08:43:52.000Z</time>
      </trkpt>
      <trkpt lat="47.2819" lon="-2.35921">
        <ele>23.60000038147</ele>
        <time>2021-01-07T08:43:55.000Z</time>
      </trkpt>
      <trkpt lat="47.28192" lon="-2.35918">
        <ele>23.60000038147</ele>
        <time>2021-01-07T08:43:56.000Z</time>
      </trkpt>
      <trkpt lat="47.282" lon="-2.35899">
        <ele>23.60000038147</ele>
        <time>2021-01-07T08:44:02.000Z</time>
      </trkpt>
      <trkpt lat="47.28201" lon="-2.35898">
        <ele>23.60000038147</ele>
        <time>2021-01-07T08:44:03.000Z</time>
      </trkpt>
      <trkpt lat="47.28204" lon="-2.35897">
        <ele>24</ele>
        <time>2021-01-07T08:44:04.000Z</time>
      </trkpt>
      <trkpt lat="47.28205" lon="-2.35898">
        <ele>24.60000038147</ele>
        <time>2021-01-07T08:44:05.000Z</time>
      </trkpt>
      <trkpt lat="47.28207" lon="-2.35899">
        <ele>25</ele>
        <time>2021-01-07T08:44:06.000Z</time>
      </trkpt>
      <trkpt lat="47.28213" lon="-2.35901">
        <ele>25.39999961853</ele>
        <time>2021-01-07T08:44:07.000Z</time>
      </trkpt>
      <trkpt lat="47.28215" lon="-2.35902">
        <ele>25.799999237061</ele>
        <time>2021-01-07T08:44:08.000Z</time>
      </trkpt>
      <trkpt lat="47.28221" lon="-2.35904">
        <ele>25.799999237061</ele>
        <time>2021-01-07T08:44:10.000Z</time>
      </trkpt>
      <trkpt lat="47.28225" lon="-2.35905">
        <ele>25.799999237061</ele>
        <time>2021-01-07T08:44:11.000Z</time>
      </trkpt>
      <trkpt lat="47.28232" lon="-2.35901">
        <ele>25.799999237061</ele>
        <time>2021-01-07T08:44:14.000Z</time>
      </trkpt>
      <trkpt lat="47.28246" lon="-2.359">
        <ele>25.799999237061</ele>
        <time>2021-01-07T08:44:20.000Z</time>
      </trkpt>
      <trkpt lat="47.28247" lon="-2.35901">
        <ele>25.799999237061</ele>
        <time>2021-01-07T08:44:21.000Z</time>
      </trkpt>
      <trkpt lat="47.28254" lon="-2.35895">
        <ele>25.799999237061</ele>
        <time>2021-01-07T08:44:25.000Z</time>
      </trkpt>
      <trkpt lat="47.28257" lon="-2.35891">
        <ele>25.799999237061</ele>
        <time>2021-01-07T08:44:26.000Z</time>
      </trkpt>
      <trkpt lat="47.28264" lon="-2.35882">
        <ele>25.799999237061</ele>
        <time>2021-01-07T08:44:29.000Z</time>
      </trkpt>
      <trkpt lat="47.28266" lon="-2.3588">
        <ele>25.799999237061</ele>
        <time>2021-01-07T08:44:30.000Z</time>
      </trkpt>
      <trkpt lat="47.28274" lon="-2.35873">
        <ele>26.200000762939</ele>
        <time>2021-01-07T08:44:33.000Z</time>
      </trkpt>
      <trkpt lat="47.28278" lon="-2.3587">
        <ele>26.60000038147</ele>
        <time>2021-01-07T08:44:34.000Z</time>
      </trkpt>
      <trkpt lat="47.28281" lon="-2.35867">
        <ele>27</ele>
        <time>2021-01-07T08:44:35.000Z</time>
      </trkpt>
      <trkpt lat="47.28284" lon="-2.35865">
        <ele>27.39999961853</ele>
        <time>2021-01-07T08:44:36.000Z</time>
      </trkpt>
      <trkpt lat="47.28287" lon="-2.35862">
        <ele>27.799999237061</ele>
        <time>2021-01-07T08:44:37.000Z</time>
      </trkpt>
      <trkpt lat="47.28306" lon="-2.35847">
        <ele>27.799999237061</ele>
        <time>2021-01-07T08:44:44.000Z</time>
      </trkpt>
      <trkpt lat="47.28314" lon="-2.3584">
        <ele>28.200000762939</ele>
        <time>2021-01-07T08:44:49.000Z</time>
      </trkpt>
      <trkpt lat="47.28316" lon="-2.35839">
        <ele>28.60000038147</ele>
        <time>2021-01-07T08:44:50.000Z</time>
      </trkpt>
      <trkpt lat="47.28318" lon="-2.35837">
        <ele>29</ele>
        <time>2021-01-07T08:44:51.000Z</time>
      </trkpt>
      <trkpt lat="47.28319" lon="-2.35835">
        <ele>29.39999961853</ele>
        <time>2021-01-07T08:44:52.000Z</time>
      </trkpt>
      <trkpt lat="47.28321" lon="-2.35832">
        <ele>29.799999237061</ele>
        <time>2021-01-07T08:44:53.000Z</time>
      </trkpt>
      <trkpt lat="47.28325" lon="-2.35826">
        <ele>29.799999237061</ele>
        <time>2021-01-07T08:44:55.000Z</time>
      </trkpt>
      <trkpt lat="47.28346" lon="-2.35804">
        <ele>29.799999237061</ele>
        <time>2021-01-07T08:45:04.000Z</time>
      </trkpt>
      <trkpt lat="47.28361" lon="-2.35791">
        <ele>29.799999237061</ele>
        <time>2021-01-07T08:45:10.000Z</time>
      </trkpt>
      <trkpt lat="47.28373" lon="-2.35792">
        <ele>29.799999237061</ele>
        <time>2021-01-07T08:45:16.000Z</time>
      </trkpt>
      <trkpt lat="47.28388" lon="-2.35805">
        <ele>29.799999237061</ele>
        <time>2021-01-07T08:45:22.000Z</time>
      </trkpt>
      <trkpt lat="47.2841" lon="-2.35824">
        <ele>29.799999237061</ele>
        <time>2021-01-07T08:45:29.000Z</time>
      </trkpt>
      <trkpt lat="47.28426" lon="-2.35849">
        <ele>29.799999237061</ele>
        <time>2021-01-07T08:45:36.000Z</time>
      </trkpt>
      <trkpt lat="47.28441" lon="-2.35876">
        <ele>29.799999237061</ele>
        <time>2021-01-07T08:45:44.000Z</time>
      </trkpt>
      <trkpt lat="47.28462" lon="-2.35887">
        <ele>29.799999237061</ele>
        <time>2021-01-07T08:45:51.000Z</time>
      </trkpt>
      <trkpt lat="47.28464" lon="-2.35889">
        <ele>30.39999961853</ele>
        <time>2021-01-07T08:45:52.000Z</time>
      </trkpt>
      <trkpt lat="47.28467" lon="-2.35892">
        <ele>30.799999237061</ele>
        <time>2021-01-07T08:45:53.000Z</time>
      </trkpt>
      <trkpt lat="47.28469" lon="-2.35895">
        <ele>31.200000762939</ele>
        <time>2021-01-07T08:45:54.000Z</time>
      </trkpt>
      <trkpt lat="47.2847" lon="-2.35898">
        <ele>31.60000038147</ele>
        <time>2021-01-07T08:45:55.000Z</time>
      </trkpt>
      <trkpt lat="47.28471" lon="-2.359">
        <ele>32</ele>
        <time>2021-01-07T08:45:56.000Z</time>
      </trkpt>
      <trkpt lat="47.28471" lon="-2.35902">
        <ele>32</ele>
        <time>2021-01-07T08:45:57.000Z</time>
      </trkpt>
      <trkpt lat="47.28472" lon="-2.35909">
        <ele>32.400001525879</ele>
        <time>2021-01-07T08:45:59.000Z</time>
      </trkpt>
      <trkpt lat="47.28471" lon="-2.35912">
        <ele>32.799999237061</ele>
        <time>2021-01-07T08:46:00.000Z</time>
      </trkpt>
      <trkpt lat="47.28471" lon="-2.35915">
        <ele>33.200000762939</ele>
        <time>2021-01-07T08:46:01.000Z</time>
      </trkpt>
      <trkpt lat="47.28471" lon="-2.35919">
        <ele>33.599998474121</ele>
        <time>2021-01-07T08:46:02.000Z</time>
      </trkpt>
      <trkpt lat="47.2847" lon="-2.35922">
        <ele>34</ele>
        <time>2021-01-07T08:46:03.000Z</time>
      </trkpt>
      <trkpt lat="47.2847" lon="-2.35924">
        <ele>34</ele>
        <time>2021-01-07T08:46:04.000Z</time>
      </trkpt>
      <trkpt lat="47.28468" lon="-2.35928">
        <ele>34.400001525879</ele>
        <time>2021-01-07T08:46:06.000Z</time>
      </trkpt>
      <trkpt lat="47.28467" lon="-2.35931">
        <ele>35</ele>
        <time>2021-01-07T08:46:07.000Z</time>
      </trkpt>
      <trkpt lat="47.28467" lon="-2.35933">
        <ele>35.400001525879</ele>
        <time>2021-01-07T08:46:08.000Z</time>
      </trkpt>
      <trkpt lat="47.28466" lon="-2.35935">
        <ele>35.799999237061</ele>
        <time>2021-01-07T08:46:09.000Z</time>
      </trkpt>
      <trkpt lat="47.28465" lon="-2.35937">
        <ele>36.400001525879</ele>
        <time>2021-01-07T08:46:10.000Z</time>
      </trkpt>
      <trkpt lat="47.28462" lon="-2.35945">
        <ele>36.400001525879</ele>
        <time>2021-01-07T08:46:13.000Z</time>
      </trkpt>
      <trkpt lat="47.28461" lon="-2.35949">
        <ele>36.799999237061</ele>
        <time>2021-01-07T08:46:15.000Z</time>
      </trkpt>
      <trkpt lat="47.2846" lon="-2.35952">
        <ele>37.200000762939</ele>
        <time>2021-01-07T08:46:16.000Z</time>
      </trkpt>
      <trkpt lat="47.28459" lon="-2.35954">
        <ele>37.599998474121</ele>
        <time>2021-01-07T08:46:17.000Z</time>
      </trkpt>
      <trkpt lat="47.28458" lon="-2.35956">
        <ele>38</ele>
        <time>2021-01-07T08:46:18.000Z</time>
      </trkpt>
      <trkpt lat="47.28457" lon="-2.35958">
        <ele>38.400001525879</ele>
        <time>2021-01-07T08:46:19.000Z</time>
      </trkpt>
      <trkpt lat="47.28455" lon="-2.35969">
        <ele>39.200000762939</ele>
        <time>2021-01-07T08:46:23.000Z</time>
      </trkpt>
      <trkpt lat="47.28455" lon="-2.35974">
        <ele>40</ele>
        <time>2021-01-07T08:46:25.000Z</time>
      </trkpt>
      <trkpt lat="47.28455" lon="-2.35977">
        <ele>40.400001525879</ele>
        <time>2021-01-07T08:46:26.000Z</time>
      </trkpt>
      <trkpt lat="47.28454" lon="-2.35992">
        <ele>40.400001525879</ele>
        <time>2021-01-07T08:46:32.000Z</time>
      </trkpt>
      <trkpt lat="47.28453" lon="-2.35999">
        <ele>40.400001525879</ele>
        <time>2021-01-07T08:46:36.000Z</time>
      </trkpt>
      <trkpt lat="47.28451" lon="-2.36">
        <ele>40.400001525879</ele>
        <time>2021-01-07T08:46:38.000Z</time>
      </trkpt>
      <trkpt lat="47.28452" lon="-2.35996">
        <ele>42.400001525879</ele>
        <time>2021-01-07T08:46:45.000Z</time>
      </trkpt>
      <trkpt lat="47.28453" lon="-2.35997">
        <ele>42.400001525879</ele>
        <time>2021-01-07T08:46:47.000Z</time>
      </trkpt>
      <trkpt lat="47.28455" lon="-2.35998">
        <ele>42.400001525879</ele>
        <time>2021-01-07T08:47:53.000Z</time>
      </trkpt>
      <trkpt lat="47.28457" lon="-2.36002">
        <ele>42.400001525879</ele>
        <time>2021-01-07T08:47:56.000Z</time>
      </trkpt>
      <trkpt lat="47.28459" lon="-2.36007">
        <ele>42.400001525879</ele>
        <time>2021-01-07T08:47:58.000Z</time>
      </trkpt>
      <trkpt lat="47.28468" lon="-2.36022">
        <ele>42.400001525879</ele>
        <time>2021-01-07T08:48:02.000Z</time>
      </trkpt>
      <trkpt lat="47.28473" lon="-2.36027">
        <ele>42.400001525879</ele>
        <time>2021-01-07T08:48:04.000Z</time>
      </trkpt>
      <trkpt lat="47.28479" lon="-2.36028">
        <ele>42.400001525879</ele>
        <time>2021-01-07T08:48:06.000Z</time>
      </trkpt>
      <trkpt lat="47.285" lon="-2.36041">
        <ele>42.400001525879</ele>
        <time>2021-01-07T08:48:13.000Z</time>
      </trkpt>
      <trkpt lat="47.28513" lon="-2.36059">
        <ele>42.400001525879</ele>
        <time>2021-01-07T08:48:19.000Z</time>
      </trkpt>
      <trkpt lat="47.28528" lon="-2.36079">
        <ele>42.400001525879</ele>
        <time>2021-01-07T08:48:25.000Z</time>
      </trkpt>
      <trkpt lat="47.2854" lon="-2.36104">
        <ele>42.400001525879</ele>
        <time>2021-01-07T08:48:30.000Z</time>
      </trkpt>
      <trkpt lat="47.28549" lon="-2.36147">
        <ele>42.400001525879</ele>
        <time>2021-01-07T08:48:36.000Z</time>
      </trkpt>
      <trkpt lat="47.28553" lon="-2.36153">
        <ele>42.400001525879</ele>
        <time>2021-01-07T08:48:38.000Z</time>
      </trkpt>
      <trkpt lat="47.28555" lon="-2.36153">
        <ele>42.400001525879</ele>
        <time>2021-01-07T08:48:39.000Z</time>
      </trkpt>
      <trkpt lat="47.28562" lon="-2.36149">
        <ele>42.400001525879</ele>
        <time>2021-01-07T08:48:42.000Z</time>
      </trkpt>
      <trkpt lat="47.28566" lon="-2.36146">
        <ele>42.400001525879</ele>
        <time>2021-01-07T08:48:44.000Z</time>
      </trkpt>
      <trkpt lat="47.28573" lon="-2.36142">
        <ele>42.799999237061</ele>
        <time>2021-01-07T08:48:48.000Z</time>
      </trkpt>
      <trkpt lat="47.28574" lon="-2.36141">
        <ele>43.400001525879</ele>
        <time>2021-01-07T08:48:49.000Z</time>
      </trkpt>
      <trkpt lat="47.28576" lon="-2.36141">
        <ele>43.799999237061</ele>
        <time>2021-01-07T08:48:50.000Z</time>
      </trkpt>
      <trkpt lat="47.28578" lon="-2.36142">
        <ele>44.200000762939</ele>
        <time>2021-01-07T08:48:51.000Z</time>
      </trkpt>
      <trkpt lat="47.28579" lon="-2.36143">
        <ele>44.599998474121</ele>
        <time>2021-01-07T08:48:52.000Z</time>
      </trkpt>
      <trkpt lat="47.28591" lon="-2.36149">
        <ele>44.599998474121</ele>
        <time>2021-01-07T08:48:56.000Z</time>
      </trkpt>
      <trkpt lat="47.28605" lon="-2.36146">
        <ele>44.599998474121</ele>
        <time>2021-01-07T08:49:00.000Z</time>
      </trkpt>
      <trkpt lat="47.28614" lon="-2.36138">
        <ele>44.599998474121</ele>
        <time>2021-01-07T08:49:04.000Z</time>
      </trkpt>
      <trkpt lat="47.28623" lon="-2.36134">
        <ele>44.599998474121</ele>
        <time>2021-01-07T08:49:10.000Z</time>
      </trkpt>
      <trkpt lat="47.28626" lon="-2.36135">
        <ele>44.599998474121</ele>
        <time>2021-01-07T08:49:12.000Z</time>
      </trkpt>
      <trkpt lat="47.28631" lon="-2.36129">
        <ele>44.599998474121</ele>
        <time>2021-01-07T08:49:53.000Z</time>
      </trkpt>
      <trkpt lat="47.28632" lon="-2.36127">
        <ele>44.599998474121</ele>
        <time>2021-01-07T08:49:54.000Z</time>
      </trkpt>
      <trkpt lat="47.28641" lon="-2.36111">
        <ele>44.200000762939</ele>
        <time>2021-01-07T08:49:59.000Z</time>
      </trkpt>
      <trkpt lat="47.28643" lon="-2.36109">
        <ele>43.799999237061</ele>
        <time>2021-01-07T08:50:00.000Z</time>
      </trkpt>
      <trkpt lat="47.28645" lon="-2.36105">
        <ele>43.400001525879</ele>
        <time>2021-01-07T08:50:01.000Z</time>
      </trkpt>
      <trkpt lat="47.28646" lon="-2.36102">
        <ele>42.799999237061</ele>
        <time>2021-01-07T08:50:02.000Z</time>
      </trkpt>
      <trkpt lat="47.28648" lon="-2.361">
        <ele>42.200000762939</ele>
        <time>2021-01-07T08:50:03.000Z</time>
      </trkpt>
      <trkpt lat="47.28649" lon="-2.36097">
        <ele>41.599998474121</ele>
        <time>2021-01-07T08:50:04.000Z</time>
      </trkpt>
      <trkpt lat="47.2865" lon="-2.36095">
        <ele>41</ele>
        <time>2021-01-07T08:50:05.000Z</time>
      </trkpt>
      <trkpt lat="47.28651" lon="-2.36093">
        <ele>40.200000762939</ele>
        <time>2021-01-07T08:50:06.000Z</time>
      </trkpt>
      <trkpt lat="47.28653" lon="-2.36091">
        <ele>39</ele>
        <time>2021-01-07T08:50:07.000Z</time>
      </trkpt>
      <trkpt lat="47.28655" lon="-2.3609">
        <ele>38.400001525879</ele>
        <time>2021-01-07T08:50:08.000Z</time>
      </trkpt>
      <trkpt lat="47.28656" lon="-2.36089">
        <ele>37.799999237061</ele>
        <time>2021-01-07T08:50:09.000Z</time>
      </trkpt>
      <trkpt lat="47.28657" lon="-2.36091">
        <ele>37.200000762939</ele>
        <time>2021-01-07T08:50:10.000Z</time>
      </trkpt>
      <trkpt lat="47.28658" lon="-2.36093">
        <ele>36.599998474121</ele>
        <time>2021-01-07T08:50:11.000Z</time>
      </trkpt>
      <trkpt lat="47.28659" lon="-2.36095">
        <ele>36</ele>
        <time>2021-01-07T08:50:12.000Z</time>
      </trkpt>
      <trkpt lat="47.28663" lon="-2.3611">
        <ele>36</ele>
        <time>2021-01-07T08:50:18.000Z</time>
      </trkpt>
      <trkpt lat="47.28671" lon="-2.36136">
        <ele>36</ele>
        <time>2021-01-07T08:50:22.000Z</time>
      </trkpt>
      <trkpt lat="47.28684" lon="-2.3617">
        <ele>36</ele>
        <time>2021-01-07T08:50:30.000Z</time>
      </trkpt>
      <trkpt lat="47.2869" lon="-2.3618">
        <ele>36</ele>
        <time>2021-01-07T08:50:35.000Z</time>
      </trkpt>
      <trkpt lat="47.28697" lon="-2.36202">
        <ele>36</ele>
        <time>2021-01-07T08:50:41.000Z</time>
      </trkpt>
      <trkpt lat="47.28706" lon="-2.3623">
        <ele>36</ele>
        <time>2021-01-07T08:50:45.000Z</time>
      </trkpt>
      <trkpt lat="47.28717" lon="-2.36243">
        <ele>36</ele>
        <time>2021-01-07T08:50:49.000Z</time>
      </trkpt>
      <trkpt lat="47.28716" lon="-2.36254">
        <ele>36</ele>
        <time>2021-01-07T08:50:53.000Z</time>
      </trkpt>
      <trkpt lat="47.28707" lon="-2.36277">
        <ele>36</ele>
        <time>2021-01-07T08:50:59.000Z</time>
      </trkpt>
      <trkpt lat="47.28706" lon="-2.36303">
        <ele>36</ele>
        <time>2021-01-07T08:51:05.000Z</time>
      </trkpt>
      <trkpt lat="47.28706" lon="-2.36307">
        <ele>36.400001525879</ele>
        <time>2021-01-07T08:51:06.000Z</time>
      </trkpt>
      <trkpt lat="47.28706" lon="-2.36311">
        <ele>36.799999237061</ele>
        <time>2021-01-07T08:51:07.000Z</time>
      </trkpt>
      <trkpt lat="47.28705" lon="-2.36315">
        <ele>37.200000762939</ele>
        <time>2021-01-07T08:51:08.000Z</time>
      </trkpt>
      <trkpt lat="47.28705" lon="-2.36319">
        <ele>37.599998474121</ele>
        <time>2021-01-07T08:51:09.000Z</time>
      </trkpt>
      <trkpt lat="47.28705" lon="-2.36322">
        <ele>38</ele>
        <time>2021-01-07T08:51:10.000Z</time>
      </trkpt>
      <trkpt lat="47.28705" lon="-2.36325">
        <ele>38</ele>
        <time>2021-01-07T08:51:11.000Z</time>
      </trkpt>
      <trkpt lat="47.28703" lon="-2.36336">
        <ele>38.400001525879</ele>
        <time>2021-01-07T08:51:14.000Z</time>
      </trkpt>
      <trkpt lat="47.28702" lon="-2.36341">
        <ele>38.799999237061</ele>
        <time>2021-01-07T08:51:15.000Z</time>
      </trkpt>
      <trkpt lat="47.28702" lon="-2.36347">
        <ele>39.400001525879</ele>
        <time>2021-01-07T08:51:16.000Z</time>
      </trkpt>
      <trkpt lat="47.28701" lon="-2.36351">
        <ele>39.799999237061</ele>
        <time>2021-01-07T08:51:17.000Z</time>
      </trkpt>
      <trkpt lat="47.28701" lon="-2.36355">
        <ele>40.200000762939</ele>
        <time>2021-01-07T08:51:18.000Z</time>
      </trkpt>
      <trkpt lat="47.28699" lon="-2.36362">
        <ele>40.200000762939</ele>
        <time>2021-01-07T08:51:20.000Z</time>
      </trkpt>
      <trkpt lat="47.28698" lon="-2.36365">
        <ele>40.200000762939</ele>
        <time>2021-01-07T08:51:21.000Z</time>
      </trkpt>
      <trkpt lat="47.28694" lon="-2.36377">
        <ele>40.599998474121</ele>
        <time>2021-01-07T08:51:24.000Z</time>
      </trkpt>
      <trkpt lat="47.28694" lon="-2.36382">
        <ele>41</ele>
        <time>2021-01-07T08:51:25.000Z</time>
      </trkpt>
      <trkpt lat="47.28694" lon="-2.36388">
        <ele>41.400001525879</ele>
        <time>2021-01-07T08:51:26.000Z</time>
      </trkpt>
      <trkpt lat="47.28693" lon="-2.36393">
        <ele>42</ele>
        <time>2021-01-07T08:51:27.000Z</time>
      </trkpt>
      <trkpt lat="47.28692" lon="-2.36398">
        <ele>42.400001525879</ele>
        <time>2021-01-07T08:51:28.000Z</time>
      </trkpt>
      <trkpt lat="47.28694" lon="-2.36419">
        <ele>42.400001525879</ele>
        <time>2021-01-07T08:51:32.000Z</time>
      </trkpt>
      <trkpt lat="47.28695" lon="-2.36445">
        <ele>42.799999237061</ele>
        <time>2021-01-07T08:51:38.000Z</time>
      </trkpt>
      <trkpt lat="47.28695" lon="-2.3645">
        <ele>43.200000762939</ele>
        <time>2021-01-07T08:51:39.000Z</time>
      </trkpt>
      <trkpt lat="47.28695" lon="-2.36455">
        <ele>43.599998474121</ele>
        <time>2021-01-07T08:51:40.000Z</time>
      </trkpt>
      <trkpt lat="47.28695" lon="-2.3646">
        <ele>44</ele>
        <time>2021-01-07T08:51:41.000Z</time>
      </trkpt>
      <trkpt lat="47.28695" lon="-2.36465">
        <ele>44.400001525879</ele>
        <time>2021-01-07T08:51:42.000Z</time>
      </trkpt>
      <trkpt lat="47.28695" lon="-2.36474">
        <ele>44.400001525879</ele>
        <time>2021-01-07T08:51:44.000Z</time>
      </trkpt>
      <trkpt lat="47.28697" lon="-2.36507">
        <ele>44.400001525879</ele>
        <time>2021-01-07T08:51:50.000Z</time>
      </trkpt>
      <trkpt lat="47.287" lon="-2.3654">
        <ele>44.400001525879</ele>
        <time>2021-01-07T08:51:54.000Z</time>
      </trkpt>
      <trkpt lat="47.28701" lon="-2.36547">
        <ele>43.799999237061</ele>
        <time>2021-01-07T08:51:55.000Z</time>
      </trkpt>
      <trkpt lat="47.28702" lon="-2.36554">
        <ele>43.400001525879</ele>
        <time>2021-01-07T08:51:56.000Z</time>
      </trkpt>
      <trkpt lat="47.28701" lon="-2.3656">
        <ele>42.799999237061</ele>
        <time>2021-01-07T08:51:57.000Z</time>
      </trkpt>
      <trkpt lat="47.287" lon="-2.36566">
        <ele>42.200000762939</ele>
        <time>2021-01-07T08:51:58.000Z</time>
      </trkpt>
      <trkpt lat="47.28698" lon="-2.36571">
        <ele>41.400001525879</ele>
        <time>2021-01-07T08:51:59.000Z</time>
      </trkpt>
      <trkpt lat="47.28696" lon="-2.36577">
        <ele>40.799999237061</ele>
        <time>2021-01-07T08:52:00.000Z</time>
      </trkpt>
      <trkpt lat="47.28694" lon="-2.36583">
        <ele>40.200000762939</ele>
        <time>2021-01-07T08:52:01.000Z</time>
      </trkpt>
      <trkpt lat="47.28691" lon="-2.36589">
        <ele>39.400001525879</ele>
        <time>2021-01-07T08:52:02.000Z</time>
      </trkpt>
      <trkpt lat="47.28684" lon="-2.36596">
        <ele>38.799999237061</ele>
        <time>2021-01-07T08:52:03.000Z</time>
      </trkpt>
      <trkpt lat="47.28678" lon="-2.36601">
        <ele>38</ele>
        <time>2021-01-07T08:52:04.000Z</time>
      </trkpt>
      <trkpt lat="47.28671" lon="-2.36604">
        <ele>37.400001525879</ele>
        <time>2021-01-07T08:52:05.000Z</time>
      </trkpt>
      <trkpt lat="47.28664" lon="-2.36607">
        <ele>36.599998474121</ele>
        <time>2021-01-07T08:52:06.000Z</time>
      </trkpt>
      <trkpt lat="47.28659" lon="-2.36609">
        <ele>36</ele>
        <time>2021-01-07T08:52:07.000Z</time>
      </trkpt>
      <trkpt lat="47.28653" lon="-2.36612">
        <ele>35.200000762939</ele>
        <time>2021-01-07T08:52:08.000Z</time>
      </trkpt>
      <trkpt lat="47.28634" lon="-2.36624">
        <ele>35.200000762939</ele>
        <time>2021-01-07T08:52:12.000Z</time>
      </trkpt>
      <trkpt lat="47.2863" lon="-2.36626">
        <ele>34.799999237061</ele>
        <time>2021-01-07T08:52:13.000Z</time>
      </trkpt>
      <trkpt lat="47.28626" lon="-2.36628">
        <ele>34.200000762939</ele>
        <time>2021-01-07T08:52:14.000Z</time>
      </trkpt>
      <trkpt lat="47.28622" lon="-2.36631">
        <ele>33.799999237061</ele>
        <time>2021-01-07T08:52:15.000Z</time>
      </trkpt>
      <trkpt lat="47.28618" lon="-2.36632">
        <ele>33.400001525879</ele>
        <time>2021-01-07T08:52:16.000Z</time>
      </trkpt>
      <trkpt lat="47.28614" lon="-2.36634">
        <ele>32.799999237061</ele>
        <time>2021-01-07T08:52:17.000Z</time>
      </trkpt>
      <trkpt lat="47.28611" lon="-2.36635">
        <ele>32.200000762939</ele>
        <time>2021-01-07T08:52:18.000Z</time>
      </trkpt>
      <trkpt lat="47.28609" lon="-2.36636">
        <ele>31.799999237061</ele>
        <time>2021-01-07T08:52:19.000Z</time>
      </trkpt>
      <trkpt lat="47.28606" lon="-2.36637">
        <ele>31.200000762939</ele>
        <time>2021-01-07T08:52:20.000Z</time>
      </trkpt>
      <trkpt lat="47.28605" lon="-2.36638">
        <ele>30.60000038147</ele>
        <time>2021-01-07T08:52:21.000Z</time>
      </trkpt>
      <trkpt lat="47.28603" lon="-2.3664">
        <ele>30</ele>
        <time>2021-01-07T08:52:22.000Z</time>
      </trkpt>
      <trkpt lat="47.28603" lon="-2.36642">
        <ele>29.39999961853</ele>
        <time>2021-01-07T08:52:23.000Z</time>
      </trkpt>
      <trkpt lat="47.28602" lon="-2.36643">
        <ele>28.799999237061</ele>
        <time>2021-01-07T08:52:24.000Z</time>
      </trkpt>
      <trkpt lat="47.28602" lon="-2.36644">
        <ele>28.200000762939</ele>
        <time>2021-01-07T08:52:25.000Z</time>
      </trkpt>
      <trkpt lat="47.286" lon="-2.36645">
        <ele>28.200000762939</ele>
        <time>2021-01-07T08:52:26.000Z</time>
      </trkpt>
      <trkpt lat="47.28597" lon="-2.36646">
        <ele>28.200000762939</ele>
        <time>2021-01-07T08:52:27.000Z</time>
      </trkpt>
      <trkpt lat="47.28594" lon="-2.36649">
        <ele>27.799999237061</ele>
        <time>2021-01-07T08:52:28.000Z</time>
      </trkpt>
      <trkpt lat="47.28591" lon="-2.36654">
        <ele>27.39999961853</ele>
        <time>2021-01-07T08:52:29.000Z</time>
      </trkpt>
      <trkpt lat="47.28587" lon="-2.36658">
        <ele>27</ele>
        <time>2021-01-07T08:52:30.000Z</time>
      </trkpt>
      <trkpt lat="47.28583" lon="-2.36661">
        <ele>26.60000038147</ele>
        <time>2021-01-07T08:52:31.000Z</time>
      </trkpt>
      <trkpt lat="47.28578" lon="-2.36664">
        <ele>26.200000762939</ele>
        <time>2021-01-07T08:52:32.000Z</time>
      </trkpt>
      <trkpt lat="47.28559" lon="-2.36665">
        <ele>26.200000762939</ele>
        <time>2021-01-07T08:52:35.000Z</time>
      </trkpt>
      <trkpt lat="47.28546" lon="-2.36665">
        <ele>25.799999237061</ele>
        <time>2021-01-07T08:52:37.000Z</time>
      </trkpt>
      <trkpt lat="47.28541" lon="-2.36666">
        <ele>25.39999961853</ele>
        <time>2021-01-07T08:52:38.000Z</time>
      </trkpt>
      <trkpt lat="47.28537" lon="-2.36667">
        <ele>25</ele>
        <time>2021-01-07T08:52:39.000Z</time>
      </trkpt>
      <trkpt lat="47.28534" lon="-2.36667">
        <ele>24.39999961853</ele>
        <time>2021-01-07T08:52:40.000Z</time>
      </trkpt>
      <trkpt lat="47.28531" lon="-2.36669">
        <ele>24</ele>
        <time>2021-01-07T08:52:41.000Z</time>
      </trkpt>
      <trkpt lat="47.28522" lon="-2.36676">
        <ele>24</ele>
        <time>2021-01-07T08:52:44.000Z</time>
      </trkpt>
      <trkpt lat="47.28519" lon="-2.36686">
        <ele>24</ele>
        <time>2021-01-07T08:52:47.000Z</time>
      </trkpt>
      <trkpt lat="47.28521" lon="-2.36695">
        <ele>24</ele>
        <time>2021-01-07T08:52:49.000Z</time>
      </trkpt>
      <trkpt lat="47.28526" lon="-2.36706">
        <ele>24</ele>
        <time>2021-01-07T08:52:51.000Z</time>
      </trkpt>
      <trkpt lat="47.28532" lon="-2.36719">
        <ele>24</ele>
        <time>2021-01-07T08:52:53.000Z</time>
      </trkpt>
      <trkpt lat="47.28536" lon="-2.36725">
        <ele>23.60000038147</ele>
        <time>2021-01-07T08:52:54.000Z</time>
      </trkpt>
      <trkpt lat="47.2854" lon="-2.36732">
        <ele>23.200000762939</ele>
        <time>2021-01-07T08:52:55.000Z</time>
      </trkpt>
      <trkpt lat="47.28543" lon="-2.3674">
        <ele>22.799999237061</ele>
        <time>2021-01-07T08:52:56.000Z</time>
      </trkpt>
      <trkpt lat="47.28548" lon="-2.36748">
        <ele>22.39999961853</ele>
        <time>2021-01-07T08:52:57.000Z</time>
      </trkpt>
      <trkpt lat="47.28552" lon="-2.36756">
        <ele>22</ele>
        <time>2021-01-07T08:52:58.000Z</time>
      </trkpt>
      <trkpt lat="47.28564" lon="-2.36782">
        <ele>21.39999961853</ele>
        <time>2021-01-07T08:53:01.000Z</time>
      </trkpt>
      <trkpt lat="47.28568" lon="-2.36791">
        <ele>21</ele>
        <time>2021-01-07T08:53:02.000Z</time>
      </trkpt>
      <trkpt lat="47.28572" lon="-2.368">
        <ele>20.60000038147</ele>
        <time>2021-01-07T08:53:03.000Z</time>
      </trkpt>
      <trkpt lat="47.28576" lon="-2.36809">
        <ele>20</ele>
        <time>2021-01-07T08:53:04.000Z</time>
      </trkpt>
      <trkpt lat="47.28581" lon="-2.36817">
        <ele>19.60000038147</ele>
        <time>2021-01-07T08:53:05.000Z</time>
      </trkpt>
      <trkpt lat="47.28593" lon="-2.36839">
        <ele>19.60000038147</ele>
        <time>2021-01-07T08:53:08.000Z</time>
      </trkpt>
      <trkpt lat="47.28598" lon="-2.36844">
        <ele>19.200000762939</ele>
        <time>2021-01-07T08:53:09.000Z</time>
      </trkpt>
      <trkpt lat="47.28603" lon="-2.36847">
        <ele>18.799999237061</ele>
        <time>2021-01-07T08:53:10.000Z</time>
      </trkpt>
      <trkpt lat="47.28607" lon="-2.36848">
        <ele>18.39999961853</ele>
        <time>2021-01-07T08:53:11.000Z</time>
      </trkpt>
      <trkpt lat="47.28612" lon="-2.36846">
        <ele>18</ele>
        <time>2021-01-07T08:53:12.000Z</time>
      </trkpt>
      <trkpt lat="47.28617" lon="-2.36842">
        <ele>17.60000038147</ele>
        <time>2021-01-07T08:53:13.000Z</time>
      </trkpt>
      <trkpt lat="47.28622" lon="-2.36837">
        <ele>17.60000038147</ele>
        <time>2021-01-07T08:53:14.000Z</time>
      </trkpt>
      <trkpt lat="47.28626" lon="-2.36834">
        <ele>17.60000038147</ele>
        <time>2021-01-07T08:53:15.000Z</time>
      </trkpt>
      <trkpt lat="47.28644" lon="-2.36813">
        <ele>17.60000038147</ele>
        <time>2021-01-07T08:53:21.000Z</time>
      </trkpt>
      <trkpt lat="47.28647" lon="-2.36806">
        <ele>17.60000038147</ele>
        <time>2021-01-07T08:53:23.000Z</time>
      </trkpt>
      <trkpt lat="47.28649" lon="-2.36798">
        <ele>17.60000038147</ele>
        <time>2021-01-07T08:53:25.000Z</time>
      </trkpt>
      <trkpt lat="47.28661" lon="-2.3679">
        <ele>17.60000038147</ele>
        <time>2021-01-07T08:53:29.000Z</time>
      </trkpt>
      <trkpt lat="47.28669" lon="-2.36793">
        <ele>17.60000038147</ele>
        <time>2021-01-07T08:53:32.000Z</time>
      </trkpt>
      <trkpt lat="47.28672" lon="-2.36796">
        <ele>17.60000038147</ele>
        <time>2021-01-07T08:53:33.000Z</time>
      </trkpt>
      <trkpt lat="47.28684" lon="-2.36812">
        <ele>17.60000038147</ele>
        <time>2021-01-07T08:53:37.000Z</time>
      </trkpt>
      <trkpt lat="47.28688" lon="-2.36818">
        <ele>17.60000038147</ele>
        <time>2021-01-07T08:53:38.000Z</time>
      </trkpt>
      <trkpt lat="47.28702" lon="-2.36851">
        <ele>17.60000038147</ele>
        <time>2021-01-07T08:53:43.000Z</time>
      </trkpt>
      <trkpt lat="47.28719" lon="-2.36891">
        <ele>17.60000038147</ele>
        <time>2021-01-07T08:53:49.000Z</time>
      </trkpt>
      <trkpt lat="47.28723" lon="-2.36896">
        <ele>17.200000762939</ele>
        <time>2021-01-07T08:53:50.000Z</time>
      </trkpt>
      <trkpt lat="47.28727" lon="-2.36901">
        <ele>16.60000038147</ele>
        <time>2021-01-07T08:53:51.000Z</time>
      </trkpt>
      <trkpt lat="47.28732" lon="-2.36906">
        <ele>16.200000762939</ele>
        <time>2021-01-07T08:53:52.000Z</time>
      </trkpt>
      <trkpt lat="47.28737" lon="-2.3691">
        <ele>15.800000190735</ele>
        <time>2021-01-07T08:53:53.000Z</time>
      </trkpt>
      <trkpt lat="47.28742" lon="-2.36915">
        <ele>15.39999961853</ele>
        <time>2021-01-07T08:53:54.000Z</time>
      </trkpt>
      <trkpt lat="47.28746" lon="-2.3692">
        <ele>15.39999961853</ele>
        <time>2021-01-07T08:53:55.000Z</time>
      </trkpt>
      <trkpt lat="47.2875" lon="-2.3693">
        <ele>15.39999961853</ele>
        <time>2021-01-07T08:53:57.000Z</time>
      </trkpt>
      <trkpt lat="47.28754" lon="-2.36942">
        <ele>15.39999961853</ele>
        <time>2021-01-07T08:54:01.000Z</time>
      </trkpt>
      <trkpt lat="47.28754" lon="-2.36945">
        <ele>15.39999961853</ele>
        <time>2021-01-07T08:54:02.000Z</time>
      </trkpt>
      <trkpt lat="47.28755" lon="-2.36952">
        <ele>15.800000190735</ele>
        <time>2021-01-07T08:54:05.000Z</time>
      </trkpt>
      <trkpt lat="47.28755" lon="-2.36954">
        <ele>16.200000762939</ele>
        <time>2021-01-07T08:54:06.000Z</time>
      </trkpt>
      <trkpt lat="47.28755" lon="-2.36956">
        <ele>16.799999237061</ele>
        <time>2021-01-07T08:54:07.000Z</time>
      </trkpt>
      <trkpt lat="47.28756" lon="-2.36959">
        <ele>17.200000762939</ele>
        <time>2021-01-07T08:54:08.000Z</time>
      </trkpt>
      <trkpt lat="47.28756" lon="-2.36961">
        <ele>17.60000038147</ele>
        <time>2021-01-07T08:54:09.000Z</time>
      </trkpt>
      <trkpt lat="47.28764" lon="-2.36979">
        <ele>17.60000038147</ele>
        <time>2021-01-07T08:54:13.000Z</time>
      </trkpt>
      <trkpt lat="47.28776" lon="-2.37001">
        <ele>17.60000038147</ele>
        <time>2021-01-07T08:54:18.000Z</time>
      </trkpt>
      <trkpt lat="47.28785" lon="-2.37033">
        <ele>17.60000038147</ele>
        <time>2021-01-07T08:54:23.000Z</time>
      </trkpt>
      <trkpt lat="47.28788" lon="-2.37049">
        <ele>17.60000038147</ele>
        <time>2021-01-07T08:54:25.000Z</time>
      </trkpt>
      <trkpt lat="47.28791" lon="-2.37075">
        <ele>17.60000038147</ele>
        <time>2021-01-07T08:54:28.000Z</time>
      </trkpt>
      <trkpt lat="47.28793" lon="-2.37083">
        <ele>17.200000762939</ele>
        <time>2021-01-07T08:54:29.000Z</time>
      </trkpt>
      <trkpt lat="47.28794" lon="-2.3709">
        <ele>16.60000038147</ele>
        <time>2021-01-07T08:54:30.000Z</time>
      </trkpt>
      <trkpt lat="47.28795" lon="-2.37096">
        <ele>16.200000762939</ele>
        <time>2021-01-07T08:54:31.000Z</time>
      </trkpt>
      <trkpt lat="47.28796" lon="-2.371">
        <ele>15.60000038147</ele>
        <time>2021-01-07T08:54:32.000Z</time>
      </trkpt>
      <trkpt lat="47.28798" lon="-2.37102">
        <ele>15</ele>
        <time>2021-01-07T08:54:33.000Z</time>
      </trkpt>
      <trkpt lat="47.28801" lon="-2.37104">
        <ele>14.39999961853</ele>
        <time>2021-01-07T08:54:34.000Z</time>
      </trkpt>
      <trkpt lat="47.28805" lon="-2.37106">
        <ele>13.800000190735</ele>
        <time>2021-01-07T08:54:35.000Z</time>
      </trkpt>
      <trkpt lat="47.28808" lon="-2.37106">
        <ele>13.199999809265</ele>
        <time>2021-01-07T08:54:36.000Z</time>
      </trkpt>
      <trkpt lat="47.28811" lon="-2.37107">
        <ele>13.199999809265</ele>
        <time>2021-01-07T08:54:37.000Z</time>
      </trkpt>
      <trkpt lat="47.28814" lon="-2.37106">
        <ele>12.60000038147</ele>
        <time>2021-01-07T08:54:38.000Z</time>
      </trkpt>
      <trkpt lat="47.28816" lon="-2.37105">
        <ele>11.60000038147</ele>
        <time>2021-01-07T08:54:39.000Z</time>
      </trkpt>
      <trkpt lat="47.28819" lon="-2.37104">
        <ele>11</ele>
        <time>2021-01-07T08:54:40.000Z</time>
      </trkpt>
      <trkpt lat="47.28821" lon="-2.37105">
        <ele>10.39999961853</ele>
        <time>2021-01-07T08:54:41.000Z</time>
      </trkpt>
      <trkpt lat="47.28823" lon="-2.37107">
        <ele>9.6000003814697</ele>
        <time>2021-01-07T08:54:42.000Z</time>
      </trkpt>
      <trkpt lat="47.28823" lon="-2.37109">
        <ele>9</ele>
        <time>2021-01-07T08:54:43.000Z</time>
      </trkpt>
      <trkpt lat="47.28825" lon="-2.37113">
        <ele>8.3999996185303</ele>
        <time>2021-01-07T08:54:44.000Z</time>
      </trkpt>
      <trkpt lat="47.28828" lon="-2.37125">
        <ele>8.3999996185303</ele>
        <time>2021-01-07T08:54:47.000Z</time>
      </trkpt>
      <trkpt lat="47.28828" lon="-2.3713">
        <ele>8</ele>
        <time>2021-01-07T08:54:48.000Z</time>
      </trkpt>
      <trkpt lat="47.28829" lon="-2.37136">
        <ele>7.5999999046326</ele>
        <time>2021-01-07T08:54:49.000Z</time>
      </trkpt>
      <trkpt lat="47.2883" lon="-2.37142">
        <ele>7.1999998092651</ele>
        <time>2021-01-07T08:54:50.000Z</time>
      </trkpt>
      <trkpt lat="47.28831" lon="-2.37149">
        <ele>6.8000001907349</ele>
        <time>2021-01-07T08:54:51.000Z</time>
      </trkpt>
      <trkpt lat="47.28832" lon="-2.37156">
        <ele>6.4000000953674</ele>
        <time>2021-01-07T08:54:52.000Z</time>
      </trkpt>
      <trkpt lat="47.28834" lon="-2.37167">
        <ele>6.4000000953674</ele>
        <time>2021-01-07T08:54:54.000Z</time>
      </trkpt>
      <trkpt lat="47.28839" lon="-2.37197">
        <ele>6.4000000953674</ele>
        <time>2021-01-07T08:55:01.000Z</time>
      </trkpt>
      <trkpt lat="47.28845" lon="-2.37217">
        <ele>6.4000000953674</ele>
        <time>2021-01-07T08:55:07.000Z</time>
      </trkpt>
      <trkpt lat="47.28851" lon="-2.37234">
        <ele>6.4000000953674</ele>
        <time>2021-01-07T08:55:12.000Z</time>
      </trkpt>
      <trkpt lat="47.28862" lon="-2.37235">
        <ele>6.4000000953674</ele>
        <time>2021-01-07T08:55:17.000Z</time>
      </trkpt>
      <trkpt lat="47.28873" lon="-2.37229">
        <ele>6.4000000953674</ele>
        <time>2021-01-07T08:55:24.000Z</time>
      </trkpt>
      <trkpt lat="47.28885" lon="-2.37223">
        <ele>6.4000000953674</ele>
        <time>2021-01-07T08:55:30.000Z</time>
      </trkpt>
      <trkpt lat="47.28898" lon="-2.37216">
        <ele>6.4000000953674</ele>
        <time>2021-01-07T08:55:37.000Z</time>
      </trkpt>
      <trkpt lat="47.28914" lon="-2.37209">
        <ele>6.4000000953674</ele>
        <time>2021-01-07T08:55:44.000Z</time>
      </trkpt>
      <trkpt lat="47.28927" lon="-2.37205">
        <ele>6.4000000953674</ele>
        <time>2021-01-07T08:55:50.000Z</time>
      </trkpt>
      <trkpt lat="47.28938" lon="-2.37201">
        <ele>6.4000000953674</ele>
        <time>2021-01-07T08:55:57.000Z</time>
      </trkpt>
      <trkpt lat="47.28946" lon="-2.37205">
        <ele>6.4000000953674</ele>
        <time>2021-01-07T08:56:02.000Z</time>
      </trkpt>
      <trkpt lat="47.28948" lon="-2.37206">
        <ele>6.4000000953674</ele>
        <time>2021-01-07T08:56:03.000Z</time>
      </trkpt>
      <trkpt lat="47.28957" lon="-2.3721">
        <ele>6.4000000953674</ele>
        <time>2021-01-07T08:56:08.000Z</time>
      </trkpt>
      <trkpt lat="47.28958" lon="-2.37213">
        <ele>6.8000001907349</ele>
        <time>2021-01-07T08:56:09.000Z</time>
      </trkpt>
      <trkpt lat="47.28959" lon="-2.37216">
        <ele>7.1999998092651</ele>
        <time>2021-01-07T08:56:10.000Z</time>
      </trkpt>
      <trkpt lat="47.2896" lon="-2.3722">
        <ele>7.5999999046326</ele>
        <time>2021-01-07T08:56:11.000Z</time>
      </trkpt>
      <trkpt lat="47.28961" lon="-2.37224">
        <ele>8</ele>
        <time>2021-01-07T08:56:12.000Z</time>
      </trkpt>
      <trkpt lat="47.28961" lon="-2.37228">
        <ele>8.3999996185303</ele>
        <time>2021-01-07T08:56:13.000Z</time>
      </trkpt>
      <trkpt lat="47.28964" lon="-2.3724">
        <ele>8.3999996185303</ele>
        <time>2021-01-07T08:56:16.000Z</time>
      </trkpt>
      <trkpt lat="47.28967" lon="-2.37249">
        <ele>8.3999996185303</ele>
        <time>2021-01-07T08:56:18.000Z</time>
      </trkpt>
      <trkpt lat="47.28967" lon="-2.37271">
        <ele>8.3999996185303</ele>
        <time>2021-01-07T08:56:22.000Z</time>
      </trkpt>
      <trkpt lat="47.28964" lon="-2.37308">
        <ele>8.3999996185303</ele>
        <time>2021-01-07T08:56:27.000Z</time>
      </trkpt>
      <trkpt lat="47.28962" lon="-2.37333">
        <ele>8</ele>
        <time>2021-01-07T08:56:30.000Z</time>
      </trkpt>
      <trkpt lat="47.28961" lon="-2.37342">
        <ele>7.5999999046326</ele>
        <time>2021-01-07T08:56:31.000Z</time>
      </trkpt>
      <trkpt lat="47.2896" lon="-2.3735">
        <ele>7.1999998092651</ele>
        <time>2021-01-07T08:56:32.000Z</time>
      </trkpt>
      <trkpt lat="47.28959" lon="-2.37359">
        <ele>6.8000001907349</ele>
        <time>2021-01-07T08:56:33.000Z</time>
      </trkpt>
      <trkpt lat="47.28957" lon="-2.37367">
        <ele>6.4000000953674</ele>
        <time>2021-01-07T08:56:34.000Z</time>
      </trkpt>
      <trkpt lat="47.28956" lon="-2.37376">
        <ele>6.4000000953674</ele>
        <time>2021-01-07T08:56:35.000Z</time>
      </trkpt>
      <trkpt lat="47.28956" lon="-2.37394">
        <ele>6.4000000953674</ele>
        <time>2021-01-07T08:56:37.000Z</time>
      </trkpt>
      <trkpt lat="47.28956" lon="-2.37421">
        <ele>6.4000000953674</ele>
        <time>2021-01-07T08:56:40.000Z</time>
      </trkpt>
      <trkpt lat="47.28954" lon="-2.37451">
        <ele>6.4000000953674</ele>
        <time>2021-01-07T08:56:43.000Z</time>
      </trkpt>
      <trkpt lat="47.28953" lon="-2.3746">
        <ele>6</ele>
        <time>2021-01-07T08:56:44.000Z</time>
      </trkpt>
      <trkpt lat="47.28953" lon="-2.3747">
        <ele>5.5999999046326</ele>
        <time>2021-01-07T08:56:45.000Z</time>
      </trkpt>
      <trkpt lat="47.28952" lon="-2.37479">
        <ele>5</ele>
        <time>2021-01-07T08:56:46.000Z</time>
      </trkpt>
      <trkpt lat="47.28951" lon="-2.37489">
        <ele>4.5999999046326</ele>
        <time>2021-01-07T08:56:47.000Z</time>
      </trkpt>
      <trkpt lat="47.2895" lon="-2.37498">
        <ele>4.1999998092651</ele>
        <time>2021-01-07T08:56:48.000Z</time>
      </trkpt>
      <trkpt lat="47.28949" lon="-2.37508">
        <ele>4.1999998092651</ele>
        <time>2021-01-07T08:56:49.000Z</time>
      </trkpt>
      <trkpt lat="47.28944" lon="-2.3759">
        <ele>4.1999998092651</ele>
        <time>2021-01-07T08:56:58.000Z</time>
      </trkpt>
      <trkpt lat="47.2894" lon="-2.37652">
        <ele>4.1999998092651</ele>
        <time>2021-01-07T08:57:05.000Z</time>
      </trkpt>
      <trkpt lat="47.28938" lon="-2.37686">
        <ele>3.7999999523163</ele>
        <time>2021-01-07T08:57:09.000Z</time>
      </trkpt>
      <trkpt lat="47.28937" lon="-2.37694">
        <ele>3.4000000953674</ele>
        <time>2021-01-07T08:57:10.000Z</time>
      </trkpt>
      <trkpt lat="47.28937" lon="-2.37702">
        <ele>3</ele>
        <time>2021-01-07T08:57:11.000Z</time>
      </trkpt>
      <trkpt lat="47.28936" lon="-2.3771">
        <ele>2.5999999046326</ele>
        <time>2021-01-07T08:57:12.000Z</time>
      </trkpt>
      <trkpt lat="47.28936" lon="-2.37718">
        <ele>2.2000000476837</ele>
        <time>2021-01-07T08:57:13.000Z</time>
      </trkpt>
      <trkpt lat="47.28933" lon="-2.3777">
        <ele>2.2000000476837</ele>
        <time>2021-01-07T08:57:20.000Z</time>
      </trkpt>
      <trkpt lat="47.28932" lon="-2.37777">
        <ele>2.2000000476837</ele>
        <time>2021-01-07T08:57:21.000Z</time>
      </trkpt>
      <trkpt lat="47.28928" lon="-2.37834">
        <ele>2.2000000476837</ele>
        <time>2021-01-07T08:57:29.000Z</time>
      </trkpt>
      <trkpt lat="47.28922" lon="-2.37897">
        <ele>2.2000000476837</ele>
        <time>2021-01-07T08:57:37.000Z</time>
      </trkpt>
      <trkpt lat="47.28917" lon="-2.37969">
        <ele>2.2000000476837</ele>
        <time>2021-01-07T08:57:46.000Z</time>
      </trkpt>
      <trkpt lat="47.28913" lon="-2.38019">
        <ele>2.2000000476837</ele>
        <time>2021-01-07T08:57:53.000Z</time>
      </trkpt>
      <trkpt lat="47.28911" lon="-2.38048">
        <ele>2.2000000476837</ele>
        <time>2021-01-07T08:57:57.000Z</time>
      </trkpt>
      <trkpt lat="47.28914" lon="-2.38062">
        <ele>2.2000000476837</ele>
        <time>2021-01-07T08:57:59.000Z</time>
      </trkpt>
      <trkpt lat="47.28918" lon="-2.38077">
        <ele>2.2000000476837</ele>
        <time>2021-01-07T08:58:01.000Z</time>
      </trkpt>
      <trkpt lat="47.28926" lon="-2.38106">
        <ele>2.2000000476837</ele>
        <time>2021-01-07T08:58:05.000Z</time>
      </trkpt>
      <trkpt lat="47.28937" lon="-2.38165">
        <ele>2.2000000476837</ele>
        <time>2021-01-07T08:58:12.000Z</time>
      </trkpt>
      <trkpt lat="47.28941" lon="-2.3823">
        <ele>2.2000000476837</ele>
        <time>2021-01-07T08:58:19.000Z</time>
      </trkpt>
      <trkpt lat="47.28938" lon="-2.38284">
        <ele>2.2000000476837</ele>
        <time>2021-01-07T08:58:25.000Z</time>
      </trkpt>
      <trkpt lat="47.28936" lon="-2.38337">
        <ele>2.2000000476837</ele>
        <time>2021-01-07T08:58:31.000Z</time>
      </trkpt>
      <trkpt lat="47.28942" lon="-2.38423">
        <ele>2.2000000476837</ele>
        <time>2021-01-07T08:58:41.000Z</time>
      </trkpt>
      <trkpt lat="47.28947" lon="-2.38483">
        <ele>2.2000000476837</ele>
        <time>2021-01-07T08:58:48.000Z</time>
      </trkpt>
      <trkpt lat="47.28953" lon="-2.38545">
        <ele>2.2000000476837</ele>
        <time>2021-01-07T08:58:55.000Z</time>
      </trkpt>
      <trkpt lat="47.28959" lon="-2.38598">
        <ele>2.2000000476837</ele>
        <time>2021-01-07T08:59:01.000Z</time>
      </trkpt>
      <trkpt lat="47.28961" lon="-2.38658">
        <ele>2.2000000476837</ele>
        <time>2021-01-07T08:59:08.000Z</time>
      </trkpt>
      <trkpt lat="47.28961" lon="-2.38725">
        <ele>2.2000000476837</ele>
        <time>2021-01-07T08:59:16.000Z</time>
      </trkpt>
      <trkpt lat="47.28962" lon="-2.38783">
        <ele>2.2000000476837</ele>
        <time>2021-01-07T08:59:23.000Z</time>
      </trkpt>
      <trkpt lat="47.28963" lon="-2.38849">
        <ele>2.2000000476837</ele>
        <time>2021-01-07T08:59:31.000Z</time>
      </trkpt>
      <trkpt lat="47.2896" lon="-2.38909">
        <ele>2.2000000476837</ele>
        <time>2021-01-07T08:59:38.000Z</time>
      </trkpt>
      <trkpt lat="47.28957" lon="-2.38969">
        <ele>2.2000000476837</ele>
        <time>2021-01-07T08:59:45.000Z</time>
      </trkpt>
      <trkpt lat="47.28952" lon="-2.39037">
        <ele>2.2000000476837</ele>
        <time>2021-01-07T08:59:53.000Z</time>
      </trkpt>
      <trkpt lat="47.28944" lon="-2.39105">
        <ele>2.2000000476837</ele>
        <time>2021-01-07T09:00:01.000Z</time>
      </trkpt>
      <trkpt lat="47.28938" lon="-2.39155">
        <ele>2.2000000476837</ele>
        <time>2021-01-07T09:00:07.000Z</time>
      </trkpt>
      <trkpt lat="47.28935" lon="-2.39197">
        <ele>2.2000000476837</ele>
        <time>2021-01-07T09:00:12.000Z</time>
      </trkpt>
      <trkpt lat="47.28936" lon="-2.39213">
        <ele>2.2000000476837</ele>
        <time>2021-01-07T09:00:14.000Z</time>
      </trkpt>
      <trkpt lat="47.28939" lon="-2.39265">
        <ele>2.2000000476837</ele>
        <time>2021-01-07T09:00:20.000Z</time>
      </trkpt>
      <trkpt lat="47.28944" lon="-2.39289">
        <ele>2.2000000476837</ele>
        <time>2021-01-07T09:00:23.000Z</time>
      </trkpt>
      <trkpt lat="47.2895" lon="-2.39303">
        <ele>2.2000000476837</ele>
        <time>2021-01-07T09:00:25.000Z</time>
      </trkpt>
      <trkpt lat="47.28964" lon="-2.39315">
        <ele>2.2000000476837</ele>
        <time>2021-01-07T09:00:28.000Z</time>
      </trkpt>
      <trkpt lat="47.28983" lon="-2.39321">
        <ele>2.2000000476837</ele>
        <time>2021-01-07T09:00:31.000Z</time>
      </trkpt>
      <trkpt lat="47.28997" lon="-2.39325">
        <ele>2.2000000476837</ele>
        <time>2021-01-07T09:00:33.000Z</time>
      </trkpt>
      <trkpt lat="47.2904" lon="-2.39343">
        <ele>2.2000000476837</ele>
        <time>2021-01-07T09:00:40.000Z</time>
      </trkpt>
      <trkpt lat="47.29076" lon="-2.39359">
        <ele>2.2000000476837</ele>
        <time>2021-01-07T09:00:47.000Z</time>
      </trkpt>
      <trkpt lat="47.29085" lon="-2.39363">
        <ele>2.2000000476837</ele>
        <time>2021-01-07T09:00:49.000Z</time>
      </trkpt>
      <trkpt lat="47.291" lon="-2.39375">
        <ele>2.2000000476837</ele>
        <time>2021-01-07T09:00:53.000Z</time>
      </trkpt>
      <trkpt lat="47.29105" lon="-2.39376">
        <ele>2.2000000476837</ele>
        <time>2021-01-07T09:00:54.000Z</time>
      </trkpt>
      <trkpt lat="47.29115" lon="-2.39371">
        <ele>2.2000000476837</ele>
        <time>2021-01-07T09:00:56.000Z</time>
      </trkpt>
      <trkpt lat="47.29126" lon="-2.39362">
        <ele>2.2000000476837</ele>
        <time>2021-01-07T09:00:58.000Z</time>
      </trkpt>
      <trkpt lat="47.29148" lon="-2.39344">
        <ele>2.2000000476837</ele>
        <time>2021-01-07T09:01:02.000Z</time>
      </trkpt>
      <trkpt lat="47.29177" lon="-2.39325">
        <ele>2.2000000476837</ele>
        <time>2021-01-07T09:01:07.000Z</time>
      </trkpt>
      <trkpt lat="47.29182" lon="-2.39324">
        <ele>2.2000000476837</ele>
        <time>2021-01-07T09:01:08.000Z</time>
      </trkpt>
      <trkpt lat="47.29207" lon="-2.39318">
        <ele>1.6000000238419</ele>
        <time>2021-01-07T09:01:12.000Z</time>
      </trkpt>
      <trkpt lat="47.29213" lon="-2.39315">
        <ele>1.2000000476837</ele>
        <time>2021-01-07T09:01:13.000Z</time>
      </trkpt>
      <trkpt lat="47.29219" lon="-2.39313">
        <ele>0.40000000596046</ele>
        <time>2021-01-07T09:01:14.000Z</time>
      </trkpt>
      <trkpt lat="47.29225" lon="-2.39311">
        <ele>3.1</ele>
        <time>2021-01-07T09:01:15.000Z</time>
      </trkpt>
      <trkpt lat="47.29236" lon="-2.39306">
        <ele>3.5</ele>
        <time>2021-01-07T09:01:17.000Z</time>
      </trkpt>
      <trkpt lat="47.29251" lon="-2.39297">
        <ele>4</ele>
        <time>2021-01-07T09:01:20.000Z</time>
      </trkpt>
      <trkpt lat="47.29267" lon="-2.39288">
        <ele>4</ele>
        <time>2021-01-07T09:01:23.000Z</time>
      </trkpt>
      <trkpt lat="47.29279" lon="-2.39288">
        <ele>4</ele>
        <time>2021-01-07T09:01:25.000Z</time>
      </trkpt>
      <trkpt lat="47.29301" lon="-2.39297">
        <ele>4.5</ele>
        <time>2021-01-07T09:01:29.000Z</time>
      </trkpt>
      <trkpt lat="47.29306" lon="-2.393">
        <ele>4.4</ele>
        <time>2021-01-07T09:01:30.000Z</time>
      </trkpt>
      <trkpt lat="47.29332" lon="-2.39317">
        <ele>5.4</ele>
        <time>2021-01-07T09:01:36.000Z</time>
      </trkpt>
      <trkpt lat="47.29344" lon="-2.39324">
        <ele>5.8</ele>
        <time>2021-01-07T09:01:39.000Z</time>
      </trkpt>
      <trkpt lat="47.29349" lon="-2.39334">
        <ele>0.40000000596046</ele>
        <time>2021-01-07T09:01:41.000Z</time>
      </trkpt>
      <trkpt lat="47.29351" lon="-2.3934">
        <ele>0.80000001192093</ele>
        <time>2021-01-07T09:01:42.000Z</time>
      </trkpt>
      <trkpt lat="47.29352" lon="-2.39346">
        <ele>1.2000000476837</ele>
        <time>2021-01-07T09:01:43.000Z</time>
      </trkpt>
      <trkpt lat="47.29352" lon="-2.39353">
        <ele>1.6000000238419</ele>
        <time>2021-01-07T09:01:44.000Z</time>
      </trkpt>
      <trkpt lat="47.29352" lon="-2.3936">
        <ele>2</ele>
        <time>2021-01-07T09:01:45.000Z</time>
      </trkpt>
      <trkpt lat="47.29353" lon="-2.39403">
        <ele>2</ele>
        <time>2021-01-07T09:01:51.000Z</time>
      </trkpt>
      <trkpt lat="47.29358" lon="-2.39442">
        <ele>2</ele>
        <time>2021-01-07T09:01:57.000Z</time>
      </trkpt>
      <trkpt lat="47.29362" lon="-2.39455">
        <ele>2</ele>
        <time>2021-01-07T09:01:59.000Z</time>
      </trkpt>
      <trkpt lat="47.29375" lon="-2.39465">
        <ele>2</ele>
        <time>2021-01-07T09:02:02.000Z</time>
      </trkpt>
      <trkpt lat="47.29386" lon="-2.39464">
        <ele>2</ele>
        <time>2021-01-07T09:02:04.000Z</time>
      </trkpt>
      <trkpt lat="47.29402" lon="-2.39464">
        <ele>2</ele>
        <time>2021-01-07T09:02:07.000Z</time>
      </trkpt>
      <trkpt lat="47.29436" lon="-2.39467">
        <ele>2</ele>
        <time>2021-01-07T09:02:13.000Z</time>
      </trkpt>
      <trkpt lat="47.29484" lon="-2.39469">
        <ele>2</ele>
        <time>2021-01-07T09:02:22.000Z</time>
      </trkpt>
      <trkpt lat="47.29507" lon="-2.39468">
        <ele>2</ele>
        <time>2021-01-07T09:02:26.000Z</time>
      </trkpt>
      <trkpt lat="47.29512" lon="-2.39469">
        <ele>2</ele>
        <time>2021-01-07T09:02:27.000Z</time>
      </trkpt>
      <trkpt lat="47.29546" lon="-2.39477">
        <ele>2</ele>
        <time>2021-01-07T09:02:33.000Z</time>
      </trkpt>
      <trkpt lat="47.29569" lon="-2.39494">
        <ele>2</ele>
        <time>2021-01-07T09:02:38.000Z</time>
      </trkpt>
      <trkpt lat="47.2959" lon="-2.39496">
        <ele>2</ele>
        <time>2021-01-07T09:02:42.000Z</time>
      </trkpt>
      <trkpt lat="47.29605" lon="-2.39481">
        <ele>2</ele>
        <time>2021-01-07T09:02:45.000Z</time>
      </trkpt>
      <trkpt lat="47.29609" lon="-2.39475">
        <ele>2</ele>
        <time>2021-01-07T09:02:46.000Z</time>
      </trkpt>
      <trkpt lat="47.2963" lon="-2.39436">
        <ele>2</ele>
        <time>2021-01-07T09:02:52.000Z</time>
      </trkpt>
      <trkpt lat="47.29636" lon="-2.39403">
        <ele>2</ele>
        <time>2021-01-07T09:02:56.000Z</time>
      </trkpt>
      <trkpt lat="47.29643" lon="-2.39371">
        <ele>2</ele>
        <time>2021-01-07T09:03:00.000Z</time>
      </trkpt>
      <trkpt lat="47.29645" lon="-2.39355">
        <ele>2</ele>
        <time>2021-01-07T09:03:02.000Z</time>
      </trkpt>
      <trkpt lat="47.29648" lon="-2.39313">
        <ele>2</ele>
        <time>2021-01-07T09:03:07.000Z</time>
      </trkpt>
      <trkpt lat="47.29653" lon="-2.39254">
        <ele>2</ele>
        <time>2021-01-07T09:03:14.000Z</time>
      </trkpt>
      <trkpt lat="47.29662" lon="-2.39209">
        <ele>2</ele>
        <time>2021-01-07T09:03:20.000Z</time>
      </trkpt>
      <trkpt lat="47.29669" lon="-2.39192">
        <ele>2</ele>
        <time>2021-01-07T09:03:23.000Z</time>
      </trkpt>
      <trkpt lat="47.29679" lon="-2.39179">
        <ele>2</ele>
        <time>2021-01-07T09:03:26.000Z</time>
      </trkpt>
      <trkpt lat="47.29689" lon="-2.39173">
        <ele>2</ele>
        <time>2021-01-07T09:03:28.000Z</time>
      </trkpt>
      <trkpt lat="47.29704" lon="-2.39165">
        <ele>2</ele>
        <time>2021-01-07T09:03:31.000Z</time>
      </trkpt>
      <trkpt lat="47.29746" lon="-2.39145">
        <ele>2</ele>
        <time>2021-01-07T09:03:40.000Z</time>
      </trkpt>
      <trkpt lat="47.29777" lon="-2.39128">
        <ele>2</ele>
        <time>2021-01-07T09:03:47.000Z</time>
      </trkpt>
      <trkpt lat="47.29815" lon="-2.3911">
        <ele>2</ele>
        <time>2021-01-07T09:03:55.000Z</time>
      </trkpt>
      <trkpt lat="47.29833" lon="-2.39098">
        <ele>2.4000000953674</ele>
        <time>2021-01-07T09:03:59.000Z</time>
      </trkpt>
      <trkpt lat="47.29837" lon="-2.39095">
        <ele>2.7999999523163</ele>
        <time>2021-01-07T09:04:00.000Z</time>
      </trkpt>
      <trkpt lat="47.29842" lon="-2.39093">
        <ele>3.4000000953674</ele>
        <time>2021-01-07T09:04:01.000Z</time>
      </trkpt>
      <trkpt lat="47.29846" lon="-2.3909">
        <ele>3.7999999523163</ele>
        <time>2021-01-07T09:04:02.000Z</time>
      </trkpt>
      <trkpt lat="47.29851" lon="-2.39087">
        <ele>4.1999998092651</ele>
        <time>2021-01-07T09:04:03.000Z</time>
      </trkpt>
      <trkpt lat="47.29879" lon="-2.39067">
        <ele>4.1999998092651</ele>
        <time>2021-01-07T09:04:09.000Z</time>
      </trkpt>
      <trkpt lat="47.29906" lon="-2.39046">
        <ele>4.5999999046326</ele>
        <time>2021-01-07T09:04:15.000Z</time>
      </trkpt>
      <trkpt lat="47.2991" lon="-2.39042">
        <ele>5</ele>
        <time>2021-01-07T09:04:16.000Z</time>
      </trkpt>
      <trkpt lat="47.29915" lon="-2.39039">
        <ele>5.4000000953674</ele>
        <time>2021-01-07T09:04:17.000Z</time>
      </trkpt>
      <trkpt lat="47.29919" lon="-2.39035">
        <ele>5.8000001907349</ele>
        <time>2021-01-07T09:04:18.000Z</time>
      </trkpt>
      <trkpt lat="47.29924" lon="-2.39032">
        <ele>6.1999998092651</ele>
        <time>2021-01-07T09:04:19.000Z</time>
      </trkpt>
      <trkpt lat="47.2995" lon="-2.39012">
        <ele>6.1999998092651</ele>
        <time>2021-01-07T09:04:25.000Z</time>
      </trkpt>
      <trkpt lat="47.29977" lon="-2.38996">
        <ele>6.1999998092651</ele>
        <time>2021-01-07T09:04:31.000Z</time>
      </trkpt>
      <trkpt lat="47.29981" lon="-2.38994">
        <ele>6.5999999046326</ele>
        <time>2021-01-07T09:04:32.000Z</time>
      </trkpt>
      <trkpt lat="47.29985" lon="-2.38993">
        <ele>7</ele>
        <time>2021-01-07T09:04:33.000Z</time>
      </trkpt>
      <trkpt lat="47.2999" lon="-2.38992">
        <ele>7.4000000953674</ele>
        <time>2021-01-07T09:04:34.000Z</time>
      </trkpt>
      <trkpt lat="47.29994" lon="-2.3899">
        <ele>7.8000001907349</ele>
        <time>2021-01-07T09:04:35.000Z</time>
      </trkpt>
      <trkpt lat="47.29999" lon="-2.38988">
        <ele>8.1999998092651</ele>
        <time>2021-01-07T09:04:36.000Z</time>
      </trkpt>
      <trkpt lat="47.30007" lon="-2.38981">
        <ele>8.1999998092651</ele>
        <time>2021-01-07T09:04:38.000Z</time>
      </trkpt>
      <trkpt lat="47.30015" lon="-2.38975">
        <ele>8.1999998092651</ele>
        <time>2021-01-07T09:04:40.000Z</time>
      </trkpt>
      <trkpt lat="47.30019" lon="-2.38973">
        <ele>8.1999998092651</ele>
        <time>2021-01-07T09:04:41.000Z</time>
      </trkpt>
      <trkpt lat="47.30029" lon="-2.38971">
        <ele>8.6000003814697</ele>
        <time>2021-01-07T09:04:43.000Z</time>
      </trkpt>
      <trkpt lat="47.30034" lon="-2.38969">
        <ele>9</ele>
        <time>2021-01-07T09:04:44.000Z</time>
      </trkpt>
      <trkpt lat="47.3004" lon="-2.38966">
        <ele>9.3999996185303</ele>
        <time>2021-01-07T09:04:45.000Z</time>
      </trkpt>
      <trkpt lat="47.30044" lon="-2.38962">
        <ele>10</ele>
        <time>2021-01-07T09:04:46.000Z</time>
      </trkpt>
      <trkpt lat="47.30049" lon="-2.38957">
        <ele>10.39999961853</ele>
        <time>2021-01-07T09:04:47.000Z</time>
      </trkpt>
      <trkpt lat="47.30064" lon="-2.38941">
        <ele>10.39999961853</ele>
        <time>2021-01-07T09:04:51.000Z</time>
      </trkpt>
      <trkpt lat="47.30087" lon="-2.38923">
        <ele>10.39999961853</ele>
        <time>2021-01-07T09:04:57.000Z</time>
      </trkpt>
      <trkpt lat="47.30099" lon="-2.38913">
        <ele>10.800000190735</ele>
        <time>2021-01-07T09:05:00.000Z</time>
      </trkpt>
      <trkpt lat="47.30102" lon="-2.3891">
        <ele>11.199999809265</ele>
        <time>2021-01-07T09:05:01.000Z</time>
      </trkpt>
      <trkpt lat="47.30105" lon="-2.38906">
        <ele>11.60000038147</ele>
        <time>2021-01-07T09:05:02.000Z</time>
      </trkpt>
      <trkpt lat="47.30108" lon="-2.38903">
        <ele>12</ele>
        <time>2021-01-07T09:05:03.000Z</time>
      </trkpt>
      <trkpt lat="47.30111" lon="-2.38898">
        <ele>12.39999961853</ele>
        <time>2021-01-07T09:05:04.000Z</time>
      </trkpt>
      <trkpt lat="47.30122" lon="-2.3888">
        <ele>12.800000190735</ele>
        <time>2021-01-07T09:05:08.000Z</time>
      </trkpt>
      <trkpt lat="47.30125" lon="-2.38875">
        <ele>13.199999809265</ele>
        <time>2021-01-07T09:05:09.000Z</time>
      </trkpt>
      <trkpt lat="47.30128" lon="-2.3887">
        <ele>13.800000190735</ele>
        <time>2021-01-07T09:05:10.000Z</time>
      </trkpt>
      <trkpt lat="47.30131" lon="-2.38865">
        <ele>14.199999809265</ele>
        <time>2021-01-07T09:05:11.000Z</time>
      </trkpt>
      <trkpt lat="47.30133" lon="-2.38861">
        <ele>14.60000038147</ele>
        <time>2021-01-07T09:05:12.000Z</time>
      </trkpt>
      <trkpt lat="47.30149" lon="-2.38834">
        <ele>15</ele>
        <time>2021-01-07T09:05:18.000Z</time>
      </trkpt>
      <trkpt lat="47.30151" lon="-2.3883">
        <ele>15.39999961853</ele>
        <time>2021-01-07T09:05:19.000Z</time>
      </trkpt>
      <trkpt lat="47.30154" lon="-2.38826">
        <ele>15.800000190735</ele>
        <time>2021-01-07T09:05:20.000Z</time>
      </trkpt>
      <trkpt lat="47.30156" lon="-2.38821">
        <ele>16.60000038147</ele>
        <time>2021-01-07T09:05:21.000Z</time>
      </trkpt>
      <trkpt lat="47.30167" lon="-2.38805">
        <ele>16.60000038147</ele>
        <time>2021-01-07T09:05:25.000Z</time>
      </trkpt>
      <trkpt lat="47.30175" lon="-2.38795">
        <ele>17.200000762939</ele>
        <time>2021-01-07T09:05:28.000Z</time>
      </trkpt>
      <trkpt lat="47.30178" lon="-2.38792">
        <ele>17.60000038147</ele>
        <time>2021-01-07T09:05:29.000Z</time>
      </trkpt>
      <trkpt lat="47.3018" lon="-2.38788">
        <ele>18</ele>
        <time>2021-01-07T09:05:30.000Z</time>
      </trkpt>
      <trkpt lat="47.30183" lon="-2.38784">
        <ele>18.39999961853</ele>
        <time>2021-01-07T09:05:31.000Z</time>
      </trkpt>
      <trkpt lat="47.30186" lon="-2.38781">
        <ele>18.799999237061</ele>
        <time>2021-01-07T09:05:32.000Z</time>
      </trkpt>
      <trkpt lat="47.30202" lon="-2.38767">
        <ele>19.200000762939</ele>
        <time>2021-01-07T09:05:37.000Z</time>
      </trkpt>
      <trkpt lat="47.30205" lon="-2.38766">
        <ele>19.799999237061</ele>
        <time>2021-01-07T09:05:38.000Z</time>
      </trkpt>
      <trkpt lat="47.30208" lon="-2.38766">
        <ele>20.200000762939</ele>
        <time>2021-01-07T09:05:39.000Z</time>
      </trkpt>
      <trkpt lat="47.30211" lon="-2.38767">
        <ele>20.60000038147</ele>
        <time>2021-01-07T09:05:40.000Z</time>
      </trkpt>
      <trkpt lat="47.30215" lon="-2.38769">
        <ele>21</ele>
        <time>2021-01-07T09:05:41.000Z</time>
      </trkpt>
      <trkpt lat="47.30225" lon="-2.38775">
        <ele>21.39999961853</ele>
        <time>2021-01-07T09:05:44.000Z</time>
      </trkpt>
      <trkpt lat="47.30227" lon="-2.38777">
        <ele>22.39999961853</ele>
        <time>2021-01-07T09:05:45.000Z</time>
      </trkpt>
      <trkpt lat="47.3023" lon="-2.3878">
        <ele>22.799999237061</ele>
        <time>2021-01-07T09:05:46.000Z</time>
      </trkpt>
      <trkpt lat="47.30232" lon="-2.38782">
        <ele>23.200000762939</ele>
        <time>2021-01-07T09:05:47.000Z</time>
      </trkpt>
      <trkpt lat="47.30237" lon="-2.38787">
        <ele>23.60000038147</ele>
        <time>2021-01-07T09:05:49.000Z</time>
      </trkpt>
      <trkpt lat="47.30239" lon="-2.3879">
        <ele>24.200000762939</ele>
        <time>2021-01-07T09:05:50.000Z</time>
      </trkpt>
      <trkpt lat="47.30242" lon="-2.38793">
        <ele>24.60000038147</ele>
        <time>2021-01-07T09:05:51.000Z</time>
      </trkpt>
      <trkpt lat="47.30244" lon="-2.38795">
        <ele>25</ele>
        <time>2021-01-07T09:05:52.000Z</time>
      </trkpt>
      <trkpt lat="47.30246" lon="-2.38798">
        <ele>25.60000038147</ele>
        <time>2021-01-07T09:05:53.000Z</time>
      </trkpt>
      <trkpt lat="47.30251" lon="-2.38807">
        <ele>26</ele>
        <time>2021-01-07T09:05:56.000Z</time>
      </trkpt>
      <trkpt lat="47.30253" lon="-2.3881">
        <ele>26.39999961853</ele>
        <time>2021-01-07T09:05:57.000Z</time>
      </trkpt>
      <trkpt lat="47.30254" lon="-2.38813">
        <ele>26.799999237061</ele>
        <time>2021-01-07T09:05:58.000Z</time>
      </trkpt>
      <trkpt lat="47.30256" lon="-2.38817">
        <ele>27.200000762939</ele>
        <time>2021-01-07T09:05:59.000Z</time>
      </trkpt>
      <trkpt lat="47.30258" lon="-2.3882">
        <ele>27.799999237061</ele>
        <time>2021-01-07T09:06:00.000Z</time>
      </trkpt>
      <trkpt lat="47.30267" lon="-2.38838">
        <ele>27.799999237061</ele>
        <time>2021-01-07T09:06:05.000Z</time>
      </trkpt>
      <trkpt lat="47.3027" lon="-2.38846">
        <ele>28.200000762939</ele>
        <time>2021-01-07T09:06:07.000Z</time>
      </trkpt>
      <trkpt lat="47.30272" lon="-2.38851">
        <ele>28.60000038147</ele>
        <time>2021-01-07T09:06:08.000Z</time>
      </trkpt>
      <trkpt lat="47.30274" lon="-2.38856">
        <ele>29</ele>
        <time>2021-01-07T09:06:09.000Z</time>
      </trkpt>
      <trkpt lat="47.30275" lon="-2.38861">
        <ele>29.799999237061</ele>
        <time>2021-01-07T09:06:10.000Z</time>
      </trkpt>
      <trkpt lat="47.30278" lon="-2.38865">
        <ele>29.799999237061</ele>
        <time>2021-01-07T09:06:11.000Z</time>
      </trkpt>
      <trkpt lat="47.30291" lon="-2.38899">
        <ele>29.799999237061</ele>
        <time>2021-01-07T09:06:18.000Z</time>
      </trkpt>
      <trkpt lat="47.30303" lon="-2.38932">
        <ele>29.799999237061</ele>
        <time>2021-01-07T09:06:24.000Z</time>
      </trkpt>
      <trkpt lat="47.3031" lon="-2.38946">
        <ele>29.799999237061</ele>
        <time>2021-01-07T09:06:27.000Z</time>
      </trkpt>
      <trkpt lat="47.30315" lon="-2.38955">
        <ele>30.200000762939</ele>
        <time>2021-01-07T09:06:29.000Z</time>
      </trkpt>
      <trkpt lat="47.30318" lon="-2.38959">
        <ele>30.60000038147</ele>
        <time>2021-01-07T09:06:30.000Z</time>
      </trkpt>
      <trkpt lat="47.30321" lon="-2.38963">
        <ele>31</ele>
        <time>2021-01-07T09:06:31.000Z</time>
      </trkpt>
      <trkpt lat="47.30323" lon="-2.38967">
        <ele>31.39999961853</ele>
        <time>2021-01-07T09:06:32.000Z</time>
      </trkpt>
      <trkpt lat="47.30326" lon="-2.38971">
        <ele>31.799999237061</ele>
        <time>2021-01-07T09:06:33.000Z</time>
      </trkpt>
      <trkpt lat="47.30333" lon="-2.38984">
        <ele>31.799999237061</ele>
        <time>2021-01-07T09:06:36.000Z</time>
      </trkpt>
      <trkpt lat="47.30335" lon="-2.38989">
        <ele>31.799999237061</ele>
        <time>2021-01-07T09:06:37.000Z</time>
      </trkpt>
      <trkpt lat="47.30345" lon="-2.39016">
        <ele>32.200000762939</ele>
        <time>2021-01-07T09:06:42.000Z</time>
      </trkpt>
      <trkpt lat="47.30347" lon="-2.39021">
        <ele>32.599998474121</ele>
        <time>2021-01-07T09:06:43.000Z</time>
      </trkpt>
      <trkpt lat="47.30348" lon="-2.39026">
        <ele>33</ele>
        <time>2021-01-07T09:06:44.000Z</time>
      </trkpt>
      <trkpt lat="47.30349" lon="-2.39031">
        <ele>33.400001525879</ele>
        <time>2021-01-07T09:06:45.000Z</time>
      </trkpt>
      <trkpt lat="47.30351" lon="-2.39036">
        <ele>33.799999237061</ele>
        <time>2021-01-07T09:06:46.000Z</time>
      </trkpt>
      <trkpt lat="47.30356" lon="-2.39057">
        <ele>33.799999237061</ele>
        <time>2021-01-07T09:06:50.000Z</time>
      </trkpt>
      <trkpt lat="47.30364" lon="-2.39098">
        <ele>33.799999237061</ele>
        <time>2021-01-07T09:06:56.000Z</time>
      </trkpt>
      <trkpt lat="47.30382" lon="-2.39146">
        <ele>33.799999237061</ele>
        <time>2021-01-07T09:07:02.000Z</time>
      </trkpt>
      <trkpt lat="47.30391" lon="-2.3916">
        <ele>33.799999237061</ele>
        <time>2021-01-07T09:07:04.000Z</time>
      </trkpt>
      <trkpt lat="47.30402" lon="-2.39169">
        <ele>33.799999237061</ele>
        <time>2021-01-07T09:07:06.000Z</time>
      </trkpt>
      <trkpt lat="47.30423" lon="-2.39169">
        <ele>33.799999237061</ele>
        <time>2021-01-07T09:07:10.000Z</time>
      </trkpt>
      <trkpt lat="47.30445" lon="-2.39155">
        <ele>33.799999237061</ele>
        <time>2021-01-07T09:07:15.000Z</time>
      </trkpt>
      <trkpt lat="47.30452" lon="-2.39146">
        <ele>33.799999237061</ele>
        <time>2021-01-07T09:07:17.000Z</time>
      </trkpt>
      <trkpt lat="47.30465" lon="-2.39129">
        <ele>33.799999237061</ele>
        <time>2021-01-07T09:07:21.000Z</time>
      </trkpt>
      <trkpt lat="47.30493" lon="-2.39098">
        <ele>33.799999237061</ele>
        <time>2021-01-07T09:07:29.000Z</time>
      </trkpt>
      <trkpt lat="47.30515" lon="-2.39077">
        <ele>34.200000762939</ele>
        <time>2021-01-07T09:07:35.000Z</time>
      </trkpt>
      <trkpt lat="47.30518" lon="-2.39073">
        <ele>34.599998474121</ele>
        <time>2021-01-07T09:07:36.000Z</time>
      </trkpt>
      <trkpt lat="47.30522" lon="-2.3907">
        <ele>35</ele>
        <time>2021-01-07T09:07:37.000Z</time>
      </trkpt>
      <trkpt lat="47.30526" lon="-2.39067">
        <ele>35.400001525879</ele>
        <time>2021-01-07T09:07:38.000Z</time>
      </trkpt>
      <trkpt lat="47.30529" lon="-2.39063">
        <ele>36</ele>
        <time>2021-01-07T09:07:39.000Z</time>
      </trkpt>
      <trkpt lat="47.30545" lon="-2.39049">
        <ele>36</ele>
        <time>2021-01-07T09:07:43.000Z</time>
      </trkpt>
      <trkpt lat="47.30572" lon="-2.39023">
        <ele>36.400001525879</ele>
        <time>2021-01-07T09:07:50.000Z</time>
      </trkpt>
      <trkpt lat="47.30575" lon="-2.39018">
        <ele>36.799999237061</ele>
        <time>2021-01-07T09:07:51.000Z</time>
      </trkpt>
      <trkpt lat="47.30578" lon="-2.39013">
        <ele>37.200000762939</ele>
        <time>2021-01-07T09:07:52.000Z</time>
      </trkpt>
      <trkpt lat="47.30581" lon="-2.39009">
        <ele>37.599998474121</ele>
        <time>2021-01-07T09:07:53.000Z</time>
      </trkpt>
      <trkpt lat="47.30584" lon="-2.39004">
        <ele>38</ele>
        <time>2021-01-07T09:07:54.000Z</time>
      </trkpt>
      <trkpt lat="47.30596" lon="-2.38987">
        <ele>38</ele>
        <time>2021-01-07T09:07:58.000Z</time>
      </trkpt>
      <trkpt lat="47.30614" lon="-2.38971">
        <ele>38</ele>
        <time>2021-01-07T09:08:03.000Z</time>
      </trkpt>
      <trkpt lat="47.30624" lon="-2.38964">
        <ele>38</ele>
        <time>2021-01-07T09:08:06.000Z</time>
      </trkpt>
      <trkpt lat="47.30628" lon="-2.38961">
        <ele>38.400001525879</ele>
        <time>2021-01-07T09:08:07.000Z</time>
      </trkpt>
      <trkpt lat="47.30631" lon="-2.38958">
        <ele>38.799999237061</ele>
        <time>2021-01-07T09:08:08.000Z</time>
      </trkpt>
      <trkpt lat="47.30634" lon="-2.38955">
        <ele>39.200000762939</ele>
        <time>2021-01-07T09:08:09.000Z</time>
      </trkpt>
      <trkpt lat="47.30637" lon="-2.38953">
        <ele>39.599998474121</ele>
        <time>2021-01-07T09:08:10.000Z</time>
      </trkpt>
      <trkpt lat="47.3064" lon="-2.38951">
        <ele>40</ele>
        <time>2021-01-07T09:08:11.000Z</time>
      </trkpt>
      <trkpt lat="47.30643" lon="-2.38948">
        <ele>40</ele>
        <time>2021-01-07T09:08:12.000Z</time>
      </trkpt>
      <trkpt lat="47.30659" lon="-2.38929">
        <ele>40</ele>
        <time>2021-01-07T09:08:18.000Z</time>
      </trkpt>
      <trkpt lat="47.30679" lon="-2.38911">
        <ele>40</ele>
        <time>2021-01-07T09:08:25.000Z</time>
      </trkpt>
      <trkpt lat="47.3069" lon="-2.38906">
        <ele>40</ele>
        <time>2021-01-07T09:08:30.000Z</time>
      </trkpt>
      <trkpt lat="47.30695" lon="-2.38902">
        <ele>40</ele>
        <time>2021-01-07T09:08:37.000Z</time>
      </trkpt>
      <trkpt lat="47.30699" lon="-2.38908">
        <ele>40</ele>
        <time>2021-01-07T09:09:36.000Z</time>
      </trkpt>
      <trkpt lat="47.30702" lon="-2.38915">
        <ele>40</ele>
        <time>2021-01-07T09:09:38.000Z</time>
      </trkpt>
      <trkpt lat="47.30702" lon="-2.38937">
        <ele>40</ele>
        <time>2021-01-07T09:09:42.000Z</time>
      </trkpt>
      <trkpt lat="47.30702" lon="-2.38944">
        <ele>40</ele>
        <time>2021-01-07T09:09:43.000Z</time>
      </trkpt>
      <trkpt lat="47.3071" lon="-2.38962">
        <ele>40</ele>
        <time>2021-01-07T09:09:46.000Z</time>
      </trkpt>
      <trkpt lat="47.30724" lon="-2.38958">
        <ele>40</ele>
        <time>2021-01-07T09:09:49.000Z</time>
      </trkpt>
      <trkpt lat="47.30729" lon="-2.38955">
        <ele>40</ele>
        <time>2021-01-07T09:09:50.000Z</time>
      </trkpt>
      <trkpt lat="47.30734" lon="-2.38954">
        <ele>40</ele>
        <time>2021-01-07T09:09:51.000Z</time>
      </trkpt>
      <trkpt lat="47.3075" lon="-2.38954">
        <ele>40</ele>
        <time>2021-01-07T09:09:54.000Z</time>
      </trkpt>
      <trkpt lat="47.30761" lon="-2.38952">
        <ele>40</ele>
        <time>2021-01-07T09:09:56.000Z</time>
      </trkpt>
      <trkpt lat="47.30772" lon="-2.38946">
        <ele>40</ele>
        <time>2021-01-07T09:09:58.000Z</time>
      </trkpt>
      <trkpt lat="47.30784" lon="-2.38936">
        <ele>40</ele>
        <time>2021-01-07T09:10:00.000Z</time>
      </trkpt>
      <trkpt lat="47.3079" lon="-2.38931">
        <ele>39.599998474121</ele>
        <time>2021-01-07T09:10:01.000Z</time>
      </trkpt>
      <trkpt lat="47.30796" lon="-2.38926">
        <ele>39.200000762939</ele>
        <time>2021-01-07T09:10:02.000Z</time>
      </trkpt>
      <trkpt lat="47.30803" lon="-2.38921">
        <ele>38.799999237061</ele>
        <time>2021-01-07T09:10:03.000Z</time>
      </trkpt>
      <trkpt lat="47.30809" lon="-2.38916">
        <ele>38.400001525879</ele>
        <time>2021-01-07T09:10:04.000Z</time>
      </trkpt>
      <trkpt lat="47.30815" lon="-2.3891">
        <ele>38</ele>
        <time>2021-01-07T09:10:05.000Z</time>
      </trkpt>
      <trkpt lat="47.30844" lon="-2.38887">
        <ele>38</ele>
        <time>2021-01-07T09:10:10.000Z</time>
      </trkpt>
      <trkpt lat="47.30863" lon="-2.38866">
        <ele>38</ele>
        <time>2021-01-07T09:10:15.000Z</time>
      </trkpt>
      <trkpt lat="47.30871" lon="-2.38849">
        <ele>38.400001525879</ele>
        <time>2021-01-07T09:10:18.000Z</time>
      </trkpt>
      <trkpt lat="47.30874" lon="-2.38844">
        <ele>38.799999237061</ele>
        <time>2021-01-07T09:10:19.000Z</time>
      </trkpt>
      <trkpt lat="47.30878" lon="-2.3884">
        <ele>39.200000762939</ele>
        <time>2021-01-07T09:10:20.000Z</time>
      </trkpt>
      <trkpt lat="47.30883" lon="-2.38838">
        <ele>39.599998474121</ele>
        <time>2021-01-07T09:10:21.000Z</time>
      </trkpt>
      <trkpt lat="47.30888" lon="-2.38838">
        <ele>40</ele>
        <time>2021-01-07T09:10:22.000Z</time>
      </trkpt>
      <trkpt lat="47.30893" lon="-2.3884">
        <ele>40</ele>
        <time>2021-01-07T09:10:23.000Z</time>
      </trkpt>
      <trkpt lat="47.30902" lon="-2.38853">
        <ele>40</ele>
        <time>2021-01-07T09:10:26.000Z</time>
      </trkpt>
      <trkpt lat="47.30907" lon="-2.38867">
        <ele>40</ele>
        <time>2021-01-07T09:10:28.000Z</time>
      </trkpt>
      <trkpt lat="47.30911" lon="-2.3888">
        <ele>40</ele>
        <time>2021-01-07T09:10:30.000Z</time>
      </trkpt>
      <trkpt lat="47.30915" lon="-2.38887">
        <ele>40</ele>
        <time>2021-01-07T09:10:31.000Z</time>
      </trkpt>
      <trkpt lat="47.30925" lon="-2.38902">
        <ele>40</ele>
        <time>2021-01-07T09:10:34.000Z</time>
      </trkpt>
      <trkpt lat="47.30928" lon="-2.38908">
        <ele>40</ele>
        <time>2021-01-07T09:10:35.000Z</time>
      </trkpt>
      <trkpt lat="47.3093" lon="-2.38915">
        <ele>40</ele>
        <time>2021-01-07T09:10:36.000Z</time>
      </trkpt>
      <trkpt lat="47.30929" lon="-2.38937">
        <ele>40</ele>
        <time>2021-01-07T09:10:39.000Z</time>
      </trkpt>
      <trkpt lat="47.30919" lon="-2.38955">
        <ele>40</ele>
        <time>2021-01-07T09:10:42.000Z</time>
      </trkpt>
      <trkpt lat="47.30916" lon="-2.38961">
        <ele>40</ele>
        <time>2021-01-07T09:10:43.000Z</time>
      </trkpt>
      <trkpt lat="47.30907" lon="-2.38982">
        <ele>40</ele>
        <time>2021-01-07T09:10:46.000Z</time>
      </trkpt>
      <trkpt lat="47.30904" lon="-2.38997">
        <ele>40</ele>
        <time>2021-01-07T09:10:48.000Z</time>
      </trkpt>
      <trkpt lat="47.30903" lon="-2.39014">
        <ele>40</ele>
        <time>2021-01-07T09:10:50.000Z</time>
      </trkpt>
      <trkpt lat="47.309" lon="-2.39057">
        <ele>40</ele>
        <time>2021-01-07T09:10:55.000Z</time>
      </trkpt>
      <trkpt lat="47.30902" lon="-2.39082">
        <ele>40</ele>
        <time>2021-01-07T09:10:58.000Z</time>
      </trkpt>
      <trkpt lat="47.30906" lon="-2.39098">
        <ele>40</ele>
        <time>2021-01-07T09:11:00.000Z</time>
      </trkpt>
      <trkpt lat="47.30914" lon="-2.3912">
        <ele>40</ele>
        <time>2021-01-07T09:11:03.000Z</time>
      </trkpt>
      <trkpt lat="47.30922" lon="-2.39142">
        <ele>40</ele>
        <time>2021-01-07T09:11:06.000Z</time>
      </trkpt>
      <trkpt lat="47.30945" lon="-2.39201">
        <ele>40</ele>
        <time>2021-01-07T09:11:14.000Z</time>
      </trkpt>
      <trkpt lat="47.30969" lon="-2.3925">
        <ele>40</ele>
        <time>2021-01-07T09:11:21.000Z</time>
      </trkpt>
      <trkpt lat="47.30987" lon="-2.39302">
        <ele>40</ele>
        <time>2021-01-07T09:11:28.000Z</time>
      </trkpt>
      <trkpt lat="47.31006" lon="-2.39357">
        <ele>40</ele>
        <time>2021-01-07T09:11:36.000Z</time>
      </trkpt>
      <trkpt lat="47.31025" lon="-2.39412">
        <ele>40</ele>
        <time>2021-01-07T09:11:44.000Z</time>
      </trkpt>
      <trkpt lat="47.31043" lon="-2.39468">
        <ele>40</ele>
        <time>2021-01-07T09:11:52.000Z</time>
      </trkpt>
      <trkpt lat="47.31045" lon="-2.39475">
        <ele>39.599998474121</ele>
        <time>2021-01-07T09:11:53.000Z</time>
      </trkpt>
      <trkpt lat="47.31048" lon="-2.39483">
        <ele>39.200000762939</ele>
        <time>2021-01-07T09:11:54.000Z</time>
      </trkpt>
      <trkpt lat="47.31051" lon="-2.3949">
        <ele>38.799999237061</ele>
        <time>2021-01-07T09:11:55.000Z</time>
      </trkpt>
      <trkpt lat="47.31053" lon="-2.39497">
        <ele>38</ele>
        <time>2021-01-07T09:11:56.000Z</time>
      </trkpt>
      <trkpt lat="47.31061" lon="-2.39518">
        <ele>38</ele>
        <time>2021-01-07T09:11:59.000Z</time>
      </trkpt>
      <trkpt lat="47.31076" lon="-2.39563">
        <ele>38</ele>
        <time>2021-01-07T09:12:06.000Z</time>
      </trkpt>
      <trkpt lat="47.31078" lon="-2.39569">
        <ele>38.400001525879</ele>
        <time>2021-01-07T09:12:07.000Z</time>
      </trkpt>
      <trkpt lat="47.31081" lon="-2.39575">
        <ele>38.799999237061</ele>
        <time>2021-01-07T09:12:08.000Z</time>
      </trkpt>
      <trkpt lat="47.31083" lon="-2.39581">
        <ele>39.200000762939</ele>
        <time>2021-01-07T09:12:09.000Z</time>
      </trkpt>
      <trkpt lat="47.31084" lon="-2.39587">
        <ele>39.599998474121</ele>
        <time>2021-01-07T09:12:10.000Z</time>
      </trkpt>
      <trkpt lat="47.31086" lon="-2.39593">
        <ele>40</ele>
        <time>2021-01-07T09:12:11.000Z</time>
      </trkpt>
      <trkpt lat="47.3109" lon="-2.39605">
        <ele>40</ele>
        <time>2021-01-07T09:12:13.000Z</time>
      </trkpt>
      <trkpt lat="47.31114" lon="-2.39673">
        <ele>40</ele>
        <time>2021-01-07T09:12:24.000Z</time>
      </trkpt>
      <trkpt lat="47.31133" lon="-2.3973">
        <ele>40</ele>
        <time>2021-01-07T09:12:32.000Z</time>
      </trkpt>
      <trkpt lat="47.31147" lon="-2.39768">
        <ele>40</ele>
        <time>2021-01-07T09:12:37.000Z</time>
      </trkpt>
      <trkpt lat="47.31154" lon="-2.39791">
        <ele>40</ele>
        <time>2021-01-07T09:12:40.000Z</time>
      </trkpt>
      <trkpt lat="47.31162" lon="-2.3981">
        <ele>39.599998474121</ele>
        <time>2021-01-07T09:12:43.000Z</time>
      </trkpt>
      <trkpt lat="47.31165" lon="-2.39816">
        <ele>39.200000762939</ele>
        <time>2021-01-07T09:12:44.000Z</time>
      </trkpt>
      <trkpt lat="47.31168" lon="-2.39822">
        <ele>38.400001525879</ele>
        <time>2021-01-07T09:12:45.000Z</time>
      </trkpt>
      <trkpt lat="47.3117" lon="-2.39828">
        <ele>38</ele>
        <time>2021-01-07T09:12:46.000Z</time>
      </trkpt>
      <trkpt lat="47.31173" lon="-2.39833">
        <ele>38</ele>
        <time>2021-01-07T09:12:47.000Z</time>
      </trkpt>
      <trkpt lat="47.3118" lon="-2.39849">
        <ele>38</ele>
        <time>2021-01-07T09:12:50.000Z</time>
      </trkpt>
      <trkpt lat="47.31184" lon="-2.39863">
        <ele>38</ele>
        <time>2021-01-07T09:12:53.000Z</time>
      </trkpt>
      <trkpt lat="47.31186" lon="-2.39878">
        <ele>38</ele>
        <time>2021-01-07T09:12:56.000Z</time>
      </trkpt>
      <trkpt lat="47.31187" lon="-2.3988">
        <ele>38</ele>
        <time>2021-01-07T09:12:57.000Z</time>
      </trkpt>
      <trkpt lat="47.31189" lon="-2.39888">
        <ele>38</ele>
        <time>2021-01-07T09:13:01.000Z</time>
      </trkpt>
      <trkpt lat="47.31191" lon="-2.39897">
        <ele>38</ele>
        <time>2021-01-07T09:13:03.000Z</time>
      </trkpt>
      <trkpt lat="47.31197" lon="-2.39912">
        <ele>37.599998474121</ele>
        <time>2021-01-07T09:13:07.000Z</time>
      </trkpt>
      <trkpt lat="47.31198" lon="-2.39915">
        <ele>37.200000762939</ele>
        <time>2021-01-07T09:13:08.000Z</time>
      </trkpt>
      <trkpt lat="47.31199" lon="-2.39917">
        <ele>36.200000762939</ele>
        <time>2021-01-07T09:13:09.000Z</time>
      </trkpt>
      <trkpt lat="47.312" lon="-2.3992">
        <ele>35.799999237061</ele>
        <time>2021-01-07T09:13:10.000Z</time>
      </trkpt>
      <trkpt lat="47.31206" lon="-2.39934">
        <ele>35.799999237061</ele>
        <time>2021-01-07T09:13:14.000Z</time>
      </trkpt>
      <trkpt lat="47.31216" lon="-2.39958">
        <ele>35.799999237061</ele>
        <time>2021-01-07T09:13:21.000Z</time>
      </trkpt>
      <trkpt lat="47.31217" lon="-2.39962">
        <ele>35.400001525879</ele>
        <time>2021-01-07T09:13:22.000Z</time>
      </trkpt>
      <trkpt lat="47.31218" lon="-2.39967">
        <ele>35</ele>
        <time>2021-01-07T09:13:23.000Z</time>
      </trkpt>
      <trkpt lat="47.31219" lon="-2.39972">
        <ele>34.599998474121</ele>
        <time>2021-01-07T09:13:24.000Z</time>
      </trkpt>
      <trkpt lat="47.31221" lon="-2.39977">
        <ele>34.200000762939</ele>
        <time>2021-01-07T09:13:25.000Z</time>
      </trkpt>
      <trkpt lat="47.31223" lon="-2.39983">
        <ele>33.799999237061</ele>
        <time>2021-01-07T09:13:26.000Z</time>
      </trkpt>
      <trkpt lat="47.31232" lon="-2.40015">
        <ele>33.400001525879</ele>
        <time>2021-01-07T09:13:32.000Z</time>
      </trkpt>
      <trkpt lat="47.31233" lon="-2.40019">
        <ele>32.799999237061</ele>
        <time>2021-01-07T09:13:33.000Z</time>
      </trkpt>
      <trkpt lat="47.31235" lon="-2.40024">
        <ele>32</ele>
        <time>2021-01-07T09:13:34.000Z</time>
      </trkpt>
      <trkpt lat="47.31236" lon="-2.40027">
        <ele>31.60000038147</ele>
        <time>2021-01-07T09:13:35.000Z</time>
      </trkpt>
      <trkpt lat="47.31236" lon="-2.40033">
        <ele>31.60000038147</ele>
        <time>2021-01-07T09:13:37.000Z</time>
      </trkpt>
      <trkpt lat="47.31237" lon="-2.40037">
        <ele>31.60000038147</ele>
        <time>2021-01-07T09:13:38.000Z</time>
      </trkpt>
      <trkpt lat="47.31244" lon="-2.40042">
        <ele>31.60000038147</ele>
        <time>2021-01-07T09:13:41.000Z</time>
      </trkpt>
      <trkpt lat="47.31244" lon="-2.40042">
        <ele>31.60000038147</ele>
        <time>2021-01-07T09:13:43.000Z</time>
      </trkpt>
      <trkpt lat="47.31247" lon="-2.40043">
        <ele>31.60000038147</ele>
        <time>2021-01-07T09:13:47.000Z</time>
      </trkpt>
      <trkpt lat="47.31248" lon="-2.40044">
        <ele>31.60000038147</ele>
        <time>2021-01-07T09:13:48.000Z</time>
      </trkpt>
      <trkpt lat="47.3125" lon="-2.40047">
        <ele>31.60000038147</ele>
        <time>2021-01-07T09:13:51.000Z</time>
      </trkpt>
      <trkpt lat="47.31255" lon="-2.40051">
        <ele>31.60000038147</ele>
        <time>2021-01-07T09:13:53.000Z</time>
      </trkpt>
      <trkpt lat="47.31272" lon="-2.40061">
        <ele>31.60000038147</ele>
        <time>2021-01-07T09:13:56.000Z</time>
      </trkpt>
      <trkpt lat="47.31276" lon="-2.40061">
        <ele>31.60000038147</ele>
        <time>2021-01-07T09:13:57.000Z</time>
      </trkpt>
      <trkpt lat="47.31288" lon="-2.40063">
        <ele>31.60000038147</ele>
        <time>2021-01-07T09:14:00.000Z</time>
      </trkpt>
      <trkpt lat="47.313" lon="-2.40065">
        <ele>31.60000038147</ele>
        <time>2021-01-07T09:14:05.000Z</time>
      </trkpt>
      <trkpt lat="47.31302" lon="-2.40065">
        <ele>31.60000038147</ele>
        <time>2021-01-07T09:14:08.000Z</time>
      </trkpt>
      <trkpt lat="47.31307" lon="-2.40068">
        <ele>31.60000038147</ele>
        <time>2021-01-07T09:14:14.000Z</time>
      </trkpt>
      <trkpt lat="47.31317" lon="-2.40073">
        <ele>31.60000038147</ele>
        <time>2021-01-07T09:14:18.000Z</time>
      </trkpt>
      <trkpt lat="47.31323" lon="-2.40074">
        <ele>31.60000038147</ele>
        <time>2021-01-07T09:14:20.000Z</time>
      </trkpt>
      <trkpt lat="47.31343" lon="-2.40084">
        <ele>31.60000038147</ele>
        <time>2021-01-07T09:14:25.000Z</time>
      </trkpt>
      <trkpt lat="47.31363" lon="-2.40093">
        <ele>31.60000038147</ele>
        <time>2021-01-07T09:14:31.000Z</time>
      </trkpt>
      <trkpt lat="47.31385" lon="-2.40105">
        <ele>31.60000038147</ele>
        <time>2021-01-07T09:14:38.000Z</time>
      </trkpt>
      <trkpt lat="47.31406" lon="-2.40119">
        <ele>31.60000038147</ele>
        <time>2021-01-07T09:14:45.000Z</time>
      </trkpt>
      <trkpt lat="47.31421" lon="-2.40129">
        <ele>31.60000038147</ele>
        <time>2021-01-07T09:14:50.000Z</time>
      </trkpt>
      <trkpt lat="47.31441" lon="-2.40146">
        <ele>31.60000038147</ele>
        <time>2021-01-07T09:14:57.000Z</time>
      </trkpt>
      <trkpt lat="47.31454" lon="-2.40157">
        <ele>32</ele>
        <time>2021-01-07T09:15:01.000Z</time>
      </trkpt>
      <trkpt lat="47.31457" lon="-2.4016">
        <ele>32.400001525879</ele>
        <time>2021-01-07T09:15:02.000Z</time>
      </trkpt>
      <trkpt lat="47.31461" lon="-2.40163">
        <ele>32.799999237061</ele>
        <time>2021-01-07T09:15:03.000Z</time>
      </trkpt>
      <trkpt lat="47.31465" lon="-2.40165">
        <ele>33.200000762939</ele>
        <time>2021-01-07T09:15:04.000Z</time>
      </trkpt>
      <trkpt lat="47.31468" lon="-2.40168">
        <ele>33.599998474121</ele>
        <time>2021-01-07T09:15:05.000Z</time>
      </trkpt>
      <trkpt lat="47.3148" lon="-2.40178">
        <ele>33.599998474121</ele>
        <time>2021-01-07T09:15:08.000Z</time>
      </trkpt>
      <trkpt lat="47.31489" lon="-2.40186">
        <ele>33.599998474121</ele>
        <time>2021-01-07T09:15:11.000Z</time>
      </trkpt>
      <trkpt lat="47.31506" lon="-2.40197">
        <ele>33.599998474121</ele>
        <time>2021-01-07T09:15:16.000Z</time>
      </trkpt>
      <trkpt lat="47.31533" lon="-2.40215">
        <ele>33.599998474121</ele>
        <time>2021-01-07T09:15:23.000Z</time>
      </trkpt>
      <trkpt lat="47.31537" lon="-2.40217">
        <ele>34</ele>
        <time>2021-01-07T09:15:24.000Z</time>
      </trkpt>
      <trkpt lat="47.31541" lon="-2.40219">
        <ele>34.599998474121</ele>
        <time>2021-01-07T09:15:25.000Z</time>
      </trkpt>
      <trkpt lat="47.31545" lon="-2.40222">
        <ele>35</ele>
        <time>2021-01-07T09:15:26.000Z</time>
      </trkpt>
      <trkpt lat="47.31549" lon="-2.40225">
        <ele>35.400001525879</ele>
        <time>2021-01-07T09:15:27.000Z</time>
      </trkpt>
      <trkpt lat="47.31553" lon="-2.40228">
        <ele>35.799999237061</ele>
        <time>2021-01-07T09:15:28.000Z</time>
      </trkpt>
      <trkpt lat="47.3158" lon="-2.40249">
        <ele>35.799999237061</ele>
        <time>2021-01-07T09:15:35.000Z</time>
      </trkpt>
      <trkpt lat="47.31606" lon="-2.40273">
        <ele>35.799999237061</ele>
        <time>2021-01-07T09:15:42.000Z</time>
      </trkpt>
      <trkpt lat="47.31626" lon="-2.40285">
        <ele>35.799999237061</ele>
        <time>2021-01-07T09:15:47.000Z</time>
      </trkpt>
      <trkpt lat="47.31634" lon="-2.40291">
        <ele>36.200000762939</ele>
        <time>2021-01-07T09:15:49.000Z</time>
      </trkpt>
      <trkpt lat="47.31637" lon="-2.40294">
        <ele>36.599998474121</ele>
        <time>2021-01-07T09:15:50.000Z</time>
      </trkpt>
      <trkpt lat="47.31641" lon="-2.40297">
        <ele>37</ele>
        <time>2021-01-07T09:15:51.000Z</time>
      </trkpt>
      <trkpt lat="47.31645" lon="-2.403">
        <ele>37.400001525879</ele>
        <time>2021-01-07T09:15:52.000Z</time>
      </trkpt>
      <trkpt lat="47.31649" lon="-2.40303">
        <ele>37.799999237061</ele>
        <time>2021-01-07T09:15:53.000Z</time>
      </trkpt>
      <trkpt lat="47.31652" lon="-2.40306">
        <ele>37.799999237061</ele>
        <time>2021-01-07T09:15:54.000Z</time>
      </trkpt>
      <trkpt lat="47.31672" lon="-2.40323">
        <ele>37.799999237061</ele>
        <time>2021-01-07T09:16:01.000Z</time>
      </trkpt>
      <trkpt lat="47.31682" lon="-2.40333">
        <ele>37.799999237061</ele>
        <time>2021-01-07T09:16:07.000Z</time>
      </trkpt>
      <trkpt lat="47.31694" lon="-2.40341">
        <ele>37.799999237061</ele>
        <time>2021-01-07T09:16:14.000Z</time>
      </trkpt>
      <trkpt lat="47.31712" lon="-2.40351">
        <ele>37.799999237061</ele>
        <time>2021-01-07T09:16:21.000Z</time>
      </trkpt>
      <trkpt lat="47.31733" lon="-2.40364">
        <ele>38.200000762939</ele>
        <time>2021-01-07T09:16:27.000Z</time>
      </trkpt>
      <trkpt lat="47.31737" lon="-2.40366">
        <ele>38.599998474121</ele>
        <time>2021-01-07T09:16:28.000Z</time>
      </trkpt>
      <trkpt lat="47.31741" lon="-2.40369">
        <ele>39.200000762939</ele>
        <time>2021-01-07T09:16:29.000Z</time>
      </trkpt>
      <trkpt lat="47.31744" lon="-2.40372">
        <ele>39.599998474121</ele>
        <time>2021-01-07T09:16:30.000Z</time>
      </trkpt>
      <trkpt lat="47.31748" lon="-2.40375">
        <ele>40</ele>
        <time>2021-01-07T09:16:31.000Z</time>
      </trkpt>
      <trkpt lat="47.31755" lon="-2.4038">
        <ele>40</ele>
        <time>2021-01-07T09:16:33.000Z</time>
      </trkpt>
      <trkpt lat="47.31781" lon="-2.40402">
        <ele>40</ele>
        <time>2021-01-07T09:16:40.000Z</time>
      </trkpt>
      <trkpt lat="47.31808" lon="-2.40423">
        <ele>40</ele>
        <time>2021-01-07T09:16:47.000Z</time>
      </trkpt>
      <trkpt lat="47.31819" lon="-2.40431">
        <ele>40.400001525879</ele>
        <time>2021-01-07T09:16:50.000Z</time>
      </trkpt>
      <trkpt lat="47.31823" lon="-2.40435">
        <ele>41.200000762939</ele>
        <time>2021-01-07T09:16:51.000Z</time>
      </trkpt>
      <trkpt lat="47.31827" lon="-2.40438">
        <ele>41.599998474121</ele>
        <time>2021-01-07T09:16:52.000Z</time>
      </trkpt>
      <trkpt lat="47.3183" lon="-2.4044">
        <ele>42</ele>
        <time>2021-01-07T09:16:53.000Z</time>
      </trkpt>
      <trkpt lat="47.31855" lon="-2.40458">
        <ele>42</ele>
        <time>2021-01-07T09:16:59.000Z</time>
      </trkpt>
      <trkpt lat="47.31885" lon="-2.40479">
        <ele>42</ele>
        <time>2021-01-07T09:17:06.000Z</time>
      </trkpt>
      <trkpt lat="47.3191" lon="-2.40498">
        <ele>42.400001525879</ele>
        <time>2021-01-07T09:17:12.000Z</time>
      </trkpt>
      <trkpt lat="47.31915" lon="-2.40501">
        <ele>42.799999237061</ele>
        <time>2021-01-07T09:17:13.000Z</time>
      </trkpt>
      <trkpt lat="47.3192" lon="-2.40505">
        <ele>43.200000762939</ele>
        <time>2021-01-07T09:17:14.000Z</time>
      </trkpt>
      <trkpt lat="47.31924" lon="-2.40508">
        <ele>44</ele>
        <time>2021-01-07T09:17:15.000Z</time>
      </trkpt>
      <trkpt lat="47.31944" lon="-2.40525">
        <ele>44</ele>
        <time>2021-01-07T09:17:20.000Z</time>
      </trkpt>
      <trkpt lat="47.31973" lon="-2.40546">
        <ele>44</ele>
        <time>2021-01-07T09:17:27.000Z</time>
      </trkpt>
      <trkpt lat="47.32009" lon="-2.40578">
        <ele>44</ele>
        <time>2021-01-07T09:17:35.000Z</time>
      </trkpt>
      <trkpt lat="47.32023" lon="-2.40589">
        <ele>44.400001525879</ele>
        <time>2021-01-07T09:17:38.000Z</time>
      </trkpt>
      <trkpt lat="47.32028" lon="-2.40593">
        <ele>44.799999237061</ele>
        <time>2021-01-07T09:17:39.000Z</time>
      </trkpt>
      <trkpt lat="47.32033" lon="-2.40596">
        <ele>45.599998474121</ele>
        <time>2021-01-07T09:17:40.000Z</time>
      </trkpt>
      <trkpt lat="47.32038" lon="-2.406">
        <ele>46.200000762939</ele>
        <time>2021-01-07T09:17:41.000Z</time>
      </trkpt>
      <trkpt lat="47.32043" lon="-2.40602">
        <ele>46.200000762939</ele>
        <time>2021-01-07T09:17:42.000Z</time>
      </trkpt>
      <trkpt lat="47.32074" lon="-2.40628">
        <ele>46.200000762939</ele>
        <time>2021-01-07T09:17:49.000Z</time>
      </trkpt>
      <trkpt lat="47.32098" lon="-2.40654">
        <ele>46.200000762939</ele>
        <time>2021-01-07T09:17:55.000Z</time>
      </trkpt>
      <trkpt lat="47.32125" lon="-2.40685">
        <ele>46.599998474121</ele>
        <time>2021-01-07T09:18:02.000Z</time>
      </trkpt>
      <trkpt lat="47.32129" lon="-2.40689">
        <ele>47</ele>
        <time>2021-01-07T09:18:03.000Z</time>
      </trkpt>
      <trkpt lat="47.32133" lon="-2.40694">
        <ele>47.400001525879</ele>
        <time>2021-01-07T09:18:04.000Z</time>
      </trkpt>
      <trkpt lat="47.32137" lon="-2.40699">
        <ele>48.200000762939</ele>
        <time>2021-01-07T09:18:05.000Z</time>
      </trkpt>
      <trkpt lat="47.32152" lon="-2.40717">
        <ele>48.200000762939</ele>
        <time>2021-01-07T09:18:09.000Z</time>
      </trkpt>
      <trkpt lat="47.32183" lon="-2.40758">
        <ele>48.200000762939</ele>
        <time>2021-01-07T09:18:17.000Z</time>
      </trkpt>
      <trkpt lat="47.32205" lon="-2.40789">
        <ele>48.200000762939</ele>
        <time>2021-01-07T09:18:24.000Z</time>
      </trkpt>
      <trkpt lat="47.32214" lon="-2.40804">
        <ele>48.200000762939</ele>
        <time>2021-01-07T09:18:29.000Z</time>
      </trkpt>
      <trkpt lat="47.32227" lon="-2.40819">
        <ele>48.200000762939</ele>
        <time>2021-01-07T09:18:34.000Z</time>
      </trkpt>
      <trkpt lat="47.32242" lon="-2.40845">
        <ele>48.200000762939</ele>
        <time>2021-01-07T09:18:39.000Z</time>
      </trkpt>
      <trkpt lat="47.32267" lon="-2.40887">
        <ele>48.200000762939</ele>
        <time>2021-01-07T09:18:47.000Z</time>
      </trkpt>
      <trkpt lat="47.32288" lon="-2.40928">
        <ele>48.200000762939</ele>
        <time>2021-01-07T09:18:54.000Z</time>
      </trkpt>
      <trkpt lat="47.32308" lon="-2.40966">
        <ele>48.200000762939</ele>
        <time>2021-01-07T09:19:01.000Z</time>
      </trkpt>
      <trkpt lat="47.32332" lon="-2.41009">
        <ele>48.200000762939</ele>
        <time>2021-01-07T09:19:09.000Z</time>
      </trkpt>
      <trkpt lat="47.32335" lon="-2.41015">
        <ele>48.599998474121</ele>
        <time>2021-01-07T09:19:10.000Z</time>
      </trkpt>
      <trkpt lat="47.32339" lon="-2.4102">
        <ele>49</ele>
        <time>2021-01-07T09:19:11.000Z</time>
      </trkpt>
      <trkpt lat="47.32342" lon="-2.41025">
        <ele>49.400001525879</ele>
        <time>2021-01-07T09:19:12.000Z</time>
      </trkpt>
      <trkpt lat="47.32344" lon="-2.4103">
        <ele>49.799999237061</ele>
        <time>2021-01-07T09:19:13.000Z</time>
      </trkpt>
      <trkpt lat="47.32346" lon="-2.41035">
        <ele>50.200000762939</ele>
        <time>2021-01-07T09:19:14.000Z</time>
      </trkpt>
      <trkpt lat="47.32351" lon="-2.41045">
        <ele>50.200000762939</ele>
        <time>2021-01-07T09:19:16.000Z</time>
      </trkpt>
      <trkpt lat="47.32367" lon="-2.41081">
        <ele>50.200000762939</ele>
        <time>2021-01-07T09:19:24.000Z</time>
      </trkpt>
      <trkpt lat="47.3237" lon="-2.41082">
        <ele>50.200000762939</ele>
        <time>2021-01-07T09:19:25.000Z</time>
      </trkpt>
      <trkpt lat="47.32374" lon="-2.41091">
        <ele>50.200000762939</ele>
        <time>2021-01-07T09:19:27.000Z</time>
      </trkpt>
      <trkpt lat="47.32378" lon="-2.41101">
        <ele>50.200000762939</ele>
        <time>2021-01-07T09:19:29.000Z</time>
      </trkpt>
      <trkpt lat="47.32381" lon="-2.41107">
        <ele>50.200000762939</ele>
        <time>2021-01-07T09:19:30.000Z</time>
      </trkpt>
      <trkpt lat="47.32387" lon="-2.41117">
        <ele>50.200000762939</ele>
        <time>2021-01-07T09:19:32.000Z</time>
      </trkpt>
      <trkpt lat="47.32405" lon="-2.41153">
        <ele>50.200000762939</ele>
        <time>2021-01-07T09:19:39.000Z</time>
      </trkpt>
      <trkpt lat="47.32409" lon="-2.41162">
        <ele>50.200000762939</ele>
        <time>2021-01-07T09:19:43.000Z</time>
      </trkpt>
      <trkpt lat="47.32413" lon="-2.41169">
        <ele>50.200000762939</ele>
        <time>2021-01-07T09:19:48.000Z</time>
      </trkpt>
      <trkpt lat="47.3242" lon="-2.41183">
        <ele>50.200000762939</ele>
        <time>2021-01-07T09:19:52.000Z</time>
      </trkpt>
      <trkpt lat="47.32435" lon="-2.41211">
        <ele>50.200000762939</ele>
        <time>2021-01-07T09:19:58.000Z</time>
      </trkpt>
      <trkpt lat="47.32456" lon="-2.41253">
        <ele>50.200000762939</ele>
        <time>2021-01-07T09:20:05.000Z</time>
      </trkpt>
      <trkpt lat="47.32479" lon="-2.41299">
        <ele>50.200000762939</ele>
        <time>2021-01-07T09:20:12.000Z</time>
      </trkpt>
      <trkpt lat="47.32505" lon="-2.41344">
        <ele>50.200000762939</ele>
        <time>2021-01-07T09:20:19.000Z</time>
      </trkpt>
      <trkpt lat="47.32528" lon="-2.41385">
        <ele>50.200000762939</ele>
        <time>2021-01-07T09:20:25.000Z</time>
      </trkpt>
      <trkpt lat="47.32556" lon="-2.41439">
        <ele>50.200000762939</ele>
        <time>2021-01-07T09:20:33.000Z</time>
      </trkpt>
      <trkpt lat="47.32558" lon="-2.41445">
        <ele>50.200000762939</ele>
        <time>2021-01-07T09:20:34.000Z</time>
      </trkpt>
      <trkpt lat="47.32565" lon="-2.41459">
        <ele>50.200000762939</ele>
        <time>2021-01-07T09:20:37.000Z</time>
      </trkpt>
      <trkpt lat="47.32571" lon="-2.41469">
        <ele>50.200000762939</ele>
        <time>2021-01-07T09:20:41.000Z</time>
      </trkpt>
      <trkpt lat="47.32574" lon="-2.41479">
        <ele>49.799999237061</ele>
        <time>2021-01-07T09:20:44.000Z</time>
      </trkpt>
      <trkpt lat="47.32575" lon="-2.41482">
        <ele>49.400001525879</ele>
        <time>2021-01-07T09:20:45.000Z</time>
      </trkpt>
      <trkpt lat="47.32576" lon="-2.41485">
        <ele>49</ele>
        <time>2021-01-07T09:20:46.000Z</time>
      </trkpt>
      <trkpt lat="47.32576" lon="-2.41489">
        <ele>48.599998474121</ele>
        <time>2021-01-07T09:20:47.000Z</time>
      </trkpt>
      <trkpt lat="47.32576" lon="-2.41493">
        <ele>48.200000762939</ele>
        <time>2021-01-07T09:20:48.000Z</time>
      </trkpt>
      <trkpt lat="47.32579" lon="-2.41516">
        <ele>48.200000762939</ele>
        <time>2021-01-07T09:20:53.000Z</time>
      </trkpt>
      <trkpt lat="47.32582" lon="-2.41519">
        <ele>48.200000762939</ele>
        <time>2021-01-07T09:20:54.000Z</time>
      </trkpt>
      <trkpt lat="47.32599" lon="-2.41525">
        <ele>48.200000762939</ele>
        <time>2021-01-07T09:20:58.000Z</time>
      </trkpt>
      <trkpt lat="47.32642" lon="-2.41532">
        <ele>48.200000762939</ele>
        <time>2021-01-07T09:21:06.000Z</time>
      </trkpt>
      <trkpt lat="47.32664" lon="-2.41537">
        <ele>48.200000762939</ele>
        <time>2021-01-07T09:21:10.000Z</time>
      </trkpt>
      <trkpt lat="47.32675" lon="-2.41538">
        <ele>48.200000762939</ele>
        <time>2021-01-07T09:21:12.000Z</time>
      </trkpt>
      <trkpt lat="47.32699" lon="-2.41544">
        <ele>47.599998474121</ele>
        <time>2021-01-07T09:21:17.000Z</time>
      </trkpt>
      <trkpt lat="47.32701" lon="-2.41547">
        <ele>47.200000762939</ele>
        <time>2021-01-07T09:21:18.000Z</time>
      </trkpt>
      <trkpt lat="47.32702" lon="-2.41551">
        <ele>46.599998474121</ele>
        <time>2021-01-07T09:21:19.000Z</time>
      </trkpt>
      <trkpt lat="47.32703" lon="-2.41555">
        <ele>46.200000762939</ele>
        <time>2021-01-07T09:21:20.000Z</time>
      </trkpt>
      <trkpt lat="47.32703" lon="-2.4156">
        <ele>45.599998474121</ele>
        <time>2021-01-07T09:21:21.000Z</time>
      </trkpt>
      <trkpt lat="47.32707" lon="-2.41564">
        <ele>45.599998474121</ele>
        <time>2021-01-07T09:21:23.000Z</time>
      </trkpt>
      <trkpt lat="47.32717" lon="-2.41557">
        <ele>45.599998474121</ele>
        <time>2021-01-07T09:21:26.000Z</time>
      </trkpt>
      <trkpt lat="47.32724" lon="-2.41548">
        <ele>45.599998474121</ele>
        <time>2021-01-07T09:21:28.000Z</time>
      </trkpt>
      <trkpt lat="47.32729" lon="-2.41539">
        <ele>45.599998474121</ele>
        <time>2021-01-07T09:21:30.000Z</time>
      </trkpt>
      <trkpt lat="47.32732" lon="-2.41532">
        <ele>45.599998474121</ele>
        <time>2021-01-07T09:21:31.000Z</time>
      </trkpt>
      <trkpt lat="47.32739" lon="-2.41504">
        <ele>45.200000762939</ele>
        <time>2021-01-07T09:21:35.000Z</time>
      </trkpt>
      <trkpt lat="47.3274" lon="-2.41497">
        <ele>44.799999237061</ele>
        <time>2021-01-07T09:21:36.000Z</time>
      </trkpt>
      <trkpt lat="47.32741" lon="-2.4149">
        <ele>44.400001525879</ele>
        <time>2021-01-07T09:21:37.000Z</time>
      </trkpt>
      <trkpt lat="47.32742" lon="-2.41482">
        <ele>44</ele>
        <time>2021-01-07T09:21:38.000Z</time>
      </trkpt>
      <trkpt lat="47.32742" lon="-2.41476">
        <ele>43.599998474121</ele>
        <time>2021-01-07T09:21:39.000Z</time>
      </trkpt>
      <trkpt lat="47.32743" lon="-2.41439">
        <ele>43.599998474121</ele>
        <time>2021-01-07T09:21:44.000Z</time>
      </trkpt>
      <trkpt lat="47.32734" lon="-2.41386">
        <ele>43.599998474121</ele>
        <time>2021-01-07T09:21:51.000Z</time>
      </trkpt>
      <trkpt lat="47.32732" lon="-2.41372">
        <ele>43.599998474121</ele>
        <time>2021-01-07T09:21:53.000Z</time>
      </trkpt>
      <trkpt lat="47.32727" lon="-2.41352">
        <ele>43.599998474121</ele>
        <time>2021-01-07T09:21:56.000Z</time>
      </trkpt>
      <trkpt lat="47.32723" lon="-2.41336">
        <ele>43.599998474121</ele>
        <time>2021-01-07T09:22:00.000Z</time>
      </trkpt>
      <trkpt lat="47.32712" lon="-2.41328">
        <ele>43.599998474121</ele>
        <time>2021-01-07T09:22:05.000Z</time>
      </trkpt>
      <trkpt lat="47.32708" lon="-2.41312">
        <ele>43.599998474121</ele>
        <time>2021-01-07T09:22:09.000Z</time>
      </trkpt>
      <trkpt lat="47.32711" lon="-2.41297">
        <ele>43.599998474121</ele>
        <time>2021-01-07T09:22:12.000Z</time>
      </trkpt>
      <trkpt lat="47.3272" lon="-2.41286">
        <ele>43.599998474121</ele>
        <time>2021-01-07T09:22:15.000Z</time>
      </trkpt>
      <trkpt lat="47.32729" lon="-2.41284">
        <ele>43.599998474121</ele>
        <time>2021-01-07T09:22:17.000Z</time>
      </trkpt>
      <trkpt lat="47.32744" lon="-2.4128">
        <ele>43.599998474121</ele>
        <time>2021-01-07T09:22:20.000Z</time>
      </trkpt>
      <trkpt lat="47.32781" lon="-2.41269">
        <ele>43.599998474121</ele>
        <time>2021-01-07T09:22:27.000Z</time>
      </trkpt>
      <trkpt lat="47.32809" lon="-2.41265">
        <ele>43.599998474121</ele>
        <time>2021-01-07T09:22:32.000Z</time>
      </trkpt>
      <trkpt lat="47.32818" lon="-2.41258">
        <ele>43.599998474121</ele>
        <time>2021-01-07T09:22:34.000Z</time>
      </trkpt>
      <trkpt lat="47.32822" lon="-2.41255">
        <ele>43.599998474121</ele>
        <time>2021-01-07T09:22:35.000Z</time>
      </trkpt>
      <trkpt lat="47.32831" lon="-2.41254">
        <ele>43.599998474121</ele>
        <time>2021-01-07T09:22:37.000Z</time>
      </trkpt>
      <trkpt lat="47.32852" lon="-2.41256">
        <ele>43.599998474121</ele>
        <time>2021-01-07T09:22:41.000Z</time>
      </trkpt>
      <trkpt lat="47.32891" lon="-2.41253">
        <ele>43.599998474121</ele>
        <time>2021-01-07T09:22:48.000Z</time>
      </trkpt>
      <trkpt lat="47.32913" lon="-2.4125">
        <ele>43.599998474121</ele>
        <time>2021-01-07T09:22:52.000Z</time>
      </trkpt>
      <trkpt lat="47.32923" lon="-2.41244">
        <ele>43.599998474121</ele>
        <time>2021-01-07T09:22:54.000Z</time>
      </trkpt>
      <trkpt lat="47.32935" lon="-2.41244">
        <ele>43.599998474121</ele>
        <time>2021-01-07T09:22:57.000Z</time>
      </trkpt>
      <trkpt lat="47.32939" lon="-2.41247">
        <ele>43.599998474121</ele>
        <time>2021-01-07T09:22:58.000Z</time>
      </trkpt>
      <trkpt lat="47.32947" lon="-2.41252">
        <ele>43.599998474121</ele>
        <time>2021-01-07T09:23:00.000Z</time>
      </trkpt>
      <trkpt lat="47.32966" lon="-2.41244">
        <ele>43.599998474121</ele>
        <time>2021-01-07T09:23:04.000Z</time>
      </trkpt>
      <trkpt lat="47.32975" lon="-2.41237">
        <ele>43.599998474121</ele>
        <time>2021-01-07T09:23:06.000Z</time>
      </trkpt>
      <trkpt lat="47.32983" lon="-2.41229">
        <ele>43.599998474121</ele>
        <time>2021-01-07T09:23:08.000Z</time>
      </trkpt>
      <trkpt lat="47.32986" lon="-2.41224">
        <ele>43.599998474121</ele>
        <time>2021-01-07T09:23:09.000Z</time>
      </trkpt>
      <trkpt lat="47.32992" lon="-2.41211">
        <ele>43.599998474121</ele>
        <time>2021-01-07T09:23:12.000Z</time>
      </trkpt>
      <trkpt lat="47.32994" lon="-2.41209">
        <ele>43.599998474121</ele>
        <time>2021-01-07T09:23:13.000Z</time>
      </trkpt>
      <trkpt lat="47.33002" lon="-2.41212">
        <ele>43.599998474121</ele>
        <time>2021-01-07T09:23:16.000Z</time>
      </trkpt>
      <trkpt lat="47.3301" lon="-2.41216">
        <ele>43.599998474121</ele>
        <time>2021-01-07T09:23:19.000Z</time>
      </trkpt>
      <trkpt lat="47.33014" lon="-2.41216">
        <ele>43.200000762939</ele>
        <time>2021-01-07T09:23:20.000Z</time>
      </trkpt>
      <trkpt lat="47.33018" lon="-2.41214">
        <ele>42.799999237061</ele>
        <time>2021-01-07T09:23:21.000Z</time>
      </trkpt>
      <trkpt lat="47.33029" lon="-2.41198">
        <ele>41.599998474121</ele>
        <time>2021-01-07T09:23:22.000Z</time>
      </trkpt>
      <trkpt lat="47.33052" lon="-2.4115">
        <ele>41.599998474121</ele>
        <time>2021-01-07T09:23:30.000Z</time>
      </trkpt>
      <trkpt lat="47.33078" lon="-2.41092">
        <ele>41.599998474121</ele>
        <time>2021-01-07T09:23:38.000Z</time>
      </trkpt>
      <trkpt lat="47.33095" lon="-2.41039">
        <ele>41.599998474121</ele>
        <time>2021-01-07T09:23:45.000Z</time>
      </trkpt>
      <trkpt lat="47.33112" lon="-2.40992">
        <ele>41.599998474121</ele>
        <time>2021-01-07T09:23:51.000Z</time>
      </trkpt>
      <trkpt lat="47.33137" lon="-2.40934">
        <ele>41.599998474121</ele>
        <time>2021-01-07T09:23:58.000Z</time>
      </trkpt>
      <trkpt lat="47.33149" lon="-2.4091">
        <ele>41.200000762939</ele>
        <time>2021-01-07T09:24:01.000Z</time>
      </trkpt>
      <trkpt lat="47.33154" lon="-2.40903">
        <ele>40.799999237061</ele>
        <time>2021-01-07T09:24:02.000Z</time>
      </trkpt>
      <trkpt lat="47.33157" lon="-2.40895">
        <ele>40.400001525879</ele>
        <time>2021-01-07T09:24:03.000Z</time>
      </trkpt>
      <trkpt lat="47.33161" lon="-2.40888">
        <ele>40</ele>
        <time>2021-01-07T09:24:04.000Z</time>
      </trkpt>
      <trkpt lat="47.33165" lon="-2.40882">
        <ele>39.599998474121</ele>
        <time>2021-01-07T09:24:05.000Z</time>
      </trkpt>
      <trkpt lat="47.33192" lon="-2.40838">
        <ele>39.599998474121</ele>
        <time>2021-01-07T09:24:11.000Z</time>
      </trkpt>
      <trkpt lat="47.33217" lon="-2.40799">
        <ele>39.200000762939</ele>
        <time>2021-01-07T09:24:16.000Z</time>
      </trkpt>
      <trkpt lat="47.33222" lon="-2.4079">
        <ele>38.799999237061</ele>
        <time>2021-01-07T09:24:17.000Z</time>
      </trkpt>
      <trkpt lat="47.33226" lon="-2.40781">
        <ele>38.400001525879</ele>
        <time>2021-01-07T09:24:18.000Z</time>
      </trkpt>
      <trkpt lat="47.3323" lon="-2.4077">
        <ele>38</ele>
        <time>2021-01-07T09:24:19.000Z</time>
      </trkpt>
      <trkpt lat="47.33232" lon="-2.40759">
        <ele>37.400001525879</ele>
        <time>2021-01-07T09:24:20.000Z</time>
      </trkpt>
      <trkpt lat="47.33235" lon="-2.40735">
        <ele>37.400001525879</ele>
        <time>2021-01-07T09:24:22.000Z</time>
      </trkpt>
      <trkpt lat="47.33236" lon="-2.40724">
        <ele>37</ele>
        <time>2021-01-07T09:24:23.000Z</time>
      </trkpt>
      <trkpt lat="47.33237" lon="-2.40712">
        <ele>36.599998474121</ele>
        <time>2021-01-07T09:24:24.000Z</time>
      </trkpt>
      <trkpt lat="47.33239" lon="-2.407">
        <ele>36.200000762939</ele>
        <time>2021-01-07T09:24:25.000Z</time>
      </trkpt>
      <trkpt lat="47.33241" lon="-2.40688">
        <ele>35.799999237061</ele>
        <time>2021-01-07T09:24:26.000Z</time>
      </trkpt>
      <trkpt lat="47.33243" lon="-2.40677">
        <ele>35.400001525879</ele>
        <time>2021-01-07T09:24:27.000Z</time>
      </trkpt>
      <trkpt lat="47.33248" lon="-2.40656">
        <ele>35.400001525879</ele>
        <time>2021-01-07T09:24:29.000Z</time>
      </trkpt>
      <trkpt lat="47.33262" lon="-2.40612">
        <ele>35</ele>
        <time>2021-01-07T09:24:33.000Z</time>
      </trkpt>
      <trkpt lat="47.33265" lon="-2.40601">
        <ele>34.400001525879</ele>
        <time>2021-01-07T09:24:34.000Z</time>
      </trkpt>
      <trkpt lat="47.33268" lon="-2.4059">
        <ele>34</ele>
        <time>2021-01-07T09:24:35.000Z</time>
      </trkpt>
      <trkpt lat="47.33271" lon="-2.40579">
        <ele>33.599998474121</ele>
        <time>2021-01-07T09:24:36.000Z</time>
      </trkpt>
      <trkpt lat="47.33274" lon="-2.40568">
        <ele>33</ele>
        <time>2021-01-07T09:24:37.000Z</time>
      </trkpt>
      <trkpt lat="47.33282" lon="-2.40541">
        <ele>32.599998474121</ele>
        <time>2021-01-07T09:24:40.000Z</time>
      </trkpt>
      <trkpt lat="47.33285" lon="-2.40533">
        <ele>32.200000762939</ele>
        <time>2021-01-07T09:24:41.000Z</time>
      </trkpt>
      <trkpt lat="47.33288" lon="-2.40526">
        <ele>31.60000038147</ele>
        <time>2021-01-07T09:24:42.000Z</time>
      </trkpt>
      <trkpt lat="47.33292" lon="-2.4052">
        <ele>31.200000762939</ele>
        <time>2021-01-07T09:24:43.000Z</time>
      </trkpt>
      <trkpt lat="47.33295" lon="-2.40513">
        <ele>30.799999237061</ele>
        <time>2021-01-07T09:24:44.000Z</time>
      </trkpt>
      <trkpt lat="47.33305" lon="-2.40493">
        <ele>30.799999237061</ele>
        <time>2021-01-07T09:24:47.000Z</time>
      </trkpt>
      <trkpt lat="47.33309" lon="-2.40459">
        <ele>30.799999237061</ele>
        <time>2021-01-07T09:24:51.000Z</time>
      </trkpt>
      <trkpt lat="47.33314" lon="-2.40406">
        <ele>30.799999237061</ele>
        <time>2021-01-07T09:24:57.000Z</time>
      </trkpt>
      <trkpt lat="47.33313" lon="-2.40381">
        <ele>31.200000762939</ele>
        <time>2021-01-07T09:25:00.000Z</time>
      </trkpt>
      <trkpt lat="47.33313" lon="-2.40373">
        <ele>31.60000038147</ele>
        <time>2021-01-07T09:25:01.000Z</time>
      </trkpt>
      <trkpt lat="47.33313" lon="-2.40365">
        <ele>32</ele>
        <time>2021-01-07T09:25:02.000Z</time>
      </trkpt>
      <trkpt lat="47.33314" lon="-2.40357">
        <ele>32.400001525879</ele>
        <time>2021-01-07T09:25:03.000Z</time>
      </trkpt>
      <trkpt lat="47.33316" lon="-2.4035">
        <ele>33</ele>
        <time>2021-01-07T09:25:04.000Z</time>
      </trkpt>
      <trkpt lat="47.33319" lon="-2.40344">
        <ele>33.400001525879</ele>
        <time>2021-01-07T09:25:05.000Z</time>
      </trkpt>
      <trkpt lat="47.33321" lon="-2.40338">
        <ele>33.799999237061</ele>
        <time>2021-01-07T09:25:06.000Z</time>
      </trkpt>
      <trkpt lat="47.33325" lon="-2.40333">
        <ele>34.200000762939</ele>
        <time>2021-01-07T09:25:07.000Z</time>
      </trkpt>
      <trkpt lat="47.33327" lon="-2.40327">
        <ele>34.599998474121</ele>
        <time>2021-01-07T09:25:08.000Z</time>
      </trkpt>
      <trkpt lat="47.3333" lon="-2.4032">
        <ele>35</ele>
        <time>2021-01-07T09:25:09.000Z</time>
      </trkpt>
      <trkpt lat="47.33335" lon="-2.40297">
        <ele>35.599998474121</ele>
        <time>2021-01-07T09:25:12.000Z</time>
      </trkpt>
      <trkpt lat="47.33336" lon="-2.40289">
        <ele>36</ele>
        <time>2021-01-07T09:25:13.000Z</time>
      </trkpt>
      <trkpt lat="47.33337" lon="-2.4028">
        <ele>36.400001525879</ele>
        <time>2021-01-07T09:25:14.000Z</time>
      </trkpt>
      <trkpt lat="47.33338" lon="-2.40272">
        <ele>36.799999237061</ele>
        <time>2021-01-07T09:25:15.000Z</time>
      </trkpt>
      <trkpt lat="47.33339" lon="-2.40263">
        <ele>37.200000762939</ele>
        <time>2021-01-07T09:25:16.000Z</time>
      </trkpt>
      <trkpt lat="47.33344" lon="-2.4022">
        <ele>37.200000762939</ele>
        <time>2021-01-07T09:25:21.000Z</time>
      </trkpt>
      <trkpt lat="47.33351" lon="-2.40148">
        <ele>37.200000762939</ele>
        <time>2021-01-07T09:25:29.000Z</time>
      </trkpt>
      <trkpt lat="47.33355" lon="-2.40087">
        <ele>37.200000762939</ele>
        <time>2021-01-07T09:25:36.000Z</time>
      </trkpt>
      <trkpt lat="47.33359" lon="-2.40051">
        <ele>37.200000762939</ele>
        <time>2021-01-07T09:25:40.000Z</time>
      </trkpt>
      <trkpt lat="47.33365" lon="-2.40034">
        <ele>37.200000762939</ele>
        <time>2021-01-07T09:25:42.000Z</time>
      </trkpt>
      <trkpt lat="47.33373" lon="-2.40019">
        <ele>37.200000762939</ele>
        <time>2021-01-07T09:25:44.000Z</time>
      </trkpt>
      <trkpt lat="47.33386" lon="-2.39999">
        <ele>37.200000762939</ele>
        <time>2021-01-07T09:25:47.000Z</time>
      </trkpt>
      <trkpt lat="47.33422" lon="-2.39945">
        <ele>37.200000762939</ele>
        <time>2021-01-07T09:25:55.000Z</time>
      </trkpt>
      <trkpt lat="47.33434" lon="-2.39925">
        <ele>37.200000762939</ele>
        <time>2021-01-07T09:25:58.000Z</time>
      </trkpt>
      <trkpt lat="47.33442" lon="-2.39914">
        <ele>36.799999237061</ele>
        <time>2021-01-07T09:26:00.000Z</time>
      </trkpt>
      <trkpt lat="47.33447" lon="-2.39907">
        <ele>36.400001525879</ele>
        <time>2021-01-07T09:26:01.000Z</time>
      </trkpt>
      <trkpt lat="47.33451" lon="-2.399">
        <ele>35.799999237061</ele>
        <time>2021-01-07T09:26:02.000Z</time>
      </trkpt>
      <trkpt lat="47.33456" lon="-2.39894">
        <ele>35.400001525879</ele>
        <time>2021-01-07T09:26:03.000Z</time>
      </trkpt>
      <trkpt lat="47.33461" lon="-2.39887">
        <ele>35</ele>
        <time>2021-01-07T09:26:04.000Z</time>
      </trkpt>
      <trkpt lat="47.33472" lon="-2.39873">
        <ele>35</ele>
        <time>2021-01-07T09:26:06.000Z</time>
      </trkpt>
      <trkpt lat="47.33503" lon="-2.3983">
        <ele>34.599998474121</ele>
        <time>2021-01-07T09:26:12.000Z</time>
      </trkpt>
      <trkpt lat="47.33507" lon="-2.39822">
        <ele>34.200000762939</ele>
        <time>2021-01-07T09:26:13.000Z</time>
      </trkpt>
      <trkpt lat="47.33512" lon="-2.39814">
        <ele>33.799999237061</ele>
        <time>2021-01-07T09:26:14.000Z</time>
      </trkpt>
      <trkpt lat="47.33517" lon="-2.39807">
        <ele>33.400001525879</ele>
        <time>2021-01-07T09:26:15.000Z</time>
      </trkpt>
      <trkpt lat="47.33522" lon="-2.39799">
        <ele>32.799999237061</ele>
        <time>2021-01-07T09:26:16.000Z</time>
      </trkpt>
      <trkpt lat="47.33541" lon="-2.39775">
        <ele>32.400001525879</ele>
        <time>2021-01-07T09:26:20.000Z</time>
      </trkpt>
      <trkpt lat="47.33545" lon="-2.39771">
        <ele>32</ele>
        <time>2021-01-07T09:26:21.000Z</time>
      </trkpt>
      <trkpt lat="47.33549" lon="-2.39767">
        <ele>31.60000038147</ele>
        <time>2021-01-07T09:26:22.000Z</time>
      </trkpt>
      <trkpt lat="47.33552" lon="-2.39762">
        <ele>31.200000762939</ele>
        <time>2021-01-07T09:26:23.000Z</time>
      </trkpt>
      <trkpt lat="47.33556" lon="-2.39757">
        <ele>30.799999237061</ele>
        <time>2021-01-07T09:26:24.000Z</time>
      </trkpt>
      <trkpt lat="47.3356" lon="-2.39753">
        <ele>30.799999237061</ele>
        <time>2021-01-07T09:26:25.000Z</time>
      </trkpt>
      <trkpt lat="47.33574" lon="-2.39738">
        <ele>30.799999237061</ele>
        <time>2021-01-07T09:26:28.000Z</time>
      </trkpt>
      <trkpt lat="47.33583" lon="-2.39726">
        <ele>30.799999237061</ele>
        <time>2021-01-07T09:26:30.000Z</time>
      </trkpt>
      <trkpt lat="47.33605" lon="-2.39688">
        <ele>30.799999237061</ele>
        <time>2021-01-07T09:26:35.000Z</time>
      </trkpt>
      <trkpt lat="47.33635" lon="-2.39639">
        <ele>30.799999237061</ele>
        <time>2021-01-07T09:26:42.000Z</time>
      </trkpt>
      <trkpt lat="47.33654" lon="-2.39587">
        <ele>30.799999237061</ele>
        <time>2021-01-07T09:26:49.000Z</time>
      </trkpt>
      <trkpt lat="47.33672" lon="-2.39537">
        <ele>31.200000762939</ele>
        <time>2021-01-07T09:26:56.000Z</time>
      </trkpt>
      <trkpt lat="47.33674" lon="-2.3953">
        <ele>31.60000038147</ele>
        <time>2021-01-07T09:26:57.000Z</time>
      </trkpt>
      <trkpt lat="47.33676" lon="-2.39524">
        <ele>32</ele>
        <time>2021-01-07T09:26:58.000Z</time>
      </trkpt>
      <trkpt lat="47.33678" lon="-2.39517">
        <ele>32.400001525879</ele>
        <time>2021-01-07T09:26:59.000Z</time>
      </trkpt>
      <trkpt lat="47.33681" lon="-2.3951">
        <ele>33</ele>
        <time>2021-01-07T09:27:00.000Z</time>
      </trkpt>
      <trkpt lat="47.33692" lon="-2.39477">
        <ele>33</ele>
        <time>2021-01-07T09:27:05.000Z</time>
      </trkpt>
      <trkpt lat="47.33702" lon="-2.39445">
        <ele>33</ele>
        <time>2021-01-07T09:27:11.000Z</time>
      </trkpt>
      <trkpt lat="47.33704" lon="-2.39424">
        <ele>33</ele>
        <time>2021-01-07T09:27:15.000Z</time>
      </trkpt>
      <trkpt lat="47.33706" lon="-2.39412">
        <ele>33</ele>
        <time>2021-01-07T09:27:17.000Z</time>
      </trkpt>
      <trkpt lat="47.33708" lon="-2.39387">
        <ele>33</ele>
        <time>2021-01-07T09:27:21.000Z</time>
      </trkpt>
      <trkpt lat="47.33712" lon="-2.3934">
        <ele>33</ele>
        <time>2021-01-07T09:27:28.000Z</time>
      </trkpt>
      <trkpt lat="47.33714" lon="-2.39321">
        <ele>33</ele>
        <time>2021-01-07T09:27:32.000Z</time>
      </trkpt>
      <trkpt lat="47.33715" lon="-2.39313">
        <ele>33</ele>
        <time>2021-01-07T09:27:36.000Z</time>
      </trkpt>
      <trkpt lat="47.33716" lon="-2.3931">
        <ele>30.799999237061</ele>
        <time>2021-01-07T09:27:56.000Z</time>
      </trkpt>
      <trkpt lat="47.33723" lon="-2.39303">
        <ele>30.799999237061</ele>
        <time>2021-01-07T09:28:01.000Z</time>
      </trkpt>
      <trkpt lat="47.3374" lon="-2.39301">
        <ele>30.799999237061</ele>
        <time>2021-01-07T09:28:06.000Z</time>
      </trkpt>
      <trkpt lat="47.33766" lon="-2.39301">
        <ele>30.799999237061</ele>
        <time>2021-01-07T09:28:12.000Z</time>
      </trkpt>
      <trkpt lat="47.33792" lon="-2.39297">
        <ele>30.799999237061</ele>
        <time>2021-01-07T09:28:17.000Z</time>
      </trkpt>
      <trkpt lat="47.33819" lon="-2.39292">
        <ele>30.799999237061</ele>
        <time>2021-01-07T09:28:22.000Z</time>
      </trkpt>
      <trkpt lat="47.33825" lon="-2.39291">
        <ele>30.799999237061</ele>
        <time>2021-01-07T09:28:23.000Z</time>
      </trkpt>
      <trkpt lat="47.33837" lon="-2.3929">
        <ele>30.39999961853</ele>
        <time>2021-01-07T09:28:25.000Z</time>
      </trkpt>
      <trkpt lat="47.33844" lon="-2.39288">
        <ele>30</ele>
        <time>2021-01-07T09:28:26.000Z</time>
      </trkpt>
      <trkpt lat="47.33851" lon="-2.39286">
        <ele>29.60000038147</ele>
        <time>2021-01-07T09:28:27.000Z</time>
      </trkpt>
      <trkpt lat="47.33858" lon="-2.39286">
        <ele>29.200000762939</ele>
        <time>2021-01-07T09:28:28.000Z</time>
      </trkpt>
      <trkpt lat="47.33865" lon="-2.39286">
        <ele>28.799999237061</ele>
        <time>2021-01-07T09:28:29.000Z</time>
      </trkpt>
      <trkpt lat="47.33878" lon="-2.39283">
        <ele>28.799999237061</ele>
        <time>2021-01-07T09:28:31.000Z</time>
      </trkpt>
      <trkpt lat="47.33892" lon="-2.3928">
        <ele>28.799999237061</ele>
        <time>2021-01-07T09:28:33.000Z</time>
      </trkpt>
      <trkpt lat="47.33898" lon="-2.39278">
        <ele>28.799999237061</ele>
        <time>2021-01-07T09:28:34.000Z</time>
      </trkpt>
      <trkpt lat="47.33926" lon="-2.3927">
        <ele>28.799999237061</ele>
        <time>2021-01-07T09:28:38.000Z</time>
      </trkpt>
      <trkpt lat="47.33981" lon="-2.39261">
        <ele>28.799999237061</ele>
        <time>2021-01-07T09:28:46.000Z</time>
      </trkpt>
      <trkpt lat="47.34024" lon="-2.39255">
        <ele>28.799999237061</ele>
        <time>2021-01-07T09:28:52.000Z</time>
      </trkpt>
      <trkpt lat="47.34031" lon="-2.39255">
        <ele>28.799999237061</ele>
        <time>2021-01-07T09:28:53.000Z</time>
      </trkpt>
      <trkpt lat="47.34038" lon="-2.39255">
        <ele>28.39999961853</ele>
        <time>2021-01-07T09:28:54.000Z</time>
      </trkpt>
      <trkpt lat="47.34045" lon="-2.39256">
        <ele>28</ele>
        <time>2021-01-07T09:28:55.000Z</time>
      </trkpt>
      <trkpt lat="47.34051" lon="-2.39256">
        <ele>27.60000038147</ele>
        <time>2021-01-07T09:28:56.000Z</time>
      </trkpt>
      <trkpt lat="47.34057" lon="-2.39257">
        <ele>27</ele>
        <time>2021-01-07T09:28:57.000Z</time>
      </trkpt>
      <trkpt lat="47.34061" lon="-2.39259">
        <ele>26.60000038147</ele>
        <time>2021-01-07T09:28:58.000Z</time>
      </trkpt>
      <trkpt lat="47.34067" lon="-2.39272">
        <ele>26.60000038147</ele>
        <time>2021-01-07T09:29:00.000Z</time>
      </trkpt>
      <trkpt lat="47.34072" lon="-2.39296">
        <ele>26.60000038147</ele>
        <time>2021-01-07T09:29:03.000Z</time>
      </trkpt>
      <trkpt lat="47.34074" lon="-2.39314">
        <ele>26.60000038147</ele>
        <time>2021-01-07T09:29:05.000Z</time>
      </trkpt>
      <trkpt lat="47.34081" lon="-2.39363">
        <ele>26.60000038147</ele>
        <time>2021-01-07T09:29:10.000Z</time>
      </trkpt>
      <trkpt lat="47.3409" lon="-2.39419">
        <ele>26.60000038147</ele>
        <time>2021-01-07T09:29:16.000Z</time>
      </trkpt>
      <trkpt lat="47.34094" lon="-2.39426">
        <ele>26.60000038147</ele>
        <time>2021-01-07T09:29:17.000Z</time>
      </trkpt>
      <trkpt lat="47.34103" lon="-2.39432">
        <ele>26.60000038147</ele>
        <time>2021-01-07T09:29:19.000Z</time>
      </trkpt>
      <trkpt lat="47.34118" lon="-2.39424">
        <ele>26.60000038147</ele>
        <time>2021-01-07T09:29:22.000Z</time>
      </trkpt>
      <trkpt lat="47.34152" lon="-2.39402">
        <ele>26.60000038147</ele>
        <time>2021-01-07T09:29:28.000Z</time>
      </trkpt>
      <trkpt lat="47.3419" lon="-2.39376">
        <ele>26.60000038147</ele>
        <time>2021-01-07T09:29:34.000Z</time>
      </trkpt>
      <trkpt lat="47.34223" lon="-2.39355">
        <ele>26.60000038147</ele>
        <time>2021-01-07T09:29:39.000Z</time>
      </trkpt>
      <trkpt lat="47.34258" lon="-2.3933">
        <ele>26.60000038147</ele>
        <time>2021-01-07T09:29:44.000Z</time>
      </trkpt>
      <trkpt lat="47.34286" lon="-2.39316">
        <ele>26.60000038147</ele>
        <time>2021-01-07T09:29:48.000Z</time>
      </trkpt>
      <trkpt lat="47.34326" lon="-2.39294">
        <ele>26.60000038147</ele>
        <time>2021-01-07T09:29:54.000Z</time>
      </trkpt>
      <trkpt lat="47.3434" lon="-2.39287">
        <ele>26.200000762939</ele>
        <time>2021-01-07T09:29:56.000Z</time>
      </trkpt>
      <trkpt lat="47.34346" lon="-2.39283">
        <ele>25.799999237061</ele>
        <time>2021-01-07T09:29:57.000Z</time>
      </trkpt>
      <trkpt lat="47.34353" lon="-2.3928">
        <ele>25.39999961853</ele>
        <time>2021-01-07T09:29:58.000Z</time>
      </trkpt>
      <trkpt lat="47.3436" lon="-2.39277">
        <ele>25</ele>
        <time>2021-01-07T09:29:59.000Z</time>
      </trkpt>
      <trkpt lat="47.34366" lon="-2.39274">
        <ele>24.60000038147</ele>
        <time>2021-01-07T09:30:00.000Z</time>
      </trkpt>
      <trkpt lat="47.34373" lon="-2.39272">
        <ele>23.799999237061</ele>
        <time>2021-01-07T09:30:01.000Z</time>
      </trkpt>
      <trkpt lat="47.34379" lon="-2.39269">
        <ele>23.39999961853</ele>
        <time>2021-01-07T09:30:02.000Z</time>
      </trkpt>
      <trkpt lat="47.34385" lon="-2.39267">
        <ele>23</ele>
        <time>2021-01-07T09:30:03.000Z</time>
      </trkpt>
      <trkpt lat="47.34391" lon="-2.39264">
        <ele>22.39999961853</ele>
        <time>2021-01-07T09:30:04.000Z</time>
      </trkpt>
      <trkpt lat="47.34404" lon="-2.39259">
        <ele>22</ele>
        <time>2021-01-07T09:30:06.000Z</time>
      </trkpt>
      <trkpt lat="47.3441" lon="-2.39257">
        <ele>21.60000038147</ele>
        <time>2021-01-07T09:30:07.000Z</time>
      </trkpt>
      <trkpt lat="47.34416" lon="-2.39255">
        <ele>21.200000762939</ele>
        <time>2021-01-07T09:30:08.000Z</time>
      </trkpt>
      <trkpt lat="47.34422" lon="-2.39252">
        <ele>20.60000038147</ele>
        <time>2021-01-07T09:30:09.000Z</time>
      </trkpt>
      <trkpt lat="47.34429" lon="-2.39251">
        <ele>20.200000762939</ele>
        <time>2021-01-07T09:30:10.000Z</time>
      </trkpt>
      <trkpt lat="47.34449" lon="-2.39246">
        <ele>19.799999237061</ele>
        <time>2021-01-07T09:30:13.000Z</time>
      </trkpt>
      <trkpt lat="47.34456" lon="-2.39244">
        <ele>19.39999961853</ele>
        <time>2021-01-07T09:30:14.000Z</time>
      </trkpt>
      <trkpt lat="47.34464" lon="-2.39241">
        <ele>18.799999237061</ele>
        <time>2021-01-07T09:30:15.000Z</time>
      </trkpt>
      <trkpt lat="47.34471" lon="-2.39237">
        <ele>18.39999961853</ele>
        <time>2021-01-07T09:30:16.000Z</time>
      </trkpt>
      <trkpt lat="47.34479" lon="-2.39235">
        <ele>18</ele>
        <time>2021-01-07T09:30:17.000Z</time>
      </trkpt>
      <trkpt lat="47.34502" lon="-2.39228">
        <ele>18</ele>
        <time>2021-01-07T09:30:20.000Z</time>
      </trkpt>
      <trkpt lat="47.34518" lon="-2.39227">
        <ele>17.60000038147</ele>
        <time>2021-01-07T09:30:22.000Z</time>
      </trkpt>
      <trkpt lat="47.34527" lon="-2.39227">
        <ele>17.200000762939</ele>
        <time>2021-01-07T09:30:23.000Z</time>
      </trkpt>
      <trkpt lat="47.34535" lon="-2.39227">
        <ele>16.60000038147</ele>
        <time>2021-01-07T09:30:24.000Z</time>
      </trkpt>
      <trkpt lat="47.34543" lon="-2.39228">
        <ele>16.200000762939</ele>
        <time>2021-01-07T09:30:25.000Z</time>
      </trkpt>
      <trkpt lat="47.34552" lon="-2.3923">
        <ele>15.800000190735</ele>
        <time>2021-01-07T09:30:26.000Z</time>
      </trkpt>
      <trkpt lat="47.3456" lon="-2.39233">
        <ele>15.39999961853</ele>
        <time>2021-01-07T09:30:27.000Z</time>
      </trkpt>
      <trkpt lat="47.34568" lon="-2.39235">
        <ele>15</ele>
        <time>2021-01-07T09:30:28.000Z</time>
      </trkpt>
      <trkpt lat="47.34576" lon="-2.39239">
        <ele>14.60000038147</ele>
        <time>2021-01-07T09:30:29.000Z</time>
      </trkpt>
      <trkpt lat="47.34583" lon="-2.39243">
        <ele>14.199999809265</ele>
        <time>2021-01-07T09:30:30.000Z</time>
      </trkpt>
      <trkpt lat="47.34591" lon="-2.39247">
        <ele>13.800000190735</ele>
        <time>2021-01-07T09:30:31.000Z</time>
      </trkpt>
      <trkpt lat="47.34629" lon="-2.39274">
        <ele>13.800000190735</ele>
        <time>2021-01-07T09:30:37.000Z</time>
      </trkpt>
      <trkpt lat="47.34656" lon="-2.39299">
        <ele>13.800000190735</ele>
        <time>2021-01-07T09:30:43.000Z</time>
      </trkpt>
      <trkpt lat="47.34671" lon="-2.3929">
        <ele>13.800000190735</ele>
        <time>2021-01-07T09:30:46.000Z</time>
      </trkpt>
      <trkpt lat="47.34679" lon="-2.39274">
        <ele>13.800000190735</ele>
        <time>2021-01-07T09:30:48.000Z</time>
      </trkpt>
      <trkpt lat="47.34687" lon="-2.39259">
        <ele>13.800000190735</ele>
        <time>2021-01-07T09:30:50.000Z</time>
      </trkpt>
      <trkpt lat="47.34694" lon="-2.39244">
        <ele>13.39999961853</ele>
        <time>2021-01-07T09:30:52.000Z</time>
      </trkpt>
      <trkpt lat="47.34698" lon="-2.39237">
        <ele>13</ele>
        <time>2021-01-07T09:30:53.000Z</time>
      </trkpt>
      <trkpt lat="47.34701" lon="-2.39229">
        <ele>12.60000038147</ele>
        <time>2021-01-07T09:30:54.000Z</time>
      </trkpt>
      <trkpt lat="47.34705" lon="-2.39223">
        <ele>12.199999809265</ele>
        <time>2021-01-07T09:30:55.000Z</time>
      </trkpt>
      <trkpt lat="47.34709" lon="-2.39217">
        <ele>11.800000190735</ele>
        <time>2021-01-07T09:30:56.000Z</time>
      </trkpt>
      <trkpt lat="47.34719" lon="-2.39205">
        <ele>11.800000190735</ele>
        <time>2021-01-07T09:30:58.000Z</time>
      </trkpt>
      <trkpt lat="47.34736" lon="-2.39188">
        <ele>11.800000190735</ele>
        <time>2021-01-07T09:31:01.000Z</time>
      </trkpt>
      <trkpt lat="47.34766" lon="-2.39154">
        <ele>11.800000190735</ele>
        <time>2021-01-07T09:31:07.000Z</time>
      </trkpt>
      <trkpt lat="47.34775" lon="-2.39141">
        <ele>11.800000190735</ele>
        <time>2021-01-07T09:31:08.000Z</time>
      </trkpt>
      <trkpt lat="47.34788" lon="-2.3912">
        <ele>11.800000190735</ele>
        <time>2021-01-07T09:31:12.000Z</time>
      </trkpt>
      <trkpt lat="47.34802" lon="-2.39099">
        <ele>11.199999809265</ele>
        <time>2021-01-07T09:31:15.000Z</time>
      </trkpt>
      <trkpt lat="47.34806" lon="-2.39092">
        <ele>10.800000190735</ele>
        <time>2021-01-07T09:31:16.000Z</time>
      </trkpt>
      <trkpt lat="47.34811" lon="-2.39085">
        <ele>10.39999961853</ele>
        <time>2021-01-07T09:31:17.000Z</time>
      </trkpt>
      <trkpt lat="47.34815" lon="-2.39078">
        <ele>10</ele>
        <time>2021-01-07T09:31:18.000Z</time>
      </trkpt>
      <trkpt lat="47.34819" lon="-2.39071">
        <ele>9.6000003814697</ele>
        <time>2021-01-07T09:31:19.000Z</time>
      </trkpt>
      <trkpt lat="47.34839" lon="-2.39036">
        <ele>9.6000003814697</ele>
        <time>2021-01-07T09:31:24.000Z</time>
      </trkpt>
      <trkpt lat="47.34858" lon="-2.39001">
        <ele>9.6000003814697</ele>
        <time>2021-01-07T09:31:29.000Z</time>
      </trkpt>
      <trkpt lat="47.34886" lon="-2.38954">
        <ele>9.6000003814697</ele>
        <time>2021-01-07T09:31:36.000Z</time>
      </trkpt>
      <trkpt lat="47.34903" lon="-2.38922">
        <ele>9.6000003814697</ele>
        <time>2021-01-07T09:31:41.000Z</time>
      </trkpt>
      <trkpt lat="47.34912" lon="-2.3891">
        <ele>9.6000003814697</ele>
        <time>2021-01-07T09:31:43.000Z</time>
      </trkpt>
      <trkpt lat="47.34929" lon="-2.38884">
        <ele>9.1999998092651</ele>
        <time>2021-01-07T09:31:47.000Z</time>
      </trkpt>
      <trkpt lat="47.34933" lon="-2.38877">
        <ele>8.8000001907349</ele>
        <time>2021-01-07T09:31:48.000Z</time>
      </trkpt>
      <trkpt lat="47.34937" lon="-2.38869">
        <ele>8.3999996185303</ele>
        <time>2021-01-07T09:31:49.000Z</time>
      </trkpt>
      <trkpt lat="47.34941" lon="-2.38861">
        <ele>8</ele>
        <time>2021-01-07T09:31:50.000Z</time>
      </trkpt>
      <trkpt lat="47.34946" lon="-2.38854">
        <ele>7.5999999046326</ele>
        <time>2021-01-07T09:31:51.000Z</time>
      </trkpt>
      <trkpt lat="47.34973" lon="-2.38808">
        <ele>7.5999999046326</ele>
        <time>2021-01-07T09:31:57.000Z</time>
      </trkpt>
      <trkpt lat="47.34986" lon="-2.38788">
        <ele>7.5999999046326</ele>
        <time>2021-01-07T09:32:00.000Z</time>
      </trkpt>
      <trkpt lat="47.34997" lon="-2.38777">
        <ele>7.5999999046326</ele>
        <time>2021-01-07T09:32:02.000Z</time>
      </trkpt>
      <trkpt lat="47.35025" lon="-2.38752">
        <ele>7.5999999046326</ele>
        <time>2021-01-07T09:32:07.000Z</time>
      </trkpt>
      <trkpt lat="47.3503" lon="-2.38745">
        <ele>7.5999999046326</ele>
        <time>2021-01-07T09:32:08.000Z</time>
      </trkpt>
      <trkpt lat="47.35041" lon="-2.38721">
        <ele>7.5999999046326</ele>
        <time>2021-01-07T09:32:11.000Z</time>
      </trkpt>
      <trkpt lat="47.35049" lon="-2.38704">
        <ele>7.5999999046326</ele>
        <time>2021-01-07T09:32:13.000Z</time>
      </trkpt>
      <trkpt lat="47.35075" lon="-2.38652">
        <ele>7.5999999046326</ele>
        <time>2021-01-07T09:32:20.000Z</time>
      </trkpt>
      <trkpt lat="47.35102" lon="-2.38593">
        <ele>7.5999999046326</ele>
        <time>2021-01-07T09:32:28.000Z</time>
      </trkpt>
      <trkpt lat="47.35119" lon="-2.38555">
        <ele>7.5999999046326</ele>
        <time>2021-01-07T09:32:33.000Z</time>
      </trkpt>
      <trkpt lat="47.35126" lon="-2.3854">
        <ele>7.5999999046326</ele>
        <time>2021-01-07T09:32:35.000Z</time>
      </trkpt>
      <trkpt lat="47.35142" lon="-2.38505">
        <ele>7.5999999046326</ele>
        <time>2021-01-07T09:32:40.000Z</time>
      </trkpt>
      <trkpt lat="47.35169" lon="-2.38465">
        <ele>7.5999999046326</ele>
        <time>2021-01-07T09:32:47.000Z</time>
      </trkpt>
      <trkpt lat="47.35203" lon="-2.38417">
        <ele>7.5999999046326</ele>
        <time>2021-01-07T09:32:55.000Z</time>
      </trkpt>
      <trkpt lat="47.35236" lon="-2.38373">
        <ele>7.5999999046326</ele>
        <time>2021-01-07T09:33:02.000Z</time>
      </trkpt>
      <trkpt lat="47.3527" lon="-2.38326">
        <ele>7.5999999046326</ele>
        <time>2021-01-07T09:33:09.000Z</time>
      </trkpt>
      <trkpt lat="47.35301" lon="-2.38282">
        <ele>7.5999999046326</ele>
        <time>2021-01-07T09:33:16.000Z</time>
      </trkpt>
      <trkpt lat="47.3531" lon="-2.38271">
        <ele>7.5999999046326</ele>
        <time>2021-01-07T09:33:18.000Z</time>
      </trkpt>
      <trkpt lat="47.35323" lon="-2.38254">
        <ele>7.5999999046326</ele>
        <time>2021-01-07T09:33:21.000Z</time>
      </trkpt>
      <trkpt lat="47.35353" lon="-2.38211">
        <ele>7.5999999046326</ele>
        <time>2021-01-07T09:33:28.000Z</time>
      </trkpt>
      <trkpt lat="47.35376" lon="-2.3818">
        <ele>7.5999999046326</ele>
        <time>2021-01-07T09:33:33.000Z</time>
      </trkpt>
      <trkpt lat="47.35386" lon="-2.38168">
        <ele>7.5999999046326</ele>
        <time>2021-01-07T09:33:35.000Z</time>
      </trkpt>
      <trkpt lat="47.3539" lon="-2.38162">
        <ele>8</ele>
        <time>2021-01-07T09:33:36.000Z</time>
      </trkpt>
      <trkpt lat="47.35394" lon="-2.38156">
        <ele>8.6000003814697</ele>
        <time>2021-01-07T09:33:37.000Z</time>
      </trkpt>
      <trkpt lat="47.35398" lon="-2.3815">
        <ele>9</ele>
        <time>2021-01-07T09:33:38.000Z</time>
      </trkpt>
      <trkpt lat="47.35402" lon="-2.38143">
        <ele>9.3999996185303</ele>
        <time>2021-01-07T09:33:39.000Z</time>
      </trkpt>
      <trkpt lat="47.35407" lon="-2.38137">
        <ele>9.8000001907349</ele>
        <time>2021-01-07T09:33:40.000Z</time>
      </trkpt>
      <trkpt lat="47.35436" lon="-2.38096">
        <ele>9.8000001907349</ele>
        <time>2021-01-07T09:33:47.000Z</time>
      </trkpt>
      <trkpt lat="47.35443" lon="-2.38084">
        <ele>9.8000001907349</ele>
        <time>2021-01-07T09:33:49.000Z</time>
      </trkpt>
      <trkpt lat="47.35448" lon="-2.38073">
        <ele>9.8000001907349</ele>
        <time>2021-01-07T09:33:51.000Z</time>
      </trkpt>
      <trkpt lat="47.35447" lon="-2.38067">
        <ele>9.8000001907349</ele>
        <time>2021-01-07T09:33:52.000Z</time>
      </trkpt>
      <trkpt lat="47.35442" lon="-2.38049">
        <ele>10.199999809265</ele>
        <time>2021-01-07T09:33:55.000Z</time>
      </trkpt>
      <trkpt lat="47.35439" lon="-2.38042">
        <ele>10.60000038147</ele>
        <time>2021-01-07T09:33:56.000Z</time>
      </trkpt>
      <trkpt lat="47.35436" lon="-2.38036">
        <ele>11</ele>
        <time>2021-01-07T09:33:57.000Z</time>
      </trkpt>
      <trkpt lat="47.35434" lon="-2.38029">
        <ele>11.39999961853</ele>
        <time>2021-01-07T09:33:58.000Z</time>
      </trkpt>
      <trkpt lat="47.35432" lon="-2.38022">
        <ele>11.800000190735</ele>
        <time>2021-01-07T09:33:59.000Z</time>
      </trkpt>
      <trkpt lat="47.35424" lon="-2.37994">
        <ele>11.800000190735</ele>
        <time>2021-01-07T09:34:03.000Z</time>
      </trkpt>
      <trkpt lat="47.3541" lon="-2.37949">
        <ele>11.800000190735</ele>
        <time>2021-01-07T09:34:10.000Z</time>
      </trkpt>
      <trkpt lat="47.35397" lon="-2.37901">
        <ele>11.800000190735</ele>
        <time>2021-01-07T09:34:18.000Z</time>
      </trkpt>
      <trkpt lat="47.35385" lon="-2.3786">
        <ele>11.800000190735</ele>
        <time>2021-01-07T09:34:25.000Z</time>
      </trkpt>
      <trkpt lat="47.35377" lon="-2.37829">
        <ele>11.800000190735</ele>
        <time>2021-01-07T09:34:30.000Z</time>
      </trkpt>
      <trkpt lat="47.35371" lon="-2.37809">
        <ele>11.800000190735</ele>
        <time>2021-01-07T09:34:33.000Z</time>
      </trkpt>
      <trkpt lat="47.35357" lon="-2.37754">
        <ele>11.800000190735</ele>
        <time>2021-01-07T09:34:41.000Z</time>
      </trkpt>
      <trkpt lat="47.35344" lon="-2.37704">
        <ele>11.800000190735</ele>
        <time>2021-01-07T09:34:48.000Z</time>
      </trkpt>
      <trkpt lat="47.35334" lon="-2.37663">
        <ele>11.800000190735</ele>
        <time>2021-01-07T09:34:54.000Z</time>
      </trkpt>
      <trkpt lat="47.35323" lon="-2.3762">
        <ele>11.800000190735</ele>
        <time>2021-01-07T09:35:00.000Z</time>
      </trkpt>
      <trkpt lat="47.35307" lon="-2.37553">
        <ele>11.800000190735</ele>
        <time>2021-01-07T09:35:09.000Z</time>
      </trkpt>
      <trkpt lat="47.35293" lon="-2.37488">
        <ele>11.800000190735</ele>
        <time>2021-01-07T09:35:18.000Z</time>
      </trkpt>
      <trkpt lat="47.35286" lon="-2.37441">
        <ele>11.800000190735</ele>
        <time>2021-01-07T09:35:25.000Z</time>
      </trkpt>
      <trkpt lat="47.35284" lon="-2.37422">
        <ele>12.39999961853</ele>
        <time>2021-01-07T09:35:28.000Z</time>
      </trkpt>
      <trkpt lat="47.35284" lon="-2.37415">
        <ele>12.800000190735</ele>
        <time>2021-01-07T09:35:29.000Z</time>
      </trkpt>
      <trkpt lat="47.35284" lon="-2.37408">
        <ele>13.199999809265</ele>
        <time>2021-01-07T09:35:30.000Z</time>
      </trkpt>
      <trkpt lat="47.35283" lon="-2.374">
        <ele>13.60000038147</ele>
        <time>2021-01-07T09:35:31.000Z</time>
      </trkpt>
      <trkpt lat="47.35283" lon="-2.37393">
        <ele>14.199999809265</ele>
        <time>2021-01-07T09:35:32.000Z</time>
      </trkpt>
      <trkpt lat="47.35282" lon="-2.37371">
        <ele>14.199999809265</ele>
        <time>2021-01-07T09:35:36.000Z</time>
      </trkpt>
      <trkpt lat="47.35282" lon="-2.37346">
        <ele>14.199999809265</ele>
        <time>2021-01-07T09:35:43.000Z</time>
      </trkpt>
      <trkpt lat="47.35282" lon="-2.37323">
        <ele>14.199999809265</ele>
        <time>2021-01-07T09:35:49.000Z</time>
      </trkpt>
      <trkpt lat="47.35282" lon="-2.37282">
        <ele>14.199999809265</ele>
        <time>2021-01-07T09:35:55.000Z</time>
      </trkpt>
      <trkpt lat="47.35281" lon="-2.37231">
        <ele>14.199999809265</ele>
        <time>2021-01-07T09:36:02.000Z</time>
      </trkpt>
      <trkpt lat="47.35281" lon="-2.37225">
        <ele>14.199999809265</ele>
        <time>2021-01-07T09:36:03.000Z</time>
      </trkpt>
      <trkpt lat="47.3528" lon="-2.37219">
        <ele>14.199999809265</ele>
        <time>2021-01-07T09:36:04.000Z</time>
      </trkpt>
      <trkpt lat="47.35274" lon="-2.3721">
        <ele>14.199999809265</ele>
        <time>2021-01-07T09:36:06.000Z</time>
      </trkpt>
      <trkpt lat="47.35246" lon="-2.37169">
        <ele>14.199999809265</ele>
        <time>2021-01-07T09:36:14.000Z</time>
      </trkpt>
      <trkpt lat="47.35243" lon="-2.37162">
        <ele>14.199999809265</ele>
        <time>2021-01-07T09:36:15.000Z</time>
      </trkpt>
      <trkpt lat="47.35235" lon="-2.3714">
        <ele>14.199999809265</ele>
        <time>2021-01-07T09:36:18.000Z</time>
      </trkpt>
      <trkpt lat="47.35233" lon="-2.37131">
        <ele>14.199999809265</ele>
        <time>2021-01-07T09:36:19.000Z</time>
      </trkpt>
      <trkpt lat="47.35223" lon="-2.3708">
        <ele>14.199999809265</ele>
        <time>2021-01-07T09:36:25.000Z</time>
      </trkpt>
      <trkpt lat="47.35214" lon="-2.37031">
        <ele>14.199999809265</ele>
        <time>2021-01-07T09:36:31.000Z</time>
      </trkpt>
      <trkpt lat="47.35209" lon="-2.37016">
        <ele>14.60000038147</ele>
        <time>2021-01-07T09:36:33.000Z</time>
      </trkpt>
      <trkpt lat="47.35207" lon="-2.37008">
        <ele>15</ele>
        <time>2021-01-07T09:36:34.000Z</time>
      </trkpt>
      <trkpt lat="47.35204" lon="-2.37001">
        <ele>15.39999961853</ele>
        <time>2021-01-07T09:36:35.000Z</time>
      </trkpt>
      <trkpt lat="47.35201" lon="-2.36994">
        <ele>16.200000762939</ele>
        <time>2021-01-07T09:36:36.000Z</time>
      </trkpt>
      <trkpt lat="47.35194" lon="-2.36979">
        <ele>16.200000762939</ele>
        <time>2021-01-07T09:36:38.000Z</time>
      </trkpt>
      <trkpt lat="47.35161" lon="-2.36912">
        <ele>16.200000762939</ele>
        <time>2021-01-07T09:36:47.000Z</time>
      </trkpt>
      <trkpt lat="47.35146" lon="-2.36862">
        <ele>16.200000762939</ele>
        <time>2021-01-07T09:36:53.000Z</time>
      </trkpt>
      <trkpt lat="47.35133" lon="-2.36803">
        <ele>16.200000762939</ele>
        <time>2021-01-07T09:37:00.000Z</time>
      </trkpt>
      <trkpt lat="47.35118" lon="-2.36734">
        <ele>16.200000762939</ele>
        <time>2021-01-07T09:37:08.000Z</time>
      </trkpt>
      <trkpt lat="47.35097" lon="-2.36664">
        <ele>16.200000762939</ele>
        <time>2021-01-07T09:37:16.000Z</time>
      </trkpt>
      <trkpt lat="47.35071" lon="-2.36592">
        <ele>16.200000762939</ele>
        <time>2021-01-07T09:37:24.000Z</time>
      </trkpt>
      <trkpt lat="47.35068" lon="-2.36583">
        <ele>15.800000190735</ele>
        <time>2021-01-07T09:37:25.000Z</time>
      </trkpt>
      <trkpt lat="47.35065" lon="-2.36574">
        <ele>14.800000190735</ele>
        <time>2021-01-07T09:37:26.000Z</time>
      </trkpt>
      <trkpt lat="47.35062" lon="-2.36566">
        <ele>14.39999961853</ele>
        <time>2021-01-07T09:37:27.000Z</time>
      </trkpt>
      <trkpt lat="47.35058" lon="-2.36558">
        <ele>14</ele>
        <time>2021-01-07T09:37:28.000Z</time>
      </trkpt>
      <trkpt lat="47.35042" lon="-2.36525">
        <ele>14</ele>
        <time>2021-01-07T09:37:32.000Z</time>
      </trkpt>
      <trkpt lat="47.35038" lon="-2.36517">
        <ele>13.60000038147</ele>
        <time>2021-01-07T09:37:33.000Z</time>
      </trkpt>
      <trkpt lat="47.35033" lon="-2.3651">
        <ele>13</ele>
        <time>2021-01-07T09:37:34.000Z</time>
      </trkpt>
      <trkpt lat="47.35029" lon="-2.36502">
        <ele>12.39999961853</ele>
        <time>2021-01-07T09:37:35.000Z</time>
      </trkpt>
      <trkpt lat="47.35025" lon="-2.36495">
        <ele>12</ele>
        <time>2021-01-07T09:37:36.000Z</time>
      </trkpt>
      <trkpt lat="47.3502" lon="-2.36486">
        <ele>11.39999961853</ele>
        <time>2021-01-07T09:37:37.000Z</time>
      </trkpt>
      <trkpt lat="47.35012" lon="-2.36468">
        <ele>11.39999961853</ele>
        <time>2021-01-07T09:37:39.000Z</time>
      </trkpt>
      <trkpt lat="47.35009" lon="-2.36458">
        <ele>11.39999961853</ele>
        <time>2021-01-07T09:37:40.000Z</time>
      </trkpt>
      <trkpt lat="47.35003" lon="-2.36438">
        <ele>11.39999961853</ele>
        <time>2021-01-07T09:37:42.000Z</time>
      </trkpt>
      <trkpt lat="47.35" lon="-2.36429">
        <ele>11.39999961853</ele>
        <time>2021-01-07T09:37:43.000Z</time>
      </trkpt>
      <trkpt lat="47.34983" lon="-2.36409">
        <ele>11.39999961853</ele>
        <time>2021-01-07T09:37:46.000Z</time>
      </trkpt>
      <trkpt lat="47.34971" lon="-2.36403">
        <ele>11.39999961853</ele>
        <time>2021-01-07T09:37:48.000Z</time>
      </trkpt>
      <trkpt lat="47.34955" lon="-2.36391">
        <ele>11.39999961853</ele>
        <time>2021-01-07T09:37:51.000Z</time>
      </trkpt>
      <trkpt lat="47.34939" lon="-2.3638">
        <ele>12</ele>
        <time>2021-01-07T09:37:54.000Z</time>
      </trkpt>
      <trkpt lat="47.34934" lon="-2.36377">
        <ele>12.39999961853</ele>
        <time>2021-01-07T09:37:55.000Z</time>
      </trkpt>
      <trkpt lat="47.34929" lon="-2.36373">
        <ele>12.800000190735</ele>
        <time>2021-01-07T09:37:56.000Z</time>
      </trkpt>
      <trkpt lat="47.34924" lon="-2.36371">
        <ele>13.39999961853</ele>
        <time>2021-01-07T09:37:57.000Z</time>
      </trkpt>
      <trkpt lat="47.34919" lon="-2.36368">
        <ele>13.800000190735</ele>
        <time>2021-01-07T09:37:58.000Z</time>
      </trkpt>
      <trkpt lat="47.34904" lon="-2.36358">
        <ele>14.199999809265</ele>
        <time>2021-01-07T09:38:01.000Z</time>
      </trkpt>
      <trkpt lat="47.34899" lon="-2.36355">
        <ele>14.60000038147</ele>
        <time>2021-01-07T09:38:02.000Z</time>
      </trkpt>
      <trkpt lat="47.34894" lon="-2.36353">
        <ele>15</ele>
        <time>2021-01-07T09:38:03.000Z</time>
      </trkpt>
      <trkpt lat="47.34889" lon="-2.3635">
        <ele>15.39999961853</ele>
        <time>2021-01-07T09:38:04.000Z</time>
      </trkpt>
      <trkpt lat="47.34884" lon="-2.36347">
        <ele>15.800000190735</ele>
        <time>2021-01-07T09:38:05.000Z</time>
      </trkpt>
      <trkpt lat="47.34853" lon="-2.36328">
        <ele>15.800000190735</ele>
        <time>2021-01-07T09:38:11.000Z</time>
      </trkpt>
      <trkpt lat="47.34835" lon="-2.36315">
        <ele>15.800000190735</ele>
        <time>2021-01-07T09:38:15.000Z</time>
      </trkpt>
      <trkpt lat="47.34824" lon="-2.36315">
        <ele>15.800000190735</ele>
        <time>2021-01-07T09:38:17.000Z</time>
      </trkpt>
      <trkpt lat="47.3481" lon="-2.36326">
        <ele>15.800000190735</ele>
        <time>2021-01-07T09:38:20.000Z</time>
      </trkpt>
      <trkpt lat="47.34806" lon="-2.3633">
        <ele>15.800000190735</ele>
        <time>2021-01-07T09:38:21.000Z</time>
      </trkpt>
      <trkpt lat="47.34782" lon="-2.36348">
        <ele>15.800000190735</ele>
        <time>2021-01-07T09:38:26.000Z</time>
      </trkpt>
      <trkpt lat="47.34744" lon="-2.36373">
        <ele>15.800000190735</ele>
        <time>2021-01-07T09:38:33.000Z</time>
      </trkpt>
      <trkpt lat="47.34707" lon="-2.36392">
        <ele>15.800000190735</ele>
        <time>2021-01-07T09:38:40.000Z</time>
      </trkpt>
      <trkpt lat="47.34668" lon="-2.36408">
        <ele>15.800000190735</ele>
        <time>2021-01-07T09:38:47.000Z</time>
      </trkpt>
      <trkpt lat="47.34633" lon="-2.36425">
        <ele>15.39999961853</ele>
        <time>2021-01-07T09:38:53.000Z</time>
      </trkpt>
      <trkpt lat="47.34627" lon="-2.36428">
        <ele>15</ele>
        <time>2021-01-07T09:38:54.000Z</time>
      </trkpt>
      <trkpt lat="47.34622" lon="-2.36431">
        <ele>14.60000038147</ele>
        <time>2021-01-07T09:38:55.000Z</time>
      </trkpt>
      <trkpt lat="47.34617" lon="-2.36434">
        <ele>14.199999809265</ele>
        <time>2021-01-07T09:38:56.000Z</time>
      </trkpt>
      <trkpt lat="47.34611" lon="-2.36437">
        <ele>13.800000190735</ele>
        <time>2021-01-07T09:38:57.000Z</time>
      </trkpt>
      <trkpt lat="47.34602" lon="-2.36441">
        <ele>13.800000190735</ele>
        <time>2021-01-07T09:38:59.000Z</time>
      </trkpt>
      <trkpt lat="47.34597" lon="-2.36442">
        <ele>13.800000190735</ele>
        <time>2021-01-07T09:39:00.000Z</time>
      </trkpt>
      <trkpt lat="47.34588" lon="-2.36434">
        <ele>13.800000190735</ele>
        <time>2021-01-07T09:39:02.000Z</time>
      </trkpt>
      <trkpt lat="47.34581" lon="-2.36423">
        <ele>13.800000190735</ele>
        <time>2021-01-07T09:39:04.000Z</time>
      </trkpt>
      <trkpt lat="47.34572" lon="-2.36409">
        <ele>13.39999961853</ele>
        <time>2021-01-07T09:39:06.000Z</time>
      </trkpt>
      <trkpt lat="47.34567" lon="-2.36402">
        <ele>13</ele>
        <time>2021-01-07T09:39:07.000Z</time>
      </trkpt>
      <trkpt lat="47.34562" lon="-2.36395">
        <ele>12.60000038147</ele>
        <time>2021-01-07T09:39:08.000Z</time>
      </trkpt>
      <trkpt lat="47.34558" lon="-2.36387">
        <ele>12.199999809265</ele>
        <time>2021-01-07T09:39:09.000Z</time>
      </trkpt>
      <trkpt lat="47.34554" lon="-2.3638">
        <ele>11.60000038147</ele>
        <time>2021-01-07T09:39:10.000Z</time>
      </trkpt>
      <trkpt lat="47.34546" lon="-2.36364">
        <ele>11.60000038147</ele>
        <time>2021-01-07T09:39:12.000Z</time>
      </trkpt>
      <trkpt lat="47.3454" lon="-2.36348">
        <ele>11.199999809265</ele>
        <time>2021-01-07T09:39:14.000Z</time>
      </trkpt>
      <trkpt lat="47.34537" lon="-2.36341">
        <ele>10.800000190735</ele>
        <time>2021-01-07T09:39:15.000Z</time>
      </trkpt>
      <trkpt lat="47.34535" lon="-2.36335">
        <ele>10.39999961853</ele>
        <time>2021-01-07T09:39:16.000Z</time>
      </trkpt>
      <trkpt lat="47.34532" lon="-2.36327">
        <ele>10</ele>
        <time>2021-01-07T09:39:17.000Z</time>
      </trkpt>
      <trkpt lat="47.3453" lon="-2.36319">
        <ele>9.6000003814697</ele>
        <time>2021-01-07T09:39:18.000Z</time>
      </trkpt>
      <trkpt lat="47.34519" lon="-2.36282">
        <ele>9.6000003814697</ele>
        <time>2021-01-07T09:39:22.000Z</time>
      </trkpt>
      <trkpt lat="47.34499" lon="-2.36221">
        <ele>9.6000003814697</ele>
        <time>2021-01-07T09:39:29.000Z</time>
      </trkpt>
      <trkpt lat="47.3448" lon="-2.36191">
        <ele>9.6000003814697</ele>
        <time>2021-01-07T09:39:34.000Z</time>
      </trkpt>
      <trkpt lat="47.34457" lon="-2.36146">
        <ele>9.6000003814697</ele>
        <time>2021-01-07T09:39:41.000Z</time>
      </trkpt>
      <trkpt lat="47.34442" lon="-2.36105">
        <ele>9.6000003814697</ele>
        <time>2021-01-07T09:39:48.000Z</time>
      </trkpt>
      <trkpt lat="47.34433" lon="-2.36075">
        <ele>9.6000003814697</ele>
        <time>2021-01-07T09:39:53.000Z</time>
      </trkpt>
      <trkpt lat="47.34431" lon="-2.36067">
        <ele>9.6000003814697</ele>
        <time>2021-01-07T09:39:54.000Z</time>
      </trkpt>
      <trkpt lat="47.34415" lon="-2.36012">
        <ele>9.6000003814697</ele>
        <time>2021-01-07T09:40:02.000Z</time>
      </trkpt>
      <trkpt lat="47.34408" lon="-2.35995">
        <ele>9.6000003814697</ele>
        <time>2021-01-07T09:40:06.000Z</time>
      </trkpt>
      <trkpt lat="47.34397" lon="-2.35989">
        <ele>9.6000003814697</ele>
        <time>2021-01-07T09:40:11.000Z</time>
      </trkpt>
      <trkpt lat="47.34375" lon="-2.3598">
        <ele>10.60000038147</ele>
        <time>2021-01-07T09:40:18.000Z</time>
      </trkpt>
      <trkpt lat="47.34372" lon="-2.35978">
        <ele>11</ele>
        <time>2021-01-07T09:40:19.000Z</time>
      </trkpt>
      <trkpt lat="47.34368" lon="-2.35977">
        <ele>11.39999961853</ele>
        <time>2021-01-07T09:40:20.000Z</time>
      </trkpt>
      <trkpt lat="47.34363" lon="-2.35976">
        <ele>11.800000190735</ele>
        <time>2021-01-07T09:40:21.000Z</time>
      </trkpt>
      <trkpt lat="47.34351" lon="-2.35971">
        <ele>11.800000190735</ele>
        <time>2021-01-07T09:40:24.000Z</time>
      </trkpt>
      <trkpt lat="47.34323" lon="-2.35957">
        <ele>11.800000190735</ele>
        <time>2021-01-07T09:40:31.000Z</time>
      </trkpt>
      <trkpt lat="47.34296" lon="-2.35952">
        <ele>11.800000190735</ele>
        <time>2021-01-07T09:40:37.000Z</time>
      </trkpt>
      <trkpt lat="47.34291" lon="-2.3595">
        <ele>11.800000190735</ele>
        <time>2021-01-07T09:40:38.000Z</time>
      </trkpt>
      <trkpt lat="47.3427" lon="-2.35948">
        <ele>11.199999809265</ele>
        <time>2021-01-07T09:40:42.000Z</time>
      </trkpt>
      <trkpt lat="47.34264" lon="-2.35948">
        <ele>10.199999809265</ele>
        <time>2021-01-07T09:40:43.000Z</time>
      </trkpt>
      <trkpt lat="47.34259" lon="-2.35948">
        <ele>9.8000001907349</ele>
        <time>2021-01-07T09:40:44.000Z</time>
      </trkpt>
      <trkpt lat="47.34255" lon="-2.35948">
        <ele>9.1999998092651</ele>
        <time>2021-01-07T09:40:45.000Z</time>
      </trkpt>
      <trkpt lat="47.3425" lon="-2.35947">
        <ele>8.8000001907349</ele>
        <time>2021-01-07T09:40:46.000Z</time>
      </trkpt>
      <trkpt lat="47.34247" lon="-2.35946">
        <ele>8.3999996185303</ele>
        <time>2021-01-07T09:40:47.000Z</time>
      </trkpt>
      <trkpt lat="47.34244" lon="-2.35946">
        <ele>8</ele>
        <time>2021-01-07T09:40:48.000Z</time>
      </trkpt>
      <trkpt lat="47.34242" lon="-2.35945">
        <ele>7.4000000953674</ele>
        <time>2021-01-07T09:40:49.000Z</time>
      </trkpt>
      <trkpt lat="47.3424" lon="-2.35945">
        <ele>7</ele>
        <time>2021-01-07T09:40:50.000Z</time>
      </trkpt>
      <trkpt lat="47.34239" lon="-2.35941">
        <ele>7</ele>
        <time>2021-01-07T09:40:51.000Z</time>
      </trkpt>
      <trkpt lat="47.3424" lon="-2.35926">
        <ele>7</ele>
        <time>2021-01-07T09:40:54.000Z</time>
      </trkpt>
      <trkpt lat="47.34243" lon="-2.35912">
        <ele>7</ele>
        <time>2021-01-07T09:40:56.000Z</time>
      </trkpt>
      <trkpt lat="47.34246" lon="-2.35897">
        <ele>6.5999999046326</ele>
        <time>2021-01-07T09:40:58.000Z</time>
      </trkpt>
      <trkpt lat="47.34247" lon="-2.35889">
        <ele>6.1999998092651</ele>
        <time>2021-01-07T09:40:59.000Z</time>
      </trkpt>
      <trkpt lat="47.34248" lon="-2.35881">
        <ele>5.8000001907349</ele>
        <time>2021-01-07T09:41:00.000Z</time>
      </trkpt>
      <trkpt lat="47.34249" lon="-2.35872">
        <ele>5.4000000953674</ele>
        <time>2021-01-07T09:41:01.000Z</time>
      </trkpt>
      <trkpt lat="47.3425" lon="-2.35864">
        <ele>5</ele>
        <time>2021-01-07T09:41:02.000Z</time>
      </trkpt>
      <trkpt lat="47.3425" lon="-2.35855">
        <ele>5</ele>
        <time>2021-01-07T09:41:03.000Z</time>
      </trkpt>
      <trkpt lat="47.34248" lon="-2.35836">
        <ele>5</ele>
        <time>2021-01-07T09:41:05.000Z</time>
      </trkpt>
      <trkpt lat="47.34245" lon="-2.35819">
        <ele>5</ele>
        <time>2021-01-07T09:41:07.000Z</time>
      </trkpt>
      <trkpt lat="47.34237" lon="-2.35796">
        <ele>5</ele>
        <time>2021-01-07T09:41:10.000Z</time>
      </trkpt>
      <trkpt lat="47.34224" lon="-2.35756">
        <ele>5</ele>
        <time>2021-01-07T09:41:16.000Z</time>
      </trkpt>
      <trkpt lat="47.34224" lon="-2.35739">
        <ele>5</ele>
        <time>2021-01-07T09:41:20.000Z</time>
      </trkpt>
      <trkpt lat="47.34221" lon="-2.35734">
        <ele>5</ele>
        <time>2021-01-07T09:41:22.000Z</time>
      </trkpt>
      <trkpt lat="47.34219" lon="-2.35732">
        <ele>5</ele>
        <time>2021-01-07T09:41:24.000Z</time>
      </trkpt>
      <trkpt lat="47.34213" lon="-2.35725">
        <ele>5</ele>
        <time>2021-01-07T09:41:28.000Z</time>
      </trkpt>
      <trkpt lat="47.34212" lon="-2.35724">
        <ele>5</ele>
        <time>2021-01-07T09:41:29.000Z</time>
      </trkpt>
      <trkpt lat="47.3421" lon="-2.35715">
        <ele>5.4000000953674</ele>
        <time>2021-01-07T09:41:33.000Z</time>
      </trkpt>
      <trkpt lat="47.3421" lon="-2.35713">
        <ele>6</ele>
        <time>2021-01-07T09:41:34.000Z</time>
      </trkpt>
      <trkpt lat="47.34209" lon="-2.35709">
        <ele>6.4000000953674</ele>
        <time>2021-01-07T09:41:35.000Z</time>
      </trkpt>
      <trkpt lat="47.34208" lon="-2.35706">
        <ele>7</ele>
        <time>2021-01-07T09:41:36.000Z</time>
      </trkpt>
      <trkpt lat="47.34206" lon="-2.35704">
        <ele>7.4000000953674</ele>
        <time>2021-01-07T09:41:37.000Z</time>
      </trkpt>
      <trkpt lat="47.34204" lon="-2.35698">
        <ele>7.4000000953674</ele>
        <time>2021-01-07T09:41:39.000Z</time>
      </trkpt>
      <trkpt lat="47.34202" lon="-2.35695">
        <ele>7.8000001907349</ele>
        <time>2021-01-07T09:41:40.000Z</time>
      </trkpt>
      <trkpt lat="47.34199" lon="-2.35691">
        <ele>8.3999996185303</ele>
        <time>2021-01-07T09:41:41.000Z</time>
      </trkpt>
      <trkpt lat="47.34197" lon="-2.35687">
        <ele>8.8000001907349</ele>
        <time>2021-01-07T09:41:42.000Z</time>
      </trkpt>
      <trkpt lat="47.34194" lon="-2.35683">
        <ele>9.1999998092651</ele>
        <time>2021-01-07T09:41:43.000Z</time>
      </trkpt>
      <trkpt lat="47.34192" lon="-2.35679">
        <ele>9.6000003814697</ele>
        <time>2021-01-07T09:41:44.000Z</time>
      </trkpt>
      <trkpt lat="47.34184" lon="-2.35667">
        <ele>10</ele>
        <time>2021-01-07T09:41:47.000Z</time>
      </trkpt>
      <trkpt lat="47.34181" lon="-2.35663">
        <ele>10.60000038147</ele>
        <time>2021-01-07T09:41:48.000Z</time>
      </trkpt>
      <trkpt lat="47.34179" lon="-2.35658">
        <ele>11</ele>
        <time>2021-01-07T09:41:49.000Z</time>
      </trkpt>
      <trkpt lat="47.34176" lon="-2.35654">
        <ele>11.39999961853</ele>
        <time>2021-01-07T09:41:50.000Z</time>
      </trkpt>
      <trkpt lat="47.34174" lon="-2.35649">
        <ele>11.800000190735</ele>
        <time>2021-01-07T09:41:51.000Z</time>
      </trkpt>
      <trkpt lat="47.34158" lon="-2.35623">
        <ele>11.800000190735</ele>
        <time>2021-01-07T09:41:57.000Z</time>
      </trkpt>
      <trkpt lat="47.34153" lon="-2.35613">
        <ele>12.39999961853</ele>
        <time>2021-01-07T09:41:59.000Z</time>
      </trkpt>
      <trkpt lat="47.3415" lon="-2.35608">
        <ele>12.800000190735</ele>
        <time>2021-01-07T09:42:00.000Z</time>
      </trkpt>
      <trkpt lat="47.34147" lon="-2.35603">
        <ele>13.199999809265</ele>
        <time>2021-01-07T09:42:01.000Z</time>
      </trkpt>
      <trkpt lat="47.34144" lon="-2.35598">
        <ele>13.60000038147</ele>
        <time>2021-01-07T09:42:02.000Z</time>
      </trkpt>
      <trkpt lat="47.34142" lon="-2.35592">
        <ele>14</ele>
        <time>2021-01-07T09:42:03.000Z</time>
      </trkpt>
      <trkpt lat="47.34139" lon="-2.35585">
        <ele>14</ele>
        <time>2021-01-07T09:42:04.000Z</time>
      </trkpt>
      <trkpt lat="47.34126" lon="-2.35548">
        <ele>14</ele>
        <time>2021-01-07T09:42:09.000Z</time>
      </trkpt>
      <trkpt lat="47.34108" lon="-2.35493">
        <ele>14</ele>
        <time>2021-01-07T09:42:16.000Z</time>
      </trkpt>
      <trkpt lat="47.3409" lon="-2.35448">
        <ele>14</ele>
        <time>2021-01-07T09:42:22.000Z</time>
      </trkpt>
      <trkpt lat="47.34073" lon="-2.35406">
        <ele>14</ele>
        <time>2021-01-07T09:42:28.000Z</time>
      </trkpt>
      <trkpt lat="47.34056" lon="-2.35368">
        <ele>14</ele>
        <time>2021-01-07T09:42:34.000Z</time>
      </trkpt>
      <trkpt lat="47.34048" lon="-2.35357">
        <ele>14</ele>
        <time>2021-01-07T09:42:36.000Z</time>
      </trkpt>
      <trkpt lat="47.34033" lon="-2.35339">
        <ele>14</ele>
        <time>2021-01-07T09:42:40.000Z</time>
      </trkpt>
      <trkpt lat="47.34002" lon="-2.35307">
        <ele>14.39999961853</ele>
        <time>2021-01-07T09:42:47.000Z</time>
      </trkpt>
      <trkpt lat="47.33998" lon="-2.35302">
        <ele>14.800000190735</ele>
        <time>2021-01-07T09:42:48.000Z</time>
      </trkpt>
      <trkpt lat="47.33994" lon="-2.35298">
        <ele>15.199999809265</ele>
        <time>2021-01-07T09:42:49.000Z</time>
      </trkpt>
      <trkpt lat="47.3399" lon="-2.35294">
        <ele>15.60000038147</ele>
        <time>2021-01-07T09:42:50.000Z</time>
      </trkpt>
      <trkpt lat="47.33986" lon="-2.3529">
        <ele>16</ele>
        <time>2021-01-07T09:42:51.000Z</time>
      </trkpt>
      <trkpt lat="47.33974" lon="-2.35278">
        <ele>16</ele>
        <time>2021-01-07T09:42:54.000Z</time>
      </trkpt>
      <trkpt lat="47.3397" lon="-2.35273">
        <ele>16</ele>
        <time>2021-01-07T09:42:55.000Z</time>
      </trkpt>
      <trkpt lat="47.33958" lon="-2.35261">
        <ele>16</ele>
        <time>2021-01-07T09:42:58.000Z</time>
      </trkpt>
      <trkpt lat="47.33954" lon="-2.35257">
        <ele>16</ele>
        <time>2021-01-07T09:42:59.000Z</time>
      </trkpt>
      <trkpt lat="47.33948" lon="-2.35246">
        <ele>16.39999961853</ele>
        <time>2021-01-07T09:43:01.000Z</time>
      </trkpt>
      <trkpt lat="47.33946" lon="-2.3524">
        <ele>16.799999237061</ele>
        <time>2021-01-07T09:43:02.000Z</time>
      </trkpt>
      <trkpt lat="47.33945" lon="-2.35235">
        <ele>17.39999961853</ele>
        <time>2021-01-07T09:43:03.000Z</time>
      </trkpt>
      <trkpt lat="47.33943" lon="-2.35229">
        <ele>17.799999237061</ele>
        <time>2021-01-07T09:43:04.000Z</time>
      </trkpt>
      <trkpt lat="47.3394" lon="-2.35224">
        <ele>18.200000762939</ele>
        <time>2021-01-07T09:43:05.000Z</time>
      </trkpt>
      <trkpt lat="47.33932" lon="-2.35202">
        <ele>18.200000762939</ele>
        <time>2021-01-07T09:43:09.000Z</time>
      </trkpt>
      <trkpt lat="47.33924" lon="-2.35188">
        <ele>18.200000762939</ele>
        <time>2021-01-07T09:43:12.000Z</time>
      </trkpt>
      <trkpt lat="47.33912" lon="-2.35176">
        <ele>18.200000762939</ele>
        <time>2021-01-07T09:43:15.000Z</time>
      </trkpt>
      <trkpt lat="47.33895" lon="-2.35162">
        <ele>18.60000038147</ele>
        <time>2021-01-07T09:43:19.000Z</time>
      </trkpt>
      <trkpt lat="47.33891" lon="-2.35159">
        <ele>19</ele>
        <time>2021-01-07T09:43:20.000Z</time>
      </trkpt>
      <trkpt lat="47.33886" lon="-2.35156">
        <ele>19.39999961853</ele>
        <time>2021-01-07T09:43:21.000Z</time>
      </trkpt>
      <trkpt lat="47.33882" lon="-2.35153">
        <ele>19.799999237061</ele>
        <time>2021-01-07T09:43:22.000Z</time>
      </trkpt>
      <trkpt lat="47.33877" lon="-2.3515">
        <ele>20.200000762939</ele>
        <time>2021-01-07T09:43:23.000Z</time>
      </trkpt>
      <trkpt lat="47.33857" lon="-2.35131">
        <ele>20.200000762939</ele>
        <time>2021-01-07T09:43:28.000Z</time>
      </trkpt>
      <trkpt lat="47.33824" lon="-2.35108">
        <ele>20.200000762939</ele>
        <time>2021-01-07T09:43:35.000Z</time>
      </trkpt>
      <trkpt lat="47.33786" lon="-2.35087">
        <ele>19.799999237061</ele>
        <time>2021-01-07T09:43:42.000Z</time>
      </trkpt>
      <trkpt lat="47.3378" lon="-2.35083">
        <ele>19.200000762939</ele>
        <time>2021-01-07T09:43:43.000Z</time>
      </trkpt>
      <trkpt lat="47.33774" lon="-2.3508">
        <ele>18.799999237061</ele>
        <time>2021-01-07T09:43:44.000Z</time>
      </trkpt>
      <trkpt lat="47.33769" lon="-2.35077">
        <ele>18.39999961853</ele>
        <time>2021-01-07T09:43:45.000Z</time>
      </trkpt>
      <trkpt lat="47.33763" lon="-2.35073">
        <ele>17.799999237061</ele>
        <time>2021-01-07T09:43:46.000Z</time>
      </trkpt>
      <trkpt lat="47.33739" lon="-2.35053">
        <ele>17.799999237061</ele>
        <time>2021-01-07T09:43:51.000Z</time>
      </trkpt>
      <trkpt lat="47.33709" lon="-2.35011">
        <ele>17.799999237061</ele>
        <time>2021-01-07T09:43:58.000Z</time>
      </trkpt>
      <trkpt lat="47.33686" lon="-2.34976">
        <ele>17.799999237061</ele>
        <time>2021-01-07T09:44:04.000Z</time>
      </trkpt>
      <trkpt lat="47.33667" lon="-2.34949">
        <ele>17.799999237061</ele>
        <time>2021-01-07T09:44:09.000Z</time>
      </trkpt>
      <trkpt lat="47.33663" lon="-2.34944">
        <ele>17.799999237061</ele>
        <time>2021-01-07T09:44:10.000Z</time>
      </trkpt>
      <trkpt lat="47.33649" lon="-2.34925">
        <ele>17.799999237061</ele>
        <time>2021-01-07T09:44:14.000Z</time>
      </trkpt>
      <trkpt lat="47.33629" lon="-2.34898">
        <ele>17.799999237061</ele>
        <time>2021-01-07T09:44:20.000Z</time>
      </trkpt>
      <trkpt lat="47.33625" lon="-2.34894">
        <ele>17.799999237061</ele>
        <time>2021-01-07T09:44:21.000Z</time>
      </trkpt>
      <trkpt lat="47.33607" lon="-2.34867">
        <ele>17.799999237061</ele>
        <time>2021-01-07T09:44:27.000Z</time>
      </trkpt>
      <trkpt lat="47.33604" lon="-2.34863">
        <ele>17.799999237061</ele>
        <time>2021-01-07T09:44:28.000Z</time>
      </trkpt>
      <trkpt lat="47.33587" lon="-2.3484">
        <ele>17.799999237061</ele>
        <time>2021-01-07T09:44:33.000Z</time>
      </trkpt>
      <trkpt lat="47.33584" lon="-2.34835">
        <ele>18.200000762939</ele>
        <time>2021-01-07T09:44:34.000Z</time>
      </trkpt>
      <trkpt lat="47.3358" lon="-2.3483">
        <ele>18.799999237061</ele>
        <time>2021-01-07T09:44:35.000Z</time>
      </trkpt>
      <trkpt lat="47.33576" lon="-2.34825">
        <ele>19.200000762939</ele>
        <time>2021-01-07T09:44:36.000Z</time>
      </trkpt>
      <trkpt lat="47.33573" lon="-2.34821">
        <ele>19.60000038147</ele>
        <time>2021-01-07T09:44:37.000Z</time>
      </trkpt>
      <trkpt lat="47.3357" lon="-2.34816">
        <ele>20</ele>
        <time>2021-01-07T09:44:38.000Z</time>
      </trkpt>
      <trkpt lat="47.33567" lon="-2.34811">
        <ele>20</ele>
        <time>2021-01-07T09:44:39.000Z</time>
      </trkpt>
      <trkpt lat="47.33546" lon="-2.34783">
        <ele>20</ele>
        <time>2021-01-07T09:44:45.000Z</time>
      </trkpt>
      <trkpt lat="47.33518" lon="-2.34745">
        <ele>20</ele>
        <time>2021-01-07T09:44:51.000Z</time>
      </trkpt>
      <trkpt lat="47.3348" lon="-2.34691">
        <ele>20</ele>
        <time>2021-01-07T09:44:59.000Z</time>
      </trkpt>
      <trkpt lat="47.33442" lon="-2.34631">
        <ele>20</ele>
        <time>2021-01-07T09:45:07.000Z</time>
      </trkpt>
      <trkpt lat="47.33425" lon="-2.34599">
        <ele>19.60000038147</ele>
        <time>2021-01-07T09:45:11.000Z</time>
      </trkpt>
      <trkpt lat="47.33421" lon="-2.34591">
        <ele>19.200000762939</ele>
        <time>2021-01-07T09:45:12.000Z</time>
      </trkpt>
      <trkpt lat="47.33416" lon="-2.34582">
        <ele>18.799999237061</ele>
        <time>2021-01-07T09:45:13.000Z</time>
      </trkpt>
      <trkpt lat="47.33412" lon="-2.34574">
        <ele>18.39999961853</ele>
        <time>2021-01-07T09:45:14.000Z</time>
      </trkpt>
      <trkpt lat="47.33407" lon="-2.34565">
        <ele>18</ele>
        <time>2021-01-07T09:45:15.000Z</time>
      </trkpt>
      <trkpt lat="47.33391" lon="-2.34534">
        <ele>17.60000038147</ele>
        <time>2021-01-07T09:45:19.000Z</time>
      </trkpt>
      <trkpt lat="47.33387" lon="-2.34527">
        <ele>17.200000762939</ele>
        <time>2021-01-07T09:45:20.000Z</time>
      </trkpt>
      <trkpt lat="47.33383" lon="-2.3452">
        <ele>16.799999237061</ele>
        <time>2021-01-07T09:45:21.000Z</time>
      </trkpt>
      <trkpt lat="47.33379" lon="-2.34512">
        <ele>16.39999961853</ele>
        <time>2021-01-07T09:45:22.000Z</time>
      </trkpt>
      <trkpt lat="47.33375" lon="-2.34505">
        <ele>16</ele>
        <time>2021-01-07T09:45:23.000Z</time>
      </trkpt>
      <trkpt lat="47.33363" lon="-2.34474">
        <ele>16</ele>
        <time>2021-01-07T09:45:27.000Z</time>
      </trkpt>
      <trkpt lat="47.33366" lon="-2.34449">
        <ele>16</ele>
        <time>2021-01-07T09:45:30.000Z</time>
      </trkpt>
      <trkpt lat="47.33374" lon="-2.34428">
        <ele>16</ele>
        <time>2021-01-07T09:45:33.000Z</time>
      </trkpt>
      <trkpt lat="47.3338" lon="-2.34414">
        <ele>16</ele>
        <time>2021-01-07T09:45:35.000Z</time>
      </trkpt>
      <trkpt lat="47.33402" lon="-2.34366">
        <ele>16</ele>
        <time>2021-01-07T09:45:42.000Z</time>
      </trkpt>
      <trkpt lat="47.33421" lon="-2.3431">
        <ele>16</ele>
        <time>2021-01-07T09:45:49.000Z</time>
      </trkpt>
      <trkpt lat="47.33437" lon="-2.34262">
        <ele>15.60000038147</ele>
        <time>2021-01-07T09:45:55.000Z</time>
      </trkpt>
      <trkpt lat="47.3344" lon="-2.34254">
        <ele>15</ele>
        <time>2021-01-07T09:45:56.000Z</time>
      </trkpt>
      <trkpt lat="47.33443" lon="-2.34246">
        <ele>14.60000038147</ele>
        <time>2021-01-07T09:45:57.000Z</time>
      </trkpt>
      <trkpt lat="47.33446" lon="-2.34238">
        <ele>14.199999809265</ele>
        <time>2021-01-07T09:45:58.000Z</time>
      </trkpt>
      <trkpt lat="47.3345" lon="-2.34231">
        <ele>13.800000190735</ele>
        <time>2021-01-07T09:45:59.000Z</time>
      </trkpt>
      <trkpt lat="47.33467" lon="-2.34205">
        <ele>13.800000190735</ele>
        <time>2021-01-07T09:46:03.000Z</time>
      </trkpt>
      <trkpt lat="47.33498" lon="-2.34175">
        <ele>13.800000190735</ele>
        <time>2021-01-07T09:46:09.000Z</time>
      </trkpt>
      <trkpt lat="47.33536" lon="-2.34147">
        <ele>13.800000190735</ele>
        <time>2021-01-07T09:46:16.000Z</time>
      </trkpt>
      <trkpt lat="47.33558" lon="-2.34132">
        <ele>13.39999961853</ele>
        <time>2021-01-07T09:46:20.000Z</time>
      </trkpt>
      <trkpt lat="47.33564" lon="-2.34128">
        <ele>13</ele>
        <time>2021-01-07T09:46:21.000Z</time>
      </trkpt>
      <trkpt lat="47.33569" lon="-2.34124">
        <ele>12.60000038147</ele>
        <time>2021-01-07T09:46:22.000Z</time>
      </trkpt>
      <trkpt lat="47.33574" lon="-2.3412">
        <ele>12.199999809265</ele>
        <time>2021-01-07T09:46:23.000Z</time>
      </trkpt>
      <trkpt lat="47.33579" lon="-2.34116">
        <ele>11.800000190735</ele>
        <time>2021-01-07T09:46:24.000Z</time>
      </trkpt>
      <trkpt lat="47.33611" lon="-2.34088">
        <ele>11.800000190735</ele>
        <time>2021-01-07T09:46:30.000Z</time>
      </trkpt>
      <trkpt lat="47.3365" lon="-2.34052">
        <ele>11.800000190735</ele>
        <time>2021-01-07T09:46:37.000Z</time>
      </trkpt>
      <trkpt lat="47.33696" lon="-2.3401">
        <ele>11.800000190735</ele>
        <time>2021-01-07T09:46:45.000Z</time>
      </trkpt>
      <trkpt lat="47.33702" lon="-2.34005">
        <ele>11.800000190735</ele>
        <time>2021-01-07T09:46:46.000Z</time>
      </trkpt>
      <trkpt lat="47.33732" lon="-2.33981">
        <ele>11.39999961853</ele>
        <time>2021-01-07T09:46:51.000Z</time>
      </trkpt>
      <trkpt lat="47.33737" lon="-2.33976">
        <ele>11</ele>
        <time>2021-01-07T09:46:52.000Z</time>
      </trkpt>
      <trkpt lat="47.33743" lon="-2.33971">
        <ele>10.199999809265</ele>
        <time>2021-01-07T09:46:53.000Z</time>
      </trkpt>
      <trkpt lat="47.33749" lon="-2.33967">
        <ele>9.8000001907349</ele>
        <time>2021-01-07T09:46:54.000Z</time>
      </trkpt>
      <trkpt lat="47.33781" lon="-2.33941">
        <ele>9.8000001907349</ele>
        <time>2021-01-07T09:47:00.000Z</time>
      </trkpt>
      <trkpt lat="47.33808" lon="-2.33919">
        <ele>9.8000001907349</ele>
        <time>2021-01-07T09:47:06.000Z</time>
      </trkpt>
      <trkpt lat="47.33826" lon="-2.33904">
        <ele>9.1999998092651</ele>
        <time>2021-01-07T09:47:10.000Z</time>
      </trkpt>
      <trkpt lat="47.33832" lon="-2.33901">
        <ele>8.8000001907349</ele>
        <time>2021-01-07T09:47:11.000Z</time>
      </trkpt>
      <trkpt lat="47.33837" lon="-2.33898">
        <ele>8.3999996185303</ele>
        <time>2021-01-07T09:47:12.000Z</time>
      </trkpt>
      <trkpt lat="47.33841" lon="-2.33894">
        <ele>8</ele>
        <time>2021-01-07T09:47:13.000Z</time>
      </trkpt>
      <trkpt lat="47.33845" lon="-2.33891">
        <ele>7.5999999046326</ele>
        <time>2021-01-07T09:47:14.000Z</time>
      </trkpt>
      <trkpt lat="47.33857" lon="-2.33882">
        <ele>7.5999999046326</ele>
        <time>2021-01-07T09:47:18.000Z</time>
      </trkpt>
      <trkpt lat="47.33872" lon="-2.33866">
        <ele>7.5999999046326</ele>
        <time>2021-01-07T09:47:24.000Z</time>
      </trkpt>
      <trkpt lat="47.33889" lon="-2.33847">
        <ele>7.5999999046326</ele>
        <time>2021-01-07T09:47:29.000Z</time>
      </trkpt>
      <trkpt lat="47.33893" lon="-2.33842">
        <ele>7.5999999046326</ele>
        <time>2021-01-07T09:47:30.000Z</time>
      </trkpt>
      <trkpt lat="47.33913" lon="-2.33812">
        <ele>7.5999999046326</ele>
        <time>2021-01-07T09:47:35.000Z</time>
      </trkpt>
      <trkpt lat="47.33917" lon="-2.33806">
        <ele>7.1999998092651</ele>
        <time>2021-01-07T09:47:36.000Z</time>
      </trkpt>
      <trkpt lat="47.33921" lon="-2.33799">
        <ele>6.8000001907349</ele>
        <time>2021-01-07T09:47:37.000Z</time>
      </trkpt>
      <trkpt lat="47.33924" lon="-2.33792">
        <ele>6.4000000953674</ele>
        <time>2021-01-07T09:47:38.000Z</time>
      </trkpt>
      <trkpt lat="47.33928" lon="-2.33785">
        <ele>6</ele>
        <time>2021-01-07T09:47:39.000Z</time>
      </trkpt>
      <trkpt lat="47.33933" lon="-2.33778">
        <ele>5.5999999046326</ele>
        <time>2021-01-07T09:47:40.000Z</time>
      </trkpt>
      <trkpt lat="47.33941" lon="-2.33764">
        <ele>5.5999999046326</ele>
        <time>2021-01-07T09:47:42.000Z</time>
      </trkpt>
      <trkpt lat="47.33965" lon="-2.33725">
        <ele>5.5999999046326</ele>
        <time>2021-01-07T09:47:48.000Z</time>
      </trkpt>
      <trkpt lat="47.33974" lon="-2.33713">
        <ele>5.5999999046326</ele>
        <time>2021-01-07T09:47:50.000Z</time>
      </trkpt>
      <trkpt lat="47.33987" lon="-2.33692">
        <ele>5.5999999046326</ele>
        <time>2021-01-07T09:47:53.000Z</time>
      </trkpt>
      <trkpt lat="47.3399" lon="-2.33684">
        <ele>5.5999999046326</ele>
        <time>2021-01-07T09:47:54.000Z</time>
      </trkpt>
      <trkpt lat="47.34001" lon="-2.33654">
        <ele>5.5999999046326</ele>
        <time>2021-01-07T09:47:58.000Z</time>
      </trkpt>
      <trkpt lat="47.34025" lon="-2.33609">
        <ele>5.5999999046326</ele>
        <time>2021-01-07T09:48:04.000Z</time>
      </trkpt>
      <trkpt lat="47.34037" lon="-2.33589">
        <ele>4.8000001907349</ele>
        <time>2021-01-07T09:48:07.000Z</time>
      </trkpt>
      <trkpt lat="47.34041" lon="-2.33581">
        <ele>4.4000000953674</ele>
        <time>2021-01-07T09:48:08.000Z</time>
      </trkpt>
      <trkpt lat="47.34044" lon="-2.33575">
        <ele>4</ele>
        <time>2021-01-07T09:48:09.000Z</time>
      </trkpt>
      <trkpt lat="47.34048" lon="-2.33569">
        <ele>3.5999999046326</ele>
        <time>2021-01-07T09:48:10.000Z</time>
      </trkpt>
      <trkpt lat="47.34065" lon="-2.33539">
        <ele>3.5999999046326</ele>
        <time>2021-01-07T09:48:15.000Z</time>
      </trkpt>
      <trkpt lat="47.34081" lon="-2.33511">
        <ele>3.5999999046326</ele>
        <time>2021-01-07T09:48:20.000Z</time>
      </trkpt>
      <trkpt lat="47.34092" lon="-2.33491">
        <ele>3.5999999046326</ele>
        <time>2021-01-07T09:48:25.000Z</time>
      </trkpt>
      <trkpt lat="47.34094" lon="-2.33489">
        <ele>3.2000000476837</ele>
        <time>2021-01-07T09:48:26.000Z</time>
      </trkpt>
      <trkpt lat="47.34096" lon="-2.33487">
        <ele>2.7999999523163</ele>
        <time>2021-01-07T09:48:27.000Z</time>
      </trkpt>
      <trkpt lat="47.34096" lon="-2.33487">
        <ele>2.2000000476837</ele>
        <time>2021-01-07T09:48:28.000Z</time>
      </trkpt>
      <trkpt lat="47.34097" lon="-2.33486">
        <ele>1.7999999523163</ele>
        <time>2021-01-07T09:48:29.000Z</time>
      </trkpt>
      <trkpt lat="47.34099" lon="-2.33481">
        <ele>1.3999999761581</ele>
        <time>2021-01-07T09:48:34.000Z</time>
      </trkpt>
      <trkpt lat="47.34111" lon="-2.33461">
        <ele>1.3999999761581</ele>
        <time>2021-01-07T09:48:38.000Z</time>
      </trkpt>
      <trkpt lat="47.34129" lon="-2.3343">
        <ele>1.3999999761581</ele>
        <time>2021-01-07T09:48:44.000Z</time>
      </trkpt>
      <trkpt lat="47.3415" lon="-2.33399">
        <ele>1.3999999761581</ele>
        <time>2021-01-07T09:48:50.000Z</time>
      </trkpt>
      <trkpt lat="47.34153" lon="-2.33392">
        <ele>1.3999999761581</ele>
        <time>2021-01-07T09:48:51.000Z</time>
      </trkpt>
      <trkpt lat="47.34167" lon="-2.33352">
        <ele>1.3999999761581</ele>
        <time>2021-01-07T09:48:57.000Z</time>
      </trkpt>
      <trkpt lat="47.34185" lon="-2.33303">
        <ele>1.3999999761581</ele>
        <time>2021-01-07T09:49:04.000Z</time>
      </trkpt>
      <trkpt lat="47.34195" lon="-2.3328">
        <ele>1</ele>
        <time>2021-01-07T09:49:07.000Z</time>
      </trkpt>
      <trkpt lat="47.34198" lon="-2.33272">
        <ele>0.60000002384186</ele>
        <time>2021-01-07T09:49:08.000Z</time>
      </trkpt>
      <trkpt lat="47.34201" lon="-2.33264">
        <ele>0.20000000298023</ele>
        <time>2021-01-07T09:49:09.000Z</time>
      </trkpt>
      <trkpt lat="47.34204" lon="-2.33256">
        <ele>-0.20000000298023</ele>
        <time>2021-01-07T09:49:10.000Z</time>
      </trkpt>
      <trkpt lat="47.34207" lon="-2.33249">
        <ele>-0.60000002384186</ele>
        <time>2021-01-07T09:49:11.000Z</time>
      </trkpt>
      <trkpt lat="47.34227" lon="-2.33185">
        <ele>-0.60000002384186</ele>
        <time>2021-01-07T09:49:19.000Z</time>
      </trkpt>
      <trkpt lat="47.34242" lon="-2.3314">
        <ele>-0.60000002384186</ele>
        <time>2021-01-07T09:49:25.000Z</time>
      </trkpt>
      <trkpt lat="47.34248" lon="-2.33119">
        <ele>-0.60000002384186</ele>
        <time>2021-01-07T09:49:28.000Z</time>
      </trkpt>
      <trkpt lat="47.34256" lon="-2.33096">
        <ele>-0.60000002384186</ele>
        <time>2021-01-07T09:49:31.000Z</time>
      </trkpt>
      <trkpt lat="47.34263" lon="-2.33077">
        <ele>-1</ele>
        <time>2021-01-07T09:49:34.000Z</time>
      </trkpt>
      <trkpt lat="47.34265" lon="-2.33073">
        <ele>-1.3999999761581</ele>
        <time>2021-01-07T09:49:35.000Z</time>
      </trkpt>
      <trkpt lat="47.34269" lon="-2.3307">
        <ele>-1.7999999523163</ele>
        <time>2021-01-07T09:49:36.000Z</time>
      </trkpt>
      <trkpt lat="47.34273" lon="-2.33068">
        <ele>-2.2000000476837</ele>
        <time>2021-01-07T09:49:37.000Z</time>
      </trkpt>
      <trkpt lat="47.34277" lon="-2.33065">
        <ele>-2.5999999046326</ele>
        <time>2021-01-07T09:49:38.000Z</time>
      </trkpt>
      <trkpt lat="47.34286" lon="-2.33061">
        <ele>-2.5999999046326</ele>
        <time>2021-01-07T09:49:40.000Z</time>
      </trkpt>
      <trkpt lat="47.34291" lon="-2.33059">
        <ele>-2.5999999046326</ele>
        <time>2021-01-07T09:49:41.000Z</time>
      </trkpt>
      <trkpt lat="47.34326" lon="-2.33047">
        <ele>-2.5999999046326</ele>
        <time>2021-01-07T09:49:47.000Z</time>
      </trkpt>
      <trkpt lat="47.34349" lon="-2.33038">
        <ele>-2.5999999046326</ele>
        <time>2021-01-07T09:49:51.000Z</time>
      </trkpt>
      <trkpt lat="47.34354" lon="-2.33034">
        <ele>-2.5999999046326</ele>
        <time>2021-01-07T09:49:52.000Z</time>
      </trkpt>
      <trkpt lat="47.34368" lon="-2.33013">
        <ele>-2.5999999046326</ele>
        <time>2021-01-07T09:49:56.000Z</time>
      </trkpt>
      <trkpt lat="47.34367" lon="-2.32992">
        <ele>-2.5999999046326</ele>
        <time>2021-01-07T09:50:00.000Z</time>
      </trkpt>
      <trkpt lat="47.34362" lon="-2.32968">
        <ele>-2.5999999046326</ele>
        <time>2021-01-07T09:50:04.000Z</time>
      </trkpt>
      <trkpt lat="47.3436" lon="-2.3296">
        <ele>-2.5999999046326</ele>
        <time>2021-01-07T09:50:05.000Z</time>
      </trkpt>
      <trkpt lat="47.34346" lon="-2.3291">
        <ele>-2.5999999046326</ele>
        <time>2021-01-07T09:50:12.000Z</time>
      </trkpt>
      <trkpt lat="47.34335" lon="-2.32874">
        <ele>-2.5999999046326</ele>
        <time>2021-01-07T09:50:17.000Z</time>
      </trkpt>
      <trkpt lat="47.34331" lon="-2.32852">
        <ele>-2.5999999046326</ele>
        <time>2021-01-07T09:50:20.000Z</time>
      </trkpt>
      <trkpt lat="47.34327" lon="-2.32829">
        <ele>-2.2000000476837</ele>
        <time>2021-01-07T09:50:23.000Z</time>
      </trkpt>
      <trkpt lat="47.34326" lon="-2.32822">
        <ele>-1.7999999523163</ele>
        <time>2021-01-07T09:50:24.000Z</time>
      </trkpt>
      <trkpt lat="47.34325" lon="-2.32815">
        <ele>-1.3999999761581</ele>
        <time>2021-01-07T09:50:25.000Z</time>
      </trkpt>
      <trkpt lat="47.34323" lon="-2.32808">
        <ele>-0.80000001192093</ele>
        <time>2021-01-07T09:50:26.000Z</time>
      </trkpt>
      <trkpt lat="47.34322" lon="-2.32801">
        <ele>-0.40000000596046</ele>
        <time>2021-01-07T09:50:27.000Z</time>
      </trkpt>
      <trkpt lat="47.34321" lon="-2.32795">
        <ele>-0.40000000596046</ele>
        <time>2021-01-07T09:50:28.000Z</time>
      </trkpt>
      <trkpt lat="47.34314" lon="-2.32769">
        <ele>8.8</ele>
        <time>2021-01-07T09:50:32.000Z</time>
      </trkpt>
      <trkpt lat="47.34313" lon="-2.32762">
        <ele>0.40000000596046</ele>
        <time>2021-01-07T09:50:33.000Z</time>
      </trkpt>
      <trkpt lat="47.34312" lon="-2.32756">
        <ele>1</ele>
        <time>2021-01-07T09:50:34.000Z</time>
      </trkpt>
      <trkpt lat="47.34312" lon="-2.32749">
        <ele>1.7999999523163</ele>
        <time>2021-01-07T09:50:35.000Z</time>
      </trkpt>
      <trkpt lat="47.3431" lon="-2.3272">
        <ele>1.7999999523163</ele>
        <time>2021-01-07T09:50:40.000Z</time>
      </trkpt>
      <trkpt lat="47.34309" lon="-2.32693">
        <ele>1.7999999523163</ele>
        <time>2021-01-07T09:50:44.000Z</time>
      </trkpt>
      <trkpt lat="47.3431" lon="-2.32668">
        <ele>1.7999999523163</ele>
        <time>2021-01-07T09:50:47.000Z</time>
      </trkpt>
      <trkpt lat="47.34308" lon="-2.32628">
        <ele>2.2000000476837</ele>
        <time>2021-01-07T09:50:52.000Z</time>
      </trkpt>
      <trkpt lat="47.34307" lon="-2.32619">
        <ele>2.5999999046326</ele>
        <time>2021-01-07T09:50:53.000Z</time>
      </trkpt>
      <trkpt lat="47.34307" lon="-2.32611">
        <ele>3.2000000476837</ele>
        <time>2021-01-07T09:50:54.000Z</time>
      </trkpt>
      <trkpt lat="47.34306" lon="-2.32604">
        <ele>3.5999999046326</ele>
        <time>2021-01-07T09:50:55.000Z</time>
      </trkpt>
      <trkpt lat="47.34306" lon="-2.32596">
        <ele>4</ele>
        <time>2021-01-07T09:50:56.000Z</time>
      </trkpt>
      <trkpt lat="47.34301" lon="-2.32564">
        <ele>4</ele>
        <time>2021-01-07T09:51:01.000Z</time>
      </trkpt>
      <trkpt lat="47.34295" lon="-2.32552">
        <ele>4</ele>
        <time>2021-01-07T09:51:04.000Z</time>
      </trkpt>
      <trkpt lat="47.34291" lon="-2.32552">
        <ele>4</ele>
        <time>2021-01-07T09:51:05.000Z</time>
      </trkpt>
      <trkpt lat="47.34277" lon="-2.32554">
        <ele>4</ele>
        <time>2021-01-07T09:51:08.000Z</time>
      </trkpt>
      <trkpt lat="47.34268" lon="-2.32558">
        <ele>4</ele>
        <time>2021-01-07T09:51:10.000Z</time>
      </trkpt>
      <trkpt lat="47.34235" lon="-2.32566">
        <ele>4</ele>
        <time>2021-01-07T09:51:17.000Z</time>
      </trkpt>
      <trkpt lat="47.34206" lon="-2.32574">
        <ele>4</ele>
        <time>2021-01-07T09:51:23.000Z</time>
      </trkpt>
      <trkpt lat="47.34191" lon="-2.32576">
        <ele>4.4000000953674</ele>
        <time>2021-01-07T09:51:26.000Z</time>
      </trkpt>
      <trkpt lat="47.34186" lon="-2.32576">
        <ele>4.8000001907349</ele>
        <time>2021-01-07T09:51:27.000Z</time>
      </trkpt>
      <trkpt lat="47.34182" lon="-2.32577">
        <ele>5.1999998092651</ele>
        <time>2021-01-07T09:51:28.000Z</time>
      </trkpt>
      <trkpt lat="47.34178" lon="-2.32579">
        <ele>5.5999999046326</ele>
        <time>2021-01-07T09:51:29.000Z</time>
      </trkpt>
      <trkpt lat="47.34174" lon="-2.32579">
        <ele>6</ele>
        <time>2021-01-07T09:51:30.000Z</time>
      </trkpt>
      <trkpt lat="47.3416" lon="-2.32571">
        <ele>6</ele>
        <time>2021-01-07T09:51:34.000Z</time>
      </trkpt>
      <trkpt lat="47.34156" lon="-2.32553">
        <ele>6</ele>
        <time>2021-01-07T09:51:37.000Z</time>
      </trkpt>
      <trkpt lat="47.34155" lon="-2.32516">
        <ele>6</ele>
        <time>2021-01-07T09:51:42.000Z</time>
      </trkpt>
      <trkpt lat="47.3415" lon="-2.32468">
        <ele>6</ele>
        <time>2021-01-07T09:51:48.000Z</time>
      </trkpt>
      <trkpt lat="47.34145" lon="-2.32451">
        <ele>6</ele>
        <time>2021-01-07T09:51:50.000Z</time>
      </trkpt>
      <trkpt lat="47.34138" lon="-2.32427">
        <ele>6</ele>
        <time>2021-01-07T09:51:53.000Z</time>
      </trkpt>
      <trkpt lat="47.34125" lon="-2.32371">
        <ele>6</ele>
        <time>2021-01-07T09:52:00.000Z</time>
      </trkpt>
      <trkpt lat="47.34121" lon="-2.32364">
        <ele>6</ele>
        <time>2021-01-07T09:52:01.000Z</time>
      </trkpt>
      <trkpt lat="47.34118" lon="-2.32347">
        <ele>6</ele>
        <time>2021-01-07T09:52:03.000Z</time>
      </trkpt>
      <trkpt lat="47.34116" lon="-2.32339">
        <ele>6</ele>
        <time>2021-01-07T09:52:04.000Z</time>
      </trkpt>
      <trkpt lat="47.34108" lon="-2.32305">
        <ele>5.5999999046326</ele>
        <time>2021-01-07T09:52:08.000Z</time>
      </trkpt>
      <trkpt lat="47.34105" lon="-2.32295">
        <ele>5.1999998092651</ele>
        <time>2021-01-07T09:52:09.000Z</time>
      </trkpt>
      <trkpt lat="47.34102" lon="-2.32285">
        <ele>4.5999999046326</ele>
        <time>2021-01-07T09:52:10.000Z</time>
      </trkpt>
      <trkpt lat="47.34099" lon="-2.32274">
        <ele>4.1999998092651</ele>
        <time>2021-01-07T09:52:11.000Z</time>
      </trkpt>
      <trkpt lat="47.34096" lon="-2.32265">
        <ele>3.7999999523163</ele>
        <time>2021-01-07T09:52:12.000Z</time>
      </trkpt>
      <trkpt lat="47.34088" lon="-2.32247">
        <ele>3.7999999523163</ele>
        <time>2021-01-07T09:52:14.000Z</time>
      </trkpt>
      <trkpt lat="47.34084" lon="-2.32239">
        <ele>3.4000000953674</ele>
        <time>2021-01-07T09:52:15.000Z</time>
      </trkpt>
      <trkpt lat="47.3408" lon="-2.32232">
        <ele>2.7999999523163</ele>
        <time>2021-01-07T09:52:16.000Z</time>
      </trkpt>
      <trkpt lat="47.34076" lon="-2.32225">
        <ele>2.4000000953674</ele>
        <time>2021-01-07T09:52:17.000Z</time>
      </trkpt>
      <trkpt lat="47.34072" lon="-2.32221">
        <ele>2</ele>
        <time>2021-01-07T09:52:18.000Z</time>
      </trkpt>
      <trkpt lat="47.34068" lon="-2.32218">
        <ele>1.3999999761581</ele>
        <time>2021-01-07T09:52:19.000Z</time>
      </trkpt>
      <trkpt lat="47.34058" lon="-2.32216">
        <ele>1.3999999761581</ele>
        <time>2021-01-07T09:52:21.000Z</time>
      </trkpt>
      <trkpt lat="47.34051" lon="-2.32216">
        <ele>1.3999999761581</ele>
        <time>2021-01-07T09:52:22.000Z</time>
      </trkpt>
      <trkpt lat="47.34024" lon="-2.32218">
        <ele>1.3999999761581</ele>
        <time>2021-01-07T09:52:25.000Z</time>
      </trkpt>
      <trkpt lat="47.33993" lon="-2.32222">
        <ele>1</ele>
        <time>2021-01-07T09:52:29.000Z</time>
      </trkpt>
      <trkpt lat="47.33986" lon="-2.32222">
        <ele>0.60000002384186</ele>
        <time>2021-01-07T09:52:30.000Z</time>
      </trkpt>
      <trkpt lat="47.33977" lon="-2.32221">
        <ele>0.20000000298023</ele>
        <time>2021-01-07T09:52:31.000Z</time>
      </trkpt>
      <trkpt lat="47.3397" lon="-2.3222">
        <ele>-0.20000000298023</ele>
        <time>2021-01-07T09:52:32.000Z</time>
      </trkpt>
      <trkpt lat="47.33964" lon="-2.32217">
        <ele>-0.80000001192093</ele>
        <time>2021-01-07T09:52:33.000Z</time>
      </trkpt>
      <trkpt lat="47.33959" lon="-2.32213">
        <ele>-0.80000001192093</ele>
        <time>2021-01-07T09:52:34.000Z</time>
      </trkpt>
      <trkpt lat="47.33942" lon="-2.32201">
        <ele>-0.80000001192093</ele>
        <time>2021-01-07T09:52:37.000Z</time>
      </trkpt>
      <trkpt lat="47.33928" lon="-2.32201">
        <ele>-0.80000001192093</ele>
        <time>2021-01-07T09:52:39.000Z</time>
      </trkpt>
      <trkpt lat="47.33914" lon="-2.32203">
        <ele>-0.80000001192093</ele>
        <time>2021-01-07T09:52:41.000Z</time>
      </trkpt>
      <trkpt lat="47.33893" lon="-2.32202">
        <ele>-0.80000001192093</ele>
        <time>2021-01-07T09:52:44.000Z</time>
      </trkpt>
      <trkpt lat="47.33849" lon="-2.32204">
        <ele>-0.80000001192093</ele>
        <time>2021-01-07T09:52:50.000Z</time>
      </trkpt>
      <trkpt lat="47.33797" lon="-2.3221">
        <ele>-0.80000001192093</ele>
        <time>2021-01-07T09:52:58.000Z</time>
      </trkpt>
      <trkpt lat="47.33768" lon="-2.32218">
        <ele>-0.40000000596046</ele>
        <time>2021-01-07T09:53:02.000Z</time>
      </trkpt>
      <trkpt lat="47.33761" lon="-2.32221">
        <ele>0.60000002384186</ele>
        <time>2021-01-07T09:53:03.000Z</time>
      </trkpt>
      <trkpt lat="47.33753" lon="-2.32224">
        <ele>1</ele>
        <time>2021-01-07T09:53:04.000Z</time>
      </trkpt>
      <trkpt lat="47.33746" lon="-2.32227">
        <ele>1.3999999761581</ele>
        <time>2021-01-07T09:53:05.000Z</time>
      </trkpt>
      <trkpt lat="47.33713" lon="-2.32248">
        <ele>1.3999999761581</ele>
        <time>2021-01-07T09:53:10.000Z</time>
      </trkpt>
      <trkpt lat="47.33681" lon="-2.32267">
        <ele>1.3999999761581</ele>
        <time>2021-01-07T09:53:15.000Z</time>
      </trkpt>
      <trkpt lat="47.33646" lon="-2.32285">
        <ele>1.3999999761581</ele>
        <time>2021-01-07T09:53:21.000Z</time>
      </trkpt>
      <trkpt lat="47.33641" lon="-2.32287">
        <ele>1.3999999761581</ele>
        <time>2021-01-07T09:53:22.000Z</time>
      </trkpt>
      <trkpt lat="47.33629" lon="-2.3229">
        <ele>1.7999999523163</ele>
        <time>2021-01-07T09:53:24.000Z</time>
      </trkpt>
      <trkpt lat="47.33623" lon="-2.32291">
        <ele>2.2000000476837</ele>
        <time>2021-01-07T09:53:25.000Z</time>
      </trkpt>
      <trkpt lat="47.33617" lon="-2.32292">
        <ele>2.5999999046326</ele>
        <time>2021-01-07T09:53:26.000Z</time>
      </trkpt>
      <trkpt lat="47.33611" lon="-2.32294">
        <ele>3</ele>
        <time>2021-01-07T09:53:27.000Z</time>
      </trkpt>
      <trkpt lat="47.33603" lon="-2.32294">
        <ele>3.4000000953674</ele>
        <time>2021-01-07T09:53:28.000Z</time>
      </trkpt>
      <trkpt lat="47.33568" lon="-2.32301">
        <ele>3.4000000953674</ele>
        <time>2021-01-07T09:53:33.000Z</time>
      </trkpt>
      <trkpt lat="47.33553" lon="-2.32305">
        <ele>3</ele>
        <time>2021-01-07T09:53:36.000Z</time>
      </trkpt>
      <trkpt lat="47.3355" lon="-2.32304">
        <ele>2.5999999046326</ele>
        <time>2021-01-07T09:53:37.000Z</time>
      </trkpt>
      <trkpt lat="47.33547" lon="-2.32304">
        <ele>2.2000000476837</ele>
        <time>2021-01-07T09:53:38.000Z</time>
      </trkpt>
      <trkpt lat="47.33545" lon="-2.32304">
        <ele>1.6000000238419</ele>
        <time>2021-01-07T09:53:39.000Z</time>
      </trkpt>
      <trkpt lat="47.33543" lon="-2.32304">
        <ele>1.2000000476837</ele>
        <time>2021-01-07T09:53:40.000Z</time>
      </trkpt>
      <trkpt lat="47.33539" lon="-2.32304">
        <ele>1.2000000476837</ele>
        <time>2021-01-07T09:53:42.000Z</time>
      </trkpt>
      <trkpt lat="47.33531" lon="-2.32304">
        <ele>1.2000000476837</ele>
        <time>2021-01-07T09:53:47.000Z</time>
      </trkpt>
      <trkpt lat="47.33531" lon="-2.32304">
        <ele>1.2000000476837</ele>
        <time>2021-01-07T09:53:48.000Z</time>
      </trkpt>
      <trkpt lat="47.33525" lon="-2.32301">
        <ele>-0.80000001192093</ele>
        <time>2021-01-07T10:04:24.000Z</time>
      </trkpt>
      <trkpt lat="47.33522" lon="-2.32303">
        <ele>-0.80000001192093</ele>
        <time>2021-01-07T10:04:26.000Z</time>
      </trkpt>
      <trkpt lat="47.33517" lon="-2.32305">
        <ele>-1.2000000476837</ele>
        <time>2021-01-07T10:04:28.000Z</time>
      </trkpt>
      <trkpt lat="47.33514" lon="-2.32307">
        <ele>-1.6000000238419</ele>
        <time>2021-01-07T10:04:29.000Z</time>
      </trkpt>
      <trkpt lat="47.33511" lon="-2.32309">
        <ele>-2</ele>
        <time>2021-01-07T10:04:30.000Z</time>
      </trkpt>
      <trkpt lat="47.33508" lon="-2.32311">
        <ele>-2.4000000953674</ele>
        <time>2021-01-07T10:04:31.000Z</time>
      </trkpt>
      <trkpt lat="47.33504" lon="-2.32313">
        <ele>-2.7999999523163</ele>
        <time>2021-01-07T10:04:32.000Z</time>
      </trkpt>
      <trkpt lat="47.33479" lon="-2.32326">
        <ele>-2.7999999523163</ele>
        <time>2021-01-07T10:04:38.000Z</time>
      </trkpt>
      <trkpt lat="47.33451" lon="-2.32341">
        <ele>-2.7999999523163</ele>
        <time>2021-01-07T10:04:45.000Z</time>
      </trkpt>
      <trkpt lat="47.33426" lon="-2.32362">
        <ele>-2.7999999523163</ele>
        <time>2021-01-07T10:04:51.000Z</time>
      </trkpt>
      <trkpt lat="47.33399" lon="-2.32384">
        <ele>-2.7999999523163</ele>
        <time>2021-01-07T10:04:57.000Z</time>
      </trkpt>
      <trkpt lat="47.33394" lon="-2.32388">
        <ele>-2.7999999523163</ele>
        <time>2021-01-07T10:04:58.000Z</time>
      </trkpt>
      <trkpt lat="47.33369" lon="-2.32409">
        <ele>-2.4000000953674</ele>
        <time>2021-01-07T10:05:03.000Z</time>
      </trkpt>
      <trkpt lat="47.33365" lon="-2.32414">
        <ele>-2</ele>
        <time>2021-01-07T10:05:04.000Z</time>
      </trkpt>
      <trkpt lat="47.3336" lon="-2.32418">
        <ele>-1.6000000238419</ele>
        <time>2021-01-07T10:05:05.000Z</time>
      </trkpt>
      <trkpt lat="47.33356" lon="-2.32423">
        <ele>-1.2000000476837</ele>
        <time>2021-01-07T10:05:06.000Z</time>
      </trkpt>
      <trkpt lat="47.33352" lon="-2.32429">
        <ele>-0.80000001192093</ele>
        <time>2021-01-07T10:05:07.000Z</time>
      </trkpt>
      <trkpt lat="47.33345" lon="-2.32439">
        <ele>-0.80000001192093</ele>
        <time>2021-01-07T10:05:09.000Z</time>
      </trkpt>
      <trkpt lat="47.33335" lon="-2.32452">
        <ele>-0.80000001192093</ele>
        <time>2021-01-07T10:05:12.000Z</time>
      </trkpt>
      <trkpt lat="47.33327" lon="-2.32457">
        <ele>-0.80000001192093</ele>
        <time>2021-01-07T10:05:14.000Z</time>
      </trkpt>
      <trkpt lat="47.333" lon="-2.3247">
        <ele>-0.80000001192093</ele>
        <time>2021-01-07T10:05:20.000Z</time>
      </trkpt>
      <trkpt lat="47.33264" lon="-2.32485">
        <ele>-0.80000001192093</ele>
        <time>2021-01-07T10:05:27.000Z</time>
      </trkpt>
      <trkpt lat="47.33249" lon="-2.32492">
        <ele>-0.40000000596046</ele>
        <time>2021-01-07T10:05:30.000Z</time>
      </trkpt>
      <trkpt lat="47.33244" lon="-2.32495">
        <ele>8.6</ele>
        <time>2021-01-07T10:05:31.000Z</time>
      </trkpt>
      <trkpt lat="47.33238" lon="-2.32497">
        <ele>0.40000000596046</ele>
        <time>2021-01-07T10:05:32.000Z</time>
      </trkpt>
      <trkpt lat="47.33233" lon="-2.32499">
        <ele>0.80000001192093</ele>
        <time>2021-01-07T10:05:33.000Z</time>
      </trkpt>
      <trkpt lat="47.33228" lon="-2.32501">
        <ele>1.2000000476837</ele>
        <time>2021-01-07T10:05:34.000Z</time>
      </trkpt>
      <trkpt lat="47.33192" lon="-2.32516">
        <ele>1.2000000476837</ele>
        <time>2021-01-07T10:05:41.000Z</time>
      </trkpt>
      <trkpt lat="47.33166" lon="-2.32528">
        <ele>1.2000000476837</ele>
        <time>2021-01-07T10:05:46.000Z</time>
      </trkpt>
      <trkpt lat="47.33161" lon="-2.32532">
        <ele>1.2000000476837</ele>
        <time>2021-01-07T10:05:47.000Z</time>
      </trkpt>
      <trkpt lat="47.33128" lon="-2.32556">
        <ele>1.2000000476837</ele>
        <time>2021-01-07T10:05:53.000Z</time>
      </trkpt>
      <trkpt lat="47.33111" lon="-2.32569">
        <ele>0.80000001192093</ele>
        <time>2021-01-07T10:05:56.000Z</time>
      </trkpt>
      <trkpt lat="47.33106" lon="-2.32574">
        <ele>0.40000000596046</ele>
        <time>2021-01-07T10:05:57.000Z</time>
      </trkpt>
      <trkpt lat="47.331" lon="-2.32579">
        <ele>6.1</ele>
        <time>2021-01-07T10:05:58.000Z</time>
      </trkpt>
      <trkpt lat="47.33095" lon="-2.32584">
        <ele>-0.40000000596046</ele>
        <time>2021-01-07T10:05:59.000Z</time>
      </trkpt>
      <trkpt lat="47.3309" lon="-2.32589">
        <ele>-0.80000001192093</ele>
        <time>2021-01-07T10:06:00.000Z</time>
      </trkpt>
      <trkpt lat="47.33058" lon="-2.32618">
        <ele>-0.80000001192093</ele>
        <time>2021-01-07T10:06:06.000Z</time>
      </trkpt>
      <trkpt lat="47.33027" lon="-2.32638">
        <ele>-1.2000000476837</ele>
        <time>2021-01-07T10:06:11.000Z</time>
      </trkpt>
      <trkpt lat="47.3302" lon="-2.32638">
        <ele>-1.6000000238419</ele>
        <time>2021-01-07T10:06:12.000Z</time>
      </trkpt>
      <trkpt lat="47.33014" lon="-2.32636">
        <ele>-2</ele>
        <time>2021-01-07T10:06:13.000Z</time>
      </trkpt>
      <trkpt lat="47.33008" lon="-2.32633">
        <ele>-3</ele>
        <time>2021-01-07T10:06:14.000Z</time>
      </trkpt>
      <trkpt lat="47.33003" lon="-2.3263">
        <ele>-3</ele>
        <time>2021-01-07T10:06:15.000Z</time>
      </trkpt>
      <trkpt lat="47.32991" lon="-2.32626">
        <ele>-3</ele>
        <time>2021-01-07T10:06:17.000Z</time>
      </trkpt>
      <trkpt lat="47.32986" lon="-2.32629">
        <ele>-3</ele>
        <time>2021-01-07T10:06:18.000Z</time>
      </trkpt>
      <trkpt lat="47.32971" lon="-2.3264">
        <ele>-3</ele>
        <time>2021-01-07T10:06:22.000Z</time>
      </trkpt>
      <trkpt lat="47.32963" lon="-2.32644">
        <ele>-3</ele>
        <time>2021-01-07T10:06:24.000Z</time>
      </trkpt>
      <trkpt lat="47.32953" lon="-2.32646">
        <ele>-3</ele>
        <time>2021-01-07T10:06:26.000Z</time>
      </trkpt>
      <trkpt lat="47.32933" lon="-2.32649">
        <ele>-3</ele>
        <time>2021-01-07T10:06:30.000Z</time>
      </trkpt>
      <trkpt lat="47.32928" lon="-2.32646">
        <ele>-3</ele>
        <time>2021-01-07T10:06:31.000Z</time>
      </trkpt>
      <trkpt lat="47.3292" lon="-2.32632">
        <ele>-3</ele>
        <time>2021-01-07T10:06:34.000Z</time>
      </trkpt>
      <trkpt lat="47.32921" lon="-2.32613">
        <ele>-3</ele>
        <time>2021-01-07T10:06:37.000Z</time>
      </trkpt>
      <trkpt lat="47.32922" lon="-2.32601">
        <ele>-2.5999999046326</ele>
        <time>2021-01-07T10:06:39.000Z</time>
      </trkpt>
      <trkpt lat="47.32921" lon="-2.32594">
        <ele>-2.2000000476837</ele>
        <time>2021-01-07T10:06:40.000Z</time>
      </trkpt>
      <trkpt lat="47.32921" lon="-2.32587">
        <ele>-1.7999999523163</ele>
        <time>2021-01-07T10:06:41.000Z</time>
      </trkpt>
      <trkpt lat="47.32921" lon="-2.3258">
        <ele>-1.3999999761581</ele>
        <time>2021-01-07T10:06:42.000Z</time>
      </trkpt>
      <trkpt lat="47.32921" lon="-2.32572">
        <ele>-1</ele>
        <time>2021-01-07T10:06:43.000Z</time>
      </trkpt>
      <trkpt lat="47.3292" lon="-2.32548">
        <ele>-1</ele>
        <time>2021-01-07T10:06:46.000Z</time>
      </trkpt>
      <trkpt lat="47.32912" lon="-2.32504">
        <ele>-1</ele>
        <time>2021-01-07T10:06:52.000Z</time>
      </trkpt>
      <trkpt lat="47.32903" lon="-2.32475">
        <ele>-1</ele>
        <time>2021-01-07T10:06:56.000Z</time>
      </trkpt>
      <trkpt lat="47.32897" lon="-2.32462">
        <ele>-1</ele>
        <time>2021-01-07T10:06:58.000Z</time>
      </trkpt>
      <trkpt lat="47.32884" lon="-2.3245">
        <ele>-1</ele>
        <time>2021-01-07T10:07:01.000Z</time>
      </trkpt>
      <trkpt lat="47.32879" lon="-2.32447">
        <ele>-1</ele>
        <time>2021-01-07T10:07:02.000Z</time>
      </trkpt>
      <trkpt lat="47.32838" lon="-2.32419">
        <ele>-1</ele>
        <time>2021-01-07T10:07:09.000Z</time>
      </trkpt>
      <trkpt lat="47.32804" lon="-2.32388">
        <ele>-1</ele>
        <time>2021-01-07T10:07:15.000Z</time>
      </trkpt>
      <trkpt lat="47.32769" lon="-2.32363">
        <ele>-1</ele>
        <time>2021-01-07T10:07:21.000Z</time>
      </trkpt>
      <trkpt lat="47.3274" lon="-2.32345">
        <ele>-1</ele>
        <time>2021-01-07T10:07:26.000Z</time>
      </trkpt>
      <trkpt lat="47.32735" lon="-2.32342">
        <ele>-1</ele>
        <time>2021-01-07T10:07:27.000Z</time>
      </trkpt>
      <trkpt lat="47.32697" lon="-2.32324">
        <ele>-1</ele>
        <time>2021-01-07T10:07:34.000Z</time>
      </trkpt>
      <trkpt lat="47.32686" lon="-2.32321">
        <ele>-0.60000002384186</ele>
        <time>2021-01-07T10:07:36.000Z</time>
      </trkpt>
      <trkpt lat="47.32681" lon="-2.32319">
        <ele>-0.20000000298023</ele>
        <time>2021-01-07T10:07:37.000Z</time>
      </trkpt>
      <trkpt lat="47.32675" lon="-2.32317">
        <ele>0.20000000298023</ele>
        <time>2021-01-07T10:07:38.000Z</time>
      </trkpt>
      <trkpt lat="47.3267" lon="-2.32315">
        <ele>0.80000001192093</ele>
        <time>2021-01-07T10:07:39.000Z</time>
      </trkpt>
      <trkpt lat="47.32665" lon="-2.32314">
        <ele>1.2000000476837</ele>
        <time>2021-01-07T10:07:40.000Z</time>
      </trkpt>
      <trkpt lat="47.32654" lon="-2.32311">
        <ele>1.2000000476837</ele>
        <time>2021-01-07T10:07:42.000Z</time>
      </trkpt>
      <trkpt lat="47.32623" lon="-2.32309">
        <ele>1.2000000476837</ele>
        <time>2021-01-07T10:07:48.000Z</time>
      </trkpt>
      <trkpt lat="47.32581" lon="-2.32312">
        <ele>1.2000000476837</ele>
        <time>2021-01-07T10:07:56.000Z</time>
      </trkpt>
      <trkpt lat="47.3256" lon="-2.32315">
        <ele>1.2000000476837</ele>
        <time>2021-01-07T10:08:01.000Z</time>
      </trkpt>
      <trkpt lat="47.32547" lon="-2.32317">
        <ele>1.6000000238419</ele>
        <time>2021-01-07T10:08:05.000Z</time>
      </trkpt>
      <trkpt lat="47.32543" lon="-2.32317">
        <ele>2</ele>
        <time>2021-01-07T10:08:06.000Z</time>
      </trkpt>
      <trkpt lat="47.3254" lon="-2.32318">
        <ele>2.4000000953674</ele>
        <time>2021-01-07T10:08:07.000Z</time>
      </trkpt>
      <trkpt lat="47.32536" lon="-2.3232">
        <ele>2.7999999523163</ele>
        <time>2021-01-07T10:08:08.000Z</time>
      </trkpt>
      <trkpt lat="47.32533" lon="-2.32324">
        <ele>3.2000000476837</ele>
        <time>2021-01-07T10:08:09.000Z</time>
      </trkpt>
      <trkpt lat="47.3253" lon="-2.32329">
        <ele>3.2000000476837</ele>
        <time>2021-01-07T10:08:10.000Z</time>
      </trkpt>
      <trkpt lat="47.32517" lon="-2.32366">
        <ele>3.2000000476837</ele>
        <time>2021-01-07T10:08:16.000Z</time>
      </trkpt>
      <trkpt lat="47.32503" lon="-2.32427">
        <ele>3.2000000476837</ele>
        <time>2021-01-07T10:08:25.000Z</time>
      </trkpt>
      <trkpt lat="47.32493" lon="-2.32478">
        <ele>3.2000000476837</ele>
        <time>2021-01-07T10:08:33.000Z</time>
      </trkpt>
      <trkpt lat="47.32489" lon="-2.32502">
        <ele>2.7999999523163</ele>
        <time>2021-01-07T10:08:36.000Z</time>
      </trkpt>
      <trkpt lat="47.32487" lon="-2.32512">
        <ele>2.4000000953674</ele>
        <time>2021-01-07T10:08:37.000Z</time>
      </trkpt>
      <trkpt lat="47.32485" lon="-2.32521">
        <ele>1.7999999523163</ele>
        <time>2021-01-07T10:08:38.000Z</time>
      </trkpt>
      <trkpt lat="47.32483" lon="-2.3253">
        <ele>1.3999999761581</ele>
        <time>2021-01-07T10:08:39.000Z</time>
      </trkpt>
      <trkpt lat="47.32482" lon="-2.3254">
        <ele>1</ele>
        <time>2021-01-07T10:08:40.000Z</time>
      </trkpt>
      <trkpt lat="47.3247" lon="-2.32581">
        <ele>1</ele>
        <time>2021-01-07T10:08:45.000Z</time>
      </trkpt>
      <trkpt lat="47.32467" lon="-2.32586">
        <ele>1</ele>
        <time>2021-01-07T10:08:46.000Z</time>
      </trkpt>
      <trkpt lat="47.32456" lon="-2.32599">
        <ele>1</ele>
        <time>2021-01-07T10:08:49.000Z</time>
      </trkpt>
      <trkpt lat="47.32446" lon="-2.32617">
        <ele>1</ele>
        <time>2021-01-07T10:08:53.000Z</time>
      </trkpt>
      <trkpt lat="47.32443" lon="-2.32627">
        <ele>1</ele>
        <time>2021-01-07T10:08:55.000Z</time>
      </trkpt>
      <trkpt lat="47.32449" lon="-2.3265">
        <ele>1</ele>
        <time>2021-01-07T10:08:59.000Z</time>
      </trkpt>
      <trkpt lat="47.3245" lon="-2.32657">
        <ele>1.3999999761581</ele>
        <time>2021-01-07T10:09:00.000Z</time>
      </trkpt>
      <trkpt lat="47.32451" lon="-2.32663">
        <ele>1.7999999523163</ele>
        <time>2021-01-07T10:09:01.000Z</time>
      </trkpt>
      <trkpt lat="47.32453" lon="-2.32669">
        <ele>2.2000000476837</ele>
        <time>2021-01-07T10:09:02.000Z</time>
      </trkpt>
      <trkpt lat="47.32454" lon="-2.32675">
        <ele>2.5999999046326</ele>
        <time>2021-01-07T10:09:03.000Z</time>
      </trkpt>
      <trkpt lat="47.32456" lon="-2.32681">
        <ele>3</ele>
        <time>2021-01-07T10:09:04.000Z</time>
      </trkpt>
      <trkpt lat="47.32459" lon="-2.32693">
        <ele>3</ele>
        <time>2021-01-07T10:09:06.000Z</time>
      </trkpt>
      <trkpt lat="47.32464" lon="-2.3271">
        <ele>3.4000000953674</ele>
        <time>2021-01-07T10:09:09.000Z</time>
      </trkpt>
      <trkpt lat="47.32465" lon="-2.32716">
        <ele>4</ele>
        <time>2021-01-07T10:09:10.000Z</time>
      </trkpt>
      <trkpt lat="47.32466" lon="-2.32721">
        <ele>4.4000000953674</ele>
        <time>2021-01-07T10:09:11.000Z</time>
      </trkpt>
      <trkpt lat="47.32467" lon="-2.32726">
        <ele>4.8000001907349</ele>
        <time>2021-01-07T10:09:12.000Z</time>
      </trkpt>
      <trkpt lat="47.32469" lon="-2.32732">
        <ele>5.1999998092651</ele>
        <time>2021-01-07T10:09:13.000Z</time>
      </trkpt>
      <trkpt lat="47.32479" lon="-2.32774">
        <ele>5.5999999046326</ele>
        <time>2021-01-07T10:09:20.000Z</time>
      </trkpt>
      <trkpt lat="47.3248" lon="-2.3278">
        <ele>6</ele>
        <time>2021-01-07T10:09:21.000Z</time>
      </trkpt>
      <trkpt lat="47.32482" lon="-2.32786">
        <ele>6.4000000953674</ele>
        <time>2021-01-07T10:09:22.000Z</time>
      </trkpt>
      <trkpt lat="47.32483" lon="-2.32792">
        <ele>6.8000001907349</ele>
        <time>2021-01-07T10:09:23.000Z</time>
      </trkpt>
      <trkpt lat="47.32484" lon="-2.32798">
        <ele>7.1999998092651</ele>
        <time>2021-01-07T10:09:24.000Z</time>
      </trkpt>
      <trkpt lat="47.32489" lon="-2.32825">
        <ele>7.1999998092651</ele>
        <time>2021-01-07T10:09:28.000Z</time>
      </trkpt>
      <trkpt lat="47.32499" lon="-2.32883">
        <ele>7.1999998092651</ele>
        <time>2021-01-07T10:09:36.000Z</time>
      </trkpt>
      <trkpt lat="47.32508" lon="-2.32935">
        <ele>7.1999998092651</ele>
        <time>2021-01-07T10:09:42.000Z</time>
      </trkpt>
      <trkpt lat="47.32514" lon="-2.33012">
        <ele>7.1999998092651</ele>
        <time>2021-01-07T10:09:50.000Z</time>
      </trkpt>
      <trkpt lat="47.32514" lon="-2.33092">
        <ele>7.1999998092651</ele>
        <time>2021-01-07T10:09:59.000Z</time>
      </trkpt>
      <trkpt lat="47.32512" lon="-2.33145">
        <ele>7.1999998092651</ele>
        <time>2021-01-07T10:10:06.000Z</time>
      </trkpt>
      <trkpt lat="47.32512" lon="-2.33194">
        <ele>7.1999998092651</ele>
        <time>2021-01-07T10:10:12.000Z</time>
      </trkpt>
      <trkpt lat="47.3251" lon="-2.332">
        <ele>7.1999998092651</ele>
        <time>2021-01-07T10:10:13.000Z</time>
      </trkpt>
      <trkpt lat="47.32498" lon="-2.33208">
        <ele>7.1999998092651</ele>
        <time>2021-01-07T10:10:16.000Z</time>
      </trkpt>
      <trkpt lat="47.32485" lon="-2.33209">
        <ele>7.1999998092651</ele>
        <time>2021-01-07T10:10:18.000Z</time>
      </trkpt>
      <trkpt lat="47.32472" lon="-2.33209">
        <ele>7.1999998092651</ele>
        <time>2021-01-07T10:10:20.000Z</time>
      </trkpt>
      <trkpt lat="47.32422" lon="-2.33207">
        <ele>7.1999998092651</ele>
        <time>2021-01-07T10:10:28.000Z</time>
      </trkpt>
      <trkpt lat="47.3241" lon="-2.33207">
        <ele>7.5999999046326</ele>
        <time>2021-01-07T10:10:30.000Z</time>
      </trkpt>
      <trkpt lat="47.32405" lon="-2.33207">
        <ele>8</ele>
        <time>2021-01-07T10:10:31.000Z</time>
      </trkpt>
      <trkpt lat="47.32399" lon="-2.33207">
        <ele>8.3999996185303</ele>
        <time>2021-01-07T10:10:32.000Z</time>
      </trkpt>
      <trkpt lat="47.32394" lon="-2.33208">
        <ele>8.8000001907349</ele>
        <time>2021-01-07T10:10:33.000Z</time>
      </trkpt>
      <trkpt lat="47.32388" lon="-2.33208">
        <ele>9.3999996185303</ele>
        <time>2021-01-07T10:10:34.000Z</time>
      </trkpt>
      <trkpt lat="47.32349" lon="-2.33207">
        <ele>9.8000001907349</ele>
        <time>2021-01-07T10:10:41.000Z</time>
      </trkpt>
      <trkpt lat="47.32344" lon="-2.33206">
        <ele>10.199999809265</ele>
        <time>2021-01-07T10:10:42.000Z</time>
      </trkpt>
      <trkpt lat="47.32339" lon="-2.33206">
        <ele>10.60000038147</ele>
        <time>2021-01-07T10:10:43.000Z</time>
      </trkpt>
      <trkpt lat="47.32334" lon="-2.33205">
        <ele>11.199999809265</ele>
        <time>2021-01-07T10:10:44.000Z</time>
      </trkpt>
      <trkpt lat="47.32328" lon="-2.33205">
        <ele>11.60000038147</ele>
        <time>2021-01-07T10:10:45.000Z</time>
      </trkpt>
      <trkpt lat="47.32308" lon="-2.33204">
        <ele>11.60000038147</ele>
        <time>2021-01-07T10:10:49.000Z</time>
      </trkpt>
      <trkpt lat="47.32303" lon="-2.33202">
        <ele>11.60000038147</ele>
        <time>2021-01-07T10:10:50.000Z</time>
      </trkpt>
      <trkpt lat="47.32281" lon="-2.33192">
        <ele>11.60000038147</ele>
        <time>2021-01-07T10:10:54.000Z</time>
      </trkpt>
      <trkpt lat="47.32255" lon="-2.3317">
        <ele>11.60000038147</ele>
        <time>2021-01-07T10:10:58.000Z</time>
      </trkpt>
      <trkpt lat="47.32222" lon="-2.33124">
        <ele>11.60000038147</ele>
        <time>2021-01-07T10:11:03.000Z</time>
      </trkpt>
      <trkpt lat="47.32216" lon="-2.33115">
        <ele>11</ele>
        <time>2021-01-07T10:11:04.000Z</time>
      </trkpt>
      <trkpt lat="47.3221" lon="-2.33105">
        <ele>10.60000038147</ele>
        <time>2021-01-07T10:11:05.000Z</time>
      </trkpt>
      <trkpt lat="47.32203" lon="-2.33096">
        <ele>10.199999809265</ele>
        <time>2021-01-07T10:11:06.000Z</time>
      </trkpt>
      <trkpt lat="47.32197" lon="-2.33087">
        <ele>9.6000003814697</ele>
        <time>2021-01-07T10:11:07.000Z</time>
      </trkpt>
      <trkpt lat="47.3219" lon="-2.33079">
        <ele>9.1999998092651</ele>
        <time>2021-01-07T10:11:08.000Z</time>
      </trkpt>
      <trkpt lat="47.32183" lon="-2.33071">
        <ele>9.1999998092651</ele>
        <time>2021-01-07T10:11:09.000Z</time>
      </trkpt>
      <trkpt lat="47.32176" lon="-2.33064">
        <ele>8.3999996185303</ele>
        <time>2021-01-07T10:11:10.000Z</time>
      </trkpt>
      <trkpt lat="47.32169" lon="-2.33058">
        <ele>7.8000001907349</ele>
        <time>2021-01-07T10:11:11.000Z</time>
      </trkpt>
      <trkpt lat="47.32162" lon="-2.33052">
        <ele>7.4000000953674</ele>
        <time>2021-01-07T10:11:12.000Z</time>
      </trkpt>
      <trkpt lat="47.32155" lon="-2.33047">
        <ele>7</ele>
        <time>2021-01-07T10:11:13.000Z</time>
      </trkpt>
      <trkpt lat="47.32146" lon="-2.33043">
        <ele>6.5999999046326</ele>
        <time>2021-01-07T10:11:14.000Z</time>
      </trkpt>
      <trkpt lat="47.32137" lon="-2.33038">
        <ele>6.1999998092651</ele>
        <time>2021-01-07T10:11:15.000Z</time>
      </trkpt>
      <trkpt lat="47.32128" lon="-2.33035">
        <ele>5.8000001907349</ele>
        <time>2021-01-07T10:11:16.000Z</time>
      </trkpt>
      <trkpt lat="47.32117" lon="-2.33035">
        <ele>5.1999998092651</ele>
        <time>2021-01-07T10:11:17.000Z</time>
      </trkpt>
      <trkpt lat="47.32107" lon="-2.33034">
        <ele>4.8000001907349</ele>
        <time>2021-01-07T10:11:18.000Z</time>
      </trkpt>
      <trkpt lat="47.32098" lon="-2.33034">
        <ele>4.8000001907349</ele>
        <time>2021-01-07T10:11:19.000Z</time>
      </trkpt>
      <trkpt lat="47.32089" lon="-2.33034">
        <ele>4.4000000953674</ele>
        <time>2021-01-07T10:11:20.000Z</time>
      </trkpt>
      <trkpt lat="47.32081" lon="-2.33034">
        <ele>4</ele>
        <time>2021-01-07T10:11:21.000Z</time>
      </trkpt>
      <trkpt lat="47.32073" lon="-2.33033">
        <ele>3.5999999046326</ele>
        <time>2021-01-07T10:11:22.000Z</time>
      </trkpt>
      <trkpt lat="47.32065" lon="-2.33033">
        <ele>3.2000000476837</ele>
        <time>2021-01-07T10:11:23.000Z</time>
      </trkpt>
      <trkpt lat="47.32057" lon="-2.33033">
        <ele>2.7999999523163</ele>
        <time>2021-01-07T10:11:24.000Z</time>
      </trkpt>
      <trkpt lat="47.32011" lon="-2.3303">
        <ele>2.7999999523163</ele>
        <time>2021-01-07T10:11:31.000Z</time>
      </trkpt>
      <trkpt lat="47.31979" lon="-2.33029">
        <ele>2.7999999523163</ele>
        <time>2021-01-07T10:11:36.000Z</time>
      </trkpt>
      <trkpt lat="47.31927" lon="-2.33024">
        <ele>3.2000000476837</ele>
        <time>2021-01-07T10:11:45.000Z</time>
      </trkpt>
      <trkpt lat="47.31922" lon="-2.33023">
        <ele>3.7999999523163</ele>
        <time>2021-01-07T10:11:46.000Z</time>
      </trkpt>
      <trkpt lat="47.31916" lon="-2.33022">
        <ele>4.1999998092651</ele>
        <time>2021-01-07T10:11:47.000Z</time>
      </trkpt>
      <trkpt lat="47.31911" lon="-2.33022">
        <ele>4.5999999046326</ele>
        <time>2021-01-07T10:11:48.000Z</time>
      </trkpt>
      <trkpt lat="47.31906" lon="-2.33021">
        <ele>5</ele>
        <time>2021-01-07T10:11:49.000Z</time>
      </trkpt>
      <trkpt lat="47.31891" lon="-2.33021">
        <ele>5</ele>
        <time>2021-01-07T10:11:52.000Z</time>
      </trkpt>
      <trkpt lat="47.3188" lon="-2.33018">
        <ele>5.4000000953674</ele>
        <time>2021-01-07T10:11:55.000Z</time>
      </trkpt>
      <trkpt lat="47.31877" lon="-2.33015">
        <ele>5.8000001907349</ele>
        <time>2021-01-07T10:11:56.000Z</time>
      </trkpt>
      <trkpt lat="47.31876" lon="-2.33009">
        <ele>6.1999998092651</ele>
        <time>2021-01-07T10:11:57.000Z</time>
      </trkpt>
      <trkpt lat="47.31875" lon="-2.33003">
        <ele>6.5999999046326</ele>
        <time>2021-01-07T10:11:58.000Z</time>
      </trkpt>
      <trkpt lat="47.31875" lon="-2.32996">
        <ele>7</ele>
        <time>2021-01-07T10:11:59.000Z</time>
      </trkpt>
      <trkpt lat="47.31875" lon="-2.32989">
        <ele>7</ele>
        <time>2021-01-07T10:12:00.000Z</time>
      </trkpt>
      <trkpt lat="47.31876" lon="-2.32983">
        <ele>7</ele>
        <time>2021-01-07T10:12:01.000Z</time>
      </trkpt>
      <trkpt lat="47.31877" lon="-2.32966">
        <ele>7</ele>
        <time>2021-01-07T10:12:04.000Z</time>
      </trkpt>
      <trkpt lat="47.31878" lon="-2.32961">
        <ele>7</ele>
        <time>2021-01-07T10:12:05.000Z</time>
      </trkpt>
      <trkpt lat="47.31878" lon="-2.32954">
        <ele>7</ele>
        <time>2021-01-07T10:12:06.000Z</time>
      </trkpt>
      <trkpt lat="47.3188" lon="-2.32935">
        <ele>7</ele>
        <time>2021-01-07T10:12:09.000Z</time>
      </trkpt>
      <trkpt lat="47.31881" lon="-2.32929">
        <ele>7.4000000953674</ele>
        <time>2021-01-07T10:12:10.000Z</time>
      </trkpt>
      <trkpt lat="47.31881" lon="-2.32923">
        <ele>7.8000001907349</ele>
        <time>2021-01-07T10:12:11.000Z</time>
      </trkpt>
      <trkpt lat="47.31882" lon="-2.32917">
        <ele>8.1999998092651</ele>
        <time>2021-01-07T10:12:12.000Z</time>
      </trkpt>
      <trkpt lat="47.31883" lon="-2.32912">
        <ele>8.6000003814697</ele>
        <time>2021-01-07T10:12:13.000Z</time>
      </trkpt>
      <trkpt lat="47.31883" lon="-2.32906">
        <ele>9</ele>
        <time>2021-01-07T10:12:14.000Z</time>
      </trkpt>
      <trkpt lat="47.31883" lon="-2.32901">
        <ele>9</ele>
        <time>2021-01-07T10:12:15.000Z</time>
      </trkpt>
      <trkpt lat="47.31884" lon="-2.32879">
        <ele>9</ele>
        <time>2021-01-07T10:12:20.000Z</time>
      </trkpt>
      <trkpt lat="47.31888" lon="-2.32857">
        <ele>9</ele>
        <time>2021-01-07T10:12:25.000Z</time>
      </trkpt>
      <trkpt lat="47.31888" lon="-2.32835">
        <ele>9</ele>
        <time>2021-01-07T10:12:30.000Z</time>
      </trkpt>
      <trkpt lat="47.31885" lon="-2.32811">
        <ele>9</ele>
        <time>2021-01-07T10:12:35.000Z</time>
      </trkpt>
      <trkpt lat="47.31882" lon="-2.32779">
        <ele>9</ele>
        <time>2021-01-07T10:12:40.000Z</time>
      </trkpt>
      <trkpt lat="47.31875" lon="-2.32753">
        <ele>9</ele>
        <time>2021-01-07T10:12:45.000Z</time>
      </trkpt>
      <trkpt lat="47.31869" lon="-2.3274">
        <ele>9.6000003814697</ele>
        <time>2021-01-07T10:12:48.000Z</time>
      </trkpt>
      <trkpt lat="47.31868" lon="-2.32736">
        <ele>10</ele>
        <time>2021-01-07T10:12:49.000Z</time>
      </trkpt>
      <trkpt lat="47.31867" lon="-2.32732">
        <ele>10.39999961853</ele>
        <time>2021-01-07T10:12:50.000Z</time>
      </trkpt>
      <trkpt lat="47.31865" lon="-2.32726">
        <ele>10.800000190735</ele>
        <time>2021-01-07T10:12:51.000Z</time>
      </trkpt>
      <trkpt lat="47.31863" lon="-2.32721">
        <ele>11.199999809265</ele>
        <time>2021-01-07T10:12:52.000Z</time>
      </trkpt>
      <trkpt lat="47.31855" lon="-2.327">
        <ele>11.199999809265</ele>
        <time>2021-01-07T10:12:57.000Z</time>
      </trkpt>
      <trkpt lat="47.31847" lon="-2.32675">
        <ele>11.199999809265</ele>
        <time>2021-01-07T10:13:03.000Z</time>
      </trkpt>
      <trkpt lat="47.31842" lon="-2.32641">
        <ele>11.199999809265</ele>
        <time>2021-01-07T10:13:10.000Z</time>
      </trkpt>
      <trkpt lat="47.3184" lon="-2.32632">
        <ele>11.60000038147</ele>
        <time>2021-01-07T10:13:12.000Z</time>
      </trkpt>
      <trkpt lat="47.3184" lon="-2.32627">
        <ele>12.39999961853</ele>
        <time>2021-01-07T10:13:13.000Z</time>
      </trkpt>
      <trkpt lat="47.31839" lon="-2.32623">
        <ele>12.800000190735</ele>
        <time>2021-01-07T10:13:14.000Z</time>
      </trkpt>
      <trkpt lat="47.31839" lon="-2.32618">
        <ele>13.199999809265</ele>
        <time>2021-01-07T10:13:15.000Z</time>
      </trkpt>
      <trkpt lat="47.31837" lon="-2.32609">
        <ele>13.199999809265</ele>
        <time>2021-01-07T10:13:17.000Z</time>
      </trkpt>
      <trkpt lat="47.31834" lon="-2.32581">
        <ele>13.199999809265</ele>
        <time>2021-01-07T10:13:23.000Z</time>
      </trkpt>
      <trkpt lat="47.31824" lon="-2.32553">
        <ele>13.800000190735</ele>
        <time>2021-01-07T10:13:28.000Z</time>
      </trkpt>
      <trkpt lat="47.31822" lon="-2.32548">
        <ele>14.199999809265</ele>
        <time>2021-01-07T10:13:29.000Z</time>
      </trkpt>
      <trkpt lat="47.31821" lon="-2.32542">
        <ele>14.60000038147</ele>
        <time>2021-01-07T10:13:30.000Z</time>
      </trkpt>
      <trkpt lat="47.31821" lon="-2.32537">
        <ele>15</ele>
        <time>2021-01-07T10:13:31.000Z</time>
      </trkpt>
      <trkpt lat="47.31819" lon="-2.3253">
        <ele>15.60000038147</ele>
        <time>2021-01-07T10:13:32.000Z</time>
      </trkpt>
      <trkpt lat="47.31817" lon="-2.32517">
        <ele>15.60000038147</ele>
        <time>2021-01-07T10:13:34.000Z</time>
      </trkpt>
      <trkpt lat="47.31807" lon="-2.32488">
        <ele>15.60000038147</ele>
        <time>2021-01-07T10:13:40.000Z</time>
      </trkpt>
      <trkpt lat="47.31802" lon="-2.32481">
        <ele>16</ele>
        <time>2021-01-07T10:13:41.000Z</time>
      </trkpt>
      <trkpt lat="47.31798" lon="-2.32476">
        <ele>16.39999961853</ele>
        <time>2021-01-07T10:13:42.000Z</time>
      </trkpt>
      <trkpt lat="47.31795" lon="-2.32471">
        <ele>16.799999237061</ele>
        <time>2021-01-07T10:13:43.000Z</time>
      </trkpt>
      <trkpt lat="47.31793" lon="-2.32469">
        <ele>17.39999961853</ele>
        <time>2021-01-07T10:13:44.000Z</time>
      </trkpt>
      <trkpt lat="47.31792" lon="-2.32467">
        <ele>17.799999237061</ele>
        <time>2021-01-07T10:13:45.000Z</time>
      </trkpt>
      <trkpt lat="47.31791" lon="-2.32464">
        <ele>17.799999237061</ele>
        <time>2021-01-07T10:13:46.000Z</time>
      </trkpt>
      <trkpt lat="47.3179" lon="-2.32458">
        <ele>18.200000762939</ele>
        <time>2021-01-07T10:13:48.000Z</time>
      </trkpt>
      <trkpt lat="47.31789" lon="-2.32452">
        <ele>18.60000038147</ele>
        <time>2021-01-07T10:13:49.000Z</time>
      </trkpt>
      <trkpt lat="47.31788" lon="-2.32447">
        <ele>19</ele>
        <time>2021-01-07T10:13:50.000Z</time>
      </trkpt>
      <trkpt lat="47.31787" lon="-2.32438">
        <ele>19.39999961853</ele>
        <time>2021-01-07T10:13:51.000Z</time>
      </trkpt>
      <trkpt lat="47.31786" lon="-2.32431">
        <ele>19.799999237061</ele>
        <time>2021-01-07T10:13:52.000Z</time>
      </trkpt>
      <trkpt lat="47.31785" lon="-2.32424">
        <ele>19.799999237061</ele>
        <time>2021-01-07T10:13:53.000Z</time>
      </trkpt>
      <trkpt lat="47.31784" lon="-2.32408">
        <ele>19.799999237061</ele>
        <time>2021-01-07T10:13:56.000Z</time>
      </trkpt>
      <trkpt lat="47.31779" lon="-2.32377">
        <ele>20.200000762939</ele>
        <time>2021-01-07T10:14:02.000Z</time>
      </trkpt>
      <trkpt lat="47.31779" lon="-2.32372">
        <ele>21</ele>
        <time>2021-01-07T10:14:03.000Z</time>
      </trkpt>
      <trkpt lat="47.31777" lon="-2.32367">
        <ele>21.39999961853</ele>
        <time>2021-01-07T10:14:04.000Z</time>
      </trkpt>
      <trkpt lat="47.31776" lon="-2.32362">
        <ele>21.799999237061</ele>
        <time>2021-01-07T10:14:05.000Z</time>
      </trkpt>
      <trkpt lat="47.31772" lon="-2.32346">
        <ele>21.799999237061</ele>
        <time>2021-01-07T10:14:08.000Z</time>
      </trkpt>
      <trkpt lat="47.31766" lon="-2.32315">
        <ele>21.799999237061</ele>
        <time>2021-01-07T10:14:14.000Z</time>
      </trkpt>
      <trkpt lat="47.31761" lon="-2.32281">
        <ele>21.799999237061</ele>
        <time>2021-01-07T10:14:20.000Z</time>
      </trkpt>
      <trkpt lat="47.3176" lon="-2.32271">
        <ele>22.200000762939</ele>
        <time>2021-01-07T10:14:22.000Z</time>
      </trkpt>
      <trkpt lat="47.31759" lon="-2.32266">
        <ele>22.60000038147</ele>
        <time>2021-01-07T10:14:23.000Z</time>
      </trkpt>
      <trkpt lat="47.31759" lon="-2.32261">
        <ele>23</ele>
        <time>2021-01-07T10:14:24.000Z</time>
      </trkpt>
      <trkpt lat="47.31758" lon="-2.32256">
        <ele>23.39999961853</ele>
        <time>2021-01-07T10:14:25.000Z</time>
      </trkpt>
      <trkpt lat="47.31757" lon="-2.32251">
        <ele>23.799999237061</ele>
        <time>2021-01-07T10:14:26.000Z</time>
      </trkpt>
      <trkpt lat="47.31756" lon="-2.32247">
        <ele>23.799999237061</ele>
        <time>2021-01-07T10:14:27.000Z</time>
      </trkpt>
      <trkpt lat="47.31752" lon="-2.32236">
        <ele>23.799999237061</ele>
        <time>2021-01-07T10:14:31.000Z</time>
      </trkpt>
      <trkpt lat="47.31753" lon="-2.32232">
        <ele>23.799999237061</ele>
        <time>2021-01-07T10:14:35.000Z</time>
      </trkpt>
      <trkpt lat="47.31757" lon="-2.32229">
        <ele>23.799999237061</ele>
        <time>2021-01-07T10:15:13.000Z</time>
      </trkpt>
      <trkpt lat="47.31768" lon="-2.32228">
        <ele>23.799999237061</ele>
        <time>2021-01-07T10:15:17.000Z</time>
      </trkpt>
      <trkpt lat="47.31781" lon="-2.32226">
        <ele>23.799999237061</ele>
        <time>2021-01-07T10:15:22.000Z</time>
      </trkpt>
      <trkpt lat="47.31804" lon="-2.32224">
        <ele>23.799999237061</ele>
        <time>2021-01-07T10:15:29.000Z</time>
      </trkpt>
      <trkpt lat="47.31823" lon="-2.32219">
        <ele>23.39999961853</ele>
        <time>2021-01-07T10:15:34.000Z</time>
      </trkpt>
      <trkpt lat="47.31827" lon="-2.32219">
        <ele>23</ele>
        <time>2021-01-07T10:15:35.000Z</time>
      </trkpt>
      <trkpt lat="47.31831" lon="-2.32218">
        <ele>22.60000038147</ele>
        <time>2021-01-07T10:15:36.000Z</time>
      </trkpt>
      <trkpt lat="47.31836" lon="-2.32217">
        <ele>22.200000762939</ele>
        <time>2021-01-07T10:15:37.000Z</time>
      </trkpt>
      <trkpt lat="47.31841" lon="-2.32215">
        <ele>21.799999237061</ele>
        <time>2021-01-07T10:15:38.000Z</time>
      </trkpt>
      <trkpt lat="47.31847" lon="-2.32213">
        <ele>21.799999237061</ele>
        <time>2021-01-07T10:15:39.000Z</time>
      </trkpt>
      <trkpt lat="47.31866" lon="-2.32207">
        <ele>21.200000762939</ele>
        <time>2021-01-07T10:15:42.000Z</time>
      </trkpt>
      <trkpt lat="47.31872" lon="-2.32206">
        <ele>20.799999237061</ele>
        <time>2021-01-07T10:15:43.000Z</time>
      </trkpt>
      <trkpt lat="47.31877" lon="-2.32205">
        <ele>20.39999961853</ele>
        <time>2021-01-07T10:15:44.000Z</time>
      </trkpt>
      <trkpt lat="47.31881" lon="-2.32204">
        <ele>20</ele>
        <time>2021-01-07T10:15:45.000Z</time>
      </trkpt>
      <trkpt lat="47.31884" lon="-2.32204">
        <ele>19.39999961853</ele>
        <time>2021-01-07T10:15:46.000Z</time>
      </trkpt>
      <trkpt lat="47.31886" lon="-2.32202">
        <ele>18.799999237061</ele>
        <time>2021-01-07T10:15:47.000Z</time>
      </trkpt>
      <trkpt lat="47.31887" lon="-2.322">
        <ele>18.39999961853</ele>
        <time>2021-01-07T10:15:48.000Z</time>
      </trkpt>
      <trkpt lat="47.31887" lon="-2.32198">
        <ele>17.799999237061</ele>
        <time>2021-01-07T10:15:49.000Z</time>
      </trkpt>
      <trkpt lat="47.31886" lon="-2.32197">
        <ele>17.200000762939</ele>
        <time>2021-01-07T10:15:50.000Z</time>
      </trkpt>
      <trkpt lat="47.31883" lon="-2.32196">
        <ele>17.200000762939</ele>
        <time>2021-01-07T10:15:51.000Z</time>
      </trkpt>
      <trkpt lat="47.31879" lon="-2.32195">
        <ele>17.200000762939</ele>
        <time>2021-01-07T10:15:52.000Z</time>
      </trkpt>
      <trkpt lat="47.31872" lon="-2.32194">
        <ele>17.200000762939</ele>
        <time>2021-01-07T10:15:54.000Z</time>
      </trkpt>
      <trkpt lat="47.31865" lon="-2.32193">
        <ele>17.200000762939</ele>
        <time>2021-01-07T10:15:56.000Z</time>
      </trkpt>
      <trkpt lat="47.31851" lon="-2.32191">
        <ele>17.60000038147</ele>
        <time>2021-01-07T10:16:00.000Z</time>
      </trkpt>
      <trkpt lat="47.31848" lon="-2.3219">
        <ele>18</ele>
        <time>2021-01-07T10:16:01.000Z</time>
      </trkpt>
      <trkpt lat="47.31844" lon="-2.32188">
        <ele>18.39999961853</ele>
        <time>2021-01-07T10:16:02.000Z</time>
      </trkpt>
      <trkpt lat="47.3184" lon="-2.32188">
        <ele>18.799999237061</ele>
        <time>2021-01-07T10:16:03.000Z</time>
      </trkpt>
      <trkpt lat="47.31835" lon="-2.32186">
        <ele>19.200000762939</ele>
        <time>2021-01-07T10:16:04.000Z</time>
      </trkpt>
      <trkpt lat="47.31822" lon="-2.32184">
        <ele>20.200000762939</ele>
        <time>2021-01-07T10:16:07.000Z</time>
      </trkpt>
      <trkpt lat="47.31818" lon="-2.32184">
        <ele>20.60000038147</ele>
        <time>2021-01-07T10:16:08.000Z</time>
      </trkpt>
      <trkpt lat="47.31814" lon="-2.32183">
        <ele>21</ele>
        <time>2021-01-07T10:16:09.000Z</time>
      </trkpt>
      <trkpt lat="47.3181" lon="-2.32182">
        <ele>21.39999961853</ele>
        <time>2021-01-07T10:16:10.000Z</time>
      </trkpt>
      <trkpt lat="47.31793" lon="-2.32178">
        <ele>21.39999961853</ele>
        <time>2021-01-07T10:16:14.000Z</time>
      </trkpt>
      <trkpt lat="47.31771" lon="-2.32173">
        <ele>21.799999237061</ele>
        <time>2021-01-07T10:16:20.000Z</time>
      </trkpt>
      <trkpt lat="47.31768" lon="-2.32172">
        <ele>22.200000762939</ele>
        <time>2021-01-07T10:16:21.000Z</time>
      </trkpt>
      <trkpt lat="47.31765" lon="-2.32172">
        <ele>22.60000038147</ele>
        <time>2021-01-07T10:16:22.000Z</time>
      </trkpt>
      <trkpt lat="47.31761" lon="-2.32171">
        <ele>23</ele>
        <time>2021-01-07T10:16:23.000Z</time>
      </trkpt>
      <trkpt lat="47.31758" lon="-2.3217">
        <ele>23.39999961853</ele>
        <time>2021-01-07T10:16:24.000Z</time>
      </trkpt>
      <trkpt lat="47.31741" lon="-2.32166">
        <ele>23.39999961853</ele>
        <time>2021-01-07T10:16:29.000Z</time>
      </trkpt>
      <trkpt lat="47.31713" lon="-2.3216">
        <ele>23.39999961853</ele>
        <time>2021-01-07T10:16:37.000Z</time>
      </trkpt>
      <trkpt lat="47.3171" lon="-2.3216">
        <ele>23.799999237061</ele>
        <time>2021-01-07T10:16:38.000Z</time>
      </trkpt>
      <trkpt lat="47.31706" lon="-2.32159">
        <ele>24.200000762939</ele>
        <time>2021-01-07T10:16:39.000Z</time>
      </trkpt>
      <trkpt lat="47.31703" lon="-2.32158">
        <ele>24.60000038147</ele>
        <time>2021-01-07T10:16:40.000Z</time>
      </trkpt>
      <trkpt lat="47.31699" lon="-2.32157">
        <ele>25</ele>
        <time>2021-01-07T10:16:41.000Z</time>
      </trkpt>
      <trkpt lat="47.31695" lon="-2.32156">
        <ele>25.39999961853</ele>
        <time>2021-01-07T10:16:42.000Z</time>
      </trkpt>
      <trkpt lat="47.31683" lon="-2.32155">
        <ele>25.39999961853</ele>
        <time>2021-01-07T10:16:45.000Z</time>
      </trkpt>
      <trkpt lat="47.31661" lon="-2.32148">
        <ele>25.39999961853</ele>
        <time>2021-01-07T10:16:51.000Z</time>
      </trkpt>
      <trkpt lat="47.31642" lon="-2.32142">
        <ele>25.39999961853</ele>
        <time>2021-01-07T10:16:56.000Z</time>
      </trkpt>
      <trkpt lat="47.31614" lon="-2.32134">
        <ele>25.39999961853</ele>
        <time>2021-01-07T10:17:02.000Z</time>
      </trkpt>
      <trkpt lat="47.31584" lon="-2.32126">
        <ele>25.39999961853</ele>
        <time>2021-01-07T10:17:08.000Z</time>
      </trkpt>
      <trkpt lat="47.31542" lon="-2.32117">
        <ele>25.39999961853</ele>
        <time>2021-01-07T10:17:16.000Z</time>
      </trkpt>
      <trkpt lat="47.31526" lon="-2.32113">
        <ele>25</ele>
        <time>2021-01-07T10:17:19.000Z</time>
      </trkpt>
      <trkpt lat="47.31521" lon="-2.32112">
        <ele>24.60000038147</ele>
        <time>2021-01-07T10:17:20.000Z</time>
      </trkpt>
      <trkpt lat="47.31517" lon="-2.32111">
        <ele>23.799999237061</ele>
        <time>2021-01-07T10:17:21.000Z</time>
      </trkpt>
      <trkpt lat="47.31514" lon="-2.3211">
        <ele>23.39999961853</ele>
        <time>2021-01-07T10:17:22.000Z</time>
      </trkpt>
      <trkpt lat="47.31508" lon="-2.32107">
        <ele>23.39999961853</ele>
        <time>2021-01-07T10:17:26.000Z</time>
      </trkpt>
      <trkpt lat="47.31504" lon="-2.32105">
        <ele>23.39999961853</ele>
        <time>2021-01-07T10:17:29.000Z</time>
      </trkpt>
      <trkpt lat="47.315" lon="-2.32107">
        <ele>23.39999961853</ele>
        <time>2021-01-07T10:17:31.000Z</time>
      </trkpt>
      <trkpt lat="47.31496" lon="-2.32113">
        <ele>23.39999961853</ele>
        <time>2021-01-07T10:17:33.000Z</time>
      </trkpt>
      <trkpt lat="47.31496" lon="-2.32124">
        <ele>23.39999961853</ele>
        <time>2021-01-07T10:17:35.000Z</time>
      </trkpt>
      <trkpt lat="47.315" lon="-2.32136">
        <ele>23.39999961853</ele>
        <time>2021-01-07T10:17:37.000Z</time>
      </trkpt>
      <trkpt lat="47.31507" lon="-2.32152">
        <ele>23.39999961853</ele>
        <time>2021-01-07T10:17:40.000Z</time>
      </trkpt>
      <trkpt lat="47.3151" lon="-2.32157">
        <ele>23.39999961853</ele>
        <time>2021-01-07T10:17:41.000Z</time>
      </trkpt>
      <trkpt lat="47.31517" lon="-2.32177">
        <ele>23.39999961853</ele>
        <time>2021-01-07T10:17:45.000Z</time>
      </trkpt>
      <trkpt lat="47.31507" lon="-2.32182">
        <ele>23.39999961853</ele>
        <time>2021-01-07T10:17:48.000Z</time>
      </trkpt>
      <trkpt lat="47.31495" lon="-2.32171">
        <ele>23.39999961853</ele>
        <time>2021-01-07T10:17:52.000Z</time>
      </trkpt>
      <trkpt lat="47.31489" lon="-2.32169">
        <ele>23.39999961853</ele>
        <time>2021-01-07T10:17:54.000Z</time>
      </trkpt>
      <trkpt lat="47.31483" lon="-2.32175">
        <ele>23.39999961853</ele>
        <time>2021-01-07T10:17:56.000Z</time>
      </trkpt>
      <trkpt lat="47.31481" lon="-2.32179">
        <ele>23</ele>
        <time>2021-01-07T10:17:57.000Z</time>
      </trkpt>
      <trkpt lat="47.31479" lon="-2.32184">
        <ele>22.60000038147</ele>
        <time>2021-01-07T10:17:58.000Z</time>
      </trkpt>
      <trkpt lat="47.31477" lon="-2.3219">
        <ele>22.200000762939</ele>
        <time>2021-01-07T10:17:59.000Z</time>
      </trkpt>
      <trkpt lat="47.31476" lon="-2.32195">
        <ele>21.799999237061</ele>
        <time>2021-01-07T10:18:00.000Z</time>
      </trkpt>
      <trkpt lat="47.31474" lon="-2.322">
        <ele>21.39999961853</ele>
        <time>2021-01-07T10:18:01.000Z</time>
      </trkpt>
      <trkpt lat="47.31465" lon="-2.32225">
        <ele>21.39999961853</ele>
        <time>2021-01-07T10:18:07.000Z</time>
      </trkpt>
      <trkpt lat="47.31462" lon="-2.32234">
        <ele>21.39999961853</ele>
        <time>2021-01-07T10:18:12.000Z</time>
      </trkpt>
      <trkpt lat="47.31459" lon="-2.32242">
        <ele>21.39999961853</ele>
        <time>2021-01-07T10:18:29.000Z</time>
      </trkpt>
      <trkpt lat="47.31456" lon="-2.32249">
        <ele>21.39999961853</ele>
        <time>2021-01-07T10:18:32.000Z</time>
      </trkpt>
      <trkpt lat="47.31448" lon="-2.32264">
        <ele>21.39999961853</ele>
        <time>2021-01-07T10:18:37.000Z</time>
      </trkpt>
      <trkpt lat="47.31427" lon="-2.32272">
        <ele>21.39999961853</ele>
        <time>2021-01-07T10:18:42.000Z</time>
      </trkpt>
      <trkpt lat="47.31422" lon="-2.32273">
        <ele>21.39999961853</ele>
        <time>2021-01-07T10:18:43.000Z</time>
      </trkpt>
      <trkpt lat="47.31401" lon="-2.32278">
        <ele>21.39999961853</ele>
        <time>2021-01-07T10:18:47.000Z</time>
      </trkpt>
      <trkpt lat="47.3136" lon="-2.32293">
        <ele>21.39999961853</ele>
        <time>2021-01-07T10:18:54.000Z</time>
      </trkpt>
      <trkpt lat="47.31325" lon="-2.3232">
        <ele>21</ele>
        <time>2021-01-07T10:19:00.000Z</time>
      </trkpt>
      <trkpt lat="47.3132" lon="-2.32326">
        <ele>20.60000038147</ele>
        <time>2021-01-07T10:19:01.000Z</time>
      </trkpt>
      <trkpt lat="47.31315" lon="-2.32331">
        <ele>20.200000762939</ele>
        <time>2021-01-07T10:19:02.000Z</time>
      </trkpt>
      <trkpt lat="47.31311" lon="-2.32336">
        <ele>19.799999237061</ele>
        <time>2021-01-07T10:19:03.000Z</time>
      </trkpt>
      <trkpt lat="47.31306" lon="-2.32341">
        <ele>19.39999961853</ele>
        <time>2021-01-07T10:19:04.000Z</time>
      </trkpt>
      <trkpt lat="47.31301" lon="-2.32346">
        <ele>19.39999961853</ele>
        <time>2021-01-07T10:19:05.000Z</time>
      </trkpt>
      <trkpt lat="47.3127" lon="-2.32378">
        <ele>19.39999961853</ele>
        <time>2021-01-07T10:19:12.000Z</time>
      </trkpt>
      <trkpt lat="47.31249" lon="-2.32395">
        <ele>19.39999961853</ele>
        <time>2021-01-07T10:19:16.000Z</time>
      </trkpt>
      <trkpt lat="47.31244" lon="-2.32398">
        <ele>19.39999961853</ele>
        <time>2021-01-07T10:19:17.000Z</time>
      </trkpt>
      <trkpt lat="47.31233" lon="-2.32405">
        <ele>19.799999237061</ele>
        <time>2021-01-07T10:19:19.000Z</time>
      </trkpt>
      <trkpt lat="47.31227" lon="-2.32408">
        <ele>20.200000762939</ele>
        <time>2021-01-07T10:19:20.000Z</time>
      </trkpt>
      <trkpt lat="47.31222" lon="-2.32411">
        <ele>20.60000038147</ele>
        <time>2021-01-07T10:19:21.000Z</time>
      </trkpt>
      <trkpt lat="47.31217" lon="-2.32414">
        <ele>21</ele>
        <time>2021-01-07T10:19:22.000Z</time>
      </trkpt>
      <trkpt lat="47.31212" lon="-2.32418">
        <ele>21.39999961853</ele>
        <time>2021-01-07T10:19:23.000Z</time>
      </trkpt>
      <trkpt lat="47.31207" lon="-2.3242">
        <ele>21.39999961853</ele>
        <time>2021-01-07T10:19:24.000Z</time>
      </trkpt>
      <trkpt lat="47.31187" lon="-2.32431">
        <ele>21.39999961853</ele>
        <time>2021-01-07T10:19:29.000Z</time>
      </trkpt>
      <trkpt lat="47.31184" lon="-2.32433">
        <ele>21.39999961853</ele>
        <time>2021-01-07T10:19:33.000Z</time>
      </trkpt>
      <trkpt lat="47.31181" lon="-2.32434">
        <ele>21.39999961853</ele>
        <time>2021-01-07T10:19:58.000Z</time>
      </trkpt>
      <trkpt lat="47.31177" lon="-2.32433">
        <ele>21.39999961853</ele>
        <time>2021-01-07T10:20:01.000Z</time>
      </trkpt>
      <trkpt lat="47.31167" lon="-2.32431">
        <ele>21.39999961853</ele>
        <time>2021-01-07T10:20:05.000Z</time>
      </trkpt>
      <trkpt lat="47.31159" lon="-2.32428">
        <ele>21.39999961853</ele>
        <time>2021-01-07T10:20:07.000Z</time>
      </trkpt>
      <trkpt lat="47.3115" lon="-2.32426">
        <ele>21.39999961853</ele>
        <time>2021-01-07T10:20:09.000Z</time>
      </trkpt>
      <trkpt lat="47.31144" lon="-2.32426">
        <ele>21.39999961853</ele>
        <time>2021-01-07T10:20:10.000Z</time>
      </trkpt>
      <trkpt lat="47.31126" lon="-2.32424">
        <ele>21.39999961853</ele>
        <time>2021-01-07T10:20:14.000Z</time>
      </trkpt>
      <trkpt lat="47.31108" lon="-2.32424">
        <ele>21.39999961853</ele>
        <time>2021-01-07T10:20:19.000Z</time>
      </trkpt>
      <trkpt lat="47.31095" lon="-2.32424">
        <ele>21.39999961853</ele>
        <time>2021-01-07T10:20:22.000Z</time>
      </trkpt>
      <trkpt lat="47.31086" lon="-2.32425">
        <ele>21.39999961853</ele>
        <time>2021-01-07T10:20:24.000Z</time>
      </trkpt>
      <trkpt lat="47.31081" lon="-2.32426">
        <ele>21.39999961853</ele>
        <time>2021-01-07T10:20:25.000Z</time>
      </trkpt>
      <trkpt lat="47.31064" lon="-2.32438">
        <ele>21.39999961853</ele>
        <time>2021-01-07T10:20:29.000Z</time>
      </trkpt>
      <trkpt lat="47.3104" lon="-2.32467">
        <ele>21.39999961853</ele>
        <time>2021-01-07T10:20:35.000Z</time>
      </trkpt>
      <trkpt lat="47.31027" lon="-2.32484">
        <ele>21.39999961853</ele>
        <time>2021-01-07T10:20:38.000Z</time>
      </trkpt>
      <trkpt lat="47.31011" lon="-2.32498">
        <ele>21.39999961853</ele>
        <time>2021-01-07T10:20:41.000Z</time>
      </trkpt>
      <trkpt lat="47.30973" lon="-2.32527">
        <ele>21.39999961853</ele>
        <time>2021-01-07T10:20:48.000Z</time>
      </trkpt>
      <trkpt lat="47.30962" lon="-2.32533">
        <ele>21</ele>
        <time>2021-01-07T10:20:51.000Z</time>
      </trkpt>
      <trkpt lat="47.30959" lon="-2.32534">
        <ele>20.60000038147</ele>
        <time>2021-01-07T10:20:52.000Z</time>
      </trkpt>
      <trkpt lat="47.30955" lon="-2.32534">
        <ele>20.200000762939</ele>
        <time>2021-01-07T10:20:53.000Z</time>
      </trkpt>
      <trkpt lat="47.30952" lon="-2.32533">
        <ele>19.799999237061</ele>
        <time>2021-01-07T10:20:54.000Z</time>
      </trkpt>
      <trkpt lat="47.30949" lon="-2.3253">
        <ele>19.39999961853</ele>
        <time>2021-01-07T10:20:55.000Z</time>
      </trkpt>
      <trkpt lat="47.30946" lon="-2.32526">
        <ele>19.39999961853</ele>
        <time>2021-01-07T10:20:56.000Z</time>
      </trkpt>
      <trkpt lat="47.30937" lon="-2.32506">
        <ele>19.39999961853</ele>
        <time>2021-01-07T10:20:59.000Z</time>
      </trkpt>
      <trkpt lat="47.30934" lon="-2.32499">
        <ele>19.39999961853</ele>
        <time>2021-01-07T10:21:00.000Z</time>
      </trkpt>
      <trkpt lat="47.3091" lon="-2.32447">
        <ele>19</ele>
        <time>2021-01-07T10:21:06.000Z</time>
      </trkpt>
      <trkpt lat="47.30906" lon="-2.32437">
        <ele>18.60000038147</ele>
        <time>2021-01-07T10:21:07.000Z</time>
      </trkpt>
      <trkpt lat="47.30903" lon="-2.32427">
        <ele>18</ele>
        <time>2021-01-07T10:21:08.000Z</time>
      </trkpt>
      <trkpt lat="47.309" lon="-2.32417">
        <ele>17.60000038147</ele>
        <time>2021-01-07T10:21:09.000Z</time>
      </trkpt>
      <trkpt lat="47.30896" lon="-2.32407">
        <ele>17.200000762939</ele>
        <time>2021-01-07T10:21:10.000Z</time>
      </trkpt>
      <trkpt lat="47.3089" lon="-2.32385">
        <ele>16.799999237061</ele>
        <time>2021-01-07T10:21:12.000Z</time>
      </trkpt>
      <trkpt lat="47.30886" lon="-2.32374">
        <ele>16.39999961853</ele>
        <time>2021-01-07T10:21:13.000Z</time>
      </trkpt>
      <trkpt lat="47.30883" lon="-2.32363">
        <ele>16</ele>
        <time>2021-01-07T10:21:14.000Z</time>
      </trkpt>
      <trkpt lat="47.30879" lon="-2.32353">
        <ele>15.39999961853</ele>
        <time>2021-01-07T10:21:15.000Z</time>
      </trkpt>
      <trkpt lat="47.30876" lon="-2.32343">
        <ele>15</ele>
        <time>2021-01-07T10:21:16.000Z</time>
      </trkpt>
      <trkpt lat="47.30869" lon="-2.32321">
        <ele>15</ele>
        <time>2021-01-07T10:21:18.000Z</time>
      </trkpt>
      <trkpt lat="47.3086" lon="-2.3229">
        <ele>14.60000038147</ele>
        <time>2021-01-07T10:21:21.000Z</time>
      </trkpt>
      <trkpt lat="47.30856" lon="-2.3228">
        <ele>14.199999809265</ele>
        <time>2021-01-07T10:21:22.000Z</time>
      </trkpt>
      <trkpt lat="47.30853" lon="-2.32269">
        <ele>13.800000190735</ele>
        <time>2021-01-07T10:21:23.000Z</time>
      </trkpt>
      <trkpt lat="47.30849" lon="-2.32259">
        <ele>13.39999961853</ele>
        <time>2021-01-07T10:21:24.000Z</time>
      </trkpt>
      <trkpt lat="47.30846" lon="-2.32249">
        <ele>13</ele>
        <time>2021-01-07T10:21:25.000Z</time>
      </trkpt>
      <trkpt lat="47.30832" lon="-2.3221">
        <ele>12.39999961853</ele>
        <time>2021-01-07T10:21:29.000Z</time>
      </trkpt>
      <trkpt lat="47.30829" lon="-2.32199">
        <ele>12</ele>
        <time>2021-01-07T10:21:30.000Z</time>
      </trkpt>
      <trkpt lat="47.30825" lon="-2.3219">
        <ele>11.60000038147</ele>
        <time>2021-01-07T10:21:31.000Z</time>
      </trkpt>
      <trkpt lat="47.30822" lon="-2.3218">
        <ele>11</ele>
        <time>2021-01-07T10:21:32.000Z</time>
      </trkpt>
      <trkpt lat="47.30819" lon="-2.3217">
        <ele>10.60000038147</ele>
        <time>2021-01-07T10:21:33.000Z</time>
      </trkpt>
      <trkpt lat="47.3081" lon="-2.32139">
        <ele>10.199999809265</ele>
        <time>2021-01-07T10:21:36.000Z</time>
      </trkpt>
      <trkpt lat="47.30807" lon="-2.32129">
        <ele>9.6000003814697</ele>
        <time>2021-01-07T10:21:37.000Z</time>
      </trkpt>
      <trkpt lat="47.30804" lon="-2.32119">
        <ele>9.1999998092651</ele>
        <time>2021-01-07T10:21:38.000Z</time>
      </trkpt>
      <trkpt lat="47.30802" lon="-2.32109">
        <ele>8.8000001907349</ele>
        <time>2021-01-07T10:21:39.000Z</time>
      </trkpt>
      <trkpt lat="47.30799" lon="-2.321">
        <ele>8.1999998092651</ele>
        <time>2021-01-07T10:21:40.000Z</time>
      </trkpt>
      <trkpt lat="47.30794" lon="-2.32081">
        <ele>7.8000001907349</ele>
        <time>2021-01-07T10:21:42.000Z</time>
      </trkpt>
      <trkpt lat="47.30791" lon="-2.32072">
        <ele>7.4000000953674</ele>
        <time>2021-01-07T10:21:43.000Z</time>
      </trkpt>
      <trkpt lat="47.30789" lon="-2.32061">
        <ele>7</ele>
        <time>2021-01-07T10:21:44.000Z</time>
      </trkpt>
      <trkpt lat="47.30787" lon="-2.32051">
        <ele>6.5999999046326</ele>
        <time>2021-01-07T10:21:45.000Z</time>
      </trkpt>
      <trkpt lat="47.30785" lon="-2.32041">
        <ele>6.1999998092651</ele>
        <time>2021-01-07T10:21:46.000Z</time>
      </trkpt>
      <trkpt lat="47.30779" lon="-2.32023">
        <ele>6.1999998092651</ele>
        <time>2021-01-07T10:21:48.000Z</time>
      </trkpt>
      <trkpt lat="47.30757" lon="-2.31961">
        <ele>6.1999998092651</ele>
        <time>2021-01-07T10:21:55.000Z</time>
      </trkpt>
      <trkpt lat="47.3075" lon="-2.31933">
        <ele>5.8000001907349</ele>
        <time>2021-01-07T10:21:58.000Z</time>
      </trkpt>
      <trkpt lat="47.30748" lon="-2.31924">
        <ele>5.4000000953674</ele>
        <time>2021-01-07T10:21:59.000Z</time>
      </trkpt>
      <trkpt lat="47.30746" lon="-2.31915">
        <ele>4.8000001907349</ele>
        <time>2021-01-07T10:22:00.000Z</time>
      </trkpt>
      <trkpt lat="47.30745" lon="-2.31905">
        <ele>4.4000000953674</ele>
        <time>2021-01-07T10:22:01.000Z</time>
      </trkpt>
      <trkpt lat="47.30743" lon="-2.31897">
        <ele>4</ele>
        <time>2021-01-07T10:22:02.000Z</time>
      </trkpt>
      <trkpt lat="47.30737" lon="-2.31846">
        <ele>4</ele>
        <time>2021-01-07T10:22:08.000Z</time>
      </trkpt>
      <trkpt lat="47.30733" lon="-2.31811">
        <ele>4</ele>
        <time>2021-01-07T10:22:14.000Z</time>
      </trkpt>
      <trkpt lat="47.30728" lon="-2.31789">
        <ele>4</ele>
        <time>2021-01-07T10:22:20.000Z</time>
      </trkpt>
      <trkpt lat="47.30729" lon="-2.31769">
        <ele>4</ele>
        <time>2021-01-07T10:22:24.000Z</time>
      </trkpt>
      <trkpt lat="47.30729" lon="-2.31763">
        <ele>4</ele>
        <time>2021-01-07T10:22:25.000Z</time>
      </trkpt>
      <trkpt lat="47.30724" lon="-2.31743">
        <ele>4</ele>
        <time>2021-01-07T10:22:28.000Z</time>
      </trkpt>
      <trkpt lat="47.30721" lon="-2.31737">
        <ele>4.4000000953674</ele>
        <time>2021-01-07T10:22:29.000Z</time>
      </trkpt>
      <trkpt lat="47.30719" lon="-2.3173">
        <ele>4.8000001907349</ele>
        <time>2021-01-07T10:22:30.000Z</time>
      </trkpt>
      <trkpt lat="47.30717" lon="-2.31723">
        <ele>5.4000000953674</ele>
        <time>2021-01-07T10:22:31.000Z</time>
      </trkpt>
      <trkpt lat="47.30714" lon="-2.31716">
        <ele>5.8000001907349</ele>
        <time>2021-01-07T10:22:32.000Z</time>
      </trkpt>
      <trkpt lat="47.30712" lon="-2.3171">
        <ele>6.1999998092651</ele>
        <time>2021-01-07T10:22:33.000Z</time>
      </trkpt>
      <trkpt lat="47.30706" lon="-2.31697">
        <ele>6.1999998092651</ele>
        <time>2021-01-07T10:22:35.000Z</time>
      </trkpt>
      <trkpt lat="47.30689" lon="-2.31658">
        <ele>6.1999998092651</ele>
        <time>2021-01-07T10:22:40.000Z</time>
      </trkpt>
      <trkpt lat="47.30685" lon="-2.31649">
        <ele>6.1999998092651</ele>
        <time>2021-01-07T10:22:41.000Z</time>
      </trkpt>
      <trkpt lat="47.30665" lon="-2.31592">
        <ele>6.1999998092651</ele>
        <time>2021-01-07T10:22:47.000Z</time>
      </trkpt>
      <trkpt lat="47.30641" lon="-2.3154">
        <ele>6.1999998092651</ele>
        <time>2021-01-07T10:22:54.000Z</time>
      </trkpt>
      <trkpt lat="47.30618" lon="-2.31485">
        <ele>6.5999999046326</ele>
        <time>2021-01-07T10:23:01.000Z</time>
      </trkpt>
      <trkpt lat="47.30615" lon="-2.31477">
        <ele>7.1999998092651</ele>
        <time>2021-01-07T10:23:02.000Z</time>
      </trkpt>
      <trkpt lat="47.30612" lon="-2.31469">
        <ele>7.5999999046326</ele>
        <time>2021-01-07T10:23:03.000Z</time>
      </trkpt>
      <trkpt lat="47.30609" lon="-2.31461">
        <ele>8</ele>
        <time>2021-01-07T10:23:04.000Z</time>
      </trkpt>
      <trkpt lat="47.30605" lon="-2.31453">
        <ele>8.3999996185303</ele>
        <time>2021-01-07T10:23:05.000Z</time>
      </trkpt>
      <trkpt lat="47.30592" lon="-2.31421">
        <ele>8.3999996185303</ele>
        <time>2021-01-07T10:23:09.000Z</time>
      </trkpt>
      <trkpt lat="47.30564" lon="-2.31361">
        <ele>8.3999996185303</ele>
        <time>2021-01-07T10:23:17.000Z</time>
      </trkpt>
      <trkpt lat="47.3056" lon="-2.31355">
        <ele>8.3999996185303</ele>
        <time>2021-01-07T10:23:18.000Z</time>
      </trkpt>
      <trkpt lat="47.30538" lon="-2.31322">
        <ele>8.3999996185303</ele>
        <time>2021-01-07T10:23:23.000Z</time>
      </trkpt>
      <trkpt lat="47.30534" lon="-2.31313">
        <ele>8.3999996185303</ele>
        <time>2021-01-07T10:23:24.000Z</time>
      </trkpt>
      <trkpt lat="47.30521" lon="-2.31295">
        <ele>8.3999996185303</ele>
        <time>2021-01-07T10:23:27.000Z</time>
      </trkpt>
      <trkpt lat="47.30517" lon="-2.31289">
        <ele>8.3999996185303</ele>
        <time>2021-01-07T10:23:28.000Z</time>
      </trkpt>
      <trkpt lat="47.30494" lon="-2.31253">
        <ele>8.3999996185303</ele>
        <time>2021-01-07T10:23:34.000Z</time>
      </trkpt>
      <trkpt lat="47.30478" lon="-2.3122">
        <ele>8.3999996185303</ele>
        <time>2021-01-07T10:23:39.000Z</time>
      </trkpt>
      <trkpt lat="47.30472" lon="-2.31205">
        <ele>8.3999996185303</ele>
        <time>2021-01-07T10:23:41.000Z</time>
      </trkpt>
      <trkpt lat="47.30463" lon="-2.31174">
        <ele>8.3999996185303</ele>
        <time>2021-01-07T10:23:45.000Z</time>
      </trkpt>
      <trkpt lat="47.30459" lon="-2.31159">
        <ele>8.3999996185303</ele>
        <time>2021-01-07T10:23:47.000Z</time>
      </trkpt>
      <trkpt lat="47.30446" lon="-2.31122">
        <ele>8.3999996185303</ele>
        <time>2021-01-07T10:23:52.000Z</time>
      </trkpt>
      <trkpt lat="47.30442" lon="-2.31116">
        <ele>8.3999996185303</ele>
        <time>2021-01-07T10:23:53.000Z</time>
      </trkpt>
      <trkpt lat="47.30421" lon="-2.31098">
        <ele>8.3999996185303</ele>
        <time>2021-01-07T10:23:57.000Z</time>
      </trkpt>
      <trkpt lat="47.30391" lon="-2.31073">
        <ele>8.3999996185303</ele>
        <time>2021-01-07T10:24:03.000Z</time>
      </trkpt>
      <trkpt lat="47.30385" lon="-2.31067">
        <ele>8.3999996185303</ele>
        <time>2021-01-07T10:24:04.000Z</time>
      </trkpt>
      <trkpt lat="47.30343" lon="-2.31013">
        <ele>8.3999996185303</ele>
        <time>2021-01-07T10:24:12.000Z</time>
      </trkpt>
      <trkpt lat="47.30338" lon="-2.31006">
        <ele>8.3999996185303</ele>
        <time>2021-01-07T10:24:13.000Z</time>
      </trkpt>
      <trkpt lat="47.30328" lon="-2.30993">
        <ele>8</ele>
        <time>2021-01-07T10:24:15.000Z</time>
      </trkpt>
      <trkpt lat="47.30322" lon="-2.30985">
        <ele>7.5999999046326</ele>
        <time>2021-01-07T10:24:16.000Z</time>
      </trkpt>
      <trkpt lat="47.30317" lon="-2.30978">
        <ele>7.1999998092651</ele>
        <time>2021-01-07T10:24:17.000Z</time>
      </trkpt>
      <trkpt lat="47.30311" lon="-2.30969">
        <ele>6.8000001907349</ele>
        <time>2021-01-07T10:24:18.000Z</time>
      </trkpt>
      <trkpt lat="47.30304" lon="-2.30959">
        <ele>6.4000000953674</ele>
        <time>2021-01-07T10:24:19.000Z</time>
      </trkpt>
      <trkpt lat="47.30299" lon="-2.30951">
        <ele>6</ele>
        <time>2021-01-07T10:24:20.000Z</time>
      </trkpt>
      <trkpt lat="47.30293" lon="-2.30943">
        <ele>5.4000000953674</ele>
        <time>2021-01-07T10:24:21.000Z</time>
      </trkpt>
      <trkpt lat="47.30288" lon="-2.30935">
        <ele>5</ele>
        <time>2021-01-07T10:24:22.000Z</time>
      </trkpt>
      <trkpt lat="47.30282" lon="-2.30927">
        <ele>4.5999999046326</ele>
        <time>2021-01-07T10:24:23.000Z</time>
      </trkpt>
      <trkpt lat="47.30277" lon="-2.3092">
        <ele>4</ele>
        <time>2021-01-07T10:24:24.000Z</time>
      </trkpt>
      <trkpt lat="47.30248" lon="-2.30882">
        <ele>3.5999999046326</ele>
        <time>2021-01-07T10:24:29.000Z</time>
      </trkpt>
      <trkpt lat="47.30242" lon="-2.30874">
        <ele>3.2000000476837</ele>
        <time>2021-01-07T10:24:30.000Z</time>
      </trkpt>
      <trkpt lat="47.30236" lon="-2.30868">
        <ele>2.7999999523163</ele>
        <time>2021-01-07T10:24:31.000Z</time>
      </trkpt>
      <trkpt lat="47.30231" lon="-2.30862">
        <ele>2.4000000953674</ele>
        <time>2021-01-07T10:24:32.000Z</time>
      </trkpt>
      <trkpt lat="47.30226" lon="-2.30857">
        <ele>2</ele>
        <time>2021-01-07T10:24:33.000Z</time>
      </trkpt>
      <trkpt lat="47.30222" lon="-2.30853">
        <ele>1.3999999761581</ele>
        <time>2021-01-07T10:24:34.000Z</time>
      </trkpt>
      <trkpt lat="47.30217" lon="-2.3085">
        <ele>1</ele>
        <time>2021-01-07T10:24:35.000Z</time>
      </trkpt>
      <trkpt lat="47.30213" lon="-2.30846">
        <ele>0.40000000596046</ele>
        <time>2021-01-07T10:24:36.000Z</time>
      </trkpt>
      <trkpt lat="47.30209" lon="-2.30842">
        <ele>5.7</ele>
        <time>2021-01-07T10:24:37.000Z</time>
      </trkpt>
      <trkpt lat="47.30205" lon="-2.30838">
        <ele>-0.40000000596046</ele>
        <time>2021-01-07T10:24:38.000Z</time>
      </trkpt>
      <trkpt lat="47.30193" lon="-2.30823">
        <ele>-0.40000000596046</ele>
        <time>2021-01-07T10:24:41.000Z</time>
      </trkpt>
      <trkpt lat="47.30173" lon="-2.30802">
        <ele>-1</ele>
        <time>2021-01-07T10:24:46.000Z</time>
      </trkpt>
      <trkpt lat="47.3017" lon="-2.30799">
        <ele>-1.3999999761581</ele>
        <time>2021-01-07T10:24:47.000Z</time>
      </trkpt>
      <trkpt lat="47.30169" lon="-2.30798">
        <ele>-1.7999999523163</ele>
        <time>2021-01-07T10:24:48.000Z</time>
      </trkpt>
      <trkpt lat="47.30167" lon="-2.30795">
        <ele>-2.4000000953674</ele>
        <time>2021-01-07T10:24:49.000Z</time>
      </trkpt>
      <trkpt lat="47.30165" lon="-2.30792">
        <ele>-2.7999999523163</ele>
        <time>2021-01-07T10:24:50.000Z</time>
      </trkpt>
      <trkpt lat="47.30163" lon="-2.30788">
        <ele>-2.7999999523163</ele>
        <time>2021-01-07T10:24:51.000Z</time>
      </trkpt>
      <trkpt lat="47.30165" lon="-2.3077">
        <ele>-2.7999999523163</ele>
        <time>2021-01-07T10:24:54.000Z</time>
      </trkpt>
      <trkpt lat="47.3017" lon="-2.30733">
        <ele>-2.7999999523163</ele>
        <time>2021-01-07T10:24:59.000Z</time>
      </trkpt>
      <trkpt lat="47.3017" lon="-2.30725">
        <ele>-2.7999999523163</ele>
        <time>2021-01-07T10:25:00.000Z</time>
      </trkpt>
      <trkpt lat="47.30167" lon="-2.307">
        <ele>-2.7999999523163</ele>
        <time>2021-01-07T10:25:03.000Z</time>
      </trkpt>
      <trkpt lat="47.30163" lon="-2.30677">
        <ele>-2.7999999523163</ele>
        <time>2021-01-07T10:25:06.000Z</time>
      </trkpt>
      <trkpt lat="47.3016" lon="-2.30656">
        <ele>-2.7999999523163</ele>
        <time>2021-01-07T10:25:09.000Z</time>
      </trkpt>
      <trkpt lat="47.30161" lon="-2.3064">
        <ele>-2.7999999523163</ele>
        <time>2021-01-07T10:25:11.000Z</time>
      </trkpt>
      <trkpt lat="47.30162" lon="-2.30634">
        <ele>-2.7999999523163</ele>
        <time>2021-01-07T10:25:12.000Z</time>
      </trkpt>
      <trkpt lat="47.30167" lon="-2.30613">
        <ele>-2.7999999523163</ele>
        <time>2021-01-07T10:25:16.000Z</time>
      </trkpt>
      <trkpt lat="47.30165" lon="-2.30587">
        <ele>-2.7999999523163</ele>
        <time>2021-01-07T10:25:20.000Z</time>
      </trkpt>
      <trkpt lat="47.30164" lon="-2.30579">
        <ele>-2.7999999523163</ele>
        <time>2021-01-07T10:25:21.000Z</time>
      </trkpt>
      <trkpt lat="47.30155" lon="-2.30557">
        <ele>-2.4000000953674</ele>
        <time>2021-01-07T10:25:24.000Z</time>
      </trkpt>
      <trkpt lat="47.30152" lon="-2.30549">
        <ele>-2</ele>
        <time>2021-01-07T10:25:25.000Z</time>
      </trkpt>
      <trkpt lat="47.30148" lon="-2.30541">
        <ele>-1.6000000238419</ele>
        <time>2021-01-07T10:25:26.000Z</time>
      </trkpt>
      <trkpt lat="47.30145" lon="-2.30533">
        <ele>-1.2000000476837</ele>
        <time>2021-01-07T10:25:27.000Z</time>
      </trkpt>
      <trkpt lat="47.30143" lon="-2.30525">
        <ele>-0.60000002384186</ele>
        <time>2021-01-07T10:25:28.000Z</time>
      </trkpt>
      <trkpt lat="47.30129" lon="-2.30482">
        <ele>-0.60000002384186</ele>
        <time>2021-01-07T10:25:33.000Z</time>
      </trkpt>
      <trkpt lat="47.30107" lon="-2.30409">
        <ele>-0.60000002384186</ele>
        <time>2021-01-07T10:25:41.000Z</time>
      </trkpt>
      <trkpt lat="47.30091" lon="-2.30343">
        <ele>-0.60000002384186</ele>
        <time>2021-01-07T10:25:48.000Z</time>
      </trkpt>
      <trkpt lat="47.30074" lon="-2.30275">
        <ele>-0.60000002384186</ele>
        <time>2021-01-07T10:25:55.000Z</time>
      </trkpt>
      <trkpt lat="47.30052" lon="-2.30194">
        <ele>-0.60000002384186</ele>
        <time>2021-01-07T10:26:04.000Z</time>
      </trkpt>
      <trkpt lat="47.30036" lon="-2.30134">
        <ele>-0.60000002384186</ele>
        <time>2021-01-07T10:26:11.000Z</time>
      </trkpt>
      <trkpt lat="47.30022" lon="-2.30072">
        <ele>-0.60000002384186</ele>
        <time>2021-01-07T10:26:18.000Z</time>
      </trkpt>
      <trkpt lat="47.30008" lon="-2.3002">
        <ele>-0.60000002384186</ele>
        <time>2021-01-07T10:26:24.000Z</time>
      </trkpt>
      <trkpt lat="47.30006" lon="-2.30012">
        <ele>-0.60000002384186</ele>
        <time>2021-01-07T10:26:25.000Z</time>
      </trkpt>
      <trkpt lat="47.3" lon="-2.29989">
        <ele>-1.2000000476837</ele>
        <time>2021-01-07T10:26:28.000Z</time>
      </trkpt>
      <trkpt lat="47.29998" lon="-2.29983">
        <ele>-1.6000000238419</ele>
        <time>2021-01-07T10:26:29.000Z</time>
      </trkpt>
      <trkpt lat="47.29996" lon="-2.29976">
        <ele>-2</ele>
        <time>2021-01-07T10:26:30.000Z</time>
      </trkpt>
      <trkpt lat="47.29994" lon="-2.29969">
        <ele>-2.4000000953674</ele>
        <time>2021-01-07T10:26:31.000Z</time>
      </trkpt>
      <trkpt lat="47.29992" lon="-2.29962">
        <ele>-2.7999999523163</ele>
        <time>2021-01-07T10:26:32.000Z</time>
      </trkpt>
      <trkpt lat="47.29984" lon="-2.29931">
        <ele>-2.7999999523163</ele>
        <time>2021-01-07T10:26:37.000Z</time>
      </trkpt>
      <trkpt lat="47.29971" lon="-2.2989">
        <ele>-2.7999999523163</ele>
        <time>2021-01-07T10:26:43.000Z</time>
      </trkpt>
      <trkpt lat="47.29953" lon="-2.29838">
        <ele>-2.7999999523163</ele>
        <time>2021-01-07T10:26:51.000Z</time>
      </trkpt>
      <trkpt lat="47.29944" lon="-2.29814">
        <ele>-2.7999999523163</ele>
        <time>2021-01-07T10:26:55.000Z</time>
      </trkpt>
      <trkpt lat="47.29941" lon="-2.29813">
        <ele>-2.7999999523163</ele>
        <time>2021-01-07T10:26:56.000Z</time>
      </trkpt>
      <trkpt lat="47.29933" lon="-2.29818">
        <ele>-2.7999999523163</ele>
        <time>2021-01-07T10:26:59.000Z</time>
      </trkpt>
      <trkpt lat="47.29913" lon="-2.2983">
        <ele>-2.7999999523163</ele>
        <time>2021-01-07T10:27:04.000Z</time>
      </trkpt>
      <trkpt lat="47.29903" lon="-2.29852">
        <ele>-2.4000000953674</ele>
        <time>2021-01-07T10:27:08.000Z</time>
      </trkpt>
      <trkpt lat="47.29902" lon="-2.2986">
        <ele>-1.6000000238419</ele>
        <time>2021-01-07T10:27:09.000Z</time>
      </trkpt>
      <trkpt lat="47.29902" lon="-2.29867">
        <ele>-1.2000000476837</ele>
        <time>2021-01-07T10:27:10.000Z</time>
      </trkpt>
      <trkpt lat="47.29902" lon="-2.29875">
        <ele>-0.80000001192093</ele>
        <time>2021-01-07T10:27:11.000Z</time>
      </trkpt>
      <trkpt lat="47.29903" lon="-2.29884">
        <ele>-0.80000001192093</ele>
        <time>2021-01-07T10:27:12.000Z</time>
      </trkpt>
      <trkpt lat="47.29904" lon="-2.29892">
        <ele>-0.80000001192093</ele>
        <time>2021-01-07T10:27:13.000Z</time>
      </trkpt>
      <trkpt lat="47.29906" lon="-2.2991">
        <ele>-0.80000001192093</ele>
        <time>2021-01-07T10:27:15.000Z</time>
      </trkpt>
      <trkpt lat="47.29905" lon="-2.29926">
        <ele>-0.80000001192093</ele>
        <time>2021-01-07T10:27:17.000Z</time>
      </trkpt>
      <trkpt lat="47.29894" lon="-2.29941">
        <ele>-0.80000001192093</ele>
        <time>2021-01-07T10:27:20.000Z</time>
      </trkpt>
      <trkpt lat="47.29883" lon="-2.29944">
        <ele>-0.80000001192093</ele>
        <time>2021-01-07T10:27:22.000Z</time>
      </trkpt>
      <trkpt lat="47.29868" lon="-2.29947">
        <ele>-0.80000001192093</ele>
        <time>2021-01-07T10:27:25.000Z</time>
      </trkpt>
      <trkpt lat="47.29836" lon="-2.29955">
        <ele>-0.80000001192093</ele>
        <time>2021-01-07T10:27:31.000Z</time>
      </trkpt>
      <trkpt lat="47.2983" lon="-2.29956">
        <ele>-0.80000001192093</ele>
        <time>2021-01-07T10:27:32.000Z</time>
      </trkpt>
      <trkpt lat="47.29808" lon="-2.29955">
        <ele>-0.80000001192093</ele>
        <time>2021-01-07T10:27:36.000Z</time>
      </trkpt>
      <trkpt lat="47.29797" lon="-2.29953">
        <ele>-0.80000001192093</ele>
        <time>2021-01-07T10:27:38.000Z</time>
      </trkpt>
      <trkpt lat="47.29791" lon="-2.29954">
        <ele>-0.80000001192093</ele>
        <time>2021-01-07T10:27:39.000Z</time>
      </trkpt>
      <trkpt lat="47.29776" lon="-2.29963">
        <ele>-0.80000001192093</ele>
        <time>2021-01-07T10:27:42.000Z</time>
      </trkpt>
      <trkpt lat="47.2977" lon="-2.29967">
        <ele>-0.80000001192093</ele>
        <time>2021-01-07T10:27:43.000Z</time>
      </trkpt>
      <trkpt lat="47.29741" lon="-2.2999">
        <ele>-0.80000001192093</ele>
        <time>2021-01-07T10:27:49.000Z</time>
      </trkpt>
      <trkpt lat="47.29719" lon="-2.30001">
        <ele>-0.80000001192093</ele>
        <time>2021-01-07T10:27:53.000Z</time>
      </trkpt>
      <trkpt lat="47.29706" lon="-2.30003">
        <ele>-0.80000001192093</ele>
        <time>2021-01-07T10:27:55.000Z</time>
      </trkpt>
      <trkpt lat="47.29693" lon="-2.30003">
        <ele>-0.80000001192093</ele>
        <time>2021-01-07T10:27:57.000Z</time>
      </trkpt>
      <trkpt lat="47.29669" lon="-2.3">
        <ele>-0.80000001192093</ele>
        <time>2021-01-07T10:28:01.000Z</time>
      </trkpt>
      <trkpt lat="47.29651" lon="-2.29988">
        <ele>-0.80000001192093</ele>
        <time>2021-01-07T10:28:05.000Z</time>
      </trkpt>
      <trkpt lat="47.29647" lon="-2.29985">
        <ele>-0.80000001192093</ele>
        <time>2021-01-07T10:28:06.000Z</time>
      </trkpt>
      <trkpt lat="47.29639" lon="-2.29988">
        <ele>-0.80000001192093</ele>
        <time>2021-01-07T10:28:08.000Z</time>
      </trkpt>
      <trkpt lat="47.29631" lon="-2.29996">
        <ele>-0.80000001192093</ele>
        <time>2021-01-07T10:28:10.000Z</time>
      </trkpt>
      <trkpt lat="47.29616" lon="-2.30003">
        <ele>-0.80000001192093</ele>
        <time>2021-01-07T10:28:13.000Z</time>
      </trkpt>
      <trkpt lat="47.29573" lon="-2.30015">
        <ele>-0.80000001192093</ele>
        <time>2021-01-07T10:28:20.000Z</time>
      </trkpt>
      <trkpt lat="47.2953" lon="-2.3003">
        <ele>-0.80000001192093</ele>
        <time>2021-01-07T10:28:28.000Z</time>
      </trkpt>
      <trkpt lat="47.2951" lon="-2.30026">
        <ele>-0.80000001192093</ele>
        <time>2021-01-07T10:28:32.000Z</time>
      </trkpt>
      <trkpt lat="47.29491" lon="-2.30029">
        <ele>-0.80000001192093</ele>
        <time>2021-01-07T10:28:36.000Z</time>
      </trkpt>
      <trkpt lat="47.29486" lon="-2.30029">
        <ele>-0.80000001192093</ele>
        <time>2021-01-07T10:28:37.000Z</time>
      </trkpt>
      <trkpt lat="47.29452" lon="-2.30029">
        <ele>-0.80000001192093</ele>
        <time>2021-01-07T10:28:43.000Z</time>
      </trkpt>
      <trkpt lat="47.29414" lon="-2.3003">
        <ele>-0.80000001192093</ele>
        <time>2021-01-07T10:28:50.000Z</time>
      </trkpt>
      <trkpt lat="47.29408" lon="-2.30029">
        <ele>-0.80000001192093</ele>
        <time>2021-01-07T10:28:51.000Z</time>
      </trkpt>
      <trkpt lat="47.29388" lon="-2.30023">
        <ele>-0.80000001192093</ele>
        <time>2021-01-07T10:28:55.000Z</time>
      </trkpt>
      <trkpt lat="47.29366" lon="-2.30012">
        <ele>-0.40000000596046</ele>
        <time>2021-01-07T10:29:00.000Z</time>
      </trkpt>
      <trkpt lat="47.29362" lon="-2.3001">
        <ele>8</ele>
        <time>2021-01-07T10:29:01.000Z</time>
      </trkpt>
      <trkpt lat="47.29358" lon="-2.30009">
        <ele>0.40000000596046</ele>
        <time>2021-01-07T10:29:02.000Z</time>
      </trkpt>
      <trkpt lat="47.29354" lon="-2.30007">
        <ele>0.80000001192093</ele>
        <time>2021-01-07T10:29:03.000Z</time>
      </trkpt>
      <trkpt lat="47.29351" lon="-2.30006">
        <ele>1.2000000476837</ele>
        <time>2021-01-07T10:29:04.000Z</time>
      </trkpt>
      <trkpt lat="47.29347" lon="-2.30007">
        <ele>1.2000000476837</ele>
        <time>2021-01-07T10:29:06.000Z</time>
      </trkpt>
      <trkpt lat="47.29345" lon="-2.30024">
        <ele>1.2000000476837</ele>
        <time>2021-01-07T10:29:10.000Z</time>
      </trkpt>
      <trkpt lat="47.29341" lon="-2.30066">
        <ele>1.2000000476837</ele>
        <time>2021-01-07T10:29:16.000Z</time>
      </trkpt>
      <trkpt lat="47.29336" lon="-2.30106">
        <ele>1.2000000476837</ele>
        <time>2021-01-07T10:29:21.000Z</time>
      </trkpt>
      <trkpt lat="47.29332" lon="-2.30121">
        <ele>1.2000000476837</ele>
        <time>2021-01-07T10:29:23.000Z</time>
      </trkpt>
      <trkpt lat="47.29327" lon="-2.30133">
        <ele>1.2000000476837</ele>
        <time>2021-01-07T10:29:25.000Z</time>
      </trkpt>
      <trkpt lat="47.29319" lon="-2.30137">
        <ele>1.2000000476837</ele>
        <time>2021-01-07T10:29:27.000Z</time>
      </trkpt>
      <trkpt lat="47.29298" lon="-2.30136">
        <ele>1.2000000476837</ele>
        <time>2021-01-07T10:29:31.000Z</time>
      </trkpt>
      <trkpt lat="47.29293" lon="-2.30136">
        <ele>1.2000000476837</ele>
        <time>2021-01-07T10:29:32.000Z</time>
      </trkpt>
      <trkpt lat="47.29272" lon="-2.30137">
        <ele>1.2000000476837</ele>
        <time>2021-01-07T10:29:36.000Z</time>
      </trkpt>
      <trkpt lat="47.29263" lon="-2.30139">
        <ele>1.2000000476837</ele>
        <time>2021-01-07T10:29:38.000Z</time>
      </trkpt>
      <trkpt lat="47.29233" lon="-2.30147">
        <ele>1.2000000476837</ele>
        <time>2021-01-07T10:29:44.000Z</time>
      </trkpt>
      <trkpt lat="47.292" lon="-2.30165">
        <ele>1.2000000476837</ele>
        <time>2021-01-07T10:29:50.000Z</time>
      </trkpt>
      <trkpt lat="47.29165" lon="-2.30184">
        <ele>1.2000000476837</ele>
        <time>2021-01-07T10:29:56.000Z</time>
      </trkpt>
      <trkpt lat="47.2912" lon="-2.3021">
        <ele>1.2000000476837</ele>
        <time>2021-01-07T10:30:04.000Z</time>
      </trkpt>
      <trkpt lat="47.29091" lon="-2.30224">
        <ele>1.6000000238419</ele>
        <time>2021-01-07T10:30:09.000Z</time>
      </trkpt>
      <trkpt lat="47.29085" lon="-2.30227">
        <ele>2</ele>
        <time>2021-01-07T10:30:10.000Z</time>
      </trkpt>
      <trkpt lat="47.2908" lon="-2.3023">
        <ele>2.4000000953674</ele>
        <time>2021-01-07T10:30:11.000Z</time>
      </trkpt>
      <trkpt lat="47.29074" lon="-2.30233">
        <ele>2.7999999523163</ele>
        <time>2021-01-07T10:30:12.000Z</time>
      </trkpt>
      <trkpt lat="47.29068" lon="-2.30235">
        <ele>3.2000000476837</ele>
        <time>2021-01-07T10:30:13.000Z</time>
      </trkpt>
      <trkpt lat="47.29022" lon="-2.30253">
        <ele>3.2000000476837</ele>
        <time>2021-01-07T10:30:21.000Z</time>
      </trkpt>
      <trkpt lat="47.29005" lon="-2.30258">
        <ele>3.2000000476837</ele>
        <time>2021-01-07T10:30:24.000Z</time>
      </trkpt>
      <trkpt lat="47.2899" lon="-2.3026">
        <ele>3.2000000476837</ele>
        <time>2021-01-07T10:30:27.000Z</time>
      </trkpt>
      <trkpt lat="47.28985" lon="-2.3026">
        <ele>3.2000000476837</ele>
        <time>2021-01-07T10:30:28.000Z</time>
      </trkpt>
      <trkpt lat="47.28976" lon="-2.30263">
        <ele>3.2000000476837</ele>
        <time>2021-01-07T10:30:31.000Z</time>
      </trkpt>
      <trkpt lat="47.28972" lon="-2.3028">
        <ele>3.2000000476837</ele>
        <time>2021-01-07T10:30:34.000Z</time>
      </trkpt>
      <trkpt lat="47.28973" lon="-2.303">
        <ele>3.2000000476837</ele>
        <time>2021-01-07T10:30:37.000Z</time>
      </trkpt>
      <trkpt lat="47.28974" lon="-2.30314">
        <ele>3.2000000476837</ele>
        <time>2021-01-07T10:30:39.000Z</time>
      </trkpt>
      <trkpt lat="47.28976" lon="-2.30371">
        <ele>3.2000000476837</ele>
        <time>2021-01-07T10:30:47.000Z</time>
      </trkpt>
      <trkpt lat="47.28974" lon="-2.30399">
        <ele>3.2000000476837</ele>
        <time>2021-01-07T10:30:51.000Z</time>
      </trkpt>
      <trkpt lat="47.28975" lon="-2.3041">
        <ele>3.2000000476837</ele>
        <time>2021-01-07T10:30:53.000Z</time>
      </trkpt>
      <trkpt lat="47.28978" lon="-2.30435">
        <ele>3.2000000476837</ele>
        <time>2021-01-07T10:30:58.000Z</time>
      </trkpt>
      <trkpt lat="47.28985" lon="-2.30481">
        <ele>3.5999999046326</ele>
        <time>2021-01-07T10:31:04.000Z</time>
      </trkpt>
      <trkpt lat="47.28986" lon="-2.30488">
        <ele>4</ele>
        <time>2021-01-07T10:31:05.000Z</time>
      </trkpt>
      <trkpt lat="47.28987" lon="-2.30496">
        <ele>4.4000000953674</ele>
        <time>2021-01-07T10:31:06.000Z</time>
      </trkpt>
      <trkpt lat="47.28988" lon="-2.30503">
        <ele>4.8000001907349</ele>
        <time>2021-01-07T10:31:07.000Z</time>
      </trkpt>
      <trkpt lat="47.28989" lon="-2.3051">
        <ele>5.1999998092651</ele>
        <time>2021-01-07T10:31:08.000Z</time>
      </trkpt>
      <trkpt lat="47.28993" lon="-2.30537">
        <ele>5.1999998092651</ele>
        <time>2021-01-07T10:31:12.000Z</time>
      </trkpt>
      <trkpt lat="47.29001" lon="-2.30597">
        <ele>5.1999998092651</ele>
        <time>2021-01-07T10:31:20.000Z</time>
      </trkpt>
      <trkpt lat="47.29003" lon="-2.30646">
        <ele>5.1999998092651</ele>
        <time>2021-01-07T10:31:26.000Z</time>
      </trkpt>
      <trkpt lat="47.29005" lon="-2.30699">
        <ele>5.1999998092651</ele>
        <time>2021-01-07T10:31:32.000Z</time>
      </trkpt>
      <trkpt lat="47.29006" lon="-2.30744">
        <ele>5.1999998092651</ele>
        <time>2021-01-07T10:31:37.000Z</time>
      </trkpt>
      <trkpt lat="47.29006" lon="-2.30753">
        <ele>5.1999998092651</ele>
        <time>2021-01-07T10:31:38.000Z</time>
      </trkpt>
      <trkpt lat="47.29007" lon="-2.3077">
        <ele>5.1999998092651</ele>
        <time>2021-01-07T10:31:40.000Z</time>
      </trkpt>
      <trkpt lat="47.29013" lon="-2.30793">
        <ele>5.1999998092651</ele>
        <time>2021-01-07T10:31:43.000Z</time>
      </trkpt>
      <trkpt lat="47.29024" lon="-2.30858">
        <ele>5.1999998092651</ele>
        <time>2021-01-07T10:31:51.000Z</time>
      </trkpt>
      <trkpt lat="47.29028" lon="-2.30913">
        <ele>5.5999999046326</ele>
        <time>2021-01-07T10:31:58.000Z</time>
      </trkpt>
      <trkpt lat="47.29029" lon="-2.3092">
        <ele>6</ele>
        <time>2021-01-07T10:31:59.000Z</time>
      </trkpt>
      <trkpt lat="47.29029" lon="-2.30926">
        <ele>6.5999999046326</ele>
        <time>2021-01-07T10:32:00.000Z</time>
      </trkpt>
      <trkpt lat="47.2903" lon="-2.30932">
        <ele>7</ele>
        <time>2021-01-07T10:32:01.000Z</time>
      </trkpt>
      <trkpt lat="47.2903" lon="-2.30938">
        <ele>7.4000000953674</ele>
        <time>2021-01-07T10:32:02.000Z</time>
      </trkpt>
      <trkpt lat="47.29033" lon="-2.30957">
        <ele>7.4000000953674</ele>
        <time>2021-01-07T10:32:05.000Z</time>
      </trkpt>
      <trkpt lat="47.29034" lon="-2.30979">
        <ele>7.8000001907349</ele>
        <time>2021-01-07T10:32:08.000Z</time>
      </trkpt>
      <trkpt lat="47.29033" lon="-2.30986">
        <ele>8.1999998092651</ele>
        <time>2021-01-07T10:32:09.000Z</time>
      </trkpt>
      <trkpt lat="47.29033" lon="-2.30994">
        <ele>8.6000003814697</ele>
        <time>2021-01-07T10:32:10.000Z</time>
      </trkpt>
      <trkpt lat="47.29032" lon="-2.31002">
        <ele>9.1999998092651</ele>
        <time>2021-01-07T10:32:11.000Z</time>
      </trkpt>
      <trkpt lat="47.29032" lon="-2.31009">
        <ele>9.6000003814697</ele>
        <time>2021-01-07T10:32:12.000Z</time>
      </trkpt>
      <trkpt lat="47.29032" lon="-2.31031">
        <ele>10</ele>
        <time>2021-01-07T10:32:15.000Z</time>
      </trkpt>
      <trkpt lat="47.29032" lon="-2.31039">
        <ele>10.39999961853</ele>
        <time>2021-01-07T10:32:16.000Z</time>
      </trkpt>
      <trkpt lat="47.29031" lon="-2.31047">
        <ele>10.800000190735</ele>
        <time>2021-01-07T10:32:17.000Z</time>
      </trkpt>
      <trkpt lat="47.29032" lon="-2.31054">
        <ele>11.800000190735</ele>
        <time>2021-01-07T10:32:18.000Z</time>
      </trkpt>
      <trkpt lat="47.29034" lon="-2.311">
        <ele>12.199999809265</ele>
        <time>2021-01-07T10:32:24.000Z</time>
      </trkpt>
      <trkpt lat="47.29035" lon="-2.31108">
        <ele>12.60000038147</ele>
        <time>2021-01-07T10:32:25.000Z</time>
      </trkpt>
      <trkpt lat="47.29036" lon="-2.31116">
        <ele>13</ele>
        <time>2021-01-07T10:32:26.000Z</time>
      </trkpt>
      <trkpt lat="47.29036" lon="-2.31125">
        <ele>13.39999961853</ele>
        <time>2021-01-07T10:32:27.000Z</time>
      </trkpt>
      <trkpt lat="47.29037" lon="-2.31132">
        <ele>14</ele>
        <time>2021-01-07T10:32:28.000Z</time>
      </trkpt>
      <trkpt lat="47.2904" lon="-2.31158">
        <ele>14</ele>
        <time>2021-01-07T10:32:31.000Z</time>
      </trkpt>
      <trkpt lat="47.29043" lon="-2.31213">
        <ele>14.39999961853</ele>
        <time>2021-01-07T10:32:37.000Z</time>
      </trkpt>
      <trkpt lat="47.29042" lon="-2.31222">
        <ele>14.800000190735</ele>
        <time>2021-01-07T10:32:38.000Z</time>
      </trkpt>
      <trkpt lat="47.2904" lon="-2.31232">
        <ele>15.199999809265</ele>
        <time>2021-01-07T10:32:39.000Z</time>
      </trkpt>
      <trkpt lat="47.29037" lon="-2.31241">
        <ele>15.60000038147</ele>
        <time>2021-01-07T10:32:40.000Z</time>
      </trkpt>
      <trkpt lat="47.29033" lon="-2.3125">
        <ele>16</ele>
        <time>2021-01-07T10:32:41.000Z</time>
      </trkpt>
      <trkpt lat="47.29029" lon="-2.31258">
        <ele>16</ele>
        <time>2021-01-07T10:32:42.000Z</time>
      </trkpt>
      <trkpt lat="47.2901" lon="-2.31301">
        <ele>16</ele>
        <time>2021-01-07T10:32:47.000Z</time>
      </trkpt>
      <trkpt lat="47.28986" lon="-2.31347">
        <ele>16</ele>
        <time>2021-01-07T10:32:53.000Z</time>
      </trkpt>
      <trkpt lat="47.28971" lon="-2.31368">
        <ele>16.39999961853</ele>
        <time>2021-01-07T10:32:56.000Z</time>
      </trkpt>
      <trkpt lat="47.28966" lon="-2.31374">
        <ele>16.799999237061</ele>
        <time>2021-01-07T10:32:57.000Z</time>
      </trkpt>
      <trkpt lat="47.28961" lon="-2.31379">
        <ele>17.200000762939</ele>
        <time>2021-01-07T10:32:58.000Z</time>
      </trkpt>
      <trkpt lat="47.28955" lon="-2.31385">
        <ele>17.799999237061</ele>
        <time>2021-01-07T10:32:59.000Z</time>
      </trkpt>
      <trkpt lat="47.28949" lon="-2.31389">
        <ele>18.200000762939</ele>
        <time>2021-01-07T10:33:00.000Z</time>
      </trkpt>
      <trkpt lat="47.28927" lon="-2.31393">
        <ele>18.200000762939</ele>
        <time>2021-01-07T10:33:03.000Z</time>
      </trkpt>
      <trkpt lat="47.2892" lon="-2.31393">
        <ele>18.200000762939</ele>
        <time>2021-01-07T10:33:04.000Z</time>
      </trkpt>
      <trkpt lat="47.28885" lon="-2.31395">
        <ele>18.200000762939</ele>
        <time>2021-01-07T10:33:09.000Z</time>
      </trkpt>
      <trkpt lat="47.28878" lon="-2.31396">
        <ele>18.200000762939</ele>
        <time>2021-01-07T10:33:10.000Z</time>
      </trkpt>
      <trkpt lat="47.28839" lon="-2.31415">
        <ele>18.200000762939</ele>
        <time>2021-01-07T10:33:16.000Z</time>
      </trkpt>
      <trkpt lat="47.28802" lon="-2.31438">
        <ele>18.200000762939</ele>
        <time>2021-01-07T10:33:22.000Z</time>
      </trkpt>
      <trkpt lat="47.28757" lon="-2.31467">
        <ele>18.200000762939</ele>
        <time>2021-01-07T10:33:29.000Z</time>
      </trkpt>
      <trkpt lat="47.28718" lon="-2.31489">
        <ele>18.200000762939</ele>
        <time>2021-01-07T10:33:35.000Z</time>
      </trkpt>
      <trkpt lat="47.28699" lon="-2.31496">
        <ele>18.200000762939</ele>
        <time>2021-01-07T10:33:38.000Z</time>
      </trkpt>
      <trkpt lat="47.28692" lon="-2.31496">
        <ele>18.60000038147</ele>
        <time>2021-01-07T10:33:39.000Z</time>
      </trkpt>
      <trkpt lat="47.28685" lon="-2.31494">
        <ele>19</ele>
        <time>2021-01-07T10:33:40.000Z</time>
      </trkpt>
      <trkpt lat="47.28679" lon="-2.31489">
        <ele>19.39999961853</ele>
        <time>2021-01-07T10:33:41.000Z</time>
      </trkpt>
      <trkpt lat="47.28675" lon="-2.31483">
        <ele>19.799999237061</ele>
        <time>2021-01-07T10:33:42.000Z</time>
      </trkpt>
      <trkpt lat="47.28672" lon="-2.31476">
        <ele>20.200000762939</ele>
        <time>2021-01-07T10:33:43.000Z</time>
      </trkpt>
      <trkpt lat="47.28669" lon="-2.31461">
        <ele>20.200000762939</ele>
        <time>2021-01-07T10:33:46.000Z</time>
      </trkpt>
      <trkpt lat="47.28667" lon="-2.31458">
        <ele>20.200000762939</ele>
        <time>2021-01-07T10:33:47.000Z</time>
      </trkpt>
      <trkpt lat="47.28661" lon="-2.31455">
        <ele>20.200000762939</ele>
        <time>2021-01-07T10:33:49.000Z</time>
      </trkpt>
      <trkpt lat="47.28654" lon="-2.31459">
        <ele>20.200000762939</ele>
        <time>2021-01-07T10:33:52.000Z</time>
      </trkpt>
      <trkpt lat="47.28651" lon="-2.31461">
        <ele>20.200000762939</ele>
        <time>2021-01-07T10:33:53.000Z</time>
      </trkpt>
      <trkpt lat="47.28627" lon="-2.31473">
        <ele>20.200000762939</ele>
        <time>2021-01-07T10:34:01.000Z</time>
      </trkpt>
      <trkpt lat="47.28609" lon="-2.31482">
        <ele>20.200000762939</ele>
        <time>2021-01-07T10:34:07.000Z</time>
      </trkpt>
      <trkpt lat="47.28592" lon="-2.31487">
        <ele>20.200000762939</ele>
        <time>2021-01-07T10:34:12.000Z</time>
      </trkpt>
      <trkpt lat="47.28559" lon="-2.31499">
        <ele>20.200000762939</ele>
        <time>2021-01-07T10:34:20.000Z</time>
      </trkpt>
      <trkpt lat="47.28526" lon="-2.31507">
        <ele>20.200000762939</ele>
        <time>2021-01-07T10:34:27.000Z</time>
      </trkpt>
      <trkpt lat="47.2849" lon="-2.31513">
        <ele>19.799999237061</ele>
        <time>2021-01-07T10:34:34.000Z</time>
      </trkpt>
      <trkpt lat="47.28484" lon="-2.31513">
        <ele>19.39999961853</ele>
        <time>2021-01-07T10:34:35.000Z</time>
      </trkpt>
      <trkpt lat="47.28479" lon="-2.31515">
        <ele>19</ele>
        <time>2021-01-07T10:34:36.000Z</time>
      </trkpt>
      <trkpt lat="47.28474" lon="-2.31516">
        <ele>18.60000038147</ele>
        <time>2021-01-07T10:34:37.000Z</time>
      </trkpt>
      <trkpt lat="47.28469" lon="-2.31517">
        <ele>18.200000762939</ele>
        <time>2021-01-07T10:34:38.000Z</time>
      </trkpt>
      <trkpt lat="47.28455" lon="-2.31523">
        <ele>18.200000762939</ele>
        <time>2021-01-07T10:34:41.000Z</time>
      </trkpt>
      <trkpt lat="47.28447" lon="-2.3153">
        <ele>18.200000762939</ele>
        <time>2021-01-07T10:34:43.000Z</time>
      </trkpt>
      <trkpt lat="47.28434" lon="-2.31543">
        <ele>18.200000762939</ele>
        <time>2021-01-07T10:34:46.000Z</time>
      </trkpt>
      <trkpt lat="47.28418" lon="-2.31559">
        <ele>18.200000762939</ele>
        <time>2021-01-07T10:34:50.000Z</time>
      </trkpt>
      <trkpt lat="47.28409" lon="-2.31564">
        <ele>18.200000762939</ele>
        <time>2021-01-07T10:34:52.000Z</time>
      </trkpt>
      <trkpt lat="47.284" lon="-2.31568">
        <ele>18.200000762939</ele>
        <time>2021-01-07T10:34:54.000Z</time>
      </trkpt>
      <trkpt lat="47.2838" lon="-2.31575">
        <ele>18.200000762939</ele>
        <time>2021-01-07T10:34:58.000Z</time>
      </trkpt>
      <trkpt lat="47.28342" lon="-2.31589">
        <ele>18.200000762939</ele>
        <time>2021-01-07T10:35:07.000Z</time>
      </trkpt>
      <trkpt lat="47.28329" lon="-2.31596">
        <ele>18.200000762939</ele>
        <time>2021-01-07T10:35:12.000Z</time>
      </trkpt>
      <trkpt lat="47.28327" lon="-2.31596">
        <ele>18.200000762939</ele>
        <time>2021-01-07T10:35:14.000Z</time>
      </trkpt>
      <trkpt lat="47.28328" lon="-2.31597">
        <ele>18.200000762939</ele>
        <time>2021-01-07T10:35:15.000Z</time>
      </trkpt>
      <trkpt lat="47.28326" lon="-2.31598">
        <ele>16</ele>
        <time>2021-01-07T10:36:05.000Z</time>
      </trkpt>
      <trkpt lat="47.28317" lon="-2.31596">
        <ele>16</ele>
        <time>2021-01-07T10:36:09.000Z</time>
      </trkpt>
      <trkpt lat="47.28299" lon="-2.31594">
        <ele>16</ele>
        <time>2021-01-07T10:36:14.000Z</time>
      </trkpt>
      <trkpt lat="47.28295" lon="-2.31595">
        <ele>16</ele>
        <time>2021-01-07T10:36:15.000Z</time>
      </trkpt>
      <trkpt lat="47.2827" lon="-2.31602">
        <ele>16</ele>
        <time>2021-01-07T10:36:20.000Z</time>
      </trkpt>
      <trkpt lat="47.28239" lon="-2.31612">
        <ele>16</ele>
        <time>2021-01-07T10:36:26.000Z</time>
      </trkpt>
      <trkpt lat="47.28199" lon="-2.31621">
        <ele>16</ele>
        <time>2021-01-07T10:36:33.000Z</time>
      </trkpt>
      <trkpt lat="47.28187" lon="-2.31622">
        <ele>16</ele>
        <time>2021-01-07T10:36:35.000Z</time>
      </trkpt>
      <trkpt lat="47.28163" lon="-2.31626">
        <ele>16</ele>
        <time>2021-01-07T10:36:39.000Z</time>
      </trkpt>
      <trkpt lat="47.28111" lon="-2.3163">
        <ele>16</ele>
        <time>2021-01-07T10:36:47.000Z</time>
      </trkpt>
      <trkpt lat="47.28093" lon="-2.3163">
        <ele>15.60000038147</ele>
        <time>2021-01-07T10:36:50.000Z</time>
      </trkpt>
      <trkpt lat="47.28087" lon="-2.31629">
        <ele>15.199999809265</ele>
        <time>2021-01-07T10:36:51.000Z</time>
      </trkpt>
      <trkpt lat="47.28081" lon="-2.31629">
        <ele>14.800000190735</ele>
        <time>2021-01-07T10:36:52.000Z</time>
      </trkpt>
      <trkpt lat="47.28075" lon="-2.31628">
        <ele>14.39999961853</ele>
        <time>2021-01-07T10:36:53.000Z</time>
      </trkpt>
      <trkpt lat="47.28069" lon="-2.31628">
        <ele>14</ele>
        <time>2021-01-07T10:36:54.000Z</time>
      </trkpt>
      <trkpt lat="47.28044" lon="-2.31631">
        <ele>14</ele>
        <time>2021-01-07T10:36:58.000Z</time>
      </trkpt>
      <trkpt lat="47.28037" lon="-2.31634">
        <ele>14</ele>
        <time>2021-01-07T10:36:59.000Z</time>
      </trkpt>
      <trkpt lat="47.27995" lon="-2.31653">
        <ele>14</ele>
        <time>2021-01-07T10:37:06.000Z</time>
      </trkpt>
      <trkpt lat="47.27958" lon="-2.31676">
        <ele>14</ele>
        <time>2021-01-07T10:37:13.000Z</time>
      </trkpt>
      <trkpt lat="47.27926" lon="-2.31702">
        <ele>14</ele>
        <time>2021-01-07T10:37:20.000Z</time>
      </trkpt>
      <trkpt lat="47.279" lon="-2.31724">
        <ele>14.39999961853</ele>
        <time>2021-01-07T10:37:26.000Z</time>
      </trkpt>
      <trkpt lat="47.27895" lon="-2.31727">
        <ele>14.800000190735</ele>
        <time>2021-01-07T10:37:27.000Z</time>
      </trkpt>
      <trkpt lat="47.27891" lon="-2.3173">
        <ele>15.39999961853</ele>
        <time>2021-01-07T10:37:28.000Z</time>
      </trkpt>
      <trkpt lat="47.27886" lon="-2.31733">
        <ele>15.800000190735</ele>
        <time>2021-01-07T10:37:29.000Z</time>
      </trkpt>
      <trkpt lat="47.27882" lon="-2.31737">
        <ele>16.200000762939</ele>
        <time>2021-01-07T10:37:30.000Z</time>
      </trkpt>
      <trkpt lat="47.27874" lon="-2.31748">
        <ele>16.200000762939</ele>
        <time>2021-01-07T10:37:32.000Z</time>
      </trkpt>
      <trkpt lat="47.27871" lon="-2.3177">
        <ele>16.200000762939</ele>
        <time>2021-01-07T10:37:35.000Z</time>
      </trkpt>
      <trkpt lat="47.27872" lon="-2.31785">
        <ele>16.200000762939</ele>
        <time>2021-01-07T10:37:37.000Z</time>
      </trkpt>
      <trkpt lat="47.27874" lon="-2.31814">
        <ele>16.200000762939</ele>
        <time>2021-01-07T10:37:41.000Z</time>
      </trkpt>
      <trkpt lat="47.2788" lon="-2.31861">
        <ele>16.200000762939</ele>
        <time>2021-01-07T10:37:48.000Z</time>
      </trkpt>
      <trkpt lat="47.27885" lon="-2.31882">
        <ele>16.200000762939</ele>
        <time>2021-01-07T10:37:53.000Z</time>
      </trkpt>
      <trkpt lat="47.27889" lon="-2.31885">
        <ele>16.200000762939</ele>
        <time>2021-01-07T10:37:55.000Z</time>
      </trkpt>
      <trkpt lat="47.27895" lon="-2.31889">
        <ele>16.200000762939</ele>
        <time>2021-01-07T10:37:57.000Z</time>
      </trkpt>
      <trkpt lat="47.27909" lon="-2.319">
        <ele>16.200000762939</ele>
        <time>2021-01-07T10:38:01.000Z</time>
      </trkpt>
      <trkpt lat="47.27916" lon="-2.31905">
        <ele>16.200000762939</ele>
        <time>2021-01-07T10:38:03.000Z</time>
      </trkpt>
      <trkpt lat="47.27947" lon="-2.31924">
        <ele>16.200000762939</ele>
        <time>2021-01-07T10:38:10.000Z</time>
      </trkpt>
      <trkpt lat="47.27973" lon="-2.31951">
        <ele>16.200000762939</ele>
        <time>2021-01-07T10:38:16.000Z</time>
      </trkpt>
      <trkpt lat="47.28004" lon="-2.31984">
        <ele>16.200000762939</ele>
        <time>2021-01-07T10:38:23.000Z</time>
      </trkpt>
      <trkpt lat="47.28032" lon="-2.32025">
        <ele>16.200000762939</ele>
        <time>2021-01-07T10:38:30.000Z</time>
      </trkpt>
      <trkpt lat="47.28056" lon="-2.32081">
        <ele>16.200000762939</ele>
        <time>2021-01-07T10:38:37.000Z</time>
      </trkpt>
      <trkpt lat="47.28079" lon="-2.32126">
        <ele>16.200000762939</ele>
        <time>2021-01-07T10:38:43.000Z</time>
      </trkpt>
      <trkpt lat="47.28082" lon="-2.32133">
        <ele>16.200000762939</ele>
        <time>2021-01-07T10:38:44.000Z</time>
      </trkpt>
      <trkpt lat="47.28083" lon="-2.3214">
        <ele>15.800000190735</ele>
        <time>2021-01-07T10:38:45.000Z</time>
      </trkpt>
      <trkpt lat="47.28082" lon="-2.32147">
        <ele>15.39999961853</ele>
        <time>2021-01-07T10:38:46.000Z</time>
      </trkpt>
      <trkpt lat="47.2808" lon="-2.32154">
        <ele>15</ele>
        <time>2021-01-07T10:38:47.000Z</time>
      </trkpt>
      <trkpt lat="47.28076" lon="-2.32161">
        <ele>14.39999961853</ele>
        <time>2021-01-07T10:38:48.000Z</time>
      </trkpt>
      <trkpt lat="47.28072" lon="-2.32168">
        <ele>14</ele>
        <time>2021-01-07T10:38:49.000Z</time>
      </trkpt>
      <trkpt lat="47.28069" lon="-2.32175">
        <ele>14</ele>
        <time>2021-01-07T10:38:50.000Z</time>
      </trkpt>
      <trkpt lat="47.28065" lon="-2.32181">
        <ele>14</ele>
        <time>2021-01-07T10:38:51.000Z</time>
      </trkpt>
      <trkpt lat="47.28034" lon="-2.32235">
        <ele>14</ele>
        <time>2021-01-07T10:38:59.000Z</time>
      </trkpt>
      <trkpt lat="47.28005" lon="-2.32282">
        <ele>14</ele>
        <time>2021-01-07T10:39:06.000Z</time>
      </trkpt>
      <trkpt lat="47.27977" lon="-2.32324">
        <ele>14</ele>
        <time>2021-01-07T10:39:12.000Z</time>
      </trkpt>
      <trkpt lat="47.27965" lon="-2.32347">
        <ele>14</ele>
        <time>2021-01-07T10:39:15.000Z</time>
      </trkpt>
      <trkpt lat="47.2796" lon="-2.32363">
        <ele>14</ele>
        <time>2021-01-07T10:39:17.000Z</time>
      </trkpt>
      <trkpt lat="47.27958" lon="-2.32396">
        <ele>13.60000038147</ele>
        <time>2021-01-07T10:39:21.000Z</time>
      </trkpt>
      <trkpt lat="47.2796" lon="-2.32404">
        <ele>13.199999809265</ele>
        <time>2021-01-07T10:39:22.000Z</time>
      </trkpt>
      <trkpt lat="47.27964" lon="-2.32411">
        <ele>12.800000190735</ele>
        <time>2021-01-07T10:39:23.000Z</time>
      </trkpt>
      <trkpt lat="47.27969" lon="-2.32414">
        <ele>12.39999961853</ele>
        <time>2021-01-07T10:39:24.000Z</time>
      </trkpt>
      <trkpt lat="47.27976" lon="-2.32416">
        <ele>12</ele>
        <time>2021-01-07T10:39:25.000Z</time>
      </trkpt>
      <trkpt lat="47.27987" lon="-2.32419">
        <ele>12</ele>
        <time>2021-01-07T10:39:27.000Z</time>
      </trkpt>
      <trkpt lat="47.27993" lon="-2.32421">
        <ele>12</ele>
        <time>2021-01-07T10:39:28.000Z</time>
      </trkpt>
      <trkpt lat="47.28024" lon="-2.3243">
        <ele>12</ele>
        <time>2021-01-07T10:39:33.000Z</time>
      </trkpt>
      <trkpt lat="47.28066" lon="-2.32432">
        <ele>12</ele>
        <time>2021-01-07T10:39:40.000Z</time>
      </trkpt>
      <trkpt lat="47.28083" lon="-2.32432">
        <ele>12</ele>
        <time>2021-01-07T10:39:43.000Z</time>
      </trkpt>
      <trkpt lat="47.28092" lon="-2.32435">
        <ele>12</ele>
        <time>2021-01-07T10:39:45.000Z</time>
      </trkpt>
      <trkpt lat="47.28096" lon="-2.32438">
        <ele>12</ele>
        <time>2021-01-07T10:39:46.000Z</time>
      </trkpt>
      <trkpt lat="47.28115" lon="-2.32451">
        <ele>12</ele>
        <time>2021-01-07T10:39:51.000Z</time>
      </trkpt>
      <trkpt lat="47.28129" lon="-2.32455">
        <ele>12</ele>
        <time>2021-01-07T10:39:54.000Z</time>
      </trkpt>
      <trkpt lat="47.28138" lon="-2.32454">
        <ele>12</ele>
        <time>2021-01-07T10:39:56.000Z</time>
      </trkpt>
      <trkpt lat="47.28148" lon="-2.32452">
        <ele>12</ele>
        <time>2021-01-07T10:39:58.000Z</time>
      </trkpt>
      <trkpt lat="47.28164" lon="-2.3245">
        <ele>12</ele>
        <time>2021-01-07T10:40:01.000Z</time>
      </trkpt>
      <trkpt lat="47.28187" lon="-2.32454">
        <ele>12</ele>
        <time>2021-01-07T10:40:05.000Z</time>
      </trkpt>
      <trkpt lat="47.28193" lon="-2.32455">
        <ele>12</ele>
        <time>2021-01-07T10:40:06.000Z</time>
      </trkpt>
      <trkpt lat="47.28204" lon="-2.32459">
        <ele>11.60000038147</ele>
        <time>2021-01-07T10:40:08.000Z</time>
      </trkpt>
      <trkpt lat="47.28211" lon="-2.32461">
        <ele>11.199999809265</ele>
        <time>2021-01-07T10:40:09.000Z</time>
      </trkpt>
      <trkpt lat="47.28217" lon="-2.32465">
        <ele>10.800000190735</ele>
        <time>2021-01-07T10:40:10.000Z</time>
      </trkpt>
      <trkpt lat="47.28223" lon="-2.3247">
        <ele>10.39999961853</ele>
        <time>2021-01-07T10:40:11.000Z</time>
      </trkpt>
      <trkpt lat="47.28229" lon="-2.32473">
        <ele>10</ele>
        <time>2021-01-07T10:40:12.000Z</time>
      </trkpt>
      <trkpt lat="47.28247" lon="-2.32494">
        <ele>10</ele>
        <time>2021-01-07T10:40:16.000Z</time>
      </trkpt>
      <trkpt lat="47.28266" lon="-2.32516">
        <ele>10</ele>
        <time>2021-01-07T10:40:20.000Z</time>
      </trkpt>
      <trkpt lat="47.28277" lon="-2.3252">
        <ele>10</ele>
        <time>2021-01-07T10:40:22.000Z</time>
      </trkpt>
      <trkpt lat="47.28288" lon="-2.3252">
        <ele>10</ele>
        <time>2021-01-07T10:40:24.000Z</time>
      </trkpt>
      <trkpt lat="47.28303" lon="-2.3252">
        <ele>10</ele>
        <time>2021-01-07T10:40:27.000Z</time>
      </trkpt>
      <trkpt lat="47.28309" lon="-2.32521">
        <ele>10</ele>
        <time>2021-01-07T10:40:28.000Z</time>
      </trkpt>
      <trkpt lat="47.28331" lon="-2.3252">
        <ele>10</ele>
        <time>2021-01-07T10:40:32.000Z</time>
      </trkpt>
      <trkpt lat="47.2835" lon="-2.32521">
        <ele>10</ele>
        <time>2021-01-07T10:40:37.000Z</time>
      </trkpt>
      <trkpt lat="47.28358" lon="-2.3253">
        <ele>10</ele>
        <time>2021-01-07T10:40:41.000Z</time>
      </trkpt>
      <trkpt lat="47.28359" lon="-2.32533">
        <ele>10</ele>
        <time>2021-01-07T10:40:42.000Z</time>
      </trkpt>
      <trkpt lat="47.28359" lon="-2.32547">
        <ele>10</ele>
        <time>2021-01-07T10:40:45.000Z</time>
      </trkpt>
      <trkpt lat="47.28361" lon="-2.32572">
        <ele>10</ele>
        <time>2021-01-07T10:40:51.000Z</time>
      </trkpt>
      <trkpt lat="47.28364" lon="-2.32576">
        <ele>10</ele>
        <time>2021-01-07T10:40:53.000Z</time>
      </trkpt>
      <trkpt lat="47.28368" lon="-2.32575">
        <ele>10</ele>
        <time>2021-01-07T10:40:55.000Z</time>
      </trkpt>
      <trkpt lat="47.28381" lon="-2.32575">
        <ele>10</ele>
        <time>2021-01-07T10:41:00.000Z</time>
      </trkpt>
      <trkpt lat="47.2839" lon="-2.32579">
        <ele>10</ele>
        <time>2021-01-07T10:41:03.000Z</time>
      </trkpt>
      <trkpt lat="47.28399" lon="-2.32591">
        <ele>10</ele>
        <time>2021-01-07T10:41:07.000Z</time>
      </trkpt>
      <trkpt lat="47.28402" lon="-2.32597">
        <ele>10</ele>
        <time>2021-01-07T10:41:09.000Z</time>
      </trkpt>
      <trkpt lat="47.28409" lon="-2.32613">
        <ele>10</ele>
        <time>2021-01-07T10:41:13.000Z</time>
      </trkpt>
      <trkpt lat="47.2841" lon="-2.32633">
        <ele>10</ele>
        <time>2021-01-07T10:41:16.000Z</time>
      </trkpt>
      <trkpt lat="47.2841" lon="-2.32641">
        <ele>10</ele>
        <time>2021-01-07T10:41:17.000Z</time>
      </trkpt>
      <trkpt lat="47.28398" lon="-2.32679">
        <ele>10</ele>
        <time>2021-01-07T10:41:21.000Z</time>
      </trkpt>
      <trkpt lat="47.2838" lon="-2.32749">
        <ele>10</ele>
        <time>2021-01-07T10:41:29.000Z</time>
      </trkpt>
      <trkpt lat="47.28375" lon="-2.32773">
        <ele>9.6000003814697</ele>
        <time>2021-01-07T10:41:32.000Z</time>
      </trkpt>
      <trkpt lat="47.28373" lon="-2.32781">
        <ele>9.1999998092651</ele>
        <time>2021-01-07T10:41:33.000Z</time>
      </trkpt>
      <trkpt lat="47.28372" lon="-2.32789">
        <ele>8.8000001907349</ele>
        <time>2021-01-07T10:41:34.000Z</time>
      </trkpt>
      <trkpt lat="47.28371" lon="-2.32797">
        <ele>8.1999998092651</ele>
        <time>2021-01-07T10:41:35.000Z</time>
      </trkpt>
      <trkpt lat="47.28369" lon="-2.32806">
        <ele>7.8000001907349</ele>
        <time>2021-01-07T10:41:36.000Z</time>
      </trkpt>
      <trkpt lat="47.28368" lon="-2.32815">
        <ele>7.8000001907349</ele>
        <time>2021-01-07T10:41:37.000Z</time>
      </trkpt>
      <trkpt lat="47.28367" lon="-2.32834">
        <ele>7.8000001907349</ele>
        <time>2021-01-07T10:41:39.000Z</time>
      </trkpt>
      <trkpt lat="47.28367" lon="-2.32861">
        <ele>7.8000001907349</ele>
        <time>2021-01-07T10:41:42.000Z</time>
      </trkpt>
      <trkpt lat="47.28367" lon="-2.32889">
        <ele>7.8000001907349</ele>
        <time>2021-01-07T10:41:47.000Z</time>
      </trkpt>
      <trkpt lat="47.28363" lon="-2.32921">
        <ele>7.8000001907349</ele>
        <time>2021-01-07T10:41:53.000Z</time>
      </trkpt>
      <trkpt lat="47.2836" lon="-2.32927">
        <ele>7.8000001907349</ele>
        <time>2021-01-07T10:41:54.000Z</time>
      </trkpt>
      <trkpt lat="47.28345" lon="-2.32945">
        <ele>7.8000001907349</ele>
        <time>2021-01-07T10:41:57.000Z</time>
      </trkpt>
      <trkpt lat="47.28339" lon="-2.32951">
        <ele>7.8000001907349</ele>
        <time>2021-01-07T10:41:58.000Z</time>
      </trkpt>
      <trkpt lat="47.28312" lon="-2.32974">
        <ele>7.8000001907349</ele>
        <time>2021-01-07T10:42:03.000Z</time>
      </trkpt>
      <trkpt lat="47.28279" lon="-2.33005">
        <ele>7.8000001907349</ele>
        <time>2021-01-07T10:42:10.000Z</time>
      </trkpt>
      <trkpt lat="47.28242" lon="-2.33034">
        <ele>7.8000001907349</ele>
        <time>2021-01-07T10:42:17.000Z</time>
      </trkpt>
      <trkpt lat="47.28233" lon="-2.33042">
        <ele>7.8000001907349</ele>
        <time>2021-01-07T10:42:19.000Z</time>
      </trkpt>
      <trkpt lat="47.2822" lon="-2.33059">
        <ele>7.8000001907349</ele>
        <time>2021-01-07T10:42:22.000Z</time>
      </trkpt>
      <trkpt lat="47.28201" lon="-2.33098">
        <ele>7.8000001907349</ele>
        <time>2021-01-07T10:42:28.000Z</time>
      </trkpt>
      <trkpt lat="47.28197" lon="-2.33113">
        <ele>7.8000001907349</ele>
        <time>2021-01-07T10:42:30.000Z</time>
      </trkpt>
      <trkpt lat="47.28193" lon="-2.33138">
        <ele>7.8000001907349</ele>
        <time>2021-01-07T10:42:33.000Z</time>
      </trkpt>
      <trkpt lat="47.28194" lon="-2.33146">
        <ele>7.8000001907349</ele>
        <time>2021-01-07T10:42:34.000Z</time>
      </trkpt>
      <trkpt lat="47.28194" lon="-2.33179">
        <ele>7.8000001907349</ele>
        <time>2021-01-07T10:42:38.000Z</time>
      </trkpt>
      <trkpt lat="47.28192" lon="-2.33214">
        <ele>7.8000001907349</ele>
        <time>2021-01-07T10:42:42.000Z</time>
      </trkpt>
      <trkpt lat="47.28189" lon="-2.33239">
        <ele>7.8000001907349</ele>
        <time>2021-01-07T10:42:45.000Z</time>
      </trkpt>
      <trkpt lat="47.28178" lon="-2.33304">
        <ele>7.8000001907349</ele>
        <time>2021-01-07T10:42:53.000Z</time>
      </trkpt>
      <trkpt lat="47.2816" lon="-2.33347">
        <ele>7.8000001907349</ele>
        <time>2021-01-07T10:42:59.000Z</time>
      </trkpt>
      <trkpt lat="47.28157" lon="-2.33354">
        <ele>7.8000001907349</ele>
        <time>2021-01-07T10:43:00.000Z</time>
      </trkpt>
      <trkpt lat="47.28154" lon="-2.33361">
        <ele>8.3999996185303</ele>
        <time>2021-01-07T10:43:01.000Z</time>
      </trkpt>
      <trkpt lat="47.28151" lon="-2.33367">
        <ele>8.8000001907349</ele>
        <time>2021-01-07T10:43:02.000Z</time>
      </trkpt>
      <trkpt lat="47.28147" lon="-2.33374">
        <ele>9.1999998092651</ele>
        <time>2021-01-07T10:43:03.000Z</time>
      </trkpt>
      <trkpt lat="47.28144" lon="-2.3338">
        <ele>9.6000003814697</ele>
        <time>2021-01-07T10:43:04.000Z</time>
      </trkpt>
      <trkpt lat="47.28141" lon="-2.33388">
        <ele>10</ele>
        <time>2021-01-07T10:43:05.000Z</time>
      </trkpt>
      <trkpt lat="47.28138" lon="-2.33394">
        <ele>10</ele>
        <time>2021-01-07T10:43:06.000Z</time>
      </trkpt>
      <trkpt lat="47.28112" lon="-2.3345">
        <ele>10</ele>
        <time>2021-01-07T10:43:14.000Z</time>
      </trkpt>
      <trkpt lat="47.28087" lon="-2.335">
        <ele>10</ele>
        <time>2021-01-07T10:43:22.000Z</time>
      </trkpt>
      <trkpt lat="47.28078" lon="-2.33516">
        <ele>10</ele>
        <time>2021-01-07T10:43:25.000Z</time>
      </trkpt>
      <trkpt lat="47.28076" lon="-2.33522">
        <ele>10.39999961853</ele>
        <time>2021-01-07T10:43:26.000Z</time>
      </trkpt>
      <trkpt lat="47.28075" lon="-2.33529">
        <ele>10.800000190735</ele>
        <time>2021-01-07T10:43:27.000Z</time>
      </trkpt>
      <trkpt lat="47.28075" lon="-2.33535">
        <ele>11.199999809265</ele>
        <time>2021-01-07T10:43:28.000Z</time>
      </trkpt>
      <trkpt lat="47.28076" lon="-2.33541">
        <ele>11.60000038147</ele>
        <time>2021-01-07T10:43:29.000Z</time>
      </trkpt>
      <trkpt lat="47.28077" lon="-2.33548">
        <ele>12</ele>
        <time>2021-01-07T10:43:30.000Z</time>
      </trkpt>
      <trkpt lat="47.28079" lon="-2.33559">
        <ele>12</ele>
        <time>2021-01-07T10:43:32.000Z</time>
      </trkpt>
      <trkpt lat="47.28085" lon="-2.33587">
        <ele>12</ele>
        <time>2021-01-07T10:43:36.000Z</time>
      </trkpt>
      <trkpt lat="47.28091" lon="-2.33621">
        <ele>12</ele>
        <time>2021-01-07T10:43:41.000Z</time>
      </trkpt>
      <trkpt lat="47.28091" lon="-2.33627">
        <ele>12</ele>
        <time>2021-01-07T10:43:42.000Z</time>
      </trkpt>
      <trkpt lat="47.28096" lon="-2.33651">
        <ele>12</ele>
        <time>2021-01-07T10:43:47.000Z</time>
      </trkpt>
      <trkpt lat="47.28112" lon="-2.33679">
        <ele>12</ele>
        <time>2021-01-07T10:43:53.000Z</time>
      </trkpt>
      <trkpt lat="47.28123" lon="-2.33693">
        <ele>12</ele>
        <time>2021-01-07T10:43:56.000Z</time>
      </trkpt>
      <trkpt lat="47.28131" lon="-2.33705">
        <ele>12</ele>
        <time>2021-01-07T10:43:58.000Z</time>
      </trkpt>
      <trkpt lat="47.28141" lon="-2.33725">
        <ele>12.39999961853</ele>
        <time>2021-01-07T10:44:01.000Z</time>
      </trkpt>
      <trkpt lat="47.28145" lon="-2.33731">
        <ele>12.800000190735</ele>
        <time>2021-01-07T10:44:02.000Z</time>
      </trkpt>
      <trkpt lat="47.28149" lon="-2.33737">
        <ele>13.199999809265</ele>
        <time>2021-01-07T10:44:03.000Z</time>
      </trkpt>
      <trkpt lat="47.28153" lon="-2.33742">
        <ele>13.60000038147</ele>
        <time>2021-01-07T10:44:04.000Z</time>
      </trkpt>
      <trkpt lat="47.28158" lon="-2.33748">
        <ele>14.199999809265</ele>
        <time>2021-01-07T10:44:05.000Z</time>
      </trkpt>
      <trkpt lat="47.28186" lon="-2.33778">
        <ele>14.199999809265</ele>
        <time>2021-01-07T10:44:11.000Z</time>
      </trkpt>
      <trkpt lat="47.28201" lon="-2.33791">
        <ele>14.199999809265</ele>
        <time>2021-01-07T10:44:14.000Z</time>
      </trkpt>
      <trkpt lat="47.28213" lon="-2.33797">
        <ele>14.199999809265</ele>
        <time>2021-01-07T10:44:16.000Z</time>
      </trkpt>
      <trkpt lat="47.28226" lon="-2.33801">
        <ele>14.199999809265</ele>
        <time>2021-01-07T10:44:18.000Z</time>
      </trkpt>
      <trkpt lat="47.28232" lon="-2.33803">
        <ele>14.199999809265</ele>
        <time>2021-01-07T10:44:19.000Z</time>
      </trkpt>
      <trkpt lat="47.28248" lon="-2.33812">
        <ele>14.199999809265</ele>
        <time>2021-01-07T10:44:22.000Z</time>
      </trkpt>
      <trkpt lat="47.28257" lon="-2.33821">
        <ele>14.199999809265</ele>
        <time>2021-01-07T10:44:24.000Z</time>
      </trkpt>
      <trkpt lat="47.28265" lon="-2.33832">
        <ele>14.199999809265</ele>
        <time>2021-01-07T10:44:26.000Z</time>
      </trkpt>
      <trkpt lat="47.28271" lon="-2.33846">
        <ele>14.199999809265</ele>
        <time>2021-01-07T10:44:28.000Z</time>
      </trkpt>
      <trkpt lat="47.28274" lon="-2.33854">
        <ele>14.60000038147</ele>
        <time>2021-01-07T10:44:29.000Z</time>
      </trkpt>
      <trkpt lat="47.28277" lon="-2.33861">
        <ele>15</ele>
        <time>2021-01-07T10:44:30.000Z</time>
      </trkpt>
      <trkpt lat="47.2828" lon="-2.33869">
        <ele>15.39999961853</ele>
        <time>2021-01-07T10:44:31.000Z</time>
      </trkpt>
      <trkpt lat="47.28283" lon="-2.33876">
        <ele>15.800000190735</ele>
        <time>2021-01-07T10:44:32.000Z</time>
      </trkpt>
      <trkpt lat="47.28286" lon="-2.33884">
        <ele>16.200000762939</ele>
        <time>2021-01-07T10:44:33.000Z</time>
      </trkpt>
      <trkpt lat="47.28299" lon="-2.33919">
        <ele>16.200000762939</ele>
        <time>2021-01-07T10:44:38.000Z</time>
      </trkpt>
      <trkpt lat="47.28302" lon="-2.33925">
        <ele>16.200000762939</ele>
        <time>2021-01-07T10:44:39.000Z</time>
      </trkpt>
      <trkpt lat="47.28312" lon="-2.33931">
        <ele>16.200000762939</ele>
        <time>2021-01-07T10:44:42.000Z</time>
      </trkpt>
      <trkpt lat="47.28325" lon="-2.33921">
        <ele>16.200000762939</ele>
        <time>2021-01-07T10:44:45.000Z</time>
      </trkpt>
      <trkpt lat="47.2833" lon="-2.33917">
        <ele>16.200000762939</ele>
        <time>2021-01-07T10:44:46.000Z</time>
      </trkpt>
      <trkpt lat="47.28352" lon="-2.33897">
        <ele>16.60000038147</ele>
        <time>2021-01-07T10:44:51.000Z</time>
      </trkpt>
      <trkpt lat="47.28357" lon="-2.33892">
        <ele>17</ele>
        <time>2021-01-07T10:44:52.000Z</time>
      </trkpt>
      <trkpt lat="47.28361" lon="-2.33888">
        <ele>17.39999961853</ele>
        <time>2021-01-07T10:44:53.000Z</time>
      </trkpt>
      <trkpt lat="47.28365" lon="-2.33883">
        <ele>17.799999237061</ele>
        <time>2021-01-07T10:44:54.000Z</time>
      </trkpt>
      <trkpt lat="47.28369" lon="-2.33879">
        <ele>18.200000762939</ele>
        <time>2021-01-07T10:44:55.000Z</time>
      </trkpt>
      <trkpt lat="47.28398" lon="-2.33855">
        <ele>18.200000762939</ele>
        <time>2021-01-07T10:45:01.000Z</time>
      </trkpt>
      <trkpt lat="47.28411" lon="-2.33841">
        <ele>19.200000762939</ele>
        <time>2021-01-07T10:45:04.000Z</time>
      </trkpt>
      <trkpt lat="47.28415" lon="-2.33836">
        <ele>19.60000038147</ele>
        <time>2021-01-07T10:45:05.000Z</time>
      </trkpt>
      <trkpt lat="47.2842" lon="-2.33832">
        <ele>20</ele>
        <time>2021-01-07T10:45:06.000Z</time>
      </trkpt>
      <trkpt lat="47.28425" lon="-2.33827">
        <ele>20.39999961853</ele>
        <time>2021-01-07T10:45:07.000Z</time>
      </trkpt>
      <trkpt lat="47.28434" lon="-2.33818">
        <ele>20.39999961853</ele>
        <time>2021-01-07T10:45:09.000Z</time>
      </trkpt>
      <trkpt lat="47.2847" lon="-2.33778">
        <ele>20.39999961853</ele>
        <time>2021-01-07T10:45:17.000Z</time>
      </trkpt>
      <trkpt lat="47.28502" lon="-2.33742">
        <ele>20.39999961853</ele>
        <time>2021-01-07T10:45:24.000Z</time>
      </trkpt>
      <trkpt lat="47.28507" lon="-2.33738">
        <ele>20.39999961853</ele>
        <time>2021-01-07T10:45:25.000Z</time>
      </trkpt>
      <trkpt lat="47.28528" lon="-2.33732">
        <ele>20.39999961853</ele>
        <time>2021-01-07T10:45:29.000Z</time>
      </trkpt>
      <trkpt lat="47.28577" lon="-2.33732">
        <ele>20.39999961853</ele>
        <time>2021-01-07T10:45:38.000Z</time>
      </trkpt>
      <trkpt lat="47.28588" lon="-2.33732">
        <ele>20.39999961853</ele>
        <time>2021-01-07T10:45:40.000Z</time>
      </trkpt>
      <trkpt lat="47.28605" lon="-2.33727">
        <ele>20.39999961853</ele>
        <time>2021-01-07T10:45:43.000Z</time>
      </trkpt>
      <trkpt lat="47.28644" lon="-2.33711">
        <ele>20.39999961853</ele>
        <time>2021-01-07T10:45:50.000Z</time>
      </trkpt>
      <trkpt lat="47.28692" lon="-2.33692">
        <ele>20.39999961853</ele>
        <time>2021-01-07T10:45:59.000Z</time>
      </trkpt>
      <trkpt lat="47.28703" lon="-2.3369">
        <ele>20.39999961853</ele>
        <time>2021-01-07T10:46:01.000Z</time>
      </trkpt>
      <trkpt lat="47.28719" lon="-2.33695">
        <ele>20.39999961853</ele>
        <time>2021-01-07T10:46:04.000Z</time>
      </trkpt>
      <trkpt lat="47.28739" lon="-2.33713">
        <ele>20.39999961853</ele>
        <time>2021-01-07T10:46:08.000Z</time>
      </trkpt>
      <trkpt lat="47.28755" lon="-2.33748">
        <ele>20.39999961853</ele>
        <time>2021-01-07T10:46:13.000Z</time>
      </trkpt>
      <trkpt lat="47.28759" lon="-2.33775">
        <ele>20.39999961853</ele>
        <time>2021-01-07T10:46:16.000Z</time>
      </trkpt>
      <trkpt lat="47.28762" lon="-2.33802">
        <ele>20.39999961853</ele>
        <time>2021-01-07T10:46:19.000Z</time>
      </trkpt>
      <trkpt lat="47.28772" lon="-2.33854">
        <ele>20.39999961853</ele>
        <time>2021-01-07T10:46:25.000Z</time>
      </trkpt>
      <trkpt lat="47.28775" lon="-2.33862">
        <ele>20.39999961853</ele>
        <time>2021-01-07T10:46:26.000Z</time>
      </trkpt>
      <trkpt lat="47.28778" lon="-2.3387">
        <ele>20.799999237061</ele>
        <time>2021-01-07T10:46:27.000Z</time>
      </trkpt>
      <trkpt lat="47.28781" lon="-2.33877">
        <ele>21.200000762939</ele>
        <time>2021-01-07T10:46:28.000Z</time>
      </trkpt>
      <trkpt lat="47.28785" lon="-2.33884">
        <ele>21.799999237061</ele>
        <time>2021-01-07T10:46:29.000Z</time>
      </trkpt>
      <trkpt lat="47.28788" lon="-2.33891">
        <ele>22.200000762939</ele>
        <time>2021-01-07T10:46:30.000Z</time>
      </trkpt>
      <trkpt lat="47.28791" lon="-2.33899">
        <ele>22.60000038147</ele>
        <time>2021-01-07T10:46:31.000Z</time>
      </trkpt>
      <trkpt lat="47.28807" lon="-2.33936">
        <ele>22.60000038147</ele>
        <time>2021-01-07T10:46:36.000Z</time>
      </trkpt>
      <trkpt lat="47.28812" lon="-2.33952">
        <ele>22.60000038147</ele>
        <time>2021-01-07T10:46:38.000Z</time>
      </trkpt>
      <trkpt lat="47.28831" lon="-2.34017">
        <ele>22.60000038147</ele>
        <time>2021-01-07T10:46:46.000Z</time>
      </trkpt>
      <trkpt lat="47.28838" lon="-2.3404">
        <ele>23</ele>
        <time>2021-01-07T10:46:49.000Z</time>
      </trkpt>
      <trkpt lat="47.28839" lon="-2.34048">
        <ele>23.39999961853</ele>
        <time>2021-01-07T10:46:50.000Z</time>
      </trkpt>
      <trkpt lat="47.2884" lon="-2.34056">
        <ele>23.799999237061</ele>
        <time>2021-01-07T10:46:51.000Z</time>
      </trkpt>
      <trkpt lat="47.28842" lon="-2.34064">
        <ele>24.200000762939</ele>
        <time>2021-01-07T10:46:52.000Z</time>
      </trkpt>
      <trkpt lat="47.28844" lon="-2.34073">
        <ele>24.60000038147</ele>
        <time>2021-01-07T10:46:53.000Z</time>
      </trkpt>
      <trkpt lat="47.28856" lon="-2.34143">
        <ele>24.60000038147</ele>
        <time>2021-01-07T10:47:01.000Z</time>
      </trkpt>
      <trkpt lat="47.28867" lon="-2.34227">
        <ele>24.60000038147</ele>
        <time>2021-01-07T10:47:10.000Z</time>
      </trkpt>
      <trkpt lat="47.28879" lon="-2.34303">
        <ele>24.60000038147</ele>
        <time>2021-01-07T10:47:18.000Z</time>
      </trkpt>
      <trkpt lat="47.28896" lon="-2.34388">
        <ele>24.60000038147</ele>
        <time>2021-01-07T10:47:27.000Z</time>
      </trkpt>
      <trkpt lat="47.28899" lon="-2.34406">
        <ele>24.60000038147</ele>
        <time>2021-01-07T10:47:29.000Z</time>
      </trkpt>
      <trkpt lat="47.28913" lon="-2.3448">
        <ele>24.60000038147</ele>
        <time>2021-01-07T10:47:37.000Z</time>
      </trkpt>
      <trkpt lat="47.28923" lon="-2.34546">
        <ele>24.60000038147</ele>
        <time>2021-01-07T10:47:44.000Z</time>
      </trkpt>
      <trkpt lat="47.28924" lon="-2.34555">
        <ele>24.60000038147</ele>
        <time>2021-01-07T10:47:45.000Z</time>
      </trkpt>
      <trkpt lat="47.28937" lon="-2.3462">
        <ele>24.60000038147</ele>
        <time>2021-01-07T10:47:52.000Z</time>
      </trkpt>
      <trkpt lat="47.28953" lon="-2.34695">
        <ele>24.60000038147</ele>
        <time>2021-01-07T10:48:00.000Z</time>
      </trkpt>
      <trkpt lat="47.28965" lon="-2.34771">
        <ele>24.60000038147</ele>
        <time>2021-01-07T10:48:08.000Z</time>
      </trkpt>
      <trkpt lat="47.28979" lon="-2.34849">
        <ele>24.60000038147</ele>
        <time>2021-01-07T10:48:17.000Z</time>
      </trkpt>
      <trkpt lat="47.28993" lon="-2.34927">
        <ele>24.60000038147</ele>
        <time>2021-01-07T10:48:26.000Z</time>
      </trkpt>
      <trkpt lat="47.28994" lon="-2.34935">
        <ele>24.60000038147</ele>
        <time>2021-01-07T10:48:27.000Z</time>
      </trkpt>
      <trkpt lat="47.29005" lon="-2.34988">
        <ele>24.60000038147</ele>
        <time>2021-01-07T10:48:33.000Z</time>
      </trkpt>
      <trkpt lat="47.29021" lon="-2.35057">
        <ele>24.60000038147</ele>
        <time>2021-01-07T10:48:41.000Z</time>
      </trkpt>
      <trkpt lat="47.29031" lon="-2.35122">
        <ele>24.60000038147</ele>
        <time>2021-01-07T10:48:48.000Z</time>
      </trkpt>
      <trkpt lat="47.29042" lon="-2.3519">
        <ele>24.60000038147</ele>
        <time>2021-01-07T10:48:56.000Z</time>
      </trkpt>
      <trkpt lat="47.29041" lon="-2.35198">
        <ele>24.60000038147</ele>
        <time>2021-01-07T10:48:57.000Z</time>
      </trkpt>
      <trkpt lat="47.29037" lon="-2.35214">
        <ele>24.60000038147</ele>
        <time>2021-01-07T10:48:59.000Z</time>
      </trkpt>
      <trkpt lat="47.29038" lon="-2.3524">
        <ele>24.60000038147</ele>
        <time>2021-01-07T10:49:02.000Z</time>
      </trkpt>
      <trkpt lat="47.29044" lon="-2.35256">
        <ele>25</ele>
        <time>2021-01-07T10:49:04.000Z</time>
      </trkpt>
      <trkpt lat="47.29048" lon="-2.35263">
        <ele>25.39999961853</ele>
        <time>2021-01-07T10:49:05.000Z</time>
      </trkpt>
      <trkpt lat="47.29053" lon="-2.35269">
        <ele>25.799999237061</ele>
        <time>2021-01-07T10:49:06.000Z</time>
      </trkpt>
      <trkpt lat="47.29056" lon="-2.35276">
        <ele>26.200000762939</ele>
        <time>2021-01-07T10:49:07.000Z</time>
      </trkpt>
      <trkpt lat="47.29059" lon="-2.35284">
        <ele>26.60000038147</ele>
        <time>2021-01-07T10:49:08.000Z</time>
      </trkpt>
      <trkpt lat="47.2906" lon="-2.35292">
        <ele>26.60000038147</ele>
        <time>2021-01-07T10:49:09.000Z</time>
      </trkpt>
      <trkpt lat="47.29076" lon="-2.35376">
        <ele>26.60000038147</ele>
        <time>2021-01-07T10:49:19.000Z</time>
      </trkpt>
      <trkpt lat="47.29085" lon="-2.35418">
        <ele>26.60000038147</ele>
        <time>2021-01-07T10:49:25.000Z</time>
      </trkpt>
      <trkpt lat="47.29086" lon="-2.35436">
        <ele>26.60000038147</ele>
        <time>2021-01-07T10:49:28.000Z</time>
      </trkpt>
      <trkpt lat="47.29085" lon="-2.35442">
        <ele>27</ele>
        <time>2021-01-07T10:49:29.000Z</time>
      </trkpt>
      <trkpt lat="47.29083" lon="-2.35448">
        <ele>27.39999961853</ele>
        <time>2021-01-07T10:49:30.000Z</time>
      </trkpt>
      <trkpt lat="47.2908" lon="-2.35454">
        <ele>27.799999237061</ele>
        <time>2021-01-07T10:49:31.000Z</time>
      </trkpt>
      <trkpt lat="47.29076" lon="-2.3546">
        <ele>28.200000762939</ele>
        <time>2021-01-07T10:49:32.000Z</time>
      </trkpt>
      <trkpt lat="47.29072" lon="-2.35466">
        <ele>28.799999237061</ele>
        <time>2021-01-07T10:49:33.000Z</time>
      </trkpt>
      <trkpt lat="47.29068" lon="-2.35473">
        <ele>28.799999237061</ele>
        <time>2021-01-07T10:49:34.000Z</time>
      </trkpt>
      <trkpt lat="47.29044" lon="-2.35513">
        <ele>28.799999237061</ele>
        <time>2021-01-07T10:49:40.000Z</time>
      </trkpt>
      <trkpt lat="47.29041" lon="-2.35522">
        <ele>28.799999237061</ele>
        <time>2021-01-07T10:49:41.000Z</time>
      </trkpt>
      <trkpt lat="47.29042" lon="-2.35539">
        <ele>28.799999237061</ele>
        <time>2021-01-07T10:49:43.000Z</time>
      </trkpt>
      <trkpt lat="47.29047" lon="-2.35555">
        <ele>28.799999237061</ele>
        <time>2021-01-07T10:49:45.000Z</time>
      </trkpt>
      <trkpt lat="47.29056" lon="-2.35579">
        <ele>28.799999237061</ele>
        <time>2021-01-07T10:49:48.000Z</time>
      </trkpt>
      <trkpt lat="47.29076" lon="-2.35627">
        <ele>28.799999237061</ele>
        <time>2021-01-07T10:49:55.000Z</time>
      </trkpt>
      <trkpt lat="47.29086" lon="-2.35651">
        <ele>28.799999237061</ele>
        <time>2021-01-07T10:50:00.000Z</time>
      </trkpt>
      <trkpt lat="47.2909" lon="-2.35663">
        <ele>28.799999237061</ele>
        <time>2021-01-07T10:50:05.000Z</time>
      </trkpt>
      <trkpt lat="47.29093" lon="-2.35681">
        <ele>28.799999237061</ele>
        <time>2021-01-07T10:50:09.000Z</time>
      </trkpt>
      <trkpt lat="47.29093" lon="-2.35693">
        <ele>28.799999237061</ele>
        <time>2021-01-07T10:50:11.000Z</time>
      </trkpt>
      <trkpt lat="47.29099" lon="-2.35714">
        <ele>28.799999237061</ele>
        <time>2021-01-07T10:50:14.000Z</time>
      </trkpt>
      <trkpt lat="47.29102" lon="-2.3572">
        <ele>28.799999237061</ele>
        <time>2021-01-07T10:50:15.000Z</time>
      </trkpt>
      <trkpt lat="47.29118" lon="-2.3576">
        <ele>28.799999237061</ele>
        <time>2021-01-07T10:50:21.000Z</time>
      </trkpt>
      <trkpt lat="47.29134" lon="-2.35802">
        <ele>28.799999237061</ele>
        <time>2021-01-07T10:50:28.000Z</time>
      </trkpt>
      <trkpt lat="47.29142" lon="-2.35823">
        <ele>28.799999237061</ele>
        <time>2021-01-07T10:50:32.000Z</time>
      </trkpt>
      <trkpt lat="47.29144" lon="-2.35827">
        <ele>28.799999237061</ele>
        <time>2021-01-07T10:50:33.000Z</time>
      </trkpt>
      <trkpt lat="47.29144" lon="-2.35831">
        <ele>28.799999237061</ele>
        <time>2021-01-07T10:50:34.000Z</time>
      </trkpt>
      <trkpt lat="47.29143" lon="-2.35839">
        <ele>28.799999237061</ele>
        <time>2021-01-07T10:50:36.000Z</time>
      </trkpt>
      <trkpt lat="47.29132" lon="-2.35852">
        <ele>28.799999237061</ele>
        <time>2021-01-07T10:50:41.000Z</time>
      </trkpt>
      <trkpt lat="47.29113" lon="-2.35873">
        <ele>28.799999237061</ele>
        <time>2021-01-07T10:50:48.000Z</time>
      </trkpt>
      <trkpt lat="47.2909" lon="-2.35902">
        <ele>28.799999237061</ele>
        <time>2021-01-07T10:50:55.000Z</time>
      </trkpt>
      <trkpt lat="47.2906" lon="-2.3594">
        <ele>28.799999237061</ele>
        <time>2021-01-07T10:51:03.000Z</time>
      </trkpt>
      <trkpt lat="47.29029" lon="-2.35975">
        <ele>28.799999237061</ele>
        <time>2021-01-07T10:51:10.000Z</time>
      </trkpt>
      <trkpt lat="47.28997" lon="-2.36007">
        <ele>28.799999237061</ele>
        <time>2021-01-07T10:51:17.000Z</time>
      </trkpt>
      <trkpt lat="47.2896" lon="-2.36044">
        <ele>28.799999237061</ele>
        <time>2021-01-07T10:51:25.000Z</time>
      </trkpt>
      <trkpt lat="47.28927" lon="-2.36065">
        <ele>28.799999237061</ele>
        <time>2021-01-07T10:51:31.000Z</time>
      </trkpt>
      <trkpt lat="47.28895" lon="-2.3609">
        <ele>28.799999237061</ele>
        <time>2021-01-07T10:51:37.000Z</time>
      </trkpt>
      <trkpt lat="47.28871" lon="-2.36113">
        <ele>28.799999237061</ele>
        <time>2021-01-07T10:51:42.000Z</time>
      </trkpt>
      <trkpt lat="47.28838" lon="-2.36152">
        <ele>28.799999237061</ele>
        <time>2021-01-07T10:51:49.000Z</time>
      </trkpt>
      <trkpt lat="47.28816" lon="-2.36181">
        <ele>28.799999237061</ele>
        <time>2021-01-07T10:51:54.000Z</time>
      </trkpt>
      <trkpt lat="47.28812" lon="-2.36185">
        <ele>28.799999237061</ele>
        <time>2021-01-07T10:51:55.000Z</time>
      </trkpt>
      <trkpt lat="47.28785" lon="-2.36203">
        <ele>28.799999237061</ele>
        <time>2021-01-07T10:52:01.000Z</time>
      </trkpt>
      <trkpt lat="47.28757" lon="-2.36221">
        <ele>28.799999237061</ele>
        <time>2021-01-07T10:52:08.000Z</time>
      </trkpt>
      <trkpt lat="47.28742" lon="-2.36231">
        <ele>28.799999237061</ele>
        <time>2021-01-07T10:52:13.000Z</time>
      </trkpt>
      <trkpt lat="47.2873" lon="-2.36246">
        <ele>29.200000762939</ele>
        <time>2021-01-07T10:52:18.000Z</time>
      </trkpt>
      <trkpt lat="47.28728" lon="-2.36249">
        <ele>29.60000038147</ele>
        <time>2021-01-07T10:52:19.000Z</time>
      </trkpt>
      <trkpt lat="47.28726" lon="-2.36253">
        <ele>30</ele>
        <time>2021-01-07T10:52:20.000Z</time>
      </trkpt>
      <trkpt lat="47.28725" lon="-2.36256">
        <ele>30.39999961853</ele>
        <time>2021-01-07T10:52:21.000Z</time>
      </trkpt>
      <trkpt lat="47.28723" lon="-2.36259">
        <ele>30.799999237061</ele>
        <time>2021-01-07T10:52:22.000Z</time>
      </trkpt>
      <trkpt lat="47.28717" lon="-2.36265">
        <ele>30.799999237061</ele>
        <time>2021-01-07T10:52:25.000Z</time>
      </trkpt>
      <trkpt lat="47.28708" lon="-2.36272">
        <ele>31.60000038147</ele>
        <time>2021-01-07T10:52:30.000Z</time>
      </trkpt>
      <trkpt lat="47.28706" lon="-2.36274">
        <ele>32</ele>
        <time>2021-01-07T10:52:31.000Z</time>
      </trkpt>
      <trkpt lat="47.28704" lon="-2.36276">
        <ele>32.400001525879</ele>
        <time>2021-01-07T10:52:32.000Z</time>
      </trkpt>
      <trkpt lat="47.28702" lon="-2.36277">
        <ele>32.799999237061</ele>
        <time>2021-01-07T10:52:33.000Z</time>
      </trkpt>
      <trkpt lat="47.28689" lon="-2.36282">
        <ele>32.799999237061</ele>
        <time>2021-01-07T10:52:38.000Z</time>
      </trkpt>
      <trkpt lat="47.28674" lon="-2.36282">
        <ele>32.799999237061</ele>
        <time>2021-01-07T10:52:43.000Z</time>
      </trkpt>
      <trkpt lat="47.28651" lon="-2.36279">
        <ele>32.799999237061</ele>
        <time>2021-01-07T10:52:49.000Z</time>
      </trkpt>
      <trkpt lat="47.28636" lon="-2.36285">
        <ele>32.799999237061</ele>
        <time>2021-01-07T10:52:53.000Z</time>
      </trkpt>
      <trkpt lat="47.28624" lon="-2.36294">
        <ele>32.799999237061</ele>
        <time>2021-01-07T10:52:57.000Z</time>
      </trkpt>
      <trkpt lat="47.2861" lon="-2.36306">
        <ele>32.799999237061</ele>
        <time>2021-01-07T10:53:02.000Z</time>
      </trkpt>
      <trkpt lat="47.28604" lon="-2.36316">
        <ele>33.200000762939</ele>
        <time>2021-01-07T10:53:05.000Z</time>
      </trkpt>
      <trkpt lat="47.28602" lon="-2.36319">
        <ele>33.599998474121</ele>
        <time>2021-01-07T10:53:06.000Z</time>
      </trkpt>
      <trkpt lat="47.28601" lon="-2.36322">
        <ele>34</ele>
        <time>2021-01-07T10:53:07.000Z</time>
      </trkpt>
      <trkpt lat="47.28598" lon="-2.36325">
        <ele>34.400001525879</ele>
        <time>2021-01-07T10:53:08.000Z</time>
      </trkpt>
      <trkpt lat="47.28596" lon="-2.36328">
        <ele>34.799999237061</ele>
        <time>2021-01-07T10:53:09.000Z</time>
      </trkpt>
      <trkpt lat="47.28585" lon="-2.36341">
        <ele>34.799999237061</ele>
        <time>2021-01-07T10:53:14.000Z</time>
      </trkpt>
      <trkpt lat="47.28575" lon="-2.3635">
        <ele>35.200000762939</ele>
        <time>2021-01-07T10:53:18.000Z</time>
      </trkpt>
      <trkpt lat="47.28573" lon="-2.36351">
        <ele>36.200000762939</ele>
        <time>2021-01-07T10:53:19.000Z</time>
      </trkpt>
      <trkpt lat="47.2857" lon="-2.36352">
        <ele>36.599998474121</ele>
        <time>2021-01-07T10:53:20.000Z</time>
      </trkpt>
      <trkpt lat="47.28568" lon="-2.36354">
        <ele>37</ele>
        <time>2021-01-07T10:53:21.000Z</time>
      </trkpt>
      <trkpt lat="47.28561" lon="-2.36364">
        <ele>37</ele>
        <time>2021-01-07T10:53:24.000Z</time>
      </trkpt>
      <trkpt lat="47.28559" lon="-2.36372">
        <ele>37.400001525879</ele>
        <time>2021-01-07T10:53:26.000Z</time>
      </trkpt>
      <trkpt lat="47.28558" lon="-2.36376">
        <ele>37.799999237061</ele>
        <time>2021-01-07T10:53:27.000Z</time>
      </trkpt>
      <trkpt lat="47.28558" lon="-2.36379">
        <ele>38.200000762939</ele>
        <time>2021-01-07T10:53:28.000Z</time>
      </trkpt>
      <trkpt lat="47.28557" lon="-2.36382">
        <ele>38.599998474121</ele>
        <time>2021-01-07T10:53:29.000Z</time>
      </trkpt>
      <trkpt lat="47.28556" lon="-2.36384">
        <ele>39</ele>
        <time>2021-01-07T10:53:30.000Z</time>
      </trkpt>
      <trkpt lat="47.28553" lon="-2.36396">
        <ele>39</ele>
        <time>2021-01-07T10:53:34.000Z</time>
      </trkpt>
      <trkpt lat="47.28553" lon="-2.364">
        <ele>39</ele>
        <time>2021-01-07T10:53:35.000Z</time>
      </trkpt>
      <trkpt lat="47.28555" lon="-2.36425">
        <ele>39</ele>
        <time>2021-01-07T10:53:40.000Z</time>
      </trkpt>
      <trkpt lat="47.28559" lon="-2.36446">
        <ele>39</ele>
        <time>2021-01-07T10:53:46.000Z</time>
      </trkpt>
      <trkpt lat="47.28564" lon="-2.36462">
        <ele>39</ele>
        <time>2021-01-07T10:53:49.000Z</time>
      </trkpt>
      <trkpt lat="47.28567" lon="-2.36468">
        <ele>39</ele>
        <time>2021-01-07T10:53:50.000Z</time>
      </trkpt>
      <trkpt lat="47.28576" lon="-2.36481">
        <ele>39</ele>
        <time>2021-01-07T10:53:53.000Z</time>
      </trkpt>
      <trkpt lat="47.28578" lon="-2.36486">
        <ele>39</ele>
        <time>2021-01-07T10:53:54.000Z</time>
      </trkpt>
      <trkpt lat="47.28587" lon="-2.365">
        <ele>38.599998474121</ele>
        <time>2021-01-07T10:53:57.000Z</time>
      </trkpt>
      <trkpt lat="47.28591" lon="-2.36505">
        <ele>38</ele>
        <time>2021-01-07T10:53:58.000Z</time>
      </trkpt>
      <trkpt lat="47.28596" lon="-2.36513">
        <ele>37.400001525879</ele>
        <time>2021-01-07T10:53:59.000Z</time>
      </trkpt>
      <trkpt lat="47.28601" lon="-2.36522">
        <ele>36.799999237061</ele>
        <time>2021-01-07T10:54:00.000Z</time>
      </trkpt>
      <trkpt lat="47.28606" lon="-2.36532">
        <ele>36.200000762939</ele>
        <time>2021-01-07T10:54:01.000Z</time>
      </trkpt>
      <trkpt lat="47.28611" lon="-2.36542">
        <ele>35.599998474121</ele>
        <time>2021-01-07T10:54:02.000Z</time>
      </trkpt>
      <trkpt lat="47.28617" lon="-2.36551">
        <ele>35</ele>
        <time>2021-01-07T10:54:03.000Z</time>
      </trkpt>
      <trkpt lat="47.28622" lon="-2.3656">
        <ele>34.400001525879</ele>
        <time>2021-01-07T10:54:04.000Z</time>
      </trkpt>
      <trkpt lat="47.28627" lon="-2.36568">
        <ele>33.799999237061</ele>
        <time>2021-01-07T10:54:05.000Z</time>
      </trkpt>
      <trkpt lat="47.28631" lon="-2.36576">
        <ele>33.200000762939</ele>
        <time>2021-01-07T10:54:06.000Z</time>
      </trkpt>
      <trkpt lat="47.28634" lon="-2.36583">
        <ele>32.599998474121</ele>
        <time>2021-01-07T10:54:07.000Z</time>
      </trkpt>
      <trkpt lat="47.28638" lon="-2.36588">
        <ele>31.799999237061</ele>
        <time>2021-01-07T10:54:08.000Z</time>
      </trkpt>
      <trkpt lat="47.28645" lon="-2.36597">
        <ele>31.799999237061</ele>
        <time>2021-01-07T10:54:11.000Z</time>
      </trkpt>
      <trkpt lat="47.28644" lon="-2.36602">
        <ele>31.799999237061</ele>
        <time>2021-01-07T10:54:14.000Z</time>
      </trkpt>
      <trkpt lat="47.28642" lon="-2.36604">
        <ele>31.799999237061</ele>
        <time>2021-01-07T10:54:15.000Z</time>
      </trkpt>
      <trkpt lat="47.28627" lon="-2.36613">
        <ele>31.39999961853</ele>
        <time>2021-01-07T10:54:20.000Z</time>
      </trkpt>
      <trkpt lat="47.28623" lon="-2.36617">
        <ele>31</ele>
        <time>2021-01-07T10:54:21.000Z</time>
      </trkpt>
      <trkpt lat="47.2862" lon="-2.36619">
        <ele>30.39999961853</ele>
        <time>2021-01-07T10:54:22.000Z</time>
      </trkpt>
      <trkpt lat="47.28617" lon="-2.36621">
        <ele>30</ele>
        <time>2021-01-07T10:54:23.000Z</time>
      </trkpt>
      <trkpt lat="47.28614" lon="-2.36623">
        <ele>29.60000038147</ele>
        <time>2021-01-07T10:54:24.000Z</time>
      </trkpt>
      <trkpt lat="47.28611" lon="-2.36626">
        <ele>29</ele>
        <time>2021-01-07T10:54:25.000Z</time>
      </trkpt>
      <trkpt lat="47.28608" lon="-2.36629">
        <ele>28.60000038147</ele>
        <time>2021-01-07T10:54:26.000Z</time>
      </trkpt>
      <trkpt lat="47.28606" lon="-2.36631">
        <ele>28</ele>
        <time>2021-01-07T10:54:27.000Z</time>
      </trkpt>
      <trkpt lat="47.28605" lon="-2.36632">
        <ele>27.39999961853</ele>
        <time>2021-01-07T10:54:28.000Z</time>
      </trkpt>
      <trkpt lat="47.28604" lon="-2.36634">
        <ele>27</ele>
        <time>2021-01-07T10:54:29.000Z</time>
      </trkpt>
      <trkpt lat="47.28603" lon="-2.36635">
        <ele>26.39999961853</ele>
        <time>2021-01-07T10:54:30.000Z</time>
      </trkpt>
      <trkpt lat="47.28602" lon="-2.36636">
        <ele>26</ele>
        <time>2021-01-07T10:54:31.000Z</time>
      </trkpt>
      <trkpt lat="47.28601" lon="-2.36637">
        <ele>25.39999961853</ele>
        <time>2021-01-07T10:54:32.000Z</time>
      </trkpt>
      <trkpt lat="47.286" lon="-2.36638">
        <ele>25</ele>
        <time>2021-01-07T10:54:33.000Z</time>
      </trkpt>
      <trkpt lat="47.28588" lon="-2.3665">
        <ele>24.39999961853</ele>
        <time>2021-01-07T10:54:37.000Z</time>
      </trkpt>
      <trkpt lat="47.28582" lon="-2.36653">
        <ele>24</ele>
        <time>2021-01-07T10:54:38.000Z</time>
      </trkpt>
      <trkpt lat="47.28575" lon="-2.36654">
        <ele>23.60000038147</ele>
        <time>2021-01-07T10:54:39.000Z</time>
      </trkpt>
      <trkpt lat="47.28569" lon="-2.36655">
        <ele>23.200000762939</ele>
        <time>2021-01-07T10:54:40.000Z</time>
      </trkpt>
      <trkpt lat="47.28562" lon="-2.36656">
        <ele>22.799999237061</ele>
        <time>2021-01-07T10:54:41.000Z</time>
      </trkpt>
      <trkpt lat="47.2855" lon="-2.36657">
        <ele>22.799999237061</ele>
        <time>2021-01-07T10:54:43.000Z</time>
      </trkpt>
      <trkpt lat="47.28519" lon="-2.36661">
        <ele>22.799999237061</ele>
        <time>2021-01-07T10:54:48.000Z</time>
      </trkpt>
      <trkpt lat="47.28513" lon="-2.3666">
        <ele>22.799999237061</ele>
        <time>2021-01-07T10:54:49.000Z</time>
      </trkpt>
      <trkpt lat="47.28498" lon="-2.36647">
        <ele>22.799999237061</ele>
        <time>2021-01-07T10:54:53.000Z</time>
      </trkpt>
      <trkpt lat="47.28495" lon="-2.36641">
        <ele>22.799999237061</ele>
        <time>2021-01-07T10:54:54.000Z</time>
      </trkpt>
      <trkpt lat="47.28481" lon="-2.36615">
        <ele>22.799999237061</ele>
        <time>2021-01-07T10:54:58.000Z</time>
      </trkpt>
      <trkpt lat="47.28468" lon="-2.36579">
        <ele>22.799999237061</ele>
        <time>2021-01-07T10:55:03.000Z</time>
      </trkpt>
      <trkpt lat="47.28468" lon="-2.36572">
        <ele>22.799999237061</ele>
        <time>2021-01-07T10:55:04.000Z</time>
      </trkpt>
      <trkpt lat="47.28478" lon="-2.36553">
        <ele>22.799999237061</ele>
        <time>2021-01-07T10:55:07.000Z</time>
      </trkpt>
      <trkpt lat="47.28483" lon="-2.36547">
        <ele>22.799999237061</ele>
        <time>2021-01-07T10:55:08.000Z</time>
      </trkpt>
      <trkpt lat="47.28511" lon="-2.36516">
        <ele>22.799999237061</ele>
        <time>2021-01-07T10:55:15.000Z</time>
      </trkpt>
      <trkpt lat="47.28521" lon="-2.365">
        <ele>22.799999237061</ele>
        <time>2021-01-07T10:55:19.000Z</time>
      </trkpt>
      <trkpt lat="47.2852" lon="-2.36489">
        <ele>22.799999237061</ele>
        <time>2021-01-07T10:55:21.000Z</time>
      </trkpt>
      <trkpt lat="47.28519" lon="-2.36477">
        <ele>23.60000038147</ele>
        <time>2021-01-07T10:55:23.000Z</time>
      </trkpt>
      <trkpt lat="47.28519" lon="-2.36472">
        <ele>24</ele>
        <time>2021-01-07T10:55:24.000Z</time>
      </trkpt>
      <trkpt lat="47.28519" lon="-2.36467">
        <ele>24.39999961853</ele>
        <time>2021-01-07T10:55:25.000Z</time>
      </trkpt>
      <trkpt lat="47.28517" lon="-2.36462">
        <ele>24.799999237061</ele>
        <time>2021-01-07T10:55:26.000Z</time>
      </trkpt>
      <trkpt lat="47.28508" lon="-2.36449">
        <ele>24.799999237061</ele>
        <time>2021-01-07T10:55:29.000Z</time>
      </trkpt>
      <trkpt lat="47.28504" lon="-2.36446">
        <ele>24.799999237061</ele>
        <time>2021-01-07T10:55:30.000Z</time>
      </trkpt>
      <trkpt lat="47.28484" lon="-2.36431">
        <ele>24.799999237061</ele>
        <time>2021-01-07T10:55:35.000Z</time>
      </trkpt>
      <trkpt lat="47.28474" lon="-2.3642">
        <ele>25.200000762939</ele>
        <time>2021-01-07T10:55:39.000Z</time>
      </trkpt>
      <trkpt lat="47.28471" lon="-2.36416">
        <ele>25.60000038147</ele>
        <time>2021-01-07T10:55:40.000Z</time>
      </trkpt>
      <trkpt lat="47.28469" lon="-2.36413">
        <ele>26</ele>
        <time>2021-01-07T10:55:41.000Z</time>
      </trkpt>
      <trkpt lat="47.28465" lon="-2.3641">
        <ele>26.39999961853</ele>
        <time>2021-01-07T10:55:42.000Z</time>
      </trkpt>
      <trkpt lat="47.28462" lon="-2.36406">
        <ele>26.799999237061</ele>
        <time>2021-01-07T10:55:43.000Z</time>
      </trkpt>
      <trkpt lat="47.28458" lon="-2.36403">
        <ele>26.799999237061</ele>
        <time>2021-01-07T10:55:44.000Z</time>
      </trkpt>
      <trkpt lat="47.28455" lon="-2.364">
        <ele>26.799999237061</ele>
        <time>2021-01-07T10:55:45.000Z</time>
      </trkpt>
      <trkpt lat="47.2844" lon="-2.3639">
        <ele>26.799999237061</ele>
        <time>2021-01-07T10:55:48.000Z</time>
      </trkpt>
      <trkpt lat="47.28435" lon="-2.36388">
        <ele>26.799999237061</ele>
        <time>2021-01-07T10:55:49.000Z</time>
      </trkpt>
      <trkpt lat="47.28431" lon="-2.36385">
        <ele>26.39999961853</ele>
        <time>2021-01-07T10:55:50.000Z</time>
      </trkpt>
      <trkpt lat="47.28427" lon="-2.36382">
        <ele>26</ele>
        <time>2021-01-07T10:55:51.000Z</time>
      </trkpt>
      <trkpt lat="47.28423" lon="-2.36379">
        <ele>25.60000038147</ele>
        <time>2021-01-07T10:55:52.000Z</time>
      </trkpt>
      <trkpt lat="47.28419" lon="-2.36375">
        <ele>25.200000762939</ele>
        <time>2021-01-07T10:55:53.000Z</time>
      </trkpt>
      <trkpt lat="47.28415" lon="-2.3637">
        <ele>24.799999237061</ele>
        <time>2021-01-07T10:55:54.000Z</time>
      </trkpt>
      <trkpt lat="47.28412" lon="-2.36366">
        <ele>24.799999237061</ele>
        <time>2021-01-07T10:55:55.000Z</time>
      </trkpt>
      <trkpt lat="47.28399" lon="-2.36353">
        <ele>24.799999237061</ele>
        <time>2021-01-07T10:55:58.000Z</time>
      </trkpt>
      <trkpt lat="47.28388" lon="-2.36347">
        <ele>24.799999237061</ele>
        <time>2021-01-07T10:56:00.000Z</time>
      </trkpt>
      <trkpt lat="47.28377" lon="-2.36341">
        <ele>24.39999961853</ele>
        <time>2021-01-07T10:56:02.000Z</time>
      </trkpt>
      <trkpt lat="47.28373" lon="-2.36339">
        <ele>23.799999237061</ele>
        <time>2021-01-07T10:56:03.000Z</time>
      </trkpt>
      <trkpt lat="47.28369" lon="-2.36336">
        <ele>23.39999961853</ele>
        <time>2021-01-07T10:56:04.000Z</time>
      </trkpt>
      <trkpt lat="47.28366" lon="-2.36331">
        <ele>23</ele>
        <time>2021-01-07T10:56:05.000Z</time>
      </trkpt>
      <trkpt lat="47.28363" lon="-2.36327">
        <ele>22.60000038147</ele>
        <time>2021-01-07T10:56:06.000Z</time>
      </trkpt>
      <trkpt lat="47.28359" lon="-2.36308">
        <ele>22.60000038147</ele>
        <time>2021-01-07T10:56:09.000Z</time>
      </trkpt>
      <trkpt lat="47.28359" lon="-2.36298">
        <ele>22.200000762939</ele>
        <time>2021-01-07T10:56:11.000Z</time>
      </trkpt>
      <trkpt lat="47.2836" lon="-2.36292">
        <ele>21.39999961853</ele>
        <time>2021-01-07T10:56:12.000Z</time>
      </trkpt>
      <trkpt lat="47.28359" lon="-2.36286">
        <ele>21</ele>
        <time>2021-01-07T10:56:13.000Z</time>
      </trkpt>
      <trkpt lat="47.28358" lon="-2.36277">
        <ele>20.60000038147</ele>
        <time>2021-01-07T10:56:14.000Z</time>
      </trkpt>
      <trkpt lat="47.2835" lon="-2.36263">
        <ele>20.60000038147</ele>
        <time>2021-01-07T10:56:17.000Z</time>
      </trkpt>
      <trkpt lat="47.28342" lon="-2.36252">
        <ele>20.60000038147</ele>
        <time>2021-01-07T10:56:20.000Z</time>
      </trkpt>
      <trkpt lat="47.28313" lon="-2.36243">
        <ele>20.60000038147</ele>
        <time>2021-01-07T10:56:25.000Z</time>
      </trkpt>
      <trkpt lat="47.28305" lon="-2.36243">
        <ele>20</ele>
        <time>2021-01-07T10:56:26.000Z</time>
      </trkpt>
      <trkpt lat="47.28299" lon="-2.36243">
        <ele>19.60000038147</ele>
        <time>2021-01-07T10:56:27.000Z</time>
      </trkpt>
      <trkpt lat="47.28292" lon="-2.36241">
        <ele>19.200000762939</ele>
        <time>2021-01-07T10:56:28.000Z</time>
      </trkpt>
      <trkpt lat="47.28286" lon="-2.36237">
        <ele>18.799999237061</ele>
        <time>2021-01-07T10:56:29.000Z</time>
      </trkpt>
      <trkpt lat="47.28281" lon="-2.3623">
        <ele>18.200000762939</ele>
        <time>2021-01-07T10:56:30.000Z</time>
      </trkpt>
      <trkpt lat="47.28272" lon="-2.36217">
        <ele>18.200000762939</ele>
        <time>2021-01-07T10:56:32.000Z</time>
      </trkpt>
      <trkpt lat="47.28262" lon="-2.36194">
        <ele>18.200000762939</ele>
        <time>2021-01-07T10:56:35.000Z</time>
      </trkpt>
      <trkpt lat="47.28253" lon="-2.36173">
        <ele>18.200000762939</ele>
        <time>2021-01-07T10:56:38.000Z</time>
      </trkpt>
      <trkpt lat="47.28248" lon="-2.36161">
        <ele>18.200000762939</ele>
        <time>2021-01-07T10:56:40.000Z</time>
      </trkpt>
      <trkpt lat="47.28239" lon="-2.3614">
        <ele>18.200000762939</ele>
        <time>2021-01-07T10:56:45.000Z</time>
      </trkpt>
      <trkpt lat="47.28226" lon="-2.36116">
        <ele>18.200000762939</ele>
        <time>2021-01-07T10:56:52.000Z</time>
      </trkpt>
      <trkpt lat="47.28219" lon="-2.36096">
        <ele>18.200000762939</ele>
        <time>2021-01-07T10:56:55.000Z</time>
      </trkpt>
      <trkpt lat="47.28205" lon="-2.36052">
        <ele>18.200000762939</ele>
        <time>2021-01-07T10:57:01.000Z</time>
      </trkpt>
      <trkpt lat="47.2819" lon="-2.36017">
        <ele>18.200000762939</ele>
        <time>2021-01-07T10:57:06.000Z</time>
      </trkpt>
      <trkpt lat="47.28188" lon="-2.36009">
        <ele>18.200000762939</ele>
        <time>2021-01-07T10:57:07.000Z</time>
      </trkpt>
      <trkpt lat="47.28177" lon="-2.35979">
        <ele>18.200000762939</ele>
        <time>2021-01-07T10:57:12.000Z</time>
      </trkpt>
      <trkpt lat="47.28166" lon="-2.35956">
        <ele>18.200000762939</ele>
        <time>2021-01-07T10:57:17.000Z</time>
      </trkpt>
      <trkpt lat="47.28156" lon="-2.35938">
        <ele>18.200000762939</ele>
        <time>2021-01-07T10:57:22.000Z</time>
      </trkpt>
      <trkpt lat="47.28149" lon="-2.35927">
        <ele>19.200000762939</ele>
        <time>2021-01-07T10:57:26.000Z</time>
      </trkpt>
      <trkpt lat="47.28148" lon="-2.35924">
        <ele>19.60000038147</ele>
        <time>2021-01-07T10:57:27.000Z</time>
      </trkpt>
      <trkpt lat="47.28147" lon="-2.35921">
        <ele>20</ele>
        <time>2021-01-07T10:57:28.000Z</time>
      </trkpt>
      <trkpt lat="47.28145" lon="-2.35918">
        <ele>20.39999961853</ele>
        <time>2021-01-07T10:57:29.000Z</time>
      </trkpt>
      <trkpt lat="47.28134" lon="-2.359">
        <ele>20.39999961853</ele>
        <time>2021-01-07T10:57:34.000Z</time>
      </trkpt>
      <trkpt lat="47.28116" lon="-2.35868">
        <ele>20.39999961853</ele>
        <time>2021-01-07T10:57:40.000Z</time>
      </trkpt>
      <trkpt lat="47.28096" lon="-2.35839">
        <ele>20.39999961853</ele>
        <time>2021-01-07T10:57:46.000Z</time>
      </trkpt>
      <trkpt lat="47.28093" lon="-2.35833">
        <ele>20.39999961853</ele>
        <time>2021-01-07T10:57:47.000Z</time>
      </trkpt>
      <trkpt lat="47.28084" lon="-2.35806">
        <ele>20.39999961853</ele>
        <time>2021-01-07T10:57:51.000Z</time>
      </trkpt>
      <trkpt lat="47.28082" lon="-2.35789">
        <ele>20.39999961853</ele>
        <time>2021-01-07T10:57:54.000Z</time>
      </trkpt>
      <trkpt lat="47.28083" lon="-2.35784">
        <ele>20.39999961853</ele>
        <time>2021-01-07T10:57:55.000Z</time>
      </trkpt>
      <trkpt lat="47.28085" lon="-2.35773">
        <ele>20.799999237061</ele>
        <time>2021-01-07T10:57:57.000Z</time>
      </trkpt>
      <trkpt lat="47.28087" lon="-2.35766">
        <ele>21.200000762939</ele>
        <time>2021-01-07T10:57:58.000Z</time>
      </trkpt>
      <trkpt lat="47.28087" lon="-2.3576">
        <ele>21.60000038147</ele>
        <time>2021-01-07T10:57:59.000Z</time>
      </trkpt>
      <trkpt lat="47.28088" lon="-2.35753">
        <ele>22</ele>
        <time>2021-01-07T10:58:00.000Z</time>
      </trkpt>
      <trkpt lat="47.28089" lon="-2.35746">
        <ele>22.60000038147</ele>
        <time>2021-01-07T10:58:01.000Z</time>
      </trkpt>
      <trkpt lat="47.28092" lon="-2.35725">
        <ele>23</ele>
        <time>2021-01-07T10:58:04.000Z</time>
      </trkpt>
      <trkpt lat="47.28093" lon="-2.35721">
        <ele>23.39999961853</ele>
        <time>2021-01-07T10:58:05.000Z</time>
      </trkpt>
      <trkpt lat="47.28094" lon="-2.35716">
        <ele>23.799999237061</ele>
        <time>2021-01-07T10:58:06.000Z</time>
      </trkpt>
      <trkpt lat="47.28093" lon="-2.3571">
        <ele>24.200000762939</ele>
        <time>2021-01-07T10:58:07.000Z</time>
      </trkpt>
      <trkpt lat="47.28091" lon="-2.35705">
        <ele>24.60000038147</ele>
        <time>2021-01-07T10:58:08.000Z</time>
      </trkpt>
      <trkpt lat="47.28092" lon="-2.35685">
        <ele>24.60000038147</ele>
        <time>2021-01-07T10:58:11.000Z</time>
      </trkpt>
      <trkpt lat="47.28088" lon="-2.35668">
        <ele>24.60000038147</ele>
        <time>2021-01-07T10:58:13.000Z</time>
      </trkpt>
      <trkpt lat="47.28083" lon="-2.35648">
        <ele>24.200000762939</ele>
        <time>2021-01-07T10:58:16.000Z</time>
      </trkpt>
      <trkpt lat="47.28082" lon="-2.35642">
        <ele>23.799999237061</ele>
        <time>2021-01-07T10:58:17.000Z</time>
      </trkpt>
      <trkpt lat="47.2808" lon="-2.35636">
        <ele>23.39999961853</ele>
        <time>2021-01-07T10:58:18.000Z</time>
      </trkpt>
      <trkpt lat="47.28078" lon="-2.35631">
        <ele>22.799999237061</ele>
        <time>2021-01-07T10:58:19.000Z</time>
      </trkpt>
      <trkpt lat="47.28076" lon="-2.35627">
        <ele>22.200000762939</ele>
        <time>2021-01-07T10:58:20.000Z</time>
      </trkpt>
      <trkpt lat="47.28075" lon="-2.35623">
        <ele>21.60000038147</ele>
        <time>2021-01-07T10:58:21.000Z</time>
      </trkpt>
      <trkpt lat="47.28076" lon="-2.35619">
        <ele>21</ele>
        <time>2021-01-07T10:58:22.000Z</time>
      </trkpt>
      <trkpt lat="47.28077" lon="-2.35617">
        <ele>20.39999961853</ele>
        <time>2021-01-07T10:58:23.000Z</time>
      </trkpt>
      <trkpt lat="47.28078" lon="-2.35618">
        <ele>19.799999237061</ele>
        <time>2021-01-07T10:58:24.000Z</time>
      </trkpt>
      <trkpt lat="47.2808" lon="-2.35619">
        <ele>19.200000762939</ele>
        <time>2021-01-07T10:58:25.000Z</time>
      </trkpt>
      <trkpt lat="47.28081" lon="-2.3562">
        <ele>18.799999237061</ele>
        <time>2021-01-07T10:58:26.000Z</time>
      </trkpt>
      <trkpt lat="47.28081" lon="-2.35622">
        <ele>18.200000762939</ele>
        <time>2021-01-07T10:58:27.000Z</time>
      </trkpt>
      <trkpt lat="47.28081" lon="-2.35623">
        <ele>18.200000762939</ele>
        <time>2021-01-07T10:58:29.000Z</time>
      </trkpt>
      <trkpt lat="47.28084" lon="-2.35619">
        <ele>20.200000762939</ele>
        <time>2021-01-07T11:10:22.000Z</time>
      </trkpt>
      <trkpt lat="47.28078" lon="-2.3561">
        <ele>20.200000762939</ele>
        <time>2021-01-07T11:10:26.000Z</time>
      </trkpt>
      <trkpt lat="47.28072" lon="-2.35594">
        <ele>20.200000762939</ele>
        <time>2021-01-07T11:10:31.000Z</time>
      </trkpt>
      <trkpt lat="47.28054" lon="-2.35579">
        <ele>20.200000762939</ele>
        <time>2021-01-07T11:10:37.000Z</time>
      </trkpt>
      <trkpt lat="47.28031" lon="-2.35576">
        <ele>20.200000762939</ele>
        <time>2021-01-07T11:10:42.000Z</time>
      </trkpt>
      <trkpt lat="47.28026" lon="-2.35576">
        <ele>20.200000762939</ele>
        <time>2021-01-07T11:10:43.000Z</time>
      </trkpt>
      <trkpt lat="47.28022" lon="-2.35577">
        <ele>20.200000762939</ele>
        <time>2021-01-07T11:10:44.000Z</time>
      </trkpt>
      <trkpt lat="47.27999" lon="-2.35584">
        <ele>20.200000762939</ele>
        <time>2021-01-07T11:10:49.000Z</time>
      </trkpt>
      <trkpt lat="47.27994" lon="-2.35586">
        <ele>20.200000762939</ele>
        <time>2021-01-07T11:10:50.000Z</time>
      </trkpt>
      <trkpt lat="47.27984" lon="-2.35586">
        <ele>20.200000762939</ele>
        <time>2021-01-07T11:10:52.000Z</time>
      </trkpt>
      <trkpt lat="47.27976" lon="-2.35585">
        <ele>20.200000762939</ele>
        <time>2021-01-07T11:10:54.000Z</time>
      </trkpt>
      <trkpt lat="47.27956" lon="-2.35582">
        <ele>20.200000762939</ele>
        <time>2021-01-07T11:10:58.000Z</time>
      </trkpt>
      <trkpt lat="47.2795" lon="-2.35583">
        <ele>20.200000762939</ele>
        <time>2021-01-07T11:10:59.000Z</time>
      </trkpt>
      <trkpt lat="47.27932" lon="-2.35587">
        <ele>20.200000762939</ele>
        <time>2021-01-07T11:11:02.000Z</time>
      </trkpt>
      <trkpt lat="47.27914" lon="-2.35592">
        <ele>20.200000762939</ele>
        <time>2021-01-07T11:11:05.000Z</time>
      </trkpt>
      <trkpt lat="47.27868" lon="-2.35604">
        <ele>20.200000762939</ele>
        <time>2021-01-07T11:11:12.000Z</time>
      </trkpt>
      <trkpt lat="47.27855" lon="-2.35608">
        <ele>19.60000038147</ele>
        <time>2021-01-07T11:11:14.000Z</time>
      </trkpt>
      <trkpt lat="47.27848" lon="-2.35609">
        <ele>19.200000762939</ele>
        <time>2021-01-07T11:11:15.000Z</time>
      </trkpt>
      <trkpt lat="47.2784" lon="-2.35611">
        <ele>18.799999237061</ele>
        <time>2021-01-07T11:11:16.000Z</time>
      </trkpt>
      <trkpt lat="47.27833" lon="-2.35613">
        <ele>18.200000762939</ele>
        <time>2021-01-07T11:11:17.000Z</time>
      </trkpt>
      <trkpt lat="47.27826" lon="-2.35615">
        <ele>17.799999237061</ele>
        <time>2021-01-07T11:11:18.000Z</time>
      </trkpt>
      <trkpt lat="47.27792" lon="-2.35624">
        <ele>17.799999237061</ele>
        <time>2021-01-07T11:11:23.000Z</time>
      </trkpt>
      <trkpt lat="47.27785" lon="-2.35627">
        <ele>17.799999237061</ele>
        <time>2021-01-07T11:11:24.000Z</time>
      </trkpt>
      <trkpt lat="47.27765" lon="-2.35642">
        <ele>17</ele>
        <time>2021-01-07T11:11:27.000Z</time>
      </trkpt>
      <trkpt lat="47.2776" lon="-2.35648">
        <ele>16.60000038147</ele>
        <time>2021-01-07T11:11:28.000Z</time>
      </trkpt>
      <trkpt lat="47.27755" lon="-2.35654">
        <ele>16.200000762939</ele>
        <time>2021-01-07T11:11:29.000Z</time>
      </trkpt>
      <trkpt lat="47.2775" lon="-2.35661">
        <ele>15.800000190735</ele>
        <time>2021-01-07T11:11:30.000Z</time>
      </trkpt>
      <trkpt lat="47.27731" lon="-2.35693">
        <ele>15.800000190735</ele>
        <time>2021-01-07T11:11:34.000Z</time>
      </trkpt>
      <trkpt lat="47.27702" lon="-2.35725">
        <ele>15.39999961853</ele>
        <time>2021-01-07T11:11:39.000Z</time>
      </trkpt>
      <trkpt lat="47.27696" lon="-2.3573">
        <ele>14.800000190735</ele>
        <time>2021-01-07T11:11:40.000Z</time>
      </trkpt>
      <trkpt lat="47.2769" lon="-2.35735">
        <ele>14.39999961853</ele>
        <time>2021-01-07T11:11:41.000Z</time>
      </trkpt>
      <trkpt lat="47.27685" lon="-2.35741">
        <ele>14</ele>
        <time>2021-01-07T11:11:42.000Z</time>
      </trkpt>
      <trkpt lat="47.2768" lon="-2.35746">
        <ele>13.39999961853</ele>
        <time>2021-01-07T11:11:43.000Z</time>
      </trkpt>
      <trkpt lat="47.27675" lon="-2.35746">
        <ele>13.39999961853</ele>
        <time>2021-01-07T11:11:44.000Z</time>
      </trkpt>
      <trkpt lat="47.27669" lon="-2.35743">
        <ele>13</ele>
        <time>2021-01-07T11:11:45.000Z</time>
      </trkpt>
      <trkpt lat="47.27663" lon="-2.35738">
        <ele>12.60000038147</ele>
        <time>2021-01-07T11:11:46.000Z</time>
      </trkpt>
      <trkpt lat="47.27658" lon="-2.35732">
        <ele>12.199999809265</ele>
        <time>2021-01-07T11:11:47.000Z</time>
      </trkpt>
      <trkpt lat="47.27654" lon="-2.35727">
        <ele>11.800000190735</ele>
        <time>2021-01-07T11:11:48.000Z</time>
      </trkpt>
      <trkpt lat="47.27649" lon="-2.35722">
        <ele>11.39999961853</ele>
        <time>2021-01-07T11:11:49.000Z</time>
      </trkpt>
      <trkpt lat="47.27643" lon="-2.3572">
        <ele>11.39999961853</ele>
        <time>2021-01-07T11:11:50.000Z</time>
      </trkpt>
      <trkpt lat="47.27636" lon="-2.35718">
        <ele>11.39999961853</ele>
        <time>2021-01-07T11:11:51.000Z</time>
      </trkpt>
      <trkpt lat="47.27579" lon="-2.35705">
        <ele>11.39999961853</ele>
        <time>2021-01-07T11:11:59.000Z</time>
      </trkpt>
      <trkpt lat="47.27537" lon="-2.35696">
        <ele>11.39999961853</ele>
        <time>2021-01-07T11:12:05.000Z</time>
      </trkpt>
      <trkpt lat="47.2753" lon="-2.35695">
        <ele>11.39999961853</ele>
        <time>2021-01-07T11:12:06.000Z</time>
      </trkpt>
      <trkpt lat="47.27523" lon="-2.35694">
        <ele>11</ele>
        <time>2021-01-07T11:12:07.000Z</time>
      </trkpt>
      <trkpt lat="47.27516" lon="-2.35692">
        <ele>10.60000038147</ele>
        <time>2021-01-07T11:12:08.000Z</time>
      </trkpt>
      <trkpt lat="47.27509" lon="-2.3569">
        <ele>10.199999809265</ele>
        <time>2021-01-07T11:12:09.000Z</time>
      </trkpt>
      <trkpt lat="47.27502" lon="-2.35688">
        <ele>9.8000001907349</ele>
        <time>2021-01-07T11:12:10.000Z</time>
      </trkpt>
      <trkpt lat="47.27494" lon="-2.35687">
        <ele>9.3999996185303</ele>
        <time>2021-01-07T11:12:11.000Z</time>
      </trkpt>
      <trkpt lat="47.27487" lon="-2.35685">
        <ele>9.3999996185303</ele>
        <time>2021-01-07T11:12:12.000Z</time>
      </trkpt>
      <trkpt lat="47.27445" lon="-2.35674">
        <ele>9.3999996185303</ele>
        <time>2021-01-07T11:12:18.000Z</time>
      </trkpt>
      <trkpt lat="47.27425" lon="-2.35669">
        <ele>9</ele>
        <time>2021-01-07T11:12:21.000Z</time>
      </trkpt>
      <trkpt lat="47.27419" lon="-2.35667">
        <ele>8.3999996185303</ele>
        <time>2021-01-07T11:12:22.000Z</time>
      </trkpt>
      <trkpt lat="47.27412" lon="-2.35668">
        <ele>8</ele>
        <time>2021-01-07T11:12:23.000Z</time>
      </trkpt>
      <trkpt lat="47.27405" lon="-2.35668">
        <ele>7.5999999046326</ele>
        <time>2021-01-07T11:12:24.000Z</time>
      </trkpt>
      <trkpt lat="47.27398" lon="-2.35671">
        <ele>7.1999998092651</ele>
        <time>2021-01-07T11:12:25.000Z</time>
      </trkpt>
      <trkpt lat="47.27385" lon="-2.35679">
        <ele>7.1999998092651</ele>
        <time>2021-01-07T11:12:27.000Z</time>
      </trkpt>
      <trkpt lat="47.27332" lon="-2.35719">
        <ele>6.8000001907349</ele>
        <time>2021-01-07T11:12:36.000Z</time>
      </trkpt>
      <trkpt lat="47.27327" lon="-2.35725">
        <ele>6.1999998092651</ele>
        <time>2021-01-07T11:12:37.000Z</time>
      </trkpt>
      <trkpt lat="47.27324" lon="-2.35731">
        <ele>5.8000001907349</ele>
        <time>2021-01-07T11:12:38.000Z</time>
      </trkpt>
      <trkpt lat="47.27321" lon="-2.35736">
        <ele>5.4000000953674</ele>
        <time>2021-01-07T11:12:39.000Z</time>
      </trkpt>
      <trkpt lat="47.27317" lon="-2.35741">
        <ele>5</ele>
        <time>2021-01-07T11:12:40.000Z</time>
      </trkpt>
      <trkpt lat="47.27308" lon="-2.35737">
        <ele>5</ele>
        <time>2021-01-07T11:12:42.000Z</time>
      </trkpt>
      <trkpt lat="47.273" lon="-2.35717">
        <ele>5</ele>
        <time>2021-01-07T11:12:45.000Z</time>
      </trkpt>
      <trkpt lat="47.27291" lon="-2.35698">
        <ele>5.4000000953674</ele>
        <time>2021-01-07T11:12:48.000Z</time>
      </trkpt>
      <trkpt lat="47.27287" lon="-2.35692">
        <ele>5.8000001907349</ele>
        <time>2021-01-07T11:12:49.000Z</time>
      </trkpt>
      <trkpt lat="47.27284" lon="-2.35685">
        <ele>6.1999998092651</ele>
        <time>2021-01-07T11:12:50.000Z</time>
      </trkpt>
      <trkpt lat="47.27281" lon="-2.35678">
        <ele>6.5999999046326</ele>
        <time>2021-01-07T11:12:51.000Z</time>
      </trkpt>
      <trkpt lat="47.27278" lon="-2.3567">
        <ele>7</ele>
        <time>2021-01-07T11:12:52.000Z</time>
      </trkpt>
      <trkpt lat="47.27259" lon="-2.35629">
        <ele>7</ele>
        <time>2021-01-07T11:12:58.000Z</time>
      </trkpt>
      <trkpt lat="47.27231" lon="-2.35566">
        <ele>7</ele>
        <time>2021-01-07T11:13:07.000Z</time>
      </trkpt>
      <trkpt lat="47.27203" lon="-2.35504">
        <ele>7</ele>
        <time>2021-01-07T11:13:16.000Z</time>
      </trkpt>
      <trkpt lat="47.27178" lon="-2.35456">
        <ele>7</ele>
        <time>2021-01-07T11:13:23.000Z</time>
      </trkpt>
      <trkpt lat="47.27167" lon="-2.35436">
        <ele>7.4000000953674</ele>
        <time>2021-01-07T11:13:26.000Z</time>
      </trkpt>
      <trkpt lat="47.27163" lon="-2.35429">
        <ele>7.8000001907349</ele>
        <time>2021-01-07T11:13:27.000Z</time>
      </trkpt>
      <trkpt lat="47.2716" lon="-2.35423">
        <ele>8.1999998092651</ele>
        <time>2021-01-07T11:13:28.000Z</time>
      </trkpt>
      <trkpt lat="47.27156" lon="-2.35416">
        <ele>8.6000003814697</ele>
        <time>2021-01-07T11:13:29.000Z</time>
      </trkpt>
      <trkpt lat="47.27153" lon="-2.3541">
        <ele>9</ele>
        <time>2021-01-07T11:13:30.000Z</time>
      </trkpt>
      <trkpt lat="47.27149" lon="-2.35403">
        <ele>9</ele>
        <time>2021-01-07T11:13:31.000Z</time>
      </trkpt>
      <trkpt lat="47.27111" lon="-2.35337">
        <ele>9</ele>
        <time>2021-01-07T11:13:41.000Z</time>
      </trkpt>
      <trkpt lat="47.27074" lon="-2.35278">
        <ele>9</ele>
        <time>2021-01-07T11:13:50.000Z</time>
      </trkpt>
      <trkpt lat="47.2704" lon="-2.35227">
        <ele>9</ele>
        <time>2021-01-07T11:13:58.000Z</time>
      </trkpt>
      <trkpt lat="47.27002" lon="-2.35169">
        <ele>9</ele>
        <time>2021-01-07T11:14:07.000Z</time>
      </trkpt>
      <trkpt lat="47.26973" lon="-2.35124">
        <ele>9</ele>
        <time>2021-01-07T11:14:14.000Z</time>
      </trkpt>
      <trkpt lat="47.26936" lon="-2.35067">
        <ele>9</ele>
        <time>2021-01-07T11:14:23.000Z</time>
      </trkpt>
      <trkpt lat="47.26899" lon="-2.35011">
        <ele>9</ele>
        <time>2021-01-07T11:14:32.000Z</time>
      </trkpt>
      <trkpt lat="47.26862" lon="-2.34954">
        <ele>9</ele>
        <time>2021-01-07T11:14:41.000Z</time>
      </trkpt>
      <trkpt lat="47.26828" lon="-2.34903">
        <ele>8.6000003814697</ele>
        <time>2021-01-07T11:14:49.000Z</time>
      </trkpt>
      <trkpt lat="47.26824" lon="-2.34897">
        <ele>8.1999998092651</ele>
        <time>2021-01-07T11:14:50.000Z</time>
      </trkpt>
      <trkpt lat="47.2682" lon="-2.34891">
        <ele>7.8000001907349</ele>
        <time>2021-01-07T11:14:51.000Z</time>
      </trkpt>
      <trkpt lat="47.26816" lon="-2.34885">
        <ele>7.4000000953674</ele>
        <time>2021-01-07T11:14:52.000Z</time>
      </trkpt>
      <trkpt lat="47.26812" lon="-2.34879">
        <ele>7</ele>
        <time>2021-01-07T11:14:53.000Z</time>
      </trkpt>
      <trkpt lat="47.26781" lon="-2.34835">
        <ele>7</ele>
        <time>2021-01-07T11:15:00.000Z</time>
      </trkpt>
      <trkpt lat="47.26758" lon="-2.34807">
        <ele>7</ele>
        <time>2021-01-07T11:15:05.000Z</time>
      </trkpt>
      <trkpt lat="47.26754" lon="-2.348">
        <ele>7</ele>
        <time>2021-01-07T11:15:06.000Z</time>
      </trkpt>
      <trkpt lat="47.26726" lon="-2.34765">
        <ele>7</ele>
        <time>2021-01-07T11:15:12.000Z</time>
      </trkpt>
      <trkpt lat="47.26692" lon="-2.34725">
        <ele>7</ele>
        <time>2021-01-07T11:15:19.000Z</time>
      </trkpt>
      <trkpt lat="47.26655" lon="-2.34677">
        <ele>7</ele>
        <time>2021-01-07T11:15:27.000Z</time>
      </trkpt>
      <trkpt lat="47.26623" lon="-2.34638">
        <ele>7</ele>
        <time>2021-01-07T11:15:34.000Z</time>
      </trkpt>
      <trkpt lat="47.26585" lon="-2.34593">
        <ele>7</ele>
        <time>2021-01-07T11:15:42.000Z</time>
      </trkpt>
      <trkpt lat="47.26541" lon="-2.34547">
        <ele>7</ele>
        <time>2021-01-07T11:15:51.000Z</time>
      </trkpt>
      <trkpt lat="47.26531" lon="-2.34537">
        <ele>7</ele>
        <time>2021-01-07T11:15:53.000Z</time>
      </trkpt>
      <trkpt lat="47.26489" lon="-2.34504">
        <ele>7</ele>
        <time>2021-01-07T11:16:01.000Z</time>
      </trkpt>
      <trkpt lat="47.2645" lon="-2.34476">
        <ele>7</ele>
        <time>2021-01-07T11:16:08.000Z</time>
      </trkpt>
      <trkpt lat="47.26402" lon="-2.34439">
        <ele>7</ele>
        <time>2021-01-07T11:16:17.000Z</time>
      </trkpt>
      <trkpt lat="47.26362" lon="-2.34404">
        <ele>7</ele>
        <time>2021-01-07T11:16:25.000Z</time>
      </trkpt>
      <trkpt lat="47.26337" lon="-2.34384">
        <ele>7</ele>
        <time>2021-01-07T11:16:30.000Z</time>
      </trkpt>
      <trkpt lat="47.26332" lon="-2.34383">
        <ele>7</ele>
        <time>2021-01-07T11:16:31.000Z</time>
      </trkpt>
      <trkpt lat="47.26314" lon="-2.34367">
        <ele>7</ele>
        <time>2021-01-07T11:16:35.000Z</time>
      </trkpt>
      <trkpt lat="47.26298" lon="-2.34345">
        <ele>7</ele>
        <time>2021-01-07T11:16:39.000Z</time>
      </trkpt>
      <trkpt lat="47.2626" lon="-2.34305">
        <ele>7</ele>
        <time>2021-01-07T11:16:47.000Z</time>
      </trkpt>
      <trkpt lat="47.26221" lon="-2.34264">
        <ele>7</ele>
        <time>2021-01-07T11:16:55.000Z</time>
      </trkpt>
      <trkpt lat="47.26182" lon="-2.34223">
        <ele>7</ele>
        <time>2021-01-07T11:17:03.000Z</time>
      </trkpt>
      <trkpt lat="47.2615" lon="-2.34193">
        <ele>7</ele>
        <time>2021-01-07T11:17:10.000Z</time>
      </trkpt>
      <trkpt lat="47.26141" lon="-2.34187">
        <ele>7</ele>
        <time>2021-01-07T11:17:12.000Z</time>
      </trkpt>
      <trkpt lat="47.2613" lon="-2.34182">
        <ele>7</ele>
        <time>2021-01-07T11:17:14.000Z</time>
      </trkpt>
      <trkpt lat="47.26121" lon="-2.34171">
        <ele>7</ele>
        <time>2021-01-07T11:17:16.000Z</time>
      </trkpt>
      <trkpt lat="47.26105" lon="-2.3416">
        <ele>7</ele>
        <time>2021-01-07T11:17:19.000Z</time>
      </trkpt>
      <trkpt lat="47.261" lon="-2.34157">
        <ele>7</ele>
        <time>2021-01-07T11:17:20.000Z</time>
      </trkpt>
      <trkpt lat="47.26065" lon="-2.3414">
        <ele>7</ele>
        <time>2021-01-07T11:17:26.000Z</time>
      </trkpt>
      <trkpt lat="47.26019" lon="-2.34116">
        <ele>6.5999999046326</ele>
        <time>2021-01-07T11:17:34.000Z</time>
      </trkpt>
      <trkpt lat="47.26014" lon="-2.34113">
        <ele>6.1999998092651</ele>
        <time>2021-01-07T11:17:35.000Z</time>
      </trkpt>
      <trkpt lat="47.26008" lon="-2.34111">
        <ele>5.8000001907349</ele>
        <time>2021-01-07T11:17:36.000Z</time>
      </trkpt>
      <trkpt lat="47.26002" lon="-2.34108">
        <ele>5.4000000953674</ele>
        <time>2021-01-07T11:17:37.000Z</time>
      </trkpt>
      <trkpt lat="47.25996" lon="-2.34105">
        <ele>5</ele>
        <time>2021-01-07T11:17:38.000Z</time>
      </trkpt>
      <trkpt lat="47.25958" lon="-2.34088">
        <ele>5</ele>
        <time>2021-01-07T11:17:45.000Z</time>
      </trkpt>
      <trkpt lat="47.25922" lon="-2.34075">
        <ele>5</ele>
        <time>2021-01-07T11:17:52.000Z</time>
      </trkpt>
      <trkpt lat="47.25909" lon="-2.34072">
        <ele>5</ele>
        <time>2021-01-07T11:17:55.000Z</time>
      </trkpt>
      <trkpt lat="47.25901" lon="-2.34065">
        <ele>5</ele>
        <time>2021-01-07T11:17:57.000Z</time>
      </trkpt>
      <trkpt lat="47.25897" lon="-2.34043">
        <ele>5</ele>
        <time>2021-01-07T11:18:00.000Z</time>
      </trkpt>
      <trkpt lat="47.25897" lon="-2.34036">
        <ele>5</ele>
        <time>2021-01-07T11:18:01.000Z</time>
      </trkpt>
      <trkpt lat="47.259" lon="-2.3403">
        <ele>5</ele>
        <time>2021-01-07T11:18:02.000Z</time>
      </trkpt>
      <trkpt lat="47.25905" lon="-2.34019">
        <ele>5</ele>
        <time>2021-01-07T11:18:04.000Z</time>
      </trkpt>
      <trkpt lat="47.25909" lon="-2.34003">
        <ele>5</ele>
        <time>2021-01-07T11:18:06.000Z</time>
      </trkpt>
      <trkpt lat="47.25912" lon="-2.33988">
        <ele>5</ele>
        <time>2021-01-07T11:18:08.000Z</time>
      </trkpt>
      <trkpt lat="47.25925" lon="-2.33953">
        <ele>5</ele>
        <time>2021-01-07T11:18:13.000Z</time>
      </trkpt>
      <trkpt lat="47.25929" lon="-2.33947">
        <ele>5</ele>
        <time>2021-01-07T11:18:14.000Z</time>
      </trkpt>
      <trkpt lat="47.2594" lon="-2.33929">
        <ele>4.5999999046326</ele>
        <time>2021-01-07T11:18:17.000Z</time>
      </trkpt>
      <trkpt lat="47.25943" lon="-2.33924">
        <ele>4.1999998092651</ele>
        <time>2021-01-07T11:18:18.000Z</time>
      </trkpt>
      <trkpt lat="47.25946" lon="-2.33917">
        <ele>3.7999999523163</ele>
        <time>2021-01-07T11:18:19.000Z</time>
      </trkpt>
      <trkpt lat="47.25948" lon="-2.33909">
        <ele>3.4000000953674</ele>
        <time>2021-01-07T11:18:20.000Z</time>
      </trkpt>
      <trkpt lat="47.25949" lon="-2.33902">
        <ele>3</ele>
        <time>2021-01-07T11:18:21.000Z</time>
      </trkpt>
      <trkpt lat="47.25958" lon="-2.33882">
        <ele>3</ele>
        <time>2021-01-07T11:18:25.000Z</time>
      </trkpt>
      <trkpt lat="47.2596" lon="-2.33877">
        <ele>3</ele>
        <time>2021-01-07T11:18:27.000Z</time>
      </trkpt>
      <trkpt lat="47.25962" lon="-2.33868">
        <ele>3</ele>
        <time>2021-01-07T11:18:29.000Z</time>
      </trkpt>
      <trkpt lat="47.25969" lon="-2.33839">
        <ele>3</ele>
        <time>2021-01-07T11:18:35.000Z</time>
      </trkpt>
      <trkpt lat="47.25972" lon="-2.33833">
        <ele>3</ele>
        <time>2021-01-07T11:18:36.000Z</time>
      </trkpt>
      <trkpt lat="47.25978" lon="-2.33816">
        <ele>3</ele>
        <time>2021-01-07T11:18:39.000Z</time>
      </trkpt>
      <trkpt lat="47.25993" lon="-2.33769">
        <ele>3</ele>
        <time>2021-01-07T11:18:46.000Z</time>
      </trkpt>
      <trkpt lat="47.26016" lon="-2.33701">
        <ele>3</ele>
        <time>2021-01-07T11:18:55.000Z</time>
      </trkpt>
      <trkpt lat="47.26028" lon="-2.33667">
        <ele>3</ele>
        <time>2021-01-07T11:19:00.000Z</time>
      </trkpt>
      <trkpt lat="47.26039" lon="-2.33667">
        <ele>3</ele>
        <time>2021-01-07T11:19:03.000Z</time>
      </trkpt>
      <trkpt lat="47.26057" lon="-2.33663">
        <ele>3</ele>
        <time>2021-01-07T11:19:08.000Z</time>
      </trkpt>
      <trkpt lat="47.26059" lon="-2.33658">
        <ele>3</ele>
        <time>2021-01-07T11:19:09.000Z</time>
      </trkpt>
      <trkpt lat="47.26072" lon="-2.33615">
        <ele>3</ele>
        <time>2021-01-07T11:19:16.000Z</time>
      </trkpt>
      <trkpt lat="47.26096" lon="-2.33545">
        <ele>3</ele>
        <time>2021-01-07T11:19:26.000Z</time>
      </trkpt>
      <trkpt lat="47.26118" lon="-2.33484">
        <ele>3</ele>
        <time>2021-01-07T11:19:35.000Z</time>
      </trkpt>
      <trkpt lat="47.26133" lon="-2.33442">
        <ele>3</ele>
        <time>2021-01-07T11:19:42.000Z</time>
      </trkpt>
      <trkpt lat="47.26138" lon="-2.33431">
        <ele>3</ele>
        <time>2021-01-07T11:19:44.000Z</time>
      </trkpt>
      <trkpt lat="47.26138" lon="-2.33419">
        <ele>3</ele>
        <time>2021-01-07T11:19:46.000Z</time>
      </trkpt>
      <trkpt lat="47.26135" lon="-2.33415">
        <ele>3</ele>
        <time>2021-01-07T11:19:47.000Z</time>
      </trkpt>
      <trkpt lat="47.2612" lon="-2.33408">
        <ele>3</ele>
        <time>2021-01-07T11:19:51.000Z</time>
      </trkpt>
      <trkpt lat="47.26116" lon="-2.33405">
        <ele>3</ele>
        <time>2021-01-07T11:19:52.000Z</time>
      </trkpt>
      <trkpt lat="47.26108" lon="-2.33394">
        <ele>3</ele>
        <time>2021-01-07T11:19:54.000Z</time>
      </trkpt>
      <trkpt lat="47.26099" lon="-2.33383">
        <ele>3</ele>
        <time>2021-01-07T11:19:56.000Z</time>
      </trkpt>
      <trkpt lat="47.26087" lon="-2.33366">
        <ele>3.4000000953674</ele>
        <time>2021-01-07T11:19:59.000Z</time>
      </trkpt>
      <trkpt lat="47.26082" lon="-2.33359">
        <ele>3.7999999523163</ele>
        <time>2021-01-07T11:20:00.000Z</time>
      </trkpt>
      <trkpt lat="47.26078" lon="-2.33352">
        <ele>4.1999998092651</ele>
        <time>2021-01-07T11:20:01.000Z</time>
      </trkpt>
      <trkpt lat="47.26075" lon="-2.33345">
        <ele>4.8000001907349</ele>
        <time>2021-01-07T11:20:02.000Z</time>
      </trkpt>
      <trkpt lat="47.26072" lon="-2.33337">
        <ele>5.1999998092651</ele>
        <time>2021-01-07T11:20:03.000Z</time>
      </trkpt>
      <trkpt lat="47.26048" lon="-2.33272">
        <ele>5.1999998092651</ele>
        <time>2021-01-07T11:20:11.000Z</time>
      </trkpt>
      <trkpt lat="47.26025" lon="-2.33207">
        <ele>5.1999998092651</ele>
        <time>2021-01-07T11:20:19.000Z</time>
      </trkpt>
      <trkpt lat="47.26014" lon="-2.33176">
        <ele>5.1999998092651</ele>
        <time>2021-01-07T11:20:23.000Z</time>
      </trkpt>
      <trkpt lat="47.26006" lon="-2.33154">
        <ele>5.1999998092651</ele>
        <time>2021-01-07T11:20:26.000Z</time>
      </trkpt>
      <trkpt lat="47.25986" lon="-2.33096">
        <ele>5.1999998092651</ele>
        <time>2021-01-07T11:20:34.000Z</time>
      </trkpt>
      <trkpt lat="47.25969" lon="-2.3305">
        <ele>5.1999998092651</ele>
        <time>2021-01-07T11:20:40.000Z</time>
      </trkpt>
      <trkpt lat="47.25951" lon="-2.32998">
        <ele>5.1999998092651</ele>
        <time>2021-01-07T11:20:47.000Z</time>
      </trkpt>
      <trkpt lat="47.2593" lon="-2.32937">
        <ele>5.1999998092651</ele>
        <time>2021-01-07T11:20:55.000Z</time>
      </trkpt>
      <trkpt lat="47.25909" lon="-2.32876">
        <ele>5.1999998092651</ele>
        <time>2021-01-07T11:21:03.000Z</time>
      </trkpt>
      <trkpt lat="47.2589" lon="-2.32822">
        <ele>5.1999998092651</ele>
        <time>2021-01-07T11:21:10.000Z</time>
      </trkpt>
      <trkpt lat="47.2587" lon="-2.32757">
        <ele>5.1999998092651</ele>
        <time>2021-01-07T11:21:18.000Z</time>
      </trkpt>
      <trkpt lat="47.25856" lon="-2.3271">
        <ele>5.1999998092651</ele>
        <time>2021-01-07T11:21:24.000Z</time>
      </trkpt>
      <trkpt lat="47.2584" lon="-2.32653">
        <ele>5.1999998092651</ele>
        <time>2021-01-07T11:21:31.000Z</time>
      </trkpt>
      <trkpt lat="47.25827" lon="-2.32603">
        <ele>5.1999998092651</ele>
        <time>2021-01-07T11:21:37.000Z</time>
      </trkpt>
      <trkpt lat="47.25807" lon="-2.32523">
        <ele>5.1999998092651</ele>
        <time>2021-01-07T11:21:47.000Z</time>
      </trkpt>
      <trkpt lat="47.25805" lon="-2.32515">
        <ele>5.1999998092651</ele>
        <time>2021-01-07T11:21:48.000Z</time>
      </trkpt>
      <trkpt lat="47.25799" lon="-2.32489">
        <ele>5.1999998092651</ele>
        <time>2021-01-07T11:21:52.000Z</time>
      </trkpt>
      <trkpt lat="47.25802" lon="-2.32467">
        <ele>4.8000001907349</ele>
        <time>2021-01-07T11:21:56.000Z</time>
      </trkpt>
      <trkpt lat="47.25804" lon="-2.32463">
        <ele>4.4000000953674</ele>
        <time>2021-01-07T11:21:57.000Z</time>
      </trkpt>
      <trkpt lat="47.25807" lon="-2.32459">
        <ele>3.7999999523163</ele>
        <time>2021-01-07T11:21:58.000Z</time>
      </trkpt>
      <trkpt lat="47.25811" lon="-2.32457">
        <ele>3.4000000953674</ele>
        <time>2021-01-07T11:21:59.000Z</time>
      </trkpt>
      <trkpt lat="47.25815" lon="-2.32458">
        <ele>3</ele>
        <time>2021-01-07T11:22:00.000Z</time>
      </trkpt>
      <trkpt lat="47.25833" lon="-2.32468">
        <ele>3</ele>
        <time>2021-01-07T11:22:04.000Z</time>
      </trkpt>
      <trkpt lat="47.25838" lon="-2.3247">
        <ele>3</ele>
        <time>2021-01-07T11:22:05.000Z</time>
      </trkpt>
      <trkpt lat="47.25864" lon="-2.32473">
        <ele>3</ele>
        <time>2021-01-07T11:22:10.000Z</time>
      </trkpt>
      <trkpt lat="47.2589" lon="-2.32468">
        <ele>3</ele>
        <time>2021-01-07T11:22:15.000Z</time>
      </trkpt>
      <trkpt lat="47.25895" lon="-2.32465">
        <ele>3</ele>
        <time>2021-01-07T11:22:16.000Z</time>
      </trkpt>
      <trkpt lat="47.25913" lon="-2.32446">
        <ele>3</ele>
        <time>2021-01-07T11:22:20.000Z</time>
      </trkpt>
      <trkpt lat="47.25917" lon="-2.3244">
        <ele>3</ele>
        <time>2021-01-07T11:22:21.000Z</time>
      </trkpt>
      <trkpt lat="47.25941" lon="-2.32408">
        <ele>3</ele>
        <time>2021-01-07T11:22:27.000Z</time>
      </trkpt>
      <trkpt lat="47.25969" lon="-2.32372">
        <ele>3</ele>
        <time>2021-01-07T11:22:34.000Z</time>
      </trkpt>
      <trkpt lat="47.25991" lon="-2.32344">
        <ele>3</ele>
        <time>2021-01-07T11:22:40.000Z</time>
      </trkpt>
      <trkpt lat="47.26016" lon="-2.3231">
        <ele>3</ele>
        <time>2021-01-07T11:22:47.000Z</time>
      </trkpt>
      <trkpt lat="47.26047" lon="-2.32273">
        <ele>3</ele>
        <time>2021-01-07T11:22:55.000Z</time>
      </trkpt>
      <trkpt lat="47.26071" lon="-2.32244">
        <ele>3</ele>
        <time>2021-01-07T11:23:01.000Z</time>
      </trkpt>
      <trkpt lat="47.26096" lon="-2.32208">
        <ele>3</ele>
        <time>2021-01-07T11:23:08.000Z</time>
      </trkpt>
      <trkpt lat="47.26116" lon="-2.32164">
        <ele>3</ele>
        <time>2021-01-07T11:23:15.000Z</time>
      </trkpt>
      <trkpt lat="47.26129" lon="-2.32123">
        <ele>3</ele>
        <time>2021-01-07T11:23:21.000Z</time>
      </trkpt>
      <trkpt lat="47.26146" lon="-2.32067">
        <ele>3</ele>
        <time>2021-01-07T11:23:29.000Z</time>
      </trkpt>
      <trkpt lat="47.26149" lon="-2.32061">
        <ele>3</ele>
        <time>2021-01-07T11:23:30.000Z</time>
      </trkpt>
      <trkpt lat="47.26158" lon="-2.32035">
        <ele>3</ele>
        <time>2021-01-07T11:23:34.000Z</time>
      </trkpt>
      <trkpt lat="47.26161" lon="-2.3203">
        <ele>3</ele>
        <time>2021-01-07T11:23:35.000Z</time>
      </trkpt>
      <trkpt lat="47.26173" lon="-2.3202">
        <ele>3</ele>
        <time>2021-01-07T11:23:39.000Z</time>
      </trkpt>
      <trkpt lat="47.26184" lon="-2.32021">
        <ele>3</ele>
        <time>2021-01-07T11:23:42.000Z</time>
      </trkpt>
      <trkpt lat="47.26189" lon="-2.32023">
        <ele>3</ele>
        <time>2021-01-07T11:23:44.000Z</time>
      </trkpt>
      <trkpt lat="47.26195" lon="-2.32022">
        <ele>2.5999999046326</ele>
        <time>2021-01-07T11:23:47.000Z</time>
      </trkpt>
      <trkpt lat="47.26196" lon="-2.32021">
        <ele>2.2000000476837</ele>
        <time>2021-01-07T11:23:48.000Z</time>
      </trkpt>
      <trkpt lat="47.26197" lon="-2.32019">
        <ele>1.7999999523163</ele>
        <time>2021-01-07T11:23:49.000Z</time>
      </trkpt>
      <trkpt lat="47.26197" lon="-2.32017">
        <ele>1.3999999761581</ele>
        <time>2021-01-07T11:23:50.000Z</time>
      </trkpt>
      <trkpt lat="47.26197" lon="-2.32014">
        <ele>1</ele>
        <time>2021-01-07T11:23:51.000Z</time>
      </trkpt>
      <trkpt lat="47.26197" lon="-2.32011">
        <ele>1</ele>
        <time>2021-01-07T11:23:52.000Z</time>
      </trkpt>
      <trkpt lat="47.26199" lon="-2.32006">
        <ele>1</ele>
        <time>2021-01-07T11:23:54.000Z</time>
      </trkpt>
      <trkpt lat="47.26202" lon="-2.32003">
        <ele>1</ele>
        <time>2021-01-07T11:23:56.000Z</time>
      </trkpt>
      <trkpt lat="47.2621" lon="-2.31993">
        <ele>1</ele>
        <time>2021-01-07T11:24:02.000Z</time>
      </trkpt>
      <trkpt lat="47.26218" lon="-2.31983">
        <ele>1</ele>
        <time>2021-01-07T11:24:06.000Z</time>
      </trkpt>
      <trkpt lat="47.2622" lon="-2.31981">
        <ele>1</ele>
        <time>2021-01-07T11:24:07.000Z</time>
      </trkpt>
      <trkpt lat="47.26232" lon="-2.31976">
        <ele>1</ele>
        <time>2021-01-07T11:24:12.000Z</time>
      </trkpt>
      <trkpt lat="47.26235" lon="-2.31971">
        <ele>1</ele>
        <time>2021-01-07T11:24:14.000Z</time>
      </trkpt>
      <trkpt lat="47.26242" lon="-2.31956">
        <ele>1</ele>
        <time>2021-01-07T11:24:18.000Z</time>
      </trkpt>
      <trkpt lat="47.26246" lon="-2.31947">
        <ele>1</ele>
        <time>2021-01-07T11:24:21.000Z</time>
      </trkpt>
      <trkpt lat="47.26249" lon="-2.31944">
        <ele>1</ele>
        <time>2021-01-07T11:24:23.000Z</time>
      </trkpt>
      <trkpt lat="47.26257" lon="-2.31931">
        <ele>1</ele>
        <time>2021-01-07T11:24:28.000Z</time>
      </trkpt>
      <trkpt lat="47.26259" lon="-2.31928">
        <ele>1</ele>
        <time>2021-01-07T11:24:29.000Z</time>
      </trkpt>
      <trkpt lat="47.2628" lon="-2.31904">
        <ele>1</ele>
        <time>2021-01-07T11:24:35.000Z</time>
      </trkpt>
      <trkpt lat="47.26295" lon="-2.3189">
        <ele>1</ele>
        <time>2021-01-07T11:24:40.000Z</time>
      </trkpt>
      <trkpt lat="47.26298" lon="-2.31873">
        <ele>1</ele>
        <time>2021-01-07T11:24:44.000Z</time>
      </trkpt>
      <trkpt lat="47.26297" lon="-2.31844">
        <ele>1</ele>
        <time>2021-01-07T11:24:50.000Z</time>
      </trkpt>
      <trkpt lat="47.26302" lon="-2.31809">
        <ele>1</ele>
        <time>2021-01-07T11:24:56.000Z</time>
      </trkpt>
      <trkpt lat="47.26303" lon="-2.31767">
        <ele>1</ele>
        <time>2021-01-07T11:25:03.000Z</time>
      </trkpt>
      <trkpt lat="47.26299" lon="-2.31745">
        <ele>1</ele>
        <time>2021-01-07T11:25:07.000Z</time>
      </trkpt>
      <trkpt lat="47.26301" lon="-2.31722">
        <ele>1</ele>
        <time>2021-01-07T11:25:11.000Z</time>
      </trkpt>
      <trkpt lat="47.26304" lon="-2.31717">
        <ele>1</ele>
        <time>2021-01-07T11:25:12.000Z</time>
      </trkpt>
      <trkpt lat="47.26316" lon="-2.3171">
        <ele>1.3999999761581</ele>
        <time>2021-01-07T11:25:16.000Z</time>
      </trkpt>
      <trkpt lat="47.2632" lon="-2.31709">
        <ele>1.7999999523163</ele>
        <time>2021-01-07T11:25:17.000Z</time>
      </trkpt>
      <trkpt lat="47.26323" lon="-2.31707">
        <ele>2.2000000476837</ele>
        <time>2021-01-07T11:25:18.000Z</time>
      </trkpt>
      <trkpt lat="47.26326" lon="-2.31705">
        <ele>2.7999999523163</ele>
        <time>2021-01-07T11:25:19.000Z</time>
      </trkpt>
      <trkpt lat="47.26329" lon="-2.31702">
        <ele>3.2000000476837</ele>
        <time>2021-01-07T11:25:20.000Z</time>
      </trkpt>
      <trkpt lat="47.2633" lon="-2.31698">
        <ele>3.2000000476837</ele>
        <time>2021-01-07T11:25:21.000Z</time>
      </trkpt>
      <trkpt lat="47.26339" lon="-2.31687">
        <ele>3.2000000476837</ele>
        <time>2021-01-07T11:25:25.000Z</time>
      </trkpt>
      <trkpt lat="47.26351" lon="-2.3168">
        <ele>3.5999999046326</ele>
        <time>2021-01-07T11:25:29.000Z</time>
      </trkpt>
      <trkpt lat="47.26354" lon="-2.31679">
        <ele>4</ele>
        <time>2021-01-07T11:25:30.000Z</time>
      </trkpt>
      <trkpt lat="47.26357" lon="-2.31677">
        <ele>4.4000000953674</ele>
        <time>2021-01-07T11:25:31.000Z</time>
      </trkpt>
      <trkpt lat="47.2636" lon="-2.31676">
        <ele>4.8000001907349</ele>
        <time>2021-01-07T11:25:32.000Z</time>
      </trkpt>
      <trkpt lat="47.26363" lon="-2.31674">
        <ele>5.1999998092651</ele>
        <time>2021-01-07T11:25:33.000Z</time>
      </trkpt>
      <trkpt lat="47.26378" lon="-2.31668">
        <ele>5.1999998092651</ele>
        <time>2021-01-07T11:25:38.000Z</time>
      </trkpt>
      <trkpt lat="47.26393" lon="-2.31659">
        <ele>5.1999998092651</ele>
        <time>2021-01-07T11:25:43.000Z</time>
      </trkpt>
      <trkpt lat="47.26408" lon="-2.31651">
        <ele>5.1999998092651</ele>
        <time>2021-01-07T11:25:48.000Z</time>
      </trkpt>
      <trkpt lat="47.2641" lon="-2.31646">
        <ele>5.1999998092651</ele>
        <time>2021-01-07T11:25:49.000Z</time>
      </trkpt>
      <trkpt lat="47.2641" lon="-2.31637">
        <ele>5.5999999046326</ele>
        <time>2021-01-07T11:25:51.000Z</time>
      </trkpt>
      <trkpt lat="47.2641" lon="-2.31632">
        <ele>6</ele>
        <time>2021-01-07T11:25:52.000Z</time>
      </trkpt>
      <trkpt lat="47.26409" lon="-2.31627">
        <ele>6.4000000953674</ele>
        <time>2021-01-07T11:25:53.000Z</time>
      </trkpt>
      <trkpt lat="47.26409" lon="-2.31622">
        <ele>6.8000001907349</ele>
        <time>2021-01-07T11:25:54.000Z</time>
      </trkpt>
      <trkpt lat="47.26409" lon="-2.31617">
        <ele>7.1999998092651</ele>
        <time>2021-01-07T11:25:55.000Z</time>
      </trkpt>
      <trkpt lat="47.2641" lon="-2.31587">
        <ele>7.1999998092651</ele>
        <time>2021-01-07T11:26:01.000Z</time>
      </trkpt>
      <trkpt lat="47.26411" lon="-2.31561">
        <ele>7.1999998092651</ele>
        <time>2021-01-07T11:26:07.000Z</time>
      </trkpt>
      <trkpt lat="47.26412" lon="-2.31554">
        <ele>7.1999998092651</ele>
        <time>2021-01-07T11:26:09.000Z</time>
      </trkpt>
      <trkpt lat="47.26416" lon="-2.31552">
        <ele>7.1999998092651</ele>
        <time>2021-01-07T11:26:11.000Z</time>
      </trkpt>
      <trkpt lat="47.26418" lon="-2.31552">
        <ele>7.1999998092651</ele>
        <time>2021-01-07T11:26:14.000Z</time>
      </trkpt>
    </trkseg>
  </trk>
</gpx>